<?xml version='1.0' encoding='UTF-8'?><gpx version="1.1" creator="JPX - https://github.com/jenetics/jpx" xmlns="http://www.topografix.com/GPX/1/1"><trk><trkseg><trkpt lat="45.48495280706869" lon="8.70491314998423"><ele>155.0</ele><time>2026-04-17T12:26:57.002Z</time></trkpt><trkpt lat="45.484869748676815" lon="8.704810050151472"><ele>155.0</ele><time>2026-04-17T12:26:59.002Z</time></trkpt><trkpt lat="45.48482963308907" lon="8.704718004574682"><ele>155.0</ele><time>2026-04-17T12:27:00.002Z</time></trkpt><trkpt lat="45.48477773019693" lon="8.704627099112452"><ele>155.0</ele><time>2026-04-17T12:27:01.002Z</time></trkpt><trkpt lat="45.48473228605539" lon="8.704545648684618"><ele>155.0</ele><time>2026-04-17T12:27:02.002Z</time></trkpt><trkpt lat="45.48466629387765" lon="8.704464101879578"><ele>155.0</ele><time>2026-04-17T12:27:03.002Z</time></trkpt><trkpt lat="45.48459503377682" lon="8.704375149154318"><ele>154.6</ele><time>2026-04-17T12:27:04.002Z</time></trkpt><trkpt lat="45.4845181828006" lon="8.704266412758578"><ele>154.2</ele><time>2026-04-17T12:27:05.002Z</time></trkpt><trkpt lat="45.48444576806288" lon="8.704171673326389"><ele>153.8</ele><time>2026-04-17T12:27:06.002Z</time></trkpt><trkpt lat="45.48437151544738" lon="8.704066259172096"><ele>153.4</ele><time>2026-04-17T12:27:07.002Z</time></trkpt><trkpt lat="45.484296215361795" lon="8.703959522861473"><ele>153.0</ele><time>2026-04-17T12:27:08.002Z</time></trkpt><trkpt lat="45.484225190621586" lon="8.70384419857769"><ele>153.0</ele><time>2026-04-17T12:27:09.002Z</time></trkpt><trkpt lat="45.48414725973679" lon="8.703727715758907"><ele>153.0</ele><time>2026-04-17T12:27:10.002Z</time></trkpt><trkpt lat="45.484074331682244" lon="8.703613396042012"><ele>153.0</ele><time>2026-04-17T12:27:11.002Z</time></trkpt><trkpt lat="45.483995881848216" lon="8.703494892982674"><ele>153.0</ele><time>2026-04-17T12:27:12.002Z</time></trkpt><trkpt lat="45.48391479956496" lon="8.70337244765732"><ele>153.0</ele><time>2026-04-17T12:27:13.002Z</time></trkpt><trkpt lat="45.48383306613095" lon="8.703253537926756"><ele>153.0</ele><time>2026-04-17T12:27:14.002Z</time></trkpt><trkpt lat="45.48373801125673" lon="8.703116212828181"><ele>153.0</ele><time>2026-04-17T12:27:15.002Z</time></trkpt><trkpt lat="45.483651404742275" lon="8.702994013222675"><ele>153.0</ele><time>2026-04-17T12:27:16.002Z</time></trkpt><trkpt lat="45.48356180355595" lon="8.702866606757082"><ele>153.25</ele><time>2026-04-17T12:27:17.002Z</time></trkpt><trkpt lat="45.48347356436475" lon="8.702739007168592"><ele>153.5</ele><time>2026-04-17T12:27:18.002Z</time></trkpt><trkpt lat="45.48338898722024" lon="8.702614606920221"><ele>153.75</ele><time>2026-04-17T12:27:19.002Z</time></trkpt><trkpt lat="45.483299771391245" lon="8.702493936200927"><ele>154.0</ele><time>2026-04-17T12:27:20.002Z</time></trkpt><trkpt lat="45.48320788452963" lon="8.702365988878823"><ele>154.0</ele><time>2026-04-17T12:27:21.002Z</time></trkpt><trkpt lat="45.48311595422371" lon="8.702241873022126"><ele>154.0</ele><time>2026-04-17T12:27:22.002Z</time></trkpt><trkpt lat="45.48302345277957" lon="8.702116884333789"><ele>154.0</ele><time>2026-04-17T12:27:23.002Z</time></trkpt><trkpt lat="45.48293355327415" lon="8.701989813192245"><ele>154.0</ele><time>2026-04-17T12:27:24.002Z</time></trkpt><trkpt lat="45.48284914998109" lon="8.70186501736666"><ele>154.25</ele><time>2026-04-17T12:27:25.002Z</time></trkpt><trkpt lat="45.48276981827371" lon="8.70175517308508"><ele>154.5</ele><time>2026-04-17T12:27:26.002Z</time></trkpt><trkpt lat="45.48268547477655" lon="8.701638054038897"><ele>154.75</ele><time>2026-04-17T12:27:27.002Z</time></trkpt><trkpt lat="45.482602700228156" lon="8.701510515175963"><ele>155.0</ele><time>2026-04-17T12:27:28.002Z</time></trkpt><trkpt lat="45.48251389490558" lon="8.701385229989512"><ele>155.0</ele><time>2026-04-17T12:27:29.002Z</time></trkpt><trkpt lat="45.48242422358434" lon="8.701254630861392"><ele>155.0</ele><time>2026-04-17T12:27:30.002Z</time></trkpt><trkpt lat="45.4823291101029" lon="8.701123111535027"><ele>155.0</ele><time>2026-04-17T12:27:31.002Z</time></trkpt><trkpt lat="45.48223720267302" lon="8.700985047623355"><ele>155.0</ele><time>2026-04-17T12:27:32.002Z</time></trkpt><trkpt lat="45.48213779449528" lon="8.700848497567252"><ele>154.5</ele><time>2026-04-17T12:27:33.002Z</time></trkpt><trkpt lat="45.48204153580563" lon="8.700710700124633"><ele>154.0</ele><time>2026-04-17T12:27:34.002Z</time></trkpt><trkpt lat="45.481946052886094" lon="8.70057493839407"><ele>153.5</ele><time>2026-04-17T12:27:35.002Z</time></trkpt><trkpt lat="45.481854060793104" lon="8.700441560641597"><ele>153.0</ele><time>2026-04-17T12:27:36.002Z</time></trkpt><trkpt lat="45.481768654879886" lon="8.700315009316355"><ele>152.8</ele><time>2026-04-17T12:27:37.002Z</time></trkpt><trkpt lat="45.48169045980963" lon="8.700199404375471"><ele>152.60000000000002</ele><time>2026-04-17T12:27:38.003Z</time></trkpt><trkpt lat="45.48162104906776" lon="8.700109257449151"><ele>152.39999999999998</ele><time>2026-04-17T12:27:39.003Z</time></trkpt><trkpt lat="45.48156158836244" lon="8.70003178575317"><ele>152.2</ele><time>2026-04-17T12:27:40.003Z</time></trkpt><trkpt lat="45.481515739393146" lon="8.699968052440349"><ele>152.0</ele><time>2026-04-17T12:27:41.003Z</time></trkpt><trkpt lat="45.4814468179421" lon="8.699865779862057"><ele>152.0</ele><time>2026-04-17T12:27:43.003Z</time></trkpt><trkpt lat="45.48138271610856" lon="8.699774065416188"><ele>152.0</ele><time>2026-04-17T12:27:45.003Z</time></trkpt><trkpt lat="45.48132550936815" lon="8.699692354674625"><ele>152.0</ele><time>2026-04-17T12:27:47.003Z</time></trkpt><trkpt lat="45.48126460798158" lon="8.699590667877473"><ele>152.0</ele><time>2026-04-17T12:27:49.003Z</time></trkpt><trkpt lat="45.48117854281535" lon="8.699469854826482"><ele>152.0</ele><time>2026-04-17T12:27:51.003Z</time></trkpt><trkpt lat="45.48113397404436" lon="8.699402809457373"><ele>152.14285714285714</ele><time>2026-04-17T12:27:52.003Z</time></trkpt><trkpt lat="45.481083034251945" lon="8.6993332905497"><ele>152.2857142857143</ele><time>2026-04-17T12:27:53.003Z</time></trkpt><trkpt lat="45.48103226614831" lon="8.699265926082772"><ele>152.42857142857144</ele><time>2026-04-17T12:27:54.003Z</time></trkpt><trkpt lat="45.48098377422793" lon="8.699193681126813"><ele>152.57142857142856</ele><time>2026-04-17T12:27:55.003Z</time></trkpt><trkpt lat="45.48092850714024" lon="8.69911704087283"><ele>152.71428571428572</ele><time>2026-04-17T12:27:56.003Z</time></trkpt><trkpt lat="45.48087672795353" lon="8.69904479840299"><ele>152.85714285714286</ele><time>2026-04-17T12:27:57.003Z</time></trkpt><trkpt lat="45.480827336398875" lon="8.698974034417349"><ele>153.0</ele><time>2026-04-17T12:27:58.003Z</time></trkpt><trkpt lat="45.480778737606535" lon="8.69890447582343"><ele>153.0</ele><time>2026-04-17T12:27:59.003Z</time></trkpt><trkpt lat="45.48072877867156" lon="8.698837094220915"><ele>153.0</ele><time>2026-04-17T12:28:00.003Z</time></trkpt><trkpt lat="45.48067960358407" lon="8.698762705708807"><ele>153.0</ele><time>2026-04-17T12:28:01.003Z</time></trkpt><trkpt lat="45.48062631205926" lon="8.698680757619135"><ele>153.0</ele><time>2026-04-17T12:28:02.003Z</time></trkpt><trkpt lat="45.480570717090544" lon="8.698592957300987"><ele>153.0</ele><time>2026-04-17T12:28:03.003Z</time></trkpt><trkpt lat="45.4805074785068" lon="8.6985024225904"><ele>153.0</ele><time>2026-04-17T12:28:04.003Z</time></trkpt><trkpt lat="45.48043863176848" lon="8.69841115603646"><ele>153.33333333333334</ele><time>2026-04-17T12:28:05.003Z</time></trkpt><trkpt lat="45.4803706706464" lon="8.698323121670105"><ele>153.66666666666666</ele><time>2026-04-17T12:28:06.003Z</time></trkpt><trkpt lat="45.480305606295595" lon="8.698238888639798"><ele>154.0</ele><time>2026-04-17T12:28:07.003Z</time></trkpt><trkpt lat="45.48024782458408" lon="8.698159115020758"><ele>154.33333333333331</ele><time>2026-04-17T12:28:08.003Z</time></trkpt><trkpt lat="45.48019879345272" lon="8.698085088944907"><ele>154.66666666666666</ele><time>2026-04-17T12:28:09.003Z</time></trkpt><trkpt lat="45.48011553128841" lon="8.697976185911575"><ele>155.0</ele><time>2026-04-17T12:28:11.003Z</time></trkpt><trkpt lat="45.480061893590396" lon="8.697887850423767"><ele>155.0</ele><time>2026-04-17T12:28:13.003Z</time></trkpt><trkpt lat="45.48001957945546" lon="8.69780470960755"><ele>155.0</ele><time>2026-04-17T12:28:16.003Z</time></trkpt><trkpt lat="45.47997836825643" lon="8.697727860045736"><ele>155.0</ele><time>2026-04-17T12:28:18.003Z</time></trkpt><trkpt lat="45.47990620466466" lon="8.697627695850215"><ele>155.0</ele><time>2026-04-17T12:28:20.003Z</time></trkpt><trkpt lat="45.47984555651592" lon="8.697572973774642"><ele>155.0</ele><time>2026-04-17T12:28:21.003Z</time></trkpt><trkpt lat="45.479773798713" lon="8.697512723443786"><ele>155.0</ele><time>2026-04-17T12:28:22.003Z</time></trkpt><trkpt lat="45.47971581450712" lon="8.697436848235045"><ele>155.0</ele><time>2026-04-17T12:28:23.003Z</time></trkpt><trkpt lat="45.479677087365275" lon="8.697343692355448"><ele>155.0</ele><time>2026-04-17T12:28:24.003Z</time></trkpt><trkpt lat="45.47965118069539" lon="8.69723947351237"><ele>155.0</ele><time>2026-04-17T12:28:25.003Z</time></trkpt><trkpt lat="45.47962693988527" lon="8.697139078470418"><ele>155.0</ele><time>2026-04-17T12:28:26.003Z</time></trkpt><trkpt lat="45.47962704539975" lon="8.696969825589457"><ele>155.0</ele><time>2026-04-17T12:28:28.003Z</time></trkpt><trkpt lat="45.47970316565414" lon="8.696892244838251"><ele>155.0</ele><time>2026-04-17T12:28:30.003Z</time></trkpt><trkpt lat="45.47976546554526" lon="8.696877224065211"><ele>155.16666666666666</ele><time>2026-04-17T12:28:31.003Z</time></trkpt><trkpt lat="45.47982735709112" lon="8.69685674699227"><ele>155.33333333333331</ele><time>2026-04-17T12:28:32.004Z</time></trkpt><trkpt lat="45.4798908925733" lon="8.696844193403717"><ele>155.5</ele><time>2026-04-17T12:28:33.004Z</time></trkpt><trkpt lat="45.47995532399736" lon="8.696823958997319"><ele>155.66666666666666</ele><time>2026-04-17T12:28:34.004Z</time></trkpt><trkpt lat="45.480017453434826" lon="8.696800447745934"><ele>155.83333333333334</ele><time>2026-04-17T12:28:35.004Z</time></trkpt><trkpt lat="45.48012068855252" lon="8.696758877957086"><ele>156.0</ele><time>2026-04-17T12:28:37.004Z</time></trkpt><trkpt lat="45.48013606997739" lon="8.696639853103886"><ele>156.0</ele><time>2026-04-17T12:28:40.004Z</time></trkpt><trkpt lat="45.480107244707185" lon="8.696530150984435"><ele>156.0</ele><time>2026-04-17T12:28:41.004Z</time></trkpt><trkpt lat="45.48009257646592" lon="8.696404842145602"><ele>156.0</ele><time>2026-04-17T12:28:42.004Z</time></trkpt><trkpt lat="45.480082315707314" lon="8.696287390395065"><ele>156.0</ele><time>2026-04-17T12:28:43.004Z</time></trkpt><trkpt lat="45.480068190492446" lon="8.696170501677607"><ele>156.0</ele><time>2026-04-17T12:28:44.004Z</time></trkpt><trkpt lat="45.48004552776614" lon="8.696045674827868"><ele>156.0</ele><time>2026-04-17T12:28:45.004Z</time></trkpt><trkpt lat="45.48002734109732" lon="8.695907021756293"><ele>156.2</ele><time>2026-04-17T12:28:46.004Z</time></trkpt><trkpt lat="45.48000835948907" lon="8.695770809679304"><ele>156.39999999999998</ele><time>2026-04-17T12:28:47.004Z</time></trkpt><trkpt lat="45.47998911291506" lon="8.695634601096597"><ele>156.6</ele><time>2026-04-17T12:28:48.004Z</time></trkpt><trkpt lat="45.47997206417097" lon="8.695506517370607"><ele>156.79999999999998</ele><time>2026-04-17T12:28:49.004Z</time></trkpt><trkpt lat="45.47994999790551" lon="8.695381086421175"><ele>157.0</ele><time>2026-04-17T12:28:50.004Z</time></trkpt><trkpt lat="45.479931385449426" lon="8.695249946813348"><ele>156.99999999999997</ele><time>2026-04-17T12:28:51.004Z</time></trkpt><trkpt lat="45.47991201993146" lon="8.695130260264134"><ele>157.0</ele><time>2026-04-17T12:28:52.004Z</time></trkpt><trkpt lat="45.479899247861695" lon="8.695020477476751"><ele>157.0</ele><time>2026-04-17T12:28:53.004Z</time></trkpt><trkpt lat="45.479886609397404" lon="8.694923562171358"><ele>157.0</ele><time>2026-04-17T12:28:54.004Z</time></trkpt><trkpt lat="45.47988415998746" lon="8.694817027969467"><ele>157.0</ele><time>2026-04-17T12:28:55.004Z</time></trkpt><trkpt lat="45.47987191585481" lon="8.694721223393495"><ele>156.99999999999997</ele><time>2026-04-17T12:28:56.004Z</time></trkpt><trkpt lat="45.4798598059507" lon="8.694630143386068"><ele>157.0</ele><time>2026-04-17T12:28:57.004Z</time></trkpt><trkpt lat="45.479848335656314" lon="8.69452499282483"><ele>156.66666666666669</ele><time>2026-04-17T12:28:58.004Z</time></trkpt><trkpt lat="45.47983676962342" lon="8.694413354297916"><ele>156.33333333333334</ele><time>2026-04-17T12:28:59.004Z</time></trkpt><trkpt lat="45.479825262086955" lon="8.694304097233966"><ele>156.0</ele><time>2026-04-17T12:29:00.004Z</time></trkpt><trkpt lat="45.479812240826135" lon="8.694202949981316"><ele>155.66666666666666</ele><time>2026-04-17T12:29:01.004Z</time></trkpt><trkpt lat="45.47979756148772" lon="8.694115007693783"><ele>155.33333333333331</ele><time>2026-04-17T12:29:02.004Z</time></trkpt><trkpt lat="45.47976245863553" lon="8.693962039695581"><ele>155.0</ele><time>2026-04-17T12:29:04.004Z</time></trkpt><trkpt lat="45.47974757517582" lon="8.693872033271889"><ele>155.0</ele><time>2026-04-17T12:29:06.004Z</time></trkpt><trkpt lat="45.47970896893474" lon="8.693773161566051"><ele>155.0</ele><time>2026-04-17T12:29:14.004Z</time></trkpt><trkpt lat="45.4796444248671" lon="8.693679232890183"><ele>155.0</ele><time>2026-04-17T12:29:18.004Z</time></trkpt><trkpt lat="45.479549522245975" lon="8.693645783560333"><ele>155.0</ele><time>2026-04-17T12:29:20.004Z</time></trkpt><trkpt lat="45.47947979514055" lon="8.693662890262802"><ele>155.0</ele><time>2026-04-17T12:29:21.004Z</time></trkpt><trkpt lat="45.47940850514096" lon="8.693670535403996"><ele>155.0</ele><time>2026-04-17T12:29:22.004Z</time></trkpt><trkpt lat="45.47927354219372" lon="8.69369311297242"><ele>155.0</ele><time>2026-04-17T12:29:24.004Z</time></trkpt><trkpt lat="45.479158565624815" lon="8.69370677658646"><ele>155.0</ele><time>2026-04-17T12:29:26.005Z</time></trkpt><trkpt lat="45.47905606788818" lon="8.69370589336768"><ele>155.0</ele><time>2026-04-17T12:29:28.005Z</time></trkpt><trkpt lat="45.478970484601454" lon="8.693731750966146"><ele>155.0</ele><time>2026-04-17T12:29:30.005Z</time></trkpt><trkpt lat="45.47890379737553" lon="8.693686751085233"><ele>155.0</ele><time>2026-04-17T12:29:32.005Z</time></trkpt><trkpt lat="45.478806969784245" lon="8.693685358525785"><ele>155.14285714285714</ele><time>2026-04-17T12:29:34.005Z</time></trkpt><trkpt lat="45.47874705179081" lon="8.693632794179152"><ele>155.28571428571428</ele><time>2026-04-17T12:29:36.005Z</time></trkpt><trkpt lat="45.47872377244009" lon="8.693540643180503"><ele>155.42857142857144</ele><time>2026-04-17T12:29:39.005Z</time></trkpt><trkpt lat="45.478684367786464" lon="8.69345036296407"><ele>155.57142857142856</ele><time>2026-04-17T12:29:43.005Z</time></trkpt><trkpt lat="45.478716033317475" lon="8.693367971702026"><ele>155.7142857142857</ele><time>2026-04-17T12:29:45.005Z</time></trkpt><trkpt lat="45.4787739845606" lon="8.69326421326556"><ele>155.85714285714286</ele><time>2026-04-17T12:29:47.005Z</time></trkpt><trkpt lat="45.47882399013902" lon="8.693197846773312"><ele>156.0</ele><time>2026-04-17T12:29:48.005Z</time></trkpt><trkpt lat="45.478873076224914" lon="8.693129537393492"><ele>155.8</ele><time>2026-04-17T12:29:49.005Z</time></trkpt><trkpt lat="45.478931332634126" lon="8.69305013919426"><ele>155.6</ele><time>2026-04-17T12:29:50.005Z</time></trkpt><trkpt lat="45.47899451477632" lon="8.69295389872761"><ele>155.4</ele><time>2026-04-17T12:29:51.005Z</time></trkpt><trkpt lat="45.479062561824534" lon="8.692856663429895"><ele>155.2</ele><time>2026-04-17T12:29:52.005Z</time></trkpt><trkpt lat="45.47912026656243" lon="8.692758595846959"><ele>155.0</ele><time>2026-04-17T12:29:53.005Z</time></trkpt><trkpt lat="45.479181564636356" lon="8.692641578170257"><ele>155.0</ele><time>2026-04-17T12:29:54.005Z</time></trkpt><trkpt lat="45.47924088623634" lon="8.692532588794968"><ele>155.0</ele><time>2026-04-17T12:29:55.005Z</time></trkpt><trkpt lat="45.47930047138257" lon="8.692423784162585"><ele>155.0</ele><time>2026-04-17T12:29:56.005Z</time></trkpt><trkpt lat="45.47935980974824" lon="8.692332201646906"><ele>155.0</ele><time>2026-04-17T12:29:57.005Z</time></trkpt><trkpt lat="45.47941721067691" lon="8.692251849427786"><ele>155.0</ele><time>2026-04-17T12:29:58.005Z</time></trkpt><trkpt lat="45.479474098282665" lon="8.692168005236379"><ele>155.0</ele><time>2026-04-17T12:29:59.005Z</time></trkpt><trkpt lat="45.47952961132146" lon="8.692072129515951"><ele>155.0</ele><time>2026-04-17T12:30:00.005Z</time></trkpt><trkpt lat="45.479589109572906" lon="8.691976847856123"><ele>155.0</ele><time>2026-04-17T12:30:01.005Z</time></trkpt><trkpt lat="45.47965284254133" lon="8.691880089594834"><ele>155.0</ele><time>2026-04-17T12:30:02.005Z</time></trkpt><trkpt lat="45.47971540295684" lon="8.691779184748281"><ele>155.0</ele><time>2026-04-17T12:30:03.005Z</time></trkpt><trkpt lat="45.47978135107442" lon="8.691678919645947"><ele>155.0</ele><time>2026-04-17T12:30:04.005Z</time></trkpt><trkpt lat="45.4798507316935" lon="8.691576489097733"><ele>155.2</ele><time>2026-04-17T12:30:05.005Z</time></trkpt><trkpt lat="45.47992142823638" lon="8.69147436178906"><ele>155.4</ele><time>2026-04-17T12:30:06.005Z</time></trkpt><trkpt lat="45.47998944872147" lon="8.691369136560972"><ele>155.6</ele><time>2026-04-17T12:30:07.005Z</time></trkpt><trkpt lat="45.48005937233313" lon="8.691274057061289"><ele>155.8</ele><time>2026-04-17T12:30:08.005Z</time></trkpt><trkpt lat="45.480124945810495" lon="8.691169059431221"><ele>156.0</ele><time>2026-04-17T12:30:09.005Z</time></trkpt><trkpt lat="45.48019754292509" lon="8.691060538067147"><ele>156.0</ele><time>2026-04-17T12:30:10.005Z</time></trkpt><trkpt lat="45.48026294166587" lon="8.690949906501526"><ele>156.0</ele><time>2026-04-17T12:30:11.005Z</time></trkpt><trkpt lat="45.48033221267847" lon="8.690842752740227"><ele>156.0</ele><time>2026-04-17T12:30:12.005Z</time></trkpt><trkpt lat="45.480399146792756" lon="8.69073049881536"><ele>156.0</ele><time>2026-04-17T12:30:13.005Z</time></trkpt><trkpt lat="45.48046779628582" lon="8.690621310725664"><ele>156.0</ele><time>2026-04-17T12:30:14.005Z</time></trkpt><trkpt lat="45.48053702702261" lon="8.690516053721925"><ele>156.2</ele><time>2026-04-17T12:30:15.005Z</time></trkpt><trkpt lat="45.48059855447408" lon="8.690409308272775"><ele>156.39999999999998</ele><time>2026-04-17T12:30:16.005Z</time></trkpt><trkpt lat="45.480664531685086" lon="8.690306568306381"><ele>156.6</ele><time>2026-04-17T12:30:17.005Z</time></trkpt><trkpt lat="45.48073503748983" lon="8.690206917127684"><ele>156.79999999999998</ele><time>2026-04-17T12:30:18.005Z</time></trkpt><trkpt lat="45.4807975069831" lon="8.69011044525238"><ele>157.0</ele><time>2026-04-17T12:30:19.005Z</time></trkpt><trkpt lat="45.480861827664455" lon="8.69001425648135"><ele>156.6</ele><time>2026-04-17T12:30:20.006Z</time></trkpt><trkpt lat="45.48092636122082" lon="8.689909893379408"><ele>156.2</ele><time>2026-04-17T12:30:21.006Z</time></trkpt><trkpt lat="45.480990636215274" lon="8.689795887473059"><ele>155.8</ele><time>2026-04-17T12:30:22.006Z</time></trkpt><trkpt lat="45.48106791799865" lon="8.689683492960741"><ele>155.4</ele><time>2026-04-17T12:30:23.006Z</time></trkpt><trkpt lat="45.48114295715503" lon="8.689563036919939"><ele>155.0</ele><time>2026-04-17T12:30:24.006Z</time></trkpt><trkpt lat="45.48121627449754" lon="8.689443632100012"><ele>154.8</ele><time>2026-04-17T12:30:25.006Z</time></trkpt><trkpt lat="45.48128895278867" lon="8.689319779549807"><ele>154.6</ele><time>2026-04-17T12:30:26.006Z</time></trkpt><trkpt lat="45.48136071758472" lon="8.689190479460228"><ele>154.4</ele><time>2026-04-17T12:30:27.006Z</time></trkpt><trkpt lat="45.48142934132545" lon="8.689069800043772"><ele>154.2</ele><time>2026-04-17T12:30:28.006Z</time></trkpt><trkpt lat="45.48149586871198" lon="8.688955223422958"><ele>154.0</ele><time>2026-04-17T12:30:29.006Z</time></trkpt><trkpt lat="45.48155823760204" lon="8.688850381925507"><ele>154.0</ele><time>2026-04-17T12:30:30.006Z</time></trkpt><trkpt lat="45.48162705274659" lon="8.688750557428177"><ele>154.0</ele><time>2026-04-17T12:30:31.006Z</time></trkpt><trkpt lat="45.48169793211183" lon="8.688650815026877"><ele>154.0</ele><time>2026-04-17T12:30:32.006Z</time></trkpt><trkpt lat="45.48177183543188" lon="8.688539308606352"><ele>154.0</ele><time>2026-04-17T12:30:33.006Z</time></trkpt><trkpt lat="45.481845472941885" lon="8.688423814340927"><ele>154.0</ele><time>2026-04-17T12:30:34.006Z</time></trkpt><trkpt lat="45.48191817225348" lon="8.688306264987713"><ele>154.0</ele><time>2026-04-17T12:30:35.006Z</time></trkpt><trkpt lat="45.48199760568649" lon="8.688174433097284"><ele>154.0</ele><time>2026-04-17T12:30:36.006Z</time></trkpt><trkpt lat="45.48207867272938" lon="8.688045655382659"><ele>154.0</ele><time>2026-04-17T12:30:37.006Z</time></trkpt><trkpt lat="45.48216373758969" lon="8.687919253999246"><ele>154.0</ele><time>2026-04-17T12:30:38.006Z</time></trkpt><trkpt lat="45.48225520061743" lon="8.687797628196693"><ele>154.0</ele><time>2026-04-17T12:30:39.006Z</time></trkpt><trkpt lat="45.48234392000395" lon="8.687663071728688"><ele>154.0</ele><time>2026-04-17T12:30:40.006Z</time></trkpt><trkpt lat="45.48243244097785" lon="8.687531705681085"><ele>154.0</ele><time>2026-04-17T12:30:41.006Z</time></trkpt><trkpt lat="45.48252047744272" lon="8.687400407053389"><ele>154.0</ele><time>2026-04-17T12:30:42.006Z</time></trkpt><trkpt lat="45.482601749389694" lon="8.687260737517875"><ele>154.0</ele><time>2026-04-17T12:30:43.006Z</time></trkpt><trkpt lat="45.482691540162776" lon="8.687121361665469"><ele>154.0</ele><time>2026-04-17T12:30:44.006Z</time></trkpt><trkpt lat="45.48277863400351" lon="8.686981679627836"><ele>154.0</ele><time>2026-04-17T12:30:45.006Z</time></trkpt><trkpt lat="45.48286351043788" lon="8.68684490726293"><ele>154.0</ele><time>2026-04-17T12:30:46.006Z</time></trkpt><trkpt lat="45.48294617952167" lon="8.686713398700782"><ele>154.0</ele><time>2026-04-17T12:30:47.006Z</time></trkpt><trkpt lat="45.4830242763825" lon="8.686588021217695"><ele>154.0</ele><time>2026-04-17T12:30:48.006Z</time></trkpt><trkpt lat="45.483103009239414" lon="8.686463496742602"><ele>154.0</ele><time>2026-04-17T12:30:49.006Z</time></trkpt><trkpt lat="45.48318457042991" lon="8.686343351725602"><ele>154.0</ele><time>2026-04-17T12:30:50.006Z</time></trkpt><trkpt lat="45.48326756276878" lon="8.686217382295972"><ele>154.5</ele><time>2026-04-17T12:30:51.006Z</time></trkpt><trkpt lat="45.48335747066146" lon="8.686090951954998"><ele>155.0</ele><time>2026-04-17T12:30:52.006Z</time></trkpt><trkpt lat="45.48344478289539" lon="8.685957241768845"><ele>155.5</ele><time>2026-04-17T12:30:53.006Z</time></trkpt><trkpt lat="45.483528471084384" lon="8.685818887009574"><ele>156.0</ele><time>2026-04-17T12:30:54.006Z</time></trkpt><trkpt lat="45.48361619642738" lon="8.685679104004258"><ele>156.0</ele><time>2026-04-17T12:30:55.006Z</time></trkpt><trkpt lat="45.483710872494676" lon="8.685538397415316"><ele>156.0</ele><time>2026-04-17T12:30:56.006Z</time></trkpt><trkpt lat="45.483803594430746" lon="8.685396429935139"><ele>156.0</ele><time>2026-04-17T12:30:57.006Z</time></trkpt><trkpt lat="45.48389769418781" lon="8.685256396579367"><ele>156.0</ele><time>2026-04-17T12:30:58.006Z</time></trkpt><trkpt lat="45.483991978313355" lon="8.685108462168571"><ele>155.75</ele><time>2026-04-17T12:30:59.006Z</time></trkpt><trkpt lat="45.484078850360596" lon="8.684954850781295"><ele>155.5</ele><time>2026-04-17T12:31:00.006Z</time></trkpt><trkpt lat="45.484168123603524" lon="8.68480002453308"><ele>155.25</ele><time>2026-04-17T12:31:01.006Z</time></trkpt><trkpt lat="45.484263569815425" lon="8.684654430647091"><ele>155.0</ele><time>2026-04-17T12:31:02.006Z</time></trkpt><trkpt lat="45.48435792583593" lon="8.684504292300023"><ele>155.0</ele><time>2026-04-17T12:31:03.006Z</time></trkpt><trkpt lat="45.48445757745967" lon="8.68435278155129"><ele>155.0</ele><time>2026-04-17T12:31:04.006Z</time></trkpt><trkpt lat="45.48455636933686" lon="8.684196469114317"><ele>155.0</ele><time>2026-04-17T12:31:05.006Z</time></trkpt><trkpt lat="45.484655398984025" lon="8.684037326645598"><ele>155.0</ele><time>2026-04-17T12:31:06.006Z</time></trkpt><trkpt lat="45.484755433881006" lon="8.683876851410377"><ele>155.0</ele><time>2026-04-17T12:31:07.006Z</time></trkpt><trkpt lat="45.4848581497286" lon="8.683715752388851"><ele>155.0</ele><time>2026-04-17T12:31:08.006Z</time></trkpt><trkpt lat="45.484963916493236" lon="8.683551945825844"><ele>155.0</ele><time>2026-04-17T12:31:09.006Z</time></trkpt><trkpt lat="45.48506492720278" lon="8.683381592912818"><ele>154.66666666666666</ele><time>2026-04-17T12:31:10.006Z</time></trkpt><trkpt lat="45.485165814667866" lon="8.683207307403846"><ele>154.33333333333334</ele><time>2026-04-17T12:31:11.006Z</time></trkpt><trkpt lat="45.48526770623742" lon="8.683035702537422"><ele>154.0</ele><time>2026-04-17T12:31:12.006Z</time></trkpt><trkpt lat="45.48537452552519" lon="8.682865281605208"><ele>154.33333333333334</ele><time>2026-04-17T12:31:13.006Z</time></trkpt><trkpt lat="45.48548421738205" lon="8.682694617340967"><ele>154.66666666666666</ele><time>2026-04-17T12:31:14.007Z</time></trkpt><trkpt lat="45.485595739750345" lon="8.682515328237354"><ele>155.0</ele><time>2026-04-17T12:31:15.007Z</time></trkpt><trkpt lat="45.48571278880544" lon="8.68233649846467"><ele>155.0</ele><time>2026-04-17T12:31:16.007Z</time></trkpt><trkpt lat="45.48582750487933" lon="8.68215727950399"><ele>155.0</ele><time>2026-04-17T12:31:17.007Z</time></trkpt><trkpt lat="45.4859406422599" lon="8.68197714715152"><ele>155.0</ele><time>2026-04-17T12:31:18.007Z</time></trkpt><trkpt lat="45.48605379934051" lon="8.681797069554152"><ele>154.66666666666666</ele><time>2026-04-17T12:31:19.007Z</time></trkpt><trkpt lat="45.48617142251425" lon="8.681614851010147"><ele>154.33333333333334</ele><time>2026-04-17T12:31:20.007Z</time></trkpt><trkpt lat="45.48628754077875" lon="8.681434097449237"><ele>154.0</ele><time>2026-04-17T12:31:21.007Z</time></trkpt><trkpt lat="45.486402480424736" lon="8.681251586423137"><ele>154.66666666666669</ele><time>2026-04-17T12:31:22.007Z</time></trkpt><trkpt lat="45.486517504315636" lon="8.681069755921312"><ele>155.33333333333334</ele><time>2026-04-17T12:31:23.007Z</time></trkpt><trkpt lat="45.48663429452656" lon="8.680888963758225"><ele>156.0</ele><time>2026-04-17T12:31:24.007Z</time></trkpt><trkpt lat="45.48674979356522" lon="8.680712881856829"><ele>156.0</ele><time>2026-04-17T12:31:25.007Z</time></trkpt><trkpt lat="45.48686320221627" lon="8.680541182989776"><ele>156.0</ele><time>2026-04-17T12:31:26.007Z</time></trkpt><trkpt lat="45.48697431778913" lon="8.680371756456502"><ele>156.0</ele><time>2026-04-17T12:31:27.007Z</time></trkpt><trkpt lat="45.48708429248435" lon="8.680202042296864"><ele>156.0</ele><time>2026-04-17T12:31:28.007Z</time></trkpt><trkpt lat="45.487191033741276" lon="8.680033623424924"><ele>156.0</ele><time>2026-04-17T12:31:29.007Z</time></trkpt><trkpt lat="45.487293241827636" lon="8.679865209330602"><ele>156.0</ele><time>2026-04-17T12:31:30.007Z</time></trkpt><trkpt lat="45.4873988212687" lon="8.679695366631906"><ele>156.0</ele><time>2026-04-17T12:31:31.007Z</time></trkpt><trkpt lat="45.48750604004432" lon="8.679524280257576"><ele>156.0</ele><time>2026-04-17T12:31:32.007Z</time></trkpt><trkpt lat="45.487614676351356" lon="8.679353203239245"><ele>156.0</ele><time>2026-04-17T12:31:33.007Z</time></trkpt><trkpt lat="45.48772434784215" lon="8.679181944998763"><ele>156.66666666666666</ele><time>2026-04-17T12:31:34.007Z</time></trkpt><trkpt lat="45.4878358207955" lon="8.679009817519661"><ele>157.33333333333331</ele><time>2026-04-17T12:31:35.007Z</time></trkpt><trkpt lat="45.487947499799446" lon="8.678834060988704"><ele>158.0</ele><time>2026-04-17T12:31:36.007Z</time></trkpt><trkpt lat="45.488061984463286" lon="8.678654842758801"><ele>158.0</ele><time>2026-04-17T12:31:37.007Z</time></trkpt><trkpt lat="45.488179142526754" lon="8.678477641581683"><ele>158.0</ele><time>2026-04-17T12:31:38.007Z</time></trkpt><trkpt lat="45.4882992432298" lon="8.67829988942213"><ele>158.0</ele><time>2026-04-17T12:31:39.007Z</time></trkpt><trkpt lat="45.4884174435838" lon="8.678122554869667"><ele>158.0</ele><time>2026-04-17T12:31:40.007Z</time></trkpt><trkpt lat="45.48853288958103" lon="8.677940808574997"><ele>158.0</ele><time>2026-04-17T12:31:41.007Z</time></trkpt><trkpt lat="45.48864498320928" lon="8.677753016429941"><ele>158.0</ele><time>2026-04-17T12:31:42.007Z</time></trkpt><trkpt lat="45.48876119472432" lon="8.677565573544294"><ele>157.33333333333331</ele><time>2026-04-17T12:31:43.007Z</time></trkpt><trkpt lat="45.48887573439514" lon="8.67737710487969"><ele>156.66666666666666</ele><time>2026-04-17T12:31:44.007Z</time></trkpt><trkpt lat="45.488994938801724" lon="8.67718966096358"><ele>156.0</ele><time>2026-04-17T12:31:45.007Z</time></trkpt><trkpt lat="45.48911124342923" lon="8.677005116906997"><ele>156.33333333333334</ele><time>2026-04-17T12:31:46.007Z</time></trkpt><trkpt lat="45.489228461226105" lon="8.676821041729156"><ele>156.66666666666669</ele><time>2026-04-17T12:31:47.007Z</time></trkpt><trkpt lat="45.489344816736796" lon="8.676631683648923"><ele>157.0</ele><time>2026-04-17T12:31:48.007Z</time></trkpt><trkpt lat="45.48946291053854" lon="8.676440610701176"><ele>157.0</ele><time>2026-04-17T12:31:49.007Z</time></trkpt><trkpt lat="45.489587675714446" lon="8.67624989215106"><ele>157.0</ele><time>2026-04-17T12:31:50.007Z</time></trkpt><trkpt lat="45.489718273810446" lon="8.676063397460075"><ele>157.0</ele><time>2026-04-17T12:31:51.007Z</time></trkpt><trkpt lat="45.489856200681025" lon="8.675885482063753"><ele>157.0</ele><time>2026-04-17T12:31:52.007Z</time></trkpt><trkpt lat="45.49000520616441" lon="8.675722935783261"><ele>157.0</ele><time>2026-04-17T12:31:53.007Z</time></trkpt><trkpt lat="45.490161380226176" lon="8.675583523515668"><ele>157.0</ele><time>2026-04-17T12:31:54.007Z</time></trkpt><trkpt lat="45.490317499521765" lon="8.67545487585915"><ele>157.0</ele><time>2026-04-17T12:31:55.007Z</time></trkpt><trkpt lat="45.490476668676855" lon="8.675320047062847"><ele>157.0</ele><time>2026-04-17T12:31:56.007Z</time></trkpt><trkpt lat="45.490637484165966" lon="8.67518032443816"><ele>157.0</ele><time>2026-04-17T12:31:57.007Z</time></trkpt><trkpt lat="45.49080157981671" lon="8.675036252604801"><ele>157.0</ele><time>2026-04-17T12:31:58.007Z</time></trkpt><trkpt lat="45.490967645618056" lon="8.674889792786963"><ele>157.0</ele><time>2026-04-17T12:31:59.007Z</time></trkpt><trkpt lat="45.49113499711495" lon="8.674740005464612"><ele>157.0</ele><time>2026-04-17T12:32:00.007Z</time></trkpt><trkpt lat="45.491302908220085" lon="8.674590549761938"><ele>157.66666666666669</ele><time>2026-04-17T12:32:01.007Z</time></trkpt><trkpt lat="45.491475187205666" lon="8.674440870708853"><ele>158.33333333333334</ele><time>2026-04-17T12:32:02.007Z</time></trkpt><trkpt lat="45.491647656049786" lon="8.674290980004905"><ele>159.0</ele><time>2026-04-17T12:32:03.007Z</time></trkpt><trkpt lat="45.49182375649538" lon="8.674141253416575"><ele>159.0</ele><time>2026-04-17T12:32:04.007Z</time></trkpt><trkpt lat="45.49199533643481" lon="8.673991442583386"><ele>159.0</ele><time>2026-04-17T12:32:05.007Z</time></trkpt><trkpt lat="45.49216683793813" lon="8.673844358102473"><ele>159.0</ele><time>2026-04-17T12:32:06.007Z</time></trkpt><trkpt lat="45.49233418290353" lon="8.67370310374474"><ele>158.33333333333334</ele><time>2026-04-17T12:32:07.008Z</time></trkpt><trkpt lat="45.49249897816256" lon="8.673557955477786"><ele>157.66666666666669</ele><time>2026-04-17T12:32:08.008Z</time></trkpt><trkpt lat="45.49266225864457" lon="8.67341310309099"><ele>157.0</ele><time>2026-04-17T12:32:09.008Z</time></trkpt><trkpt lat="45.49281802460819" lon="8.673283816822403"><ele>157.33333333333334</ele><time>2026-04-17T12:32:10.008Z</time></trkpt><trkpt lat="45.49297020396657" lon="8.673154516319695"><ele>157.66666666666666</ele><time>2026-04-17T12:32:11.008Z</time></trkpt><trkpt lat="45.49311771554782" lon="8.673028502484787"><ele>158.0</ele><time>2026-04-17T12:32:12.008Z</time></trkpt><trkpt lat="45.49326406510683" lon="8.672903208065819"><ele>158.0</ele><time>2026-04-17T12:32:13.008Z</time></trkpt><trkpt lat="45.49341012671009" lon="8.672786546442522"><ele>158.0</ele><time>2026-04-17T12:32:14.008Z</time></trkpt><trkpt lat="45.49355306878252" lon="8.672685557515711"><ele>158.0</ele><time>2026-04-17T12:32:15.008Z</time></trkpt><trkpt lat="45.49369366725257" lon="8.672601866354288"><ele>158.5</ele><time>2026-04-17T12:32:16.008Z</time></trkpt><trkpt lat="45.49382839326421" lon="8.672537938634965"><ele>159.0</ele><time>2026-04-17T12:32:17.008Z</time></trkpt><trkpt lat="45.493952552730235" lon="8.672490414621201"><ele>159.5</ele><time>2026-04-17T12:32:18.008Z</time></trkpt><trkpt lat="45.49406407403599" lon="8.672454956908387"><ele>160.0</ele><time>2026-04-17T12:32:19.008Z</time></trkpt><trkpt lat="45.494170297849415" lon="8.672427016153526"><ele>160.0</ele><time>2026-04-17T12:32:20.008Z</time></trkpt><trkpt lat="45.49427654532155" lon="8.672403811822507"><ele>160.0</ele><time>2026-04-17T12:32:21.008Z</time></trkpt><trkpt lat="45.494382072940276" lon="8.672384313683953"><ele>160.0</ele><time>2026-04-17T12:32:22.008Z</time></trkpt><trkpt lat="45.49448595991648" lon="8.67237576771887"><ele>160.0</ele><time>2026-04-17T12:32:23.008Z</time></trkpt><trkpt lat="45.49459716000722" lon="8.672376217499847"><ele>160.0</ele><time>2026-04-17T12:32:24.008Z</time></trkpt><trkpt lat="45.494715663174965" lon="8.672385606103902"><ele>160.25</ele><time>2026-04-17T12:32:25.008Z</time></trkpt><trkpt lat="45.49483882713615" lon="8.672400052284399"><ele>160.5</ele><time>2026-04-17T12:32:26.008Z</time></trkpt><trkpt lat="45.49496814095381" lon="8.672424389012367"><ele>160.75</ele><time>2026-04-17T12:32:27.008Z</time></trkpt><trkpt lat="45.495103202269924" lon="8.672453420013955"><ele>161.0</ele><time>2026-04-17T12:32:28.008Z</time></trkpt><trkpt lat="45.495242018404994" lon="8.672486478221149"><ele>161.0</ele><time>2026-04-17T12:32:29.008Z</time></trkpt><trkpt lat="45.49538643519822" lon="8.672519265891113"><ele>161.0</ele><time>2026-04-17T12:32:30.008Z</time></trkpt><trkpt lat="45.49553287521485" lon="8.672549447701378"><ele>161.0</ele><time>2026-04-17T12:32:31.008Z</time></trkpt><trkpt lat="45.49567974390779" lon="8.672583182972392"><ele>161.0</ele><time>2026-04-17T12:32:32.008Z</time></trkpt><trkpt lat="45.495822663393916" lon="8.672617773361514"><ele>161.0</ele><time>2026-04-17T12:32:33.008Z</time></trkpt><trkpt lat="45.4959695562775" lon="8.67265059083828"><ele>161.0</ele><time>2026-04-17T12:32:34.008Z</time></trkpt><trkpt lat="45.49611991093889" lon="8.672684511568606"><ele>161.0</ele><time>2026-04-17T12:32:35.008Z</time></trkpt><trkpt lat="45.4962737068368" lon="8.672719215478892"><ele>161.0</ele><time>2026-04-17T12:32:36.008Z</time></trkpt><trkpt lat="45.49642899232901" lon="8.67275208553172"><ele>161.0</ele><time>2026-04-17T12:32:37.008Z</time></trkpt><trkpt lat="45.49658445585051" lon="8.672783699948864"><ele>161.0</ele><time>2026-04-17T12:32:38.008Z</time></trkpt><trkpt lat="45.49673415970406" lon="8.672811009834845"><ele>161.0</ele><time>2026-04-17T12:32:39.008Z</time></trkpt><trkpt lat="45.49687633503622" lon="8.672838456684232"><ele>161.0</ele><time>2026-04-17T12:32:40.008Z</time></trkpt><trkpt lat="45.4970135192611" lon="8.672864793753346"><ele>161.0</ele><time>2026-04-17T12:32:41.008Z</time></trkpt><trkpt lat="45.49714417581888" lon="8.672884898750944"><ele>161.0</ele><time>2026-04-17T12:32:42.008Z</time></trkpt><trkpt lat="45.49727183409018" lon="8.672890380601267"><ele>161.0</ele><time>2026-04-17T12:32:43.008Z</time></trkpt><trkpt lat="45.49740188403183" lon="8.672877113721936"><ele>161.0</ele><time>2026-04-17T12:32:44.008Z</time></trkpt><trkpt lat="45.49753439827806" lon="8.672858619306357"><ele>161.0</ele><time>2026-04-17T12:32:45.008Z</time></trkpt><trkpt lat="45.49766840770441" lon="8.672839136840617"><ele>161.0</ele><time>2026-04-17T12:32:46.008Z</time></trkpt><trkpt lat="45.49780440832384" lon="8.672809613259046"><ele>161.5</ele><time>2026-04-17T12:32:47.008Z</time></trkpt><trkpt lat="45.497943254120024" lon="8.67276016253297"><ele>162.0</ele><time>2026-04-17T12:32:48.008Z</time></trkpt><trkpt lat="45.498081746300635" lon="8.672694742203268"><ele>162.5</ele><time>2026-04-17T12:32:49.008Z</time></trkpt><trkpt lat="45.49821661494537" lon="8.672620108955236"><ele>163.0</ele><time>2026-04-17T12:32:50.008Z</time></trkpt><trkpt lat="45.498344142386685" lon="8.67254055004863"><ele>163.0</ele><time>2026-04-17T12:32:51.008Z</time></trkpt><trkpt lat="45.498463810365074" lon="8.672459041621753"><ele>163.0</ele><time>2026-04-17T12:32:52.008Z</time></trkpt><trkpt lat="45.498573316002364" lon="8.672375035009082"><ele>163.0</ele><time>2026-04-17T12:32:53.008Z</time></trkpt><trkpt lat="45.49867852727458" lon="8.672300311028103"><ele>163.0</ele><time>2026-04-17T12:32:54.008Z</time></trkpt><trkpt lat="45.49877158921907" lon="8.672237066185373"><ele>163.0</ele><time>2026-04-17T12:32:55.008Z</time></trkpt><trkpt lat="45.498847492230325" lon="8.672186426428661"><ele>163.0</ele><time>2026-04-17T12:32:56.008Z</time></trkpt><trkpt lat="45.49893060488208" lon="8.672128064563749"><ele>163.0</ele><time>2026-04-17T12:32:58.008Z</time></trkpt><trkpt lat="45.49901910437344" lon="8.672106145163577"><ele>163.0</ele><time>2026-04-17T12:33:08.009Z</time></trkpt><trkpt lat="45.499086869476685" lon="8.672152128133071"><ele>163.0</ele><time>2026-04-17T12:33:10.009Z</time></trkpt><trkpt lat="45.499175701143834" lon="8.672193152201462"><ele>163.0</ele><time>2026-04-17T12:33:12.009Z</time></trkpt><trkpt lat="45.49926810345987" lon="8.672109169266447"><ele>163.0</ele><time>2026-04-17T12:33:14.009Z</time></trkpt><trkpt lat="45.49934198675244" lon="8.671969110394315"><ele>163.0</ele><time>2026-04-17T12:33:16.009Z</time></trkpt><trkpt lat="45.49938116471265" lon="8.671882205801381"><ele>163.0</ele><time>2026-04-17T12:33:17.009Z</time></trkpt><trkpt lat="45.49942944440397" lon="8.671791740797326"><ele>163.0</ele><time>2026-04-17T12:33:18.009Z</time></trkpt><trkpt lat="45.499491602185536" lon="8.671709608770724"><ele>163.0</ele><time>2026-04-17T12:33:19.009Z</time></trkpt><trkpt lat="45.499562627628514" lon="8.671646046790647"><ele>163.0</ele><time>2026-04-17T12:33:20.009Z</time></trkpt><trkpt lat="45.49964761389976" lon="8.671592412836734"><ele>163.0</ele><time>2026-04-17T12:33:21.009Z</time></trkpt><trkpt lat="45.499745052020565" lon="8.671548227780393"><ele>163.0</ele><time>2026-04-17T12:33:22.009Z</time></trkpt><trkpt lat="45.49985080090366" lon="8.671498649144858"><ele>163.0</ele><time>2026-04-17T12:33:23.009Z</time></trkpt><trkpt lat="45.49995555222923" lon="8.671443682202613"><ele>163.0</ele><time>2026-04-17T12:33:24.009Z</time></trkpt><trkpt lat="45.500057504873055" lon="8.671387396284755"><ele>163.0</ele><time>2026-04-17T12:33:25.009Z</time></trkpt><trkpt lat="45.50016151174009" lon="8.67132733762904"><ele>163.0</ele><time>2026-04-17T12:33:26.009Z</time></trkpt><trkpt lat="45.50026373949074" lon="8.671272876305714"><ele>163.0</ele><time>2026-04-17T12:33:27.009Z</time></trkpt><trkpt lat="45.50036616672057" lon="8.671218614651044"><ele>163.0</ele><time>2026-04-17T12:33:28.009Z</time></trkpt><trkpt lat="45.50047387002136" lon="8.671158646790019"><ele>163.0</ele><time>2026-04-17T12:33:29.009Z</time></trkpt><trkpt lat="45.500585385339875" lon="8.67110072173552"><ele>163.0</ele><time>2026-04-17T12:33:30.009Z</time></trkpt><trkpt lat="45.50069596290208" lon="8.671047019954438"><ele>163.0</ele><time>2026-04-17T12:33:31.009Z</time></trkpt><trkpt lat="45.50081446133853" lon="8.670994047885326"><ele>163.0</ele><time>2026-04-17T12:33:32.009Z</time></trkpt><trkpt lat="45.50093687644396" lon="8.670934894377789"><ele>163.0</ele><time>2026-04-17T12:33:33.009Z</time></trkpt><trkpt lat="45.501065478488954" lon="8.670874860120856"><ele>163.0</ele><time>2026-04-17T12:33:34.009Z</time></trkpt><trkpt lat="45.50119521351954" lon="8.670808706507387"><ele>163.0</ele><time>2026-04-17T12:33:35.009Z</time></trkpt><trkpt lat="45.501320772859074" lon="8.670742729396723"><ele>163.0</ele><time>2026-04-17T12:33:36.009Z</time></trkpt><trkpt lat="45.501448851881094" lon="8.670676432733949"><ele>163.0</ele><time>2026-04-17T12:33:37.009Z</time></trkpt><trkpt lat="45.501577668266" lon="8.670610152816732"><ele>163.0</ele><time>2026-04-17T12:33:38.009Z</time></trkpt><trkpt lat="45.501706662129045" lon="8.670547373828539"><ele>163.0</ele><time>2026-04-17T12:33:39.009Z</time></trkpt><trkpt lat="45.501837277199506" lon="8.670483037997194"><ele>163.0</ele><time>2026-04-17T12:33:40.009Z</time></trkpt><trkpt lat="45.50197186901564" lon="8.670419070888117"><ele>163.0</ele><time>2026-04-17T12:33:41.009Z</time></trkpt><trkpt lat="45.50210541960877" lon="8.670354327913143"><ele>163.0</ele><time>2026-04-17T12:33:42.009Z</time></trkpt><trkpt lat="45.50223883765429" lon="8.670292754263073"><ele>163.0</ele><time>2026-04-17T12:33:43.009Z</time></trkpt><trkpt lat="45.502368140425105" lon="8.670232231980672"><ele>163.0</ele><time>2026-04-17T12:33:44.009Z</time></trkpt><trkpt lat="45.50249242500175" lon="8.670173278148152"><ele>163.0</ele><time>2026-04-17T12:33:45.009Z</time></trkpt><trkpt lat="45.5026119227148" lon="8.670113589299156"><ele>163.0</ele><time>2026-04-17T12:33:46.009Z</time></trkpt><trkpt lat="45.50272468039902" lon="8.67005198579451"><ele>163.0</ele><time>2026-04-17T12:33:47.009Z</time></trkpt><trkpt lat="45.502843561477306" lon="8.66999042050102"><ele>163.0</ele><time>2026-04-17T12:33:48.009Z</time></trkpt><trkpt lat="45.50296708064033" lon="8.669939343382797"><ele>163.0</ele><time>2026-04-17T12:33:49.009Z</time></trkpt><trkpt lat="45.503091728801266" lon="8.669890732222424"><ele>163.0</ele><time>2026-04-17T12:33:50.009Z</time></trkpt><trkpt lat="45.50322272467221" lon="8.669844403319505"><ele>163.0</ele><time>2026-04-17T12:33:51.009Z</time></trkpt><trkpt lat="45.503353727235364" lon="8.6697907648154"><ele>163.0</ele><time>2026-04-17T12:33:52.009Z</time></trkpt><trkpt lat="45.503492971530065" lon="8.66972618389246"><ele>163.0</ele><time>2026-04-17T12:33:53.009Z</time></trkpt><trkpt lat="45.503631578217615" lon="8.669654189560228"><ele>163.0</ele><time>2026-04-17T12:33:54.009Z</time></trkpt><trkpt lat="45.50377232667894" lon="8.66958189652473"><ele>163.0</ele><time>2026-04-17T12:33:55.01Z</time></trkpt><trkpt lat="45.50391505819384" lon="8.669507099158881"><ele>163.0</ele><time>2026-04-17T12:33:56.01Z</time></trkpt><trkpt lat="45.50405623868435" lon="8.669432994906868"><ele>163.0</ele><time>2026-04-17T12:33:57.01Z</time></trkpt><trkpt lat="45.504197581804675" lon="8.669361058963517"><ele>163.0</ele><time>2026-04-17T12:33:58.01Z</time></trkpt><trkpt lat="45.504339176190925" lon="8.66928843218683"><ele>163.0</ele><time>2026-04-17T12:33:59.01Z</time></trkpt><trkpt lat="45.504481680822245" lon="8.669210741164061"><ele>162.66666666666669</ele><time>2026-04-17T12:34:00.01Z</time></trkpt><trkpt lat="45.504622702132934" lon="8.66913400501416"><ele>162.33333333333334</ele><time>2026-04-17T12:34:01.01Z</time></trkpt><trkpt lat="45.50476320907452" lon="8.669058130929505"><ele>162.0</ele><time>2026-04-17T12:34:02.01Z</time></trkpt><trkpt lat="45.50490331646368" lon="8.668981421316568"><ele>162.0</ele><time>2026-04-17T12:34:03.01Z</time></trkpt><trkpt lat="45.50504359832304" lon="8.668901532122584"><ele>162.0</ele><time>2026-04-17T12:34:04.01Z</time></trkpt><trkpt lat="45.50518357319549" lon="8.668817597047004"><ele>162.0</ele><time>2026-04-17T12:34:05.01Z</time></trkpt><trkpt lat="45.50532195181196" lon="8.668730965798716"><ele>162.5</ele><time>2026-04-17T12:34:06.01Z</time></trkpt><trkpt lat="45.505460686235594" lon="8.668646730825778"><ele>163.0</ele><time>2026-04-17T12:34:07.01Z</time></trkpt><trkpt lat="45.50559736158535" lon="8.668563726569733"><ele>163.5</ele><time>2026-04-17T12:34:08.01Z</time></trkpt><trkpt lat="45.505735558491814" lon="8.668484226606815"><ele>164.0</ele><time>2026-04-17T12:34:09.01Z</time></trkpt><trkpt lat="45.5058728995397" lon="8.668407473262672"><ele>164.0</ele><time>2026-04-17T12:34:10.01Z</time></trkpt><trkpt lat="45.506012654123296" lon="8.66833631544782"><ele>164.0</ele><time>2026-04-17T12:34:11.01Z</time></trkpt><trkpt lat="45.50615525300673" lon="8.668267340120238"><ele>164.0</ele><time>2026-04-17T12:34:12.01Z</time></trkpt><trkpt lat="45.50629655281475" lon="8.66820140210581"><ele>164.0</ele><time>2026-04-17T12:34:13.01Z</time></trkpt><trkpt lat="45.50644054745563" lon="8.668137694153273"><ele>164.5</ele><time>2026-04-17T12:34:14.01Z</time></trkpt><trkpt lat="45.506582708740545" lon="8.668069548104077"><ele>165.0</ele><time>2026-04-17T12:34:15.01Z</time></trkpt><trkpt lat="45.50672655758279" lon="8.668001295469029"><ele>165.5</ele><time>2026-04-17T12:34:16.01Z</time></trkpt><trkpt lat="45.50686594254521" lon="8.667933593863006"><ele>166.0</ele><time>2026-04-17T12:34:17.01Z</time></trkpt><trkpt lat="45.507002111757316" lon="8.667867011171339"><ele>166.0</ele><time>2026-04-17T12:34:18.01Z</time></trkpt><trkpt lat="45.50713521326411" lon="8.66780167791704"><ele>166.0</ele><time>2026-04-17T12:34:19.01Z</time></trkpt><trkpt lat="45.5072660879198" lon="8.667742758103362"><ele>166.0</ele><time>2026-04-17T12:34:20.01Z</time></trkpt><trkpt lat="45.507397922244245" lon="8.667681966728452"><ele>166.0</ele><time>2026-04-17T12:34:21.01Z</time></trkpt><trkpt lat="45.50753266343903" lon="8.667621466836836"><ele>166.0</ele><time>2026-04-17T12:34:22.01Z</time></trkpt><trkpt lat="45.5076678660932" lon="8.667559878732945"><ele>166.0</ele><time>2026-04-17T12:34:23.01Z</time></trkpt><trkpt lat="45.50780472029481" lon="8.667499451864082"><ele>166.0</ele><time>2026-04-17T12:34:24.01Z</time></trkpt><trkpt lat="45.50794142421068" lon="8.667432457318263"><ele>166.0</ele><time>2026-04-17T12:34:25.01Z</time></trkpt><trkpt lat="45.508081091896244" lon="8.667364684593327"><ele>165.5</ele><time>2026-04-17T12:34:26.01Z</time></trkpt><trkpt lat="45.50821674654866" lon="8.667297143543797"><ele>165.0</ele><time>2026-04-17T12:34:27.01Z</time></trkpt><trkpt lat="45.50835406689688" lon="8.667228834368768"><ele>164.5</ele><time>2026-04-17T12:34:28.01Z</time></trkpt><trkpt lat="45.50849127840079" lon="8.667162877525424"><ele>164.0</ele><time>2026-04-17T12:34:29.01Z</time></trkpt><trkpt lat="45.50862011472503" lon="8.667101124125198"><ele>164.0</ele><time>2026-04-17T12:34:30.01Z</time></trkpt><trkpt lat="45.50874278554686" lon="8.667045917224284"><ele>164.0</ele><time>2026-04-17T12:34:31.01Z</time></trkpt><trkpt lat="45.50886357623961" lon="8.666995671863228"><ele>164.0</ele><time>2026-04-17T12:34:32.01Z</time></trkpt><trkpt lat="45.50898356550908" lon="8.666937868703295"><ele>164.0</ele><time>2026-04-17T12:34:33.01Z</time></trkpt><trkpt lat="45.50909771246766" lon="8.666880970813093"><ele>164.2</ele><time>2026-04-17T12:34:34.01Z</time></trkpt><trkpt lat="45.509204923531236" lon="8.66682308015553"><ele>164.39999999999998</ele><time>2026-04-17T12:34:35.01Z</time></trkpt><trkpt lat="45.50930588553829" lon="8.666772638665392"><ele>164.6</ele><time>2026-04-17T12:34:36.01Z</time></trkpt><trkpt lat="45.509399130465866" lon="8.666731289476964"><ele>164.8</ele><time>2026-04-17T12:34:37.01Z</time></trkpt><trkpt lat="45.509481135275685" lon="8.666703252797532"><ele>165.0</ele><time>2026-04-17T12:34:38.01Z</time></trkpt><trkpt lat="45.50955667687599" lon="8.666690961956999"><ele>165.5</ele><time>2026-04-17T12:34:39.01Z</time></trkpt><trkpt lat="45.50962831969464" lon="8.666693200517088"><ele>166.0</ele><time>2026-04-17T12:34:40.01Z</time></trkpt><trkpt lat="45.50968996276117" lon="8.666715941825435"><ele>166.5</ele><time>2026-04-17T12:34:41.01Z</time></trkpt><trkpt lat="45.50975232812019" lon="8.666737321819626"><ele>167.0</ele><time>2026-04-17T12:34:42.01Z</time></trkpt><trkpt lat="45.50987056988897" lon="8.666696660617271"><ele>167.5</ele><time>2026-04-17T12:34:44.01Z</time></trkpt><trkpt lat="45.509925727125186" lon="8.666621450545573"><ele>168.0</ele><time>2026-04-17T12:34:45.01Z</time></trkpt><trkpt lat="45.50997983815248" lon="8.666531777979232"><ele>168.0</ele><time>2026-04-17T12:34:46.01Z</time></trkpt><trkpt lat="45.510050383014566" lon="8.666462128171366"><ele>168.0</ele><time>2026-04-17T12:34:47.01Z</time></trkpt><trkpt lat="45.51012813196359" lon="8.666411180875102"><ele>168.0</ele><time>2026-04-17T12:34:48.01Z</time></trkpt><trkpt lat="45.51020857628428" lon="8.666372693511246"><ele>168.0</ele><time>2026-04-17T12:34:49.011Z</time></trkpt><trkpt lat="45.51029748726986" lon="8.666332105597819"><ele>168.0</ele><time>2026-04-17T12:34:50.011Z</time></trkpt><trkpt lat="45.51038869196621" lon="8.666283847474423"><ele>168.0</ele><time>2026-04-17T12:34:51.011Z</time></trkpt><trkpt lat="45.510480550711655" lon="8.666220067362076"><ele>168.0</ele><time>2026-04-17T12:34:52.011Z</time></trkpt><trkpt lat="45.51057155424333" lon="8.666160937955107"><ele>168.0</ele><time>2026-04-17T12:34:53.011Z</time></trkpt><trkpt lat="45.51066832269839" lon="8.666100450583786"><ele>168.0</ele><time>2026-04-17T12:34:54.011Z</time></trkpt><trkpt lat="45.5107683554633" lon="8.66602904742716"><ele>168.0</ele><time>2026-04-17T12:34:55.011Z</time></trkpt><trkpt lat="45.51087125194081" lon="8.66594453376726"><ele>168.0</ele><time>2026-04-17T12:34:56.011Z</time></trkpt><trkpt lat="45.510975616898556" lon="8.665850555915325"><ele>167.25</ele><time>2026-04-17T12:34:57.011Z</time></trkpt><trkpt lat="45.51107984016702" lon="8.665743708679372"><ele>166.5</ele><time>2026-04-17T12:34:58.011Z</time></trkpt><trkpt lat="45.51118099830638" lon="8.665626690789935"><ele>165.75</ele><time>2026-04-17T12:34:59.011Z</time></trkpt><trkpt lat="45.51127357945089" lon="8.66550441892569"><ele>165.0</ele><time>2026-04-17T12:35:00.011Z</time></trkpt><trkpt lat="45.51136584415717" lon="8.665375936927546"><ele>165.0</ele><time>2026-04-17T12:35:01.011Z</time></trkpt><trkpt lat="45.51145773777459" lon="8.665240002480239"><ele>165.0</ele><time>2026-04-17T12:35:02.011Z</time></trkpt><trkpt lat="45.51154964483951" lon="8.665098140240113"><ele>165.0</ele><time>2026-04-17T12:35:03.011Z</time></trkpt><trkpt lat="45.51164276335748" lon="8.664949358755807"><ele>165.0</ele><time>2026-04-17T12:35:04.011Z</time></trkpt><trkpt lat="45.51173531387219" lon="8.664800465295988"><ele>165.0</ele><time>2026-04-17T12:35:05.011Z</time></trkpt><trkpt lat="45.51182259621126" lon="8.664648536725133"><ele>165.0</ele><time>2026-04-17T12:35:06.011Z</time></trkpt><trkpt lat="45.5119123282726" lon="8.664502781236104"><ele>165.0</ele><time>2026-04-17T12:35:07.011Z</time></trkpt><trkpt lat="45.51200248334987" lon="8.66435712354976"><ele>165.0</ele><time>2026-04-17T12:35:08.011Z</time></trkpt><trkpt lat="45.51209559858783" lon="8.664209157524999"><ele>164.75</ele><time>2026-04-17T12:35:09.011Z</time></trkpt><trkpt lat="45.51218569002004" lon="8.664063555694726"><ele>164.5</ele><time>2026-04-17T12:35:10.011Z</time></trkpt><trkpt lat="45.512274215960126" lon="8.663917361077898"><ele>164.25</ele><time>2026-04-17T12:35:11.011Z</time></trkpt><trkpt lat="45.512361519888046" lon="8.663769798796089"><ele>164.0</ele><time>2026-04-17T12:35:12.011Z</time></trkpt><trkpt lat="45.51245016525714" lon="8.663625235529562"><ele>164.75</ele><time>2026-04-17T12:35:13.011Z</time></trkpt><trkpt lat="45.51253990183867" lon="8.663478733655385"><ele>165.5</ele><time>2026-04-17T12:35:14.011Z</time></trkpt><trkpt lat="45.51263049551844" lon="8.663327974918431"><ele>166.25</ele><time>2026-04-17T12:35:15.011Z</time></trkpt><trkpt lat="45.512722260488836" lon="8.663175198072127"><ele>167.0</ele><time>2026-04-17T12:35:16.011Z</time></trkpt><trkpt lat="45.512813422364566" lon="8.663020881474251"><ele>167.0</ele><time>2026-04-17T12:35:17.011Z</time></trkpt><trkpt lat="45.512906419139284" lon="8.66286514226381"><ele>167.0</ele><time>2026-04-17T12:35:18.011Z</time></trkpt><trkpt lat="45.512996914540714" lon="8.662717275825182"><ele>167.0</ele><time>2026-04-17T12:35:19.011Z</time></trkpt><trkpt lat="45.513087573766924" lon="8.662566959611084"><ele>167.0</ele><time>2026-04-17T12:35:20.011Z</time></trkpt><trkpt lat="45.513179267311344" lon="8.662415184979556"><ele>167.0</ele><time>2026-04-17T12:35:21.011Z</time></trkpt><trkpt lat="45.51327233707638" lon="8.662268942288774"><ele>167.0</ele><time>2026-04-17T12:35:22.011Z</time></trkpt><trkpt lat="45.51337082358233" lon="8.662127872300408"><ele>167.0</ele><time>2026-04-17T12:35:23.011Z</time></trkpt><trkpt lat="45.513474089818274" lon="8.661992591259187"><ele>167.0</ele><time>2026-04-17T12:35:24.011Z</time></trkpt><trkpt lat="45.51358510439418" lon="8.661862246657105"><ele>166.5</ele><time>2026-04-17T12:35:25.011Z</time></trkpt><trkpt lat="45.51370171328505" lon="8.661735175848689"><ele>166.0</ele><time>2026-04-17T12:35:26.011Z</time></trkpt><trkpt lat="45.51382681180068" lon="8.661615146789668"><ele>165.5</ele><time>2026-04-17T12:35:27.011Z</time></trkpt><trkpt lat="45.513956943909626" lon="8.661503052939377"><ele>165.0</ele><time>2026-04-17T12:35:28.011Z</time></trkpt><trkpt lat="45.5140960713612" lon="8.661395701665526"><ele>165.33333333333334</ele><time>2026-04-17T12:35:29.011Z</time></trkpt><trkpt lat="45.51423929893294" lon="8.66129438767443"><ele>165.66666666666669</ele><time>2026-04-17T12:35:30.011Z</time></trkpt><trkpt lat="45.514385064091215" lon="8.661193313508507"><ele>166.0</ele><time>2026-04-17T12:35:31.011Z</time></trkpt><trkpt lat="45.514529783454094" lon="8.661091905753715"><ele>165.66666666666669</ele><time>2026-04-17T12:35:32.011Z</time></trkpt><trkpt lat="45.51467139565221" lon="8.66099213465191"><ele>165.33333333333334</ele><time>2026-04-17T12:35:33.011Z</time></trkpt><trkpt lat="45.51481141582293" lon="8.660893852498766"><ele>165.0</ele><time>2026-04-17T12:35:34.011Z</time></trkpt><trkpt lat="45.514951391096716" lon="8.6607966849261"><ele>165.0</ele><time>2026-04-17T12:35:35.011Z</time></trkpt><trkpt lat="45.51508842572714" lon="8.66070003332563"><ele>165.0</ele><time>2026-04-17T12:35:36.011Z</time></trkpt><trkpt lat="45.51522528084194" lon="8.660601785491837"><ele>165.0</ele><time>2026-04-17T12:35:37.011Z</time></trkpt><trkpt lat="45.51536384306123" lon="8.660505587513633"><ele>164.66666666666666</ele><time>2026-04-17T12:35:38.011Z</time></trkpt><trkpt lat="45.51550347228555" lon="8.660409981818967"><ele>164.33333333333331</ele><time>2026-04-17T12:35:39.011Z</time></trkpt><trkpt lat="45.51564351076799" lon="8.660311676262198"><ele>164.0</ele><time>2026-04-17T12:35:40.011Z</time></trkpt><trkpt lat="45.515782437422146" lon="8.66021545823023"><ele>164.0</ele><time>2026-04-17T12:35:41.011Z</time></trkpt><trkpt lat="45.51591850853267" lon="8.660123069857882"><ele>164.0</ele><time>2026-04-17T12:35:42.011Z</time></trkpt><trkpt lat="45.516054845371265" lon="8.660035650276289"><ele>164.0</ele><time>2026-04-17T12:35:43.012Z</time></trkpt><trkpt lat="45.5161912374201" lon="8.659947216096805"><ele>164.25</ele><time>2026-04-17T12:35:44.012Z</time></trkpt><trkpt lat="45.51632777625653" lon="8.659860347373236"><ele>164.5</ele><time>2026-04-17T12:35:45.012Z</time></trkpt><trkpt lat="45.51646444924401" lon="8.659775564298611"><ele>164.75</ele><time>2026-04-17T12:35:46.012Z</time></trkpt><trkpt lat="45.51660310854482" lon="8.65969446158815"><ele>165.0</ele><time>2026-04-17T12:35:47.012Z</time></trkpt><trkpt lat="45.5167433095127" lon="8.659616174133587"><ele>165.0</ele><time>2026-04-17T12:35:48.012Z</time></trkpt><trkpt lat="45.51688484989411" lon="8.659539199187451"><ele>165.0</ele><time>2026-04-17T12:35:49.012Z</time></trkpt><trkpt lat="45.51702940455377" lon="8.659462635046383"><ele>165.0</ele><time>2026-04-17T12:35:50.012Z</time></trkpt><trkpt lat="45.51717725880062" lon="8.65938579338063"><ele>166.0</ele><time>2026-04-17T12:35:51.012Z</time></trkpt><trkpt lat="45.517326838974924" lon="8.659312957513986"><ele>167.0</ele><time>2026-04-17T12:35:52.012Z</time></trkpt><trkpt lat="45.51747735853986" lon="8.659242798738864"><ele>168.0</ele><time>2026-04-17T12:35:53.012Z</time></trkpt><trkpt lat="45.517629076414465" lon="8.659175681274613"><ele>168.0</ele><time>2026-04-17T12:35:54.012Z</time></trkpt><trkpt lat="45.51778246095452" lon="8.659109962473252"><ele>168.0</ele><time>2026-04-17T12:35:55.012Z</time></trkpt><trkpt lat="45.51793713816387" lon="8.659045601962758"><ele>168.0</ele><time>2026-04-17T12:35:56.012Z</time></trkpt><trkpt lat="45.518093196627966" lon="8.658984802533256"><ele>167.66666666666666</ele><time>2026-04-17T12:35:57.012Z</time></trkpt><trkpt lat="45.51824876906793" lon="8.658926875923724"><ele>167.33333333333331</ele><time>2026-04-17T12:35:58.012Z</time></trkpt><trkpt lat="45.518405210210304" lon="8.658871039639953"><ele>167.0</ele><time>2026-04-17T12:35:59.012Z</time></trkpt><trkpt lat="45.518561694161185" lon="8.658817062444909"><ele>167.0</ele><time>2026-04-17T12:36:00.012Z</time></trkpt><trkpt lat="45.51871845635102" lon="8.658766211533003"><ele>167.0</ele><time>2026-04-17T12:36:01.012Z</time></trkpt><trkpt lat="45.51887510847944" lon="8.658718699111516"><ele>167.0</ele><time>2026-04-17T12:36:02.012Z</time></trkpt><trkpt lat="45.51903117346351" lon="8.65867330268252"><ele>166.66666666666666</ele><time>2026-04-17T12:36:03.012Z</time></trkpt><trkpt lat="45.519189626415354" lon="8.658631385089182"><ele>166.33333333333334</ele><time>2026-04-17T12:36:04.012Z</time></trkpt><trkpt lat="45.51934831224317" lon="8.6585945007272"><ele>166.0</ele><time>2026-04-17T12:36:05.012Z</time></trkpt><trkpt lat="45.51950746935424" lon="8.658559694099539"><ele>166.66666666666669</ele><time>2026-04-17T12:36:06.012Z</time></trkpt><trkpt lat="45.519664663622024" lon="8.658523561049082"><ele>167.33333333333334</ele><time>2026-04-17T12:36:07.012Z</time></trkpt><trkpt lat="45.51981977110731" lon="8.658489320333297"><ele>168.0</ele><time>2026-04-17T12:36:08.012Z</time></trkpt><trkpt lat="45.519973709958656" lon="8.658463474779198"><ele>168.0</ele><time>2026-04-17T12:36:09.012Z</time></trkpt><trkpt lat="45.52012371568791" lon="8.658437920464463"><ele>168.0</ele><time>2026-04-17T12:36:10.012Z</time></trkpt><trkpt lat="45.52027257892072" lon="8.658415250143472"><ele>168.0</ele><time>2026-04-17T12:36:11.012Z</time></trkpt><trkpt lat="45.52041867507764" lon="8.65839283060825"><ele>168.0</ele><time>2026-04-17T12:36:12.012Z</time></trkpt><trkpt lat="45.520562690359455" lon="8.658374252330256"><ele>168.0</ele><time>2026-04-17T12:36:13.012Z</time></trkpt><trkpt lat="45.52070593934163" lon="8.658357028288016"><ele>168.0</ele><time>2026-04-17T12:36:14.012Z</time></trkpt><trkpt lat="45.52085088303162" lon="8.658341504821859"><ele>168.0</ele><time>2026-04-17T12:36:15.012Z</time></trkpt><trkpt lat="45.52099227564145" lon="8.658330825313893"><ele>168.0</ele><time>2026-04-17T12:36:16.012Z</time></trkpt><trkpt lat="45.52112338947417" lon="8.658320552137"><ele>168.4</ele><time>2026-04-17T12:36:17.012Z</time></trkpt><trkpt lat="45.521246248443106" lon="8.658311139559503"><ele>168.8</ele><time>2026-04-17T12:36:18.012Z</time></trkpt><trkpt lat="45.52135956565238" lon="8.658303090799883"><ele>169.2</ele><time>2026-04-17T12:36:19.012Z</time></trkpt><trkpt lat="45.52146404924068" lon="8.658290410712231"><ele>169.6</ele><time>2026-04-17T12:36:20.012Z</time></trkpt><trkpt lat="45.521566104361405" lon="8.658283270916495"><ele>170.0</ele><time>2026-04-17T12:36:21.012Z</time></trkpt><trkpt lat="45.521664369558316" lon="8.65828631352304"><ele>170.0</ele><time>2026-04-17T12:36:22.012Z</time></trkpt><trkpt lat="45.52176778111416" lon="8.658295224637055"><ele>170.0</ele><time>2026-04-17T12:36:23.012Z</time></trkpt><trkpt lat="45.52187560836846" lon="8.65829092042053"><ele>170.0</ele><time>2026-04-17T12:36:24.012Z</time></trkpt><trkpt lat="45.52198832496591" lon="8.658281477681664"><ele>170.0</ele><time>2026-04-17T12:36:25.012Z</time></trkpt><trkpt lat="45.522102800006614" lon="8.658279298650482"><ele>170.0</ele><time>2026-04-17T12:36:26.012Z</time></trkpt><trkpt lat="45.52222317942418" lon="8.6582865601429"><ele>170.25</ele><time>2026-04-17T12:36:27.012Z</time></trkpt><trkpt lat="45.52234864350909" lon="8.658294778873788"><ele>170.5</ele><time>2026-04-17T12:36:28.012Z</time></trkpt><trkpt lat="45.522479668644465" lon="8.65829677958724"><ele>170.75</ele><time>2026-04-17T12:36:29.012Z</time></trkpt><trkpt lat="45.5226161019245" lon="8.658293294520323"><ele>171.0</ele><time>2026-04-17T12:36:30.012Z</time></trkpt><trkpt lat="45.52275887741766" lon="8.658291689139972"><ele>171.75</ele><time>2026-04-17T12:36:31.012Z</time></trkpt><trkpt lat="45.522904953938095" lon="8.658292364343497"><ele>172.5</ele><time>2026-04-17T12:36:32.012Z</time></trkpt><trkpt lat="45.523054338835536" lon="8.658288870825832"><ele>173.25</ele><time>2026-04-17T12:36:33.012Z</time></trkpt><trkpt lat="45.52320576353505" lon="8.658286578776716"><ele>174.0</ele><time>2026-04-17T12:36:34.012Z</time></trkpt><trkpt lat="45.52335542282256" lon="8.6582883520055"><ele>174.0</ele><time>2026-04-17T12:36:35.012Z</time></trkpt><trkpt lat="45.523502139064895" lon="8.658292920469316"><ele>174.0</ele><time>2026-04-17T12:36:36.013Z</time></trkpt><trkpt lat="45.523651008764986" lon="8.658293589676674"><ele>174.0</ele><time>2026-04-17T12:36:37.013Z</time></trkpt><trkpt lat="45.52379919113451" lon="8.658294434708658"><ele>174.0</ele><time>2026-04-17T12:36:38.013Z</time></trkpt><trkpt lat="45.52394815660421" lon="8.658294253238886"><ele>173.75</ele><time>2026-04-17T12:36:39.013Z</time></trkpt><trkpt lat="45.52409527051899" lon="8.658294286938625"><ele>173.5</ele><time>2026-04-17T12:36:40.013Z</time></trkpt><trkpt lat="45.52424357676957" lon="8.658289391228257"><ele>173.25</ele><time>2026-04-17T12:36:41.013Z</time></trkpt><trkpt lat="45.52438482896184" lon="8.658288477006986"><ele>173.0</ele><time>2026-04-17T12:36:42.013Z</time></trkpt><trkpt lat="45.52452228493853" lon="8.658290073141282"><ele>173.75</ele><time>2026-04-17T12:36:43.013Z</time></trkpt><trkpt lat="45.52466441999578" lon="8.658288976349652"><ele>174.5</ele><time>2026-04-17T12:36:44.013Z</time></trkpt><trkpt lat="45.524800882399354" lon="8.658280970047924"><ele>175.25</ele><time>2026-04-17T12:36:45.013Z</time></trkpt><trkpt lat="45.52493597136282" lon="8.658267942539377"><ele>176.0</ele><time>2026-04-17T12:36:46.013Z</time></trkpt><trkpt lat="45.525059814141486" lon="8.658243400486892"><ele>176.0</ele><time>2026-04-17T12:36:47.013Z</time></trkpt><trkpt lat="45.52517776608061" lon="8.658207646324806"><ele>176.0</ele><time>2026-04-17T12:36:48.013Z</time></trkpt><trkpt lat="45.52528737845112" lon="8.658166457660553"><ele>176.0</ele><time>2026-04-17T12:36:49.013Z</time></trkpt><trkpt lat="45.52538741184345" lon="8.658115492634268"><ele>176.0</ele><time>2026-04-17T12:36:50.013Z</time></trkpt><trkpt lat="45.52548007451157" lon="8.658061152830891"><ele>176.0</ele><time>2026-04-17T12:36:51.013Z</time></trkpt><trkpt lat="45.525568672207285" lon="8.658004217734872"><ele>175.8</ele><time>2026-04-17T12:36:52.013Z</time></trkpt><trkpt lat="45.52565560512559" lon="8.657947174534815"><ele>175.60000000000002</ele><time>2026-04-17T12:36:53.013Z</time></trkpt><trkpt lat="45.525750897682016" lon="8.657906737966284"><ele>175.4</ele><time>2026-04-17T12:36:54.013Z</time></trkpt><trkpt lat="45.52584856000392" lon="8.657867855496509"><ele>175.2</ele><time>2026-04-17T12:36:55.013Z</time></trkpt><trkpt lat="45.52594902504751" lon="8.657818880561758"><ele>175.0</ele><time>2026-04-17T12:36:56.013Z</time></trkpt><trkpt lat="45.52605727690119" lon="8.657778143040783"><ele>175.0</ele><time>2026-04-17T12:36:57.013Z</time></trkpt><trkpt lat="45.526173909624475" lon="8.65773636606277"><ele>175.0</ele><time>2026-04-17T12:36:58.013Z</time></trkpt><trkpt lat="45.52629781268833" lon="8.657686177812613"><ele>175.0</ele><time>2026-04-17T12:36:59.013Z</time></trkpt><trkpt lat="45.52642416148276" lon="8.657632144272446"><ele>175.0</ele><time>2026-04-17T12:37:00.013Z</time></trkpt><trkpt lat="45.52655320018779" lon="8.657559356489609"><ele>175.0</ele><time>2026-04-17T12:37:01.013Z</time></trkpt><trkpt lat="45.5266766029421" lon="8.65747070628753"><ele>175.0</ele><time>2026-04-17T12:37:02.013Z</time></trkpt><trkpt lat="45.52679914594265" lon="8.657366179339757"><ele>175.0</ele><time>2026-04-17T12:37:03.013Z</time></trkpt><trkpt lat="45.52692471485791" lon="8.657256820007749"><ele>175.0</ele><time>2026-04-17T12:37:04.013Z</time></trkpt><trkpt lat="45.5270535615574" lon="8.657145604891959"><ele>175.0</ele><time>2026-04-17T12:37:05.013Z</time></trkpt><trkpt lat="45.52718531670648" lon="8.657036142899097"><ele>175.0</ele><time>2026-04-17T12:37:06.013Z</time></trkpt><trkpt lat="45.52731839496105" lon="8.65692040281249"><ele>175.0</ele><time>2026-04-17T12:37:07.013Z</time></trkpt><trkpt lat="45.52745130584727" lon="8.656802704822946"><ele>175.0</ele><time>2026-04-17T12:37:08.013Z</time></trkpt><trkpt lat="45.52758616755313" lon="8.65668668718179"><ele>175.0</ele><time>2026-04-17T12:37:09.013Z</time></trkpt><trkpt lat="45.527722507028756" lon="8.656569197997591"><ele>175.0</ele><time>2026-04-17T12:37:10.013Z</time></trkpt><trkpt lat="45.527860743814806" lon="8.656447975134961"><ele>175.66666666666669</ele><time>2026-04-17T12:37:11.013Z</time></trkpt><trkpt lat="45.52799699605618" lon="8.656329954531548"><ele>176.33333333333334</ele><time>2026-04-17T12:37:12.013Z</time></trkpt><trkpt lat="45.52813314901055" lon="8.65621149976758"><ele>177.0</ele><time>2026-04-17T12:37:13.013Z</time></trkpt><trkpt lat="45.52827090847249" lon="8.656092655588505"><ele>177.0</ele><time>2026-04-17T12:37:14.013Z</time></trkpt><trkpt lat="45.528411810809864" lon="8.655975951729976"><ele>177.0</ele><time>2026-04-17T12:37:15.013Z</time></trkpt><trkpt lat="45.52855616298827" lon="8.655857248797274"><ele>177.0</ele><time>2026-04-17T12:37:16.013Z</time></trkpt><trkpt lat="45.52869942018382" lon="8.655731534605161"><ele>177.33333333333334</ele><time>2026-04-17T12:37:17.013Z</time></trkpt><trkpt lat="45.52884225943263" lon="8.655608093465219"><ele>177.66666666666669</ele><time>2026-04-17T12:37:18.013Z</time></trkpt><trkpt lat="45.5289822725673" lon="8.655485902561804"><ele>178.0</ele><time>2026-04-17T12:37:19.013Z</time></trkpt><trkpt lat="45.52912173522295" lon="8.655366438974188"><ele>177.0</ele><time>2026-04-17T12:37:20.013Z</time></trkpt><trkpt lat="45.529258058509384" lon="8.655245089576919"><ele>176.0</ele><time>2026-04-17T12:37:21.013Z</time></trkpt><trkpt lat="45.52939672239907" lon="8.655118490452084"><ele>175.0</ele><time>2026-04-17T12:37:22.013Z</time></trkpt><trkpt lat="45.529533650256745" lon="8.654997111824091"><ele>175.0</ele><time>2026-04-17T12:37:23.013Z</time></trkpt><trkpt lat="45.529676160368574" lon="8.654880592819897"><ele>175.0</ele><time>2026-04-17T12:37:24.013Z</time></trkpt><trkpt lat="45.52981732013596" lon="8.654762518931303"><ele>175.0</ele><time>2026-04-17T12:37:25.013Z</time></trkpt><trkpt lat="45.52995161424782" lon="8.65464469880985"><ele>175.0</ele><time>2026-04-17T12:37:26.013Z</time></trkpt><trkpt lat="45.53007971944324" lon="8.654532641110322"><ele>175.0</ele><time>2026-04-17T12:37:27.013Z</time></trkpt><trkpt lat="45.530201472147645" lon="8.654426242380845"><ele>175.0</ele><time>2026-04-17T12:37:28.013Z</time></trkpt><trkpt lat="45.53031616288263" lon="8.654323020226316"><ele>175.0</ele><time>2026-04-17T12:37:29.013Z</time></trkpt><trkpt lat="45.53042874033632" lon="8.654229370163895"><ele>174.75</ele><time>2026-04-17T12:37:30.014Z</time></trkpt><trkpt lat="45.53053851729827" lon="8.65414182485528"><ele>174.5</ele><time>2026-04-17T12:37:31.014Z</time></trkpt><trkpt lat="45.5306512650784" lon="8.654056079562645"><ele>174.25</ele><time>2026-04-17T12:37:32.014Z</time></trkpt><trkpt lat="45.530759981039296" lon="8.653986387077888"><ele>174.0</ele><time>2026-04-17T12:37:33.014Z</time></trkpt><trkpt lat="45.530865637964354" lon="8.653929667559925"><ele>174.0</ele><time>2026-04-17T12:37:34.014Z</time></trkpt><trkpt lat="45.530968424097566" lon="8.653885433353445"><ele>174.0</ele><time>2026-04-17T12:37:35.014Z</time></trkpt><trkpt lat="45.53106915812849" lon="8.653861969540458"><ele>174.0</ele><time>2026-04-17T12:37:36.014Z</time></trkpt><trkpt lat="45.53116441071846" lon="8.653866863582989"><ele>174.0</ele><time>2026-04-17T12:37:37.014Z</time></trkpt><trkpt lat="45.53125592623261" lon="8.653905706428963"><ele>174.0</ele><time>2026-04-17T12:37:38.014Z</time></trkpt><trkpt lat="45.531351028884394" lon="8.653945068807554"><ele>174.25</ele><time>2026-04-17T12:37:39.014Z</time></trkpt><trkpt lat="45.53145749975841" lon="8.653946472440925"><ele>174.5</ele><time>2026-04-17T12:37:40.014Z</time></trkpt><trkpt lat="45.53156823233121" lon="8.653912640244753"><ele>174.75</ele><time>2026-04-17T12:37:41.014Z</time></trkpt><trkpt lat="45.53168342749765" lon="8.653863425686637"><ele>175.0</ele><time>2026-04-17T12:37:42.014Z</time></trkpt><trkpt lat="45.53180831592234" lon="8.653848266594329"><ele>175.0</ele><time>2026-04-17T12:37:43.014Z</time></trkpt><trkpt lat="45.53193670014719" lon="8.653883812226674"><ele>175.0</ele><time>2026-04-17T12:37:44.014Z</time></trkpt><trkpt lat="45.5320656983478" lon="8.653937951412898"><ele>175.0</ele><time>2026-04-17T12:37:45.014Z</time></trkpt><trkpt lat="45.532196751876135" lon="8.654004021635961"><ele>175.0</ele><time>2026-04-17T12:37:46.014Z</time></trkpt><trkpt lat="45.53233603654063" lon="8.654069678472565"><ele>176.0</ele><time>2026-04-17T12:37:47.014Z</time></trkpt><trkpt lat="45.532481088785076" lon="8.654135756611998"><ele>177.0</ele><time>2026-04-17T12:37:48.014Z</time></trkpt><trkpt lat="45.53262078493108" lon="8.654204018998817"><ele>178.0</ele><time>2026-04-17T12:37:49.014Z</time></trkpt><trkpt lat="45.53276464732684" lon="8.65427490098021"><ele>177.66666666666669</ele><time>2026-04-17T12:37:50.014Z</time></trkpt><trkpt lat="45.53291415920364" lon="8.654346843038594"><ele>177.33333333333334</ele><time>2026-04-17T12:37:51.014Z</time></trkpt><trkpt lat="45.533069428760925" lon="8.654417319924317"><ele>177.0</ele><time>2026-04-17T12:37:52.014Z</time></trkpt><trkpt lat="45.533229079213505" lon="8.654487069693639"><ele>177.66666666666666</ele><time>2026-04-17T12:37:53.014Z</time></trkpt><trkpt lat="45.53339300528794" lon="8.654558505423346"><ele>178.33333333333331</ele><time>2026-04-17T12:37:54.014Z</time></trkpt><trkpt lat="45.53355968371821" lon="8.654629738407431"><ele>179.0</ele><time>2026-04-17T12:37:55.014Z</time></trkpt><trkpt lat="45.53372702958593" lon="8.654710175923254"><ele>179.0</ele><time>2026-04-17T12:37:56.014Z</time></trkpt><trkpt lat="45.533895430133214" lon="8.654792070888572"><ele>179.0</ele><time>2026-04-17T12:37:57.014Z</time></trkpt><trkpt lat="45.53406607651471" lon="8.654876743529554"><ele>179.0</ele><time>2026-04-17T12:37:58.014Z</time></trkpt><trkpt lat="45.534238166215104" lon="8.654960612037211"><ele>179.0</ele><time>2026-04-17T12:37:59.014Z</time></trkpt><trkpt lat="45.53440982416069" lon="8.655045423198679"><ele>179.0</ele><time>2026-04-17T12:38:00.014Z</time></trkpt><trkpt lat="45.53458230196493" lon="8.65513296186707"><ele>179.0</ele><time>2026-04-17T12:38:01.014Z</time></trkpt><trkpt lat="45.53475205702936" lon="8.655215464480827"><ele>177.66666666666666</ele><time>2026-04-17T12:38:02.014Z</time></trkpt><trkpt lat="45.53491998935877" lon="8.655291232016625"><ele>176.33333333333334</ele><time>2026-04-17T12:38:03.014Z</time></trkpt><trkpt lat="45.53509120703755" lon="8.655346181990257"><ele>175.0</ele><time>2026-04-17T12:38:04.014Z</time></trkpt><trkpt lat="45.53526630973622" lon="8.655380127818214"><ele>175.66666666666669</ele><time>2026-04-17T12:38:05.014Z</time></trkpt><trkpt lat="45.535444550985254" lon="8.655386889461282"><ele>176.33333333333334</ele><time>2026-04-17T12:38:06.014Z</time></trkpt><trkpt lat="45.53562299248377" lon="8.655380521612738"><ele>177.0</ele><time>2026-04-17T12:38:07.014Z</time></trkpt><trkpt lat="45.5358044021145" lon="8.655352261776695"><ele>177.0</ele><time>2026-04-17T12:38:08.014Z</time></trkpt><trkpt lat="45.53598279339669" lon="8.655306384804598"><ele>177.0</ele><time>2026-04-17T12:38:09.014Z</time></trkpt><trkpt lat="45.5361583222565" lon="8.6552428414748"><ele>177.0</ele><time>2026-04-17T12:38:10.014Z</time></trkpt><trkpt lat="45.536334091268955" lon="8.655172083833522"><ele>177.66666666666666</ele><time>2026-04-17T12:38:11.014Z</time></trkpt><trkpt lat="45.536511738755436" lon="8.655101856744192"><ele>178.33333333333331</ele><time>2026-04-17T12:38:12.014Z</time></trkpt><trkpt lat="45.536689896903866" lon="8.655031703049858"><ele>179.0</ele><time>2026-04-17T12:38:13.014Z</time></trkpt><trkpt lat="45.536867683747495" lon="8.654959595061063"><ele>179.0</ele><time>2026-04-17T12:38:14.014Z</time></trkpt><trkpt lat="45.53704799517916" lon="8.65488613597282"><ele>179.0</ele><time>2026-04-17T12:38:15.014Z</time></trkpt><trkpt lat="45.53722884624161" lon="8.654810794015443"><ele>179.0</ele><time>2026-04-17T12:38:16.014Z</time></trkpt><trkpt lat="45.53741143926603" lon="8.654734769806899"><ele>178.66666666666666</ele><time>2026-04-17T12:38:17.014Z</time></trkpt><trkpt lat="45.53759548859042" lon="8.654660071045093"><ele>178.33333333333334</ele><time>2026-04-17T12:38:18.014Z</time></trkpt><trkpt lat="45.537779246766924" lon="8.654585560304895"><ele>178.0</ele><time>2026-04-17T12:38:19.014Z</time></trkpt><trkpt lat="45.53796287030366" lon="8.654511677749758"><ele>178.66666666666669</ele><time>2026-04-17T12:38:20.014Z</time></trkpt><trkpt lat="45.53814608872589" lon="8.65443702107734"><ele>179.33333333333334</ele><time>2026-04-17T12:38:21.014Z</time></trkpt><trkpt lat="45.53832906007475" lon="8.654362323144948"><ele>180.0</ele><time>2026-04-17T12:38:22.014Z</time></trkpt><trkpt lat="45.538512505537355" lon="8.654286658523793"><ele>180.0</ele><time>2026-04-17T12:38:23.014Z</time></trkpt><trkpt lat="45.53869582586686" lon="8.654210220147442"><ele>180.0</ele><time>2026-04-17T12:38:24.015Z</time></trkpt><trkpt lat="45.53887862998865" lon="8.654132834997665"><ele>180.0</ele><time>2026-04-17T12:38:25.015Z</time></trkpt><trkpt lat="45.53906142267114" lon="8.654055912485134"><ele>179.66666666666666</ele><time>2026-04-17T12:38:26.015Z</time></trkpt><trkpt lat="45.539243099879506" lon="8.653977800408803"><ele>179.33333333333331</ele><time>2026-04-17T12:38:27.015Z</time></trkpt><trkpt lat="45.53942421046703" lon="8.653899257419528"><ele>179.0</ele><time>2026-04-17T12:38:28.015Z</time></trkpt><trkpt lat="45.53960544789259" lon="8.653820313093084"><ele>179.0</ele><time>2026-04-17T12:38:29.015Z</time></trkpt><trkpt lat="45.53978687638697" lon="8.65374611544366"><ele>179.0</ele><time>2026-04-17T12:38:30.015Z</time></trkpt><trkpt lat="45.53996930009713" lon="8.653670706318133"><ele>179.0</ele><time>2026-04-17T12:38:31.015Z</time></trkpt><trkpt lat="45.54015197353852" lon="8.653597905319561"><ele>178.66666666666666</ele><time>2026-04-17T12:38:32.015Z</time></trkpt><trkpt lat="45.540335204432296" lon="8.653527671433627"><ele>178.33333333333334</ele><time>2026-04-17T12:38:33.015Z</time></trkpt><trkpt lat="45.540518761317166" lon="8.65345541432931"><ele>178.0</ele><time>2026-04-17T12:38:34.015Z</time></trkpt><trkpt lat="45.540704942319344" lon="8.65338157480929"><ele>178.0</ele><time>2026-04-17T12:38:35.015Z</time></trkpt><trkpt lat="45.54089211728647" lon="8.653305002047304"><ele>178.0</ele><time>2026-04-17T12:38:36.015Z</time></trkpt><trkpt lat="45.54108022457772" lon="8.653226035103758"><ele>178.0</ele><time>2026-04-17T12:38:37.015Z</time></trkpt><trkpt lat="45.541269734099636" lon="8.653145963958723"><ele>176.66666666666669</ele><time>2026-04-17T12:38:38.015Z</time></trkpt><trkpt lat="45.541461211729896" lon="8.653067033955187"><ele>175.33333333333334</ele><time>2026-04-17T12:38:39.015Z</time></trkpt><trkpt lat="45.54165449623487" lon="8.652986093374238"><ele>174.0</ele><time>2026-04-17T12:38:40.015Z</time></trkpt><trkpt lat="45.54184941901019" lon="8.652903038394571"><ele>174.0</ele><time>2026-04-17T12:38:41.015Z</time></trkpt><trkpt lat="45.54204588835946" lon="8.652820054486359"><ele>174.0</ele><time>2026-04-17T12:38:42.015Z</time></trkpt><trkpt lat="45.542242361448004" lon="8.652737909930321"><ele>174.0</ele><time>2026-04-17T12:38:43.015Z</time></trkpt><trkpt lat="45.54243792037105" lon="8.6526642427729"><ele>176.66666666666666</ele><time>2026-04-17T12:38:44.015Z</time></trkpt><trkpt lat="45.54263359528171" lon="8.652585485061971"><ele>179.33333333333331</ele><time>2026-04-17T12:38:45.015Z</time></trkpt><trkpt lat="45.54282817725976" lon="8.65250576109905"><ele>182.0</ele><time>2026-04-17T12:38:46.015Z</time></trkpt><trkpt lat="45.54302041060024" lon="8.65242866362857"><ele>182.0</ele><time>2026-04-17T12:38:47.015Z</time></trkpt><trkpt lat="45.54321334556881" lon="8.652349776307492"><ele>182.0</ele><time>2026-04-17T12:38:48.015Z</time></trkpt><trkpt lat="45.543406160021135" lon="8.652267895268324"><ele>182.0</ele><time>2026-04-17T12:38:49.015Z</time></trkpt><trkpt lat="45.5435979498651" lon="8.652188702600503"><ele>182.66666666666666</ele><time>2026-04-17T12:38:50.015Z</time></trkpt><trkpt lat="45.54379008861839" lon="8.652109565996192"><ele>183.33333333333334</ele><time>2026-04-17T12:38:51.015Z</time></trkpt><trkpt lat="45.54398311275001" lon="8.65203298972054"><ele>184.0</ele><time>2026-04-17T12:38:52.015Z</time></trkpt><trkpt lat="45.54417687660817" lon="8.651957109505586"><ele>184.33333333333334</ele><time>2026-04-17T12:38:53.015Z</time></trkpt><trkpt lat="45.544367614110605" lon="8.651887172631934"><ele>184.66666666666666</ele><time>2026-04-17T12:38:54.015Z</time></trkpt><trkpt lat="45.54455723177703" lon="8.651817004577742"><ele>185.0</ele><time>2026-04-17T12:38:55.015Z</time></trkpt><trkpt lat="45.5447469804017" lon="8.651746625162032"><ele>184.0</ele><time>2026-04-17T12:38:56.015Z</time></trkpt><trkpt lat="45.54493402372359" lon="8.651681886465928"><ele>183.0</ele><time>2026-04-17T12:38:57.015Z</time></trkpt><trkpt lat="45.54511932312403" lon="8.651619364075378"><ele>182.0</ele><time>2026-04-17T12:38:58.015Z</time></trkpt><trkpt lat="45.545302961258166" lon="8.651557288185366"><ele>181.66666666666666</ele><time>2026-04-17T12:38:59.015Z</time></trkpt><trkpt lat="45.54548742577669" lon="8.651496380032686"><ele>181.33333333333334</ele><time>2026-04-17T12:39:00.015Z</time></trkpt><trkpt lat="45.545671897864416" lon="8.651438331322623"><ele>181.0</ele><time>2026-04-17T12:39:01.015Z</time></trkpt><trkpt lat="45.5458586779639" lon="8.651382361809365"><ele>181.0</ele><time>2026-04-17T12:39:02.015Z</time></trkpt><trkpt lat="45.54604403924061" lon="8.651321563238358"><ele>181.0</ele><time>2026-04-17T12:39:03.015Z</time></trkpt><trkpt lat="45.54622436646387" lon="8.651260033694745"><ele>181.0</ele><time>2026-04-17T12:39:04.015Z</time></trkpt><trkpt lat="45.5463992936347" lon="8.651199048792765"><ele>181.33333333333334</ele><time>2026-04-17T12:39:05.015Z</time></trkpt><trkpt lat="45.546575914241224" lon="8.651135238167873"><ele>181.66666666666666</ele><time>2026-04-17T12:39:06.015Z</time></trkpt><trkpt lat="45.5467545334959" lon="8.651068803586085"><ele>182.0</ele><time>2026-04-17T12:39:07.015Z</time></trkpt><trkpt lat="45.54693397350181" lon="8.651000939149563"><ele>182.66666666666666</ele><time>2026-04-17T12:39:08.015Z</time></trkpt><trkpt lat="45.54711654997551" lon="8.6509329617265"><ele>183.33333333333334</ele><time>2026-04-17T12:39:09.015Z</time></trkpt><trkpt lat="45.5472992952438" lon="8.650866063986406"><ele>184.0</ele><time>2026-04-17T12:39:10.015Z</time></trkpt><trkpt lat="45.54748327990006" lon="8.650799180579833"><ele>184.0</ele><time>2026-04-17T12:39:11.015Z</time></trkpt><trkpt lat="45.54766693100906" lon="8.650730964513327"><ele>184.0</ele><time>2026-04-17T12:39:12.015Z</time></trkpt><trkpt lat="45.547851070773454" lon="8.650661550607108"><ele>184.0</ele><time>2026-04-17T12:39:13.015Z</time></trkpt><trkpt lat="45.54803643760896" lon="8.650592364675912"><ele>184.66666666666669</ele><time>2026-04-17T12:39:14.015Z</time></trkpt><trkpt lat="45.548222075848635" lon="8.650523351442425"><ele>185.33333333333334</ele><time>2026-04-17T12:39:15.015Z</time></trkpt><trkpt lat="45.5484075576454" lon="8.650455311406018"><ele>186.0</ele><time>2026-04-17T12:39:16.015Z</time></trkpt><trkpt lat="45.548593608260056" lon="8.650385818062569"><ele>185.33333333333334</ele><time>2026-04-17T12:39:17.015Z</time></trkpt><trkpt lat="45.54878187465638" lon="8.65031789397765"><ele>184.66666666666669</ele><time>2026-04-17T12:39:18.016Z</time></trkpt><trkpt lat="45.548971825601015" lon="8.650246067645556"><ele>184.0</ele><time>2026-04-17T12:39:19.016Z</time></trkpt><trkpt lat="45.54916291937695" lon="8.650176628023523"><ele>184.0</ele><time>2026-04-17T12:39:20.016Z</time></trkpt><trkpt lat="45.54935605545072" lon="8.650105620395566"><ele>184.0</ele><time>2026-04-17T12:39:21.016Z</time></trkpt><trkpt lat="45.54955048585936" lon="8.650032562070804"><ele>184.0</ele><time>2026-04-17T12:39:22.016Z</time></trkpt><trkpt lat="45.54974546415368" lon="8.64995950208047"><ele>183.66666666666669</ele><time>2026-04-17T12:39:23.016Z</time></trkpt><trkpt lat="45.54994084333934" lon="8.649888705077581"><ele>183.33333333333334</ele><time>2026-04-17T12:39:24.016Z</time></trkpt><trkpt lat="45.55013685363838" lon="8.649816529309343"><ele>183.0</ele><time>2026-04-17T12:39:25.016Z</time></trkpt><trkpt lat="45.550332718857376" lon="8.649746307965344"><ele>183.0</ele><time>2026-04-17T12:39:26.016Z</time></trkpt><trkpt lat="45.55052775000258" lon="8.649676913291263"><ele>183.0</ele><time>2026-04-17T12:39:27.016Z</time></trkpt><trkpt lat="45.55072036801305" lon="8.64960433366639"><ele>183.0</ele><time>2026-04-17T12:39:28.016Z</time></trkpt><trkpt lat="45.55091032420548" lon="8.649533850281982"><ele>183.0</ele><time>2026-04-17T12:39:29.016Z</time></trkpt><trkpt lat="45.551099292772456" lon="8.649464748360714"><ele>183.0</ele><time>2026-04-17T12:39:30.016Z</time></trkpt><trkpt lat="45.55128766062527" lon="8.649396845000576"><ele>183.0</ele><time>2026-04-17T12:39:31.016Z</time></trkpt><trkpt lat="45.55147291186343" lon="8.64932927206729"><ele>183.0</ele><time>2026-04-17T12:39:32.016Z</time></trkpt><trkpt lat="45.55165360912989" lon="8.649264156488258"><ele>183.0</ele><time>2026-04-17T12:39:33.016Z</time></trkpt><trkpt lat="45.55183068506865" lon="8.649200243521902"><ele>183.0</ele><time>2026-04-17T12:39:34.016Z</time></trkpt><trkpt lat="45.55200133823896" lon="8.649137796555177"><ele>183.33333333333334</ele><time>2026-04-17T12:39:35.016Z</time></trkpt><trkpt lat="45.55216822397466" lon="8.649078156891257"><ele>183.66666666666669</ele><time>2026-04-17T12:39:36.016Z</time></trkpt><trkpt lat="45.55233136348627" lon="8.649019847816556"><ele>184.0</ele><time>2026-04-17T12:39:37.016Z</time></trkpt><trkpt lat="45.552492104881544" lon="8.64896300415576"><ele>184.0</ele><time>2026-04-17T12:39:38.016Z</time></trkpt><trkpt lat="45.55265025631328" lon="8.648910038843297"><ele>184.0</ele><time>2026-04-17T12:39:39.016Z</time></trkpt><trkpt lat="45.552812604063476" lon="8.64885534402434"><ele>184.0</ele><time>2026-04-17T12:39:40.016Z</time></trkpt><trkpt lat="45.55297630245543" lon="8.648802844933318"><ele>184.33333333333334</ele><time>2026-04-17T12:39:41.016Z</time></trkpt><trkpt lat="45.55314151753713" lon="8.648749047439479"><ele>184.66666666666666</ele><time>2026-04-17T12:39:42.016Z</time></trkpt><trkpt lat="45.55330935418313" lon="8.648692412450917"><ele>185.0</ele><time>2026-04-17T12:39:43.016Z</time></trkpt><trkpt lat="45.55347810598169" lon="8.648633662967649"><ele>184.66666666666666</ele><time>2026-04-17T12:39:44.016Z</time></trkpt><trkpt lat="45.553647535064314" lon="8.64857249608111"><ele>184.33333333333334</ele><time>2026-04-17T12:39:45.016Z</time></trkpt><trkpt lat="45.553820721728734" lon="8.648515307011818"><ele>184.0</ele><time>2026-04-17T12:39:46.016Z</time></trkpt><trkpt lat="45.55399490303125" lon="8.648467551734065"><ele>184.0</ele><time>2026-04-17T12:39:47.016Z</time></trkpt><trkpt lat="45.55417172437731" lon="8.64843101962294"><ele>184.0</ele><time>2026-04-17T12:39:48.016Z</time></trkpt><trkpt lat="45.554353154147634" lon="8.648400978546915"><ele>184.0</ele><time>2026-04-17T12:39:49.016Z</time></trkpt><trkpt lat="45.55453471995191" lon="8.648372605870136"><ele>184.66666666666669</ele><time>2026-04-17T12:39:50.016Z</time></trkpt><trkpt lat="45.55471462589102" lon="8.648352957546878"><ele>185.33333333333334</ele><time>2026-04-17T12:39:51.016Z</time></trkpt><trkpt lat="45.554890872895605" lon="8.648347979366271"><ele>186.0</ele><time>2026-04-17T12:39:52.016Z</time></trkpt><trkpt lat="45.55506704219801" lon="8.648352362465168"><ele>186.0</ele><time>2026-04-17T12:39:53.016Z</time></trkpt><trkpt lat="45.555245082542825" lon="8.648358411102633"><ele>186.0</ele><time>2026-04-17T12:39:54.016Z</time></trkpt><trkpt lat="45.5554244111098" lon="8.648361913863285"><ele>186.0</ele><time>2026-04-17T12:39:55.016Z</time></trkpt><trkpt lat="45.55560086693824" lon="8.648367642050022"><ele>186.0</ele><time>2026-04-17T12:39:56.016Z</time></trkpt><trkpt lat="45.55577923949334" lon="8.648372325920658"><ele>186.0</ele><time>2026-04-17T12:39:57.016Z</time></trkpt><trkpt lat="45.55595753889234" lon="8.64838009739603"><ele>186.0</ele><time>2026-04-17T12:39:58.016Z</time></trkpt><trkpt lat="45.556138142755565" lon="8.648387756537838"><ele>186.33333333333334</ele><time>2026-04-17T12:39:59.016Z</time></trkpt><trkpt lat="45.5563192699029" lon="8.64839124728562"><ele>186.66666666666669</ele><time>2026-04-17T12:40:00.016Z</time></trkpt><trkpt lat="45.55650376502757" lon="8.648391150814264"><ele>187.0</ele><time>2026-04-17T12:40:01.016Z</time></trkpt><trkpt lat="45.55668889720188" lon="8.64838250743656"><ele>187.0</ele><time>2026-04-17T12:40:02.016Z</time></trkpt><trkpt lat="45.5568741471046" lon="8.64835815411582"><ele>187.0</ele><time>2026-04-17T12:40:03.016Z</time></trkpt><trkpt lat="45.55705746449152" lon="8.648316275792814"><ele>187.0</ele><time>2026-04-17T12:40:04.016Z</time></trkpt><trkpt lat="45.55723802334492" lon="8.648259879619797"><ele>187.66666666666669</ele><time>2026-04-17T12:40:05.016Z</time></trkpt><trkpt lat="45.557417828210056" lon="8.648194379206922"><ele>188.33333333333334</ele><time>2026-04-17T12:40:06.016Z</time></trkpt><trkpt lat="45.55759696597044" lon="8.648119105816068"><ele>189.0</ele><time>2026-04-17T12:40:07.016Z</time></trkpt><trkpt lat="45.557777159462454" lon="8.648042769447203"><ele>188.33333333333334</ele><time>2026-04-17T12:40:08.016Z</time></trkpt><trkpt lat="45.5579555355376" lon="8.647958985585584"><ele>187.66666666666669</ele><time>2026-04-17T12:40:09.016Z</time></trkpt><trkpt lat="45.55813303872767" lon="8.647873916310648"><ele>187.0</ele><time>2026-04-17T12:40:10.016Z</time></trkpt><trkpt lat="45.558311204919804" lon="8.647787833376846"><ele>187.0</ele><time>2026-04-17T12:40:11.016Z</time></trkpt><trkpt lat="45.558486996213716" lon="8.647703774333097"><ele>187.0</ele><time>2026-04-17T12:40:12.017Z</time></trkpt><trkpt lat="45.558662370088854" lon="8.64762324800401"><ele>187.0</ele><time>2026-04-17T12:40:13.017Z</time></trkpt><trkpt lat="45.5588383785813" lon="8.647539650762397"><ele>187.33333333333334</ele><time>2026-04-17T12:40:14.017Z</time></trkpt><trkpt lat="45.55901235021428" lon="8.647453263346181"><ele>187.66666666666666</ele><time>2026-04-17T12:40:15.017Z</time></trkpt><trkpt lat="45.55918261211945" lon="8.647368424634712"><ele>188.0</ele><time>2026-04-17T12:40:16.017Z</time></trkpt><trkpt lat="45.55935108802792" lon="8.647284517629231"><ele>188.0</ele><time>2026-04-17T12:40:17.017Z</time></trkpt><trkpt lat="45.55952066353333" lon="8.64720086072011"><ele>188.0</ele><time>2026-04-17T12:40:18.017Z</time></trkpt><trkpt lat="45.55969151238672" lon="8.64712076326492"><ele>188.0</ele><time>2026-04-17T12:40:19.017Z</time></trkpt><trkpt lat="45.55986273913015" lon="8.647037889651337"><ele>187.33333333333331</ele><time>2026-04-17T12:40:20.017Z</time></trkpt><trkpt lat="45.560034980600896" lon="8.646955115284332"><ele>186.66666666666666</ele><time>2026-04-17T12:40:21.017Z</time></trkpt><trkpt lat="45.560207220609826" lon="8.646873036473368"><ele>186.0</ele><time>2026-04-17T12:40:22.017Z</time></trkpt><trkpt lat="45.56037990648395" lon="8.646789502712002"><ele>185.66666666666666</ele><time>2026-04-17T12:40:23.017Z</time></trkpt><trkpt lat="45.56055297864755" lon="8.646706138355166"><ele>185.33333333333331</ele><time>2026-04-17T12:40:24.017Z</time></trkpt><trkpt lat="45.560727195103645" lon="8.646625157218864"><ele>185.0</ele><time>2026-04-17T12:40:25.017Z</time></trkpt><trkpt lat="45.560901038972695" lon="8.646543011791593"><ele>185.0</ele><time>2026-04-17T12:40:26.017Z</time></trkpt><trkpt lat="45.561074138586335" lon="8.646461076485812"><ele>185.0</ele><time>2026-04-17T12:40:27.017Z</time></trkpt><trkpt lat="45.56124786821635" lon="8.646380514531531"><ele>185.0</ele><time>2026-04-17T12:40:28.017Z</time></trkpt><trkpt lat="45.561418187241884" lon="8.6462977706923"><ele>185.66666666666666</ele><time>2026-04-17T12:40:29.017Z</time></trkpt><trkpt lat="45.561586616658936" lon="8.646216716483298"><ele>186.33333333333334</ele><time>2026-04-17T12:40:30.017Z</time></trkpt><trkpt lat="45.56175492798267" lon="8.646134897046421"><ele>187.0</ele><time>2026-04-17T12:40:31.017Z</time></trkpt><trkpt lat="45.5619239259847" lon="8.646049698401196"><ele>188.0</ele><time>2026-04-17T12:40:32.017Z</time></trkpt><trkpt lat="45.56209187683451" lon="8.645964654626473"><ele>189.0</ele><time>2026-04-17T12:40:33.017Z</time></trkpt><trkpt lat="45.56225988068084" lon="8.645882326008751"><ele>190.0</ele><time>2026-04-17T12:40:34.017Z</time></trkpt><trkpt lat="45.56242597998864" lon="8.645799651160027"><ele>190.0</ele><time>2026-04-17T12:40:35.017Z</time></trkpt><trkpt lat="45.5625888631235" lon="8.64572133874747"><ele>190.0</ele><time>2026-04-17T12:40:36.017Z</time></trkpt><trkpt lat="45.562750455152866" lon="8.645642505760868"><ele>190.0</ele><time>2026-04-17T12:40:37.017Z</time></trkpt><trkpt lat="45.56290588186615" lon="8.645567958011371"><ele>190.0</ele><time>2026-04-17T12:40:38.017Z</time></trkpt><trkpt lat="45.563054631152376" lon="8.645491784351979"><ele>190.0</ele><time>2026-04-17T12:40:39.017Z</time></trkpt><trkpt lat="45.56319310588286" lon="8.645419456711089"><ele>190.0</ele><time>2026-04-17T12:40:40.017Z</time></trkpt><trkpt lat="45.56332905376681" lon="8.64535275491831"><ele>190.0</ele><time>2026-04-17T12:40:41.017Z</time></trkpt><trkpt lat="45.56346329604069" lon="8.645286489614326"><ele>190.25</ele><time>2026-04-17T12:40:42.017Z</time></trkpt><trkpt lat="45.563596124894964" lon="8.645221843266256"><ele>190.5</ele><time>2026-04-17T12:40:43.017Z</time></trkpt><trkpt lat="45.56372539736384" lon="8.645156385610369"><ele>190.75</ele><time>2026-04-17T12:40:44.017Z</time></trkpt><trkpt lat="45.56384752563164" lon="8.645094459356814"><ele>191.0</ele><time>2026-04-17T12:40:45.017Z</time></trkpt><trkpt lat="45.56396354579597" lon="8.645035796466255"><ele>191.16666666666666</ele><time>2026-04-17T12:40:46.017Z</time></trkpt><trkpt lat="45.564072163096206" lon="8.644982718016472"><ele>191.33333333333331</ele><time>2026-04-17T12:40:47.017Z</time></trkpt><trkpt lat="45.564162368842545" lon="8.644936867326415"><ele>191.5</ele><time>2026-04-17T12:40:48.017Z</time></trkpt><trkpt lat="45.56424084653062" lon="8.64490150998866"><ele>191.66666666666666</ele><time>2026-04-17T12:40:49.017Z</time></trkpt><trkpt lat="45.5643201298758" lon="8.64488813805739"><ele>191.83333333333334</ele><time>2026-04-17T12:40:50.017Z</time></trkpt><trkpt lat="45.56439042776898" lon="8.644901436725318"><ele>192.0</ele><time>2026-04-17T12:40:51.017Z</time></trkpt><trkpt lat="45.56445161904422" lon="8.64493480378221"><ele>191.8</ele><time>2026-04-17T12:40:52.017Z</time></trkpt><trkpt lat="45.56456623857875" lon="8.644951731600788"><ele>191.6</ele><time>2026-04-17T12:40:54.017Z</time></trkpt><trkpt lat="45.564627665494164" lon="8.64483161674203"><ele>191.4</ele><time>2026-04-17T12:40:56.017Z</time></trkpt><trkpt lat="45.56459798351926" lon="8.644647382521804"><ele>191.20000000000002</ele><time>2026-04-17T12:40:58.017Z</time></trkpt><trkpt lat="45.56458258782459" lon="8.644530815824083"><ele>191.0</ele><time>2026-04-17T12:40:59.017Z</time></trkpt><trkpt lat="45.564574830415445" lon="8.644392151299206"><ele>191.0</ele><time>2026-04-17T12:41:00.017Z</time></trkpt><trkpt lat="45.56457522450642" lon="8.64423264934533"><ele>191.0</ele><time>2026-04-17T12:41:01.017Z</time></trkpt><trkpt lat="45.56458002484245" lon="8.64406523774644"><ele>191.0</ele><time>2026-04-17T12:41:02.017Z</time></trkpt><trkpt lat="45.56457963229582" lon="8.643890433607497"><ele>191.0</ele><time>2026-04-17T12:41:03.017Z</time></trkpt><trkpt lat="45.56457643282359" lon="8.643708679247192"><ele>190.75</ele><time>2026-04-17T12:41:04.017Z</time></trkpt><trkpt lat="45.564578520418735" lon="8.64353058741853"><ele>190.5</ele><time>2026-04-17T12:41:05.018Z</time></trkpt><trkpt lat="45.56458180354709" lon="8.643343041256308"><ele>190.25</ele><time>2026-04-17T12:41:06.018Z</time></trkpt><trkpt lat="45.56458515681596" lon="8.643145587362605"><ele>190.0</ele><time>2026-04-17T12:41:07.018Z</time></trkpt><trkpt lat="45.56457637772144" lon="8.642951525036732"><ele>190.2</ele><time>2026-04-17T12:41:08.018Z</time></trkpt><trkpt lat="45.564578993306945" lon="8.642765172783966"><ele>190.4</ele><time>2026-04-17T12:41:09.018Z</time></trkpt><trkpt lat="45.564580926635166" lon="8.64259793075104"><ele>190.60000000000002</ele><time>2026-04-17T12:41:10.018Z</time></trkpt><trkpt lat="45.56458760187418" lon="8.642450982291134"><ele>190.8</ele><time>2026-04-17T12:41:11.018Z</time></trkpt><trkpt lat="45.56459295450834" lon="8.642331359039304"><ele>191.0</ele><time>2026-04-17T12:41:12.018Z</time></trkpt><trkpt lat="45.56459696075443" lon="8.642224890023344"><ele>191.0</ele><time>2026-04-17T12:41:13.018Z</time></trkpt><trkpt lat="45.56459667644053" lon="8.64212528996081"><ele>191.0</ele><time>2026-04-17T12:41:14.018Z</time></trkpt><trkpt lat="45.564596802449564" lon="8.641985458763454"><ele>191.0</ele><time>2026-04-17T12:41:16.018Z</time></trkpt><trkpt lat="45.564608983602554" lon="8.641878688768216"><ele>191.0</ele><time>2026-04-17T12:41:20.018Z</time></trkpt><trkpt lat="45.564604052876916" lon="8.641764574588132"><ele>191.0</ele><time>2026-04-17T12:41:22.018Z</time></trkpt><trkpt lat="45.56458554682392" lon="8.641620463149447"><ele>191.0</ele><time>2026-04-17T12:41:24.018Z</time></trkpt><trkpt lat="45.56456634157184" lon="8.641482346588703"><ele>191.0</ele><time>2026-04-17T12:41:26.018Z</time></trkpt><trkpt lat="45.56453752247687" lon="8.641384580938286"><ele>191.0</ele><time>2026-04-17T12:41:28.018Z</time></trkpt><trkpt lat="45.564506901680865" lon="8.641228772620659"><ele>191.0</ele><time>2026-04-17T12:41:30.018Z</time></trkpt><trkpt lat="45.564486066054414" lon="8.641122115775554"><ele>191.0</ele><time>2026-04-17T12:41:31.018Z</time></trkpt><trkpt lat="45.56446985686536" lon="8.641018304808957"><ele>191.0</ele><time>2026-04-17T12:41:32.018Z</time></trkpt><trkpt lat="45.564456925972145" lon="8.640898376996711"><ele>191.0</ele><time>2026-04-17T12:41:33.018Z</time></trkpt><trkpt lat="45.56443731741222" lon="8.640764054645912"><ele>190.8</ele><time>2026-04-17T12:41:34.018Z</time></trkpt><trkpt lat="45.56441444475116" lon="8.640628899182662"><ele>190.60000000000002</ele><time>2026-04-17T12:41:35.018Z</time></trkpt><trkpt lat="45.564388331863654" lon="8.640491917383153"><ele>190.4</ele><time>2026-04-17T12:41:36.018Z</time></trkpt><trkpt lat="45.564362613918334" lon="8.640344277637377"><ele>190.2</ele><time>2026-04-17T12:41:37.018Z</time></trkpt><trkpt lat="45.56433775087969" lon="8.640187570409134"><ele>190.0</ele><time>2026-04-17T12:41:38.018Z</time></trkpt><trkpt lat="45.56431268697525" lon="8.640028412069958"><ele>190.0</ele><time>2026-04-17T12:41:39.018Z</time></trkpt><trkpt lat="45.56428978774164" lon="8.639882045905088"><ele>190.0</ele><time>2026-04-17T12:41:40.018Z</time></trkpt><trkpt lat="45.56426493866962" lon="8.639755247791923"><ele>190.0</ele><time>2026-04-17T12:41:41.018Z</time></trkpt><trkpt lat="45.564240460829566" lon="8.63964551139213"><ele>190.0</ele><time>2026-04-17T12:41:42.018Z</time></trkpt><trkpt lat="45.56421886351068" lon="8.63955276214414"><ele>190.0</ele><time>2026-04-17T12:41:43.018Z</time></trkpt><trkpt lat="45.56423854962828" lon="8.639420090095614"><ele>190.0</ele><time>2026-04-17T12:41:45.018Z</time></trkpt><trkpt lat="45.56433138358332" lon="8.639368317538787"><ele>191.16666666666669</ele><time>2026-04-17T12:41:47.018Z</time></trkpt><trkpt lat="45.56439611072246" lon="8.639354325935443"><ele>192.33333333333334</ele><time>2026-04-17T12:41:48.018Z</time></trkpt><trkpt lat="45.56447423383255" lon="8.639335590199979"><ele>193.5</ele><time>2026-04-17T12:41:49.018Z</time></trkpt><trkpt lat="45.5645598151296" lon="8.639309946765378"><ele>194.66666666666669</ele><time>2026-04-17T12:41:50.018Z</time></trkpt><trkpt lat="45.564654910204" lon="8.639280494960628"><ele>195.83333333333334</ele><time>2026-04-17T12:41:51.018Z</time></trkpt><trkpt lat="45.564758699479874" lon="8.639252241359308"><ele>197.0</ele><time>2026-04-17T12:41:52.018Z</time></trkpt><trkpt lat="45.56485805221231" lon="8.63922268311178"><ele>197.5</ele><time>2026-04-17T12:41:53.018Z</time></trkpt><trkpt lat="45.56496872240743" lon="8.639189198511247"><ele>198.0</ele><time>2026-04-17T12:41:54.018Z</time></trkpt><trkpt lat="45.565089749621706" lon="8.639152073872298"><ele>198.5</ele><time>2026-04-17T12:41:55.018Z</time></trkpt><trkpt lat="45.56520608026181" lon="8.639125348219132"><ele>199.0</ele><time>2026-04-17T12:41:56.018Z</time></trkpt><trkpt lat="45.565325245501896" lon="8.63909959304243"><ele>198.5</ele><time>2026-04-17T12:41:57.018Z</time></trkpt><trkpt lat="45.56544904095857" lon="8.639073484718304"><ele>198.0</ele><time>2026-04-17T12:41:58.018Z</time></trkpt><trkpt lat="45.56557454971001" lon="8.63904623794046"><ele>197.5</ele><time>2026-04-17T12:41:59.019Z</time></trkpt><trkpt lat="45.56569860610135" lon="8.63901653207529"><ele>197.0</ele><time>2026-04-17T12:42:00.019Z</time></trkpt><trkpt lat="45.56580914584545" lon="8.639001179678898"><ele>197.0</ele><time>2026-04-17T12:42:01.019Z</time></trkpt><trkpt lat="45.565920661317925" lon="8.638975300364061"><ele>197.0</ele><time>2026-04-17T12:42:02.019Z</time></trkpt><trkpt lat="45.56602609171723" lon="8.638956056320552"><ele>197.0</ele><time>2026-04-17T12:42:03.019Z</time></trkpt><trkpt lat="45.56612339739164" lon="8.638938558121298"><ele>197.0</ele><time>2026-04-17T12:42:04.019Z</time></trkpt><trkpt lat="45.56621551539603" lon="8.63891879660891"><ele>197.0</ele><time>2026-04-17T12:42:05.019Z</time></trkpt><trkpt lat="45.56629853527801" lon="8.638904887801365"><ele>196.39999999999998</ele><time>2026-04-17T12:42:06.019Z</time></trkpt><trkpt lat="45.56637743682655" lon="8.638888588027852"><ele>195.79999999999998</ele><time>2026-04-17T12:42:07.019Z</time></trkpt><trkpt lat="45.56646261498625" lon="8.63887105204111"><ele>195.2</ele><time>2026-04-17T12:42:08.019Z</time></trkpt><trkpt lat="45.56655597873658" lon="8.638844918283889"><ele>194.6</ele><time>2026-04-17T12:42:09.019Z</time></trkpt><trkpt lat="45.56665575384971" lon="8.63881484783202"><ele>194.0</ele><time>2026-04-17T12:42:10.019Z</time></trkpt><trkpt lat="45.56676518646356" lon="8.63878699504652"><ele>194.0</ele><time>2026-04-17T12:42:11.019Z</time></trkpt><trkpt lat="45.56687555488559" lon="8.638753224549951"><ele>194.0</ele><time>2026-04-17T12:42:12.019Z</time></trkpt><trkpt lat="45.566979373811925" lon="8.63871268869506"><ele>194.0</ele><time>2026-04-17T12:42:13.019Z</time></trkpt><trkpt lat="45.56708796626252" lon="8.638653714022057"><ele>194.0</ele><time>2026-04-17T12:42:14.019Z</time></trkpt><trkpt lat="45.56720336922268" lon="8.638589262784345"><ele>196.25</ele><time>2026-04-17T12:42:15.019Z</time></trkpt><trkpt lat="45.567322598759716" lon="8.638517656367677"><ele>198.5</ele><time>2026-04-17T12:42:16.019Z</time></trkpt><trkpt lat="45.56744527987431" lon="8.638441662040726"><ele>200.75</ele><time>2026-04-17T12:42:17.019Z</time></trkpt><trkpt lat="45.567572499187094" lon="8.638365943571237"><ele>203.0</ele><time>2026-04-17T12:42:18.019Z</time></trkpt><trkpt lat="45.56770412532808" lon="8.638288049120117"><ele>203.0</ele><time>2026-04-17T12:42:19.019Z</time></trkpt><trkpt lat="45.567836312837336" lon="8.638211658641806"><ele>203.0</ele><time>2026-04-17T12:42:20.019Z</time></trkpt><trkpt lat="45.567968752184065" lon="8.638134452472755"><ele>203.0</ele><time>2026-04-17T12:42:21.019Z</time></trkpt><trkpt lat="45.568101851645594" lon="8.638056539137274"><ele>203.0</ele><time>2026-04-17T12:42:22.019Z</time></trkpt><trkpt lat="45.568232503795535" lon="8.63798131038144"><ele>201.75</ele><time>2026-04-17T12:42:23.019Z</time></trkpt><trkpt lat="45.56835582613791" lon="8.63790859940283"><ele>200.5</ele><time>2026-04-17T12:42:24.019Z</time></trkpt><trkpt lat="45.568469058912086" lon="8.637840514863504"><ele>199.25</ele><time>2026-04-17T12:42:25.019Z</time></trkpt><trkpt lat="45.56857281703161" lon="8.6377749364529"><ele>198.0</ele><time>2026-04-17T12:42:26.019Z</time></trkpt><trkpt lat="45.56866798100318" lon="8.637712974290062"><ele>198.66666666666666</ele><time>2026-04-17T12:42:27.019Z</time></trkpt><trkpt lat="45.568759667512914" lon="8.63765546248728"><ele>199.33333333333331</ele><time>2026-04-17T12:42:28.019Z</time></trkpt><trkpt lat="45.568844330162136" lon="8.637606644690656"><ele>200.0</ele><time>2026-04-17T12:42:29.019Z</time></trkpt><trkpt lat="45.56892121438592" lon="8.637563617378527"><ele>200.66666666666666</ele><time>2026-04-17T12:42:30.019Z</time></trkpt><trkpt lat="45.568998526787766" lon="8.63752725257783"><ele>201.33333333333331</ele><time>2026-04-17T12:42:31.019Z</time></trkpt><trkpt lat="45.569086374832686" lon="8.637497891551398"><ele>202.0</ele><time>2026-04-17T12:42:32.019Z</time></trkpt><trkpt lat="45.569180426767225" lon="8.637476057978963"><ele>202.0</ele><time>2026-04-17T12:42:33.019Z</time></trkpt><trkpt lat="45.569282782271635" lon="8.63745787275816"><ele>202.0</ele><time>2026-04-17T12:42:34.019Z</time></trkpt><trkpt lat="45.56938167577986" lon="8.63744401234139"><ele>202.0</ele><time>2026-04-17T12:42:35.019Z</time></trkpt><trkpt lat="45.56947379111299" lon="8.637439467260009"><ele>202.0</ele><time>2026-04-17T12:42:36.019Z</time></trkpt><trkpt lat="45.569548367019145" lon="8.637439880252433"><ele>202.0</ele><time>2026-04-17T12:42:37.019Z</time></trkpt><trkpt lat="45.569625099198376" lon="8.637397694951334"><ele>201.99999999999997</ele><time>2026-04-17T12:42:39.019Z</time></trkpt><trkpt lat="45.56963322545833" lon="8.637295892202761"><ele>202.0</ele><time>2026-04-17T12:42:41.019Z</time></trkpt><trkpt lat="45.56957412539475" lon="8.637179287807632"><ele>202.0</ele><time>2026-04-17T12:42:43.019Z</time></trkpt><trkpt lat="45.56951892353093" lon="8.637101668265599"><ele>202.0</ele><time>2026-04-17T12:42:44.019Z</time></trkpt><trkpt lat="45.56946450684682" lon="8.63700677941043"><ele>201.99999999999997</ele><time>2026-04-17T12:42:45.019Z</time></trkpt><trkpt lat="45.5694168403578" lon="8.63691645966585"><ele>202.0</ele><time>2026-04-17T12:42:46.019Z</time></trkpt><trkpt lat="45.56935700667563" lon="8.636824822128332"><ele>203.39999999999998</ele><time>2026-04-17T12:42:47.019Z</time></trkpt><trkpt lat="45.5692946692701" lon="8.636723689015614"><ele>204.79999999999998</ele><time>2026-04-17T12:42:48.019Z</time></trkpt><trkpt lat="45.56923778798245" lon="8.636599351731698"><ele>206.2</ele><time>2026-04-17T12:42:49.019Z</time></trkpt><trkpt lat="45.56918936611191" lon="8.636468050128089"><ele>207.6</ele><time>2026-04-17T12:42:50.019Z</time></trkpt><trkpt lat="45.56915794306915" lon="8.636329998354725"><ele>209.0</ele><time>2026-04-17T12:42:51.019Z</time></trkpt><trkpt lat="45.5691294669163" lon="8.63618808824648"><ele>209.50000000000003</ele><time>2026-04-17T12:42:52.019Z</time></trkpt><trkpt lat="45.56909651749529" lon="8.63606103973893"><ele>210.0</ele><time>2026-04-17T12:42:53.02Z</time></trkpt><trkpt lat="45.56906612687023" lon="8.635947165354363"><ele>210.5</ele><time>2026-04-17T12:42:54.02Z</time></trkpt><trkpt lat="45.56904384815259" lon="8.63585360565884"><ele>211.0</ele><time>2026-04-17T12:42:55.02Z</time></trkpt><trkpt lat="45.56904003152725" lon="8.635728644954233"><ele>211.50000000000003</ele><time>2026-04-17T12:42:57.02Z</time></trkpt><trkpt lat="45.56911148627035" lon="8.63566463091538"><ele>212.0</ele><time>2026-04-17T12:42:59.02Z</time></trkpt><trkpt lat="45.56918165388928" lon="8.635640528833981"><ele>212.0</ele><time>2026-04-17T12:43:00.02Z</time></trkpt><trkpt lat="45.569258754335706" lon="8.635610091138938"><ele>212.0</ele><time>2026-04-17T12:43:01.02Z</time></trkpt><trkpt lat="45.5693472977837" lon="8.635570599983456"><ele>212.0</ele><time>2026-04-17T12:43:02.02Z</time></trkpt><trkpt lat="45.56943257420068" lon="8.635528697082215"><ele>212.0</ele><time>2026-04-17T12:43:03.02Z</time></trkpt><trkpt lat="45.569525936837614" lon="8.63548878957608"><ele>212.0</ele><time>2026-04-17T12:43:04.02Z</time></trkpt><trkpt lat="45.56962663492251" lon="8.63544237097618"><ele>212.75</ele><time>2026-04-17T12:43:05.02Z</time></trkpt><trkpt lat="45.569733336011375" lon="8.63539076667663"><ele>213.5</ele><time>2026-04-17T12:43:06.02Z</time></trkpt><trkpt lat="45.569840628186924" lon="8.635335860345192"><ele>214.25</ele><time>2026-04-17T12:43:07.02Z</time></trkpt><trkpt lat="45.56994603590127" lon="8.63527070195618"><ele>215.0</ele><time>2026-04-17T12:43:08.02Z</time></trkpt><trkpt lat="45.57005899051345" lon="8.635196046656059"><ele>215.0</ele><time>2026-04-17T12:43:09.02Z</time></trkpt><trkpt lat="45.570172591501816" lon="8.63511880933445"><ele>215.0</ele><time>2026-04-17T12:43:10.02Z</time></trkpt><trkpt lat="45.570288832206266" lon="8.63505519819201"><ele>215.0</ele><time>2026-04-17T12:43:11.02Z</time></trkpt><trkpt lat="45.57041402478441" lon="8.635034632656145"><ele>215.0</ele><time>2026-04-17T12:43:12.02Z</time></trkpt><trkpt lat="45.57054651340255" lon="8.635059883476426"><ele>216.0</ele><time>2026-04-17T12:43:13.02Z</time></trkpt><trkpt lat="45.570676913813855" lon="8.635106549613134"><ele>217.0</ele><time>2026-04-17T12:43:14.02Z</time></trkpt><trkpt lat="45.57080238918303" lon="8.635153906426138"><ele>218.0</ele><time>2026-04-17T12:43:15.02Z</time></trkpt><trkpt lat="45.57092864472781" lon="8.635194560989309"><ele>219.0</ele><time>2026-04-17T12:43:16.02Z</time></trkpt><trkpt lat="45.57106319492468" lon="8.635227305299212"><ele>219.5</ele><time>2026-04-17T12:43:17.02Z</time></trkpt><trkpt lat="45.57120176816716" lon="8.635262713410016"><ele>220.0</ele><time>2026-04-17T12:43:18.02Z</time></trkpt><trkpt lat="45.571343187798384" lon="8.6352946941838"><ele>220.5</ele><time>2026-04-17T12:43:19.02Z</time></trkpt><trkpt lat="45.571485516441236" lon="8.635338272367727"><ele>221.0</ele><time>2026-04-17T12:43:20.02Z</time></trkpt><trkpt lat="45.571635970491975" lon="8.635374277449158"><ele>221.0</ele><time>2026-04-17T12:43:21.02Z</time></trkpt><trkpt lat="45.571790919015676" lon="8.635409480838893"><ele>221.0</ele><time>2026-04-17T12:43:22.02Z</time></trkpt><trkpt lat="45.571944333536116" lon="8.635449311614217"><ele>221.0</ele><time>2026-04-17T12:43:23.02Z</time></trkpt><trkpt lat="45.57208771619551" lon="8.635489196872772"><ele>221.0</ele><time>2026-04-17T12:43:24.02Z</time></trkpt><trkpt lat="45.57221877159398" lon="8.635522365828486"><ele>221.0</ele><time>2026-04-17T12:43:25.02Z</time></trkpt><trkpt lat="45.572339076460686" lon="8.635541972747735"><ele>221.0</ele><time>2026-04-17T12:43:26.02Z</time></trkpt><trkpt lat="45.57245603783801" lon="8.63553653609359"><ele>221.0</ele><time>2026-04-17T12:43:27.02Z</time></trkpt><trkpt lat="45.57257805188882" lon="8.635496142301612"><ele>221.0</ele><time>2026-04-17T12:43:28.02Z</time></trkpt><trkpt lat="45.57270064429782" lon="8.635422133088019"><ele>221.0</ele><time>2026-04-17T12:43:29.02Z</time></trkpt><trkpt lat="45.5728313264243" lon="8.635338855172439"><ele>221.0</ele><time>2026-04-17T12:43:30.02Z</time></trkpt><trkpt lat="45.57296823310585" lon="8.63525872098305"><ele>221.0</ele><time>2026-04-17T12:43:31.02Z</time></trkpt><trkpt lat="45.573110050541906" lon="8.635182504793377"><ele>220.75</ele><time>2026-04-17T12:43:32.02Z</time></trkpt><trkpt lat="45.57325174555206" lon="8.635106945444107"><ele>220.5</ele><time>2026-04-17T12:43:33.02Z</time></trkpt><trkpt lat="45.57339036034643" lon="8.63502749544265"><ele>220.25</ele><time>2026-04-17T12:43:34.02Z</time></trkpt><trkpt lat="45.57352401938338" lon="8.63495092093758"><ele>220.0</ele><time>2026-04-17T12:43:35.02Z</time></trkpt><trkpt lat="45.573654070545125" lon="8.634884475790873"><ele>220.0</ele><time>2026-04-17T12:43:36.02Z</time></trkpt><trkpt lat="45.573776707599414" lon="8.634830758327533"><ele>220.0</ele><time>2026-04-17T12:43:37.02Z</time></trkpt><trkpt lat="45.57388214350726" lon="8.634773357552541"><ele>220.0</ele><time>2026-04-17T12:43:38.02Z</time></trkpt><trkpt lat="45.57396750551214" lon="8.634701358374347"><ele>220.0</ele><time>2026-04-17T12:43:39.02Z</time></trkpt><trkpt lat="45.57404060132516" lon="8.634626489947301"><ele>220.0</ele><time>2026-04-17T12:43:40.02Z</time></trkpt><trkpt lat="45.57410697551805" lon="8.634556459936228"><ele>219.99999999999997</ele><time>2026-04-17T12:43:41.02Z</time></trkpt><trkpt lat="45.57416590442529" lon="8.63449143786389"><ele>220.0</ele><time>2026-04-17T12:43:42.02Z</time></trkpt><trkpt lat="45.5742133815453" lon="8.634424074376074"><ele>220.0</ele><time>2026-04-17T12:43:43.02Z</time></trkpt><trkpt lat="45.574245402163534" lon="8.634326760223635"><ele>220.0</ele><time>2026-04-17T12:43:44.02Z</time></trkpt><trkpt lat="45.574257510150794" lon="8.63420817804934"><ele>219.99999999999997</ele><time>2026-04-17T12:43:45.02Z</time></trkpt><trkpt lat="45.57427670991934" lon="8.634099527224201"><ele>220.0</ele><time>2026-04-17T12:43:46.02Z</time></trkpt><trkpt lat="45.57432256573476" lon="8.634010196877368"><ele>220.0</ele><time>2026-04-17T12:43:47.021Z</time></trkpt><trkpt lat="45.57439404676202" lon="8.633970018985266"><ele>220.0</ele><time>2026-04-17T12:43:48.021Z</time></trkpt><trkpt lat="45.57446924968077" lon="8.63398953565791"><ele>220.0</ele><time>2026-04-17T12:43:49.021Z</time></trkpt><trkpt lat="45.57455114525925" lon="8.634042160988"><ele>220.0</ele><time>2026-04-17T12:43:50.021Z</time></trkpt><trkpt lat="45.574645260350934" lon="8.634101034519423"><ele>220.0</ele><time>2026-04-17T12:43:51.021Z</time></trkpt><trkpt lat="45.57474801146949" lon="8.634165318899326"><ele>220.25</ele><time>2026-04-17T12:43:52.021Z</time></trkpt><trkpt lat="45.574848903710205" lon="8.634229621876486"><ele>220.5</ele><time>2026-04-17T12:43:53.021Z</time></trkpt><trkpt lat="45.574963585487986" lon="8.634293639628076"><ele>220.75</ele><time>2026-04-17T12:43:54.021Z</time></trkpt><trkpt lat="45.57508439125642" lon="8.634340144427272"><ele>221.0</ele><time>2026-04-17T12:43:55.021Z</time></trkpt><trkpt lat="45.57520950257135" lon="8.63435869707496"><ele>221.0</ele><time>2026-04-17T12:43:56.021Z</time></trkpt><trkpt lat="45.575347290396465" lon="8.634357133848404"><ele>221.0</ele><time>2026-04-17T12:43:57.021Z</time></trkpt><trkpt lat="45.57549194817564" lon="8.634354230312917"><ele>221.0</ele><time>2026-04-17T12:43:58.021Z</time></trkpt><trkpt lat="45.57564079402442" lon="8.634353499063064"><ele>221.0</ele><time>2026-04-17T12:43:59.021Z</time></trkpt><trkpt lat="45.5757923490807" lon="8.634354028068476"><ele>221.66666666666669</ele><time>2026-04-17T12:44:00.021Z</time></trkpt><trkpt lat="45.57594689928005" lon="8.634351520160253"><ele>222.33333333333331</ele><time>2026-04-17T12:44:01.021Z</time></trkpt><trkpt lat="45.57610010896526" lon="8.634348274357878"><ele>223.0</ele><time>2026-04-17T12:44:02.021Z</time></trkpt><trkpt lat="45.576249508931994" lon="8.634343936243964"><ele>223.5</ele><time>2026-04-17T12:44:03.021Z</time></trkpt><trkpt lat="45.576393551745724" lon="8.634340311429778"><ele>224.0</ele><time>2026-04-17T12:44:04.021Z</time></trkpt><trkpt lat="45.576528975462544" lon="8.634341708817415"><ele>224.5</ele><time>2026-04-17T12:44:05.021Z</time></trkpt><trkpt lat="45.57665523142579" lon="8.634346463943755"><ele>225.0</ele><time>2026-04-17T12:44:06.021Z</time></trkpt><trkpt lat="45.57675953852271" lon="8.634343428841362"><ele>225.0</ele><time>2026-04-17T12:44:07.021Z</time></trkpt><trkpt lat="45.57685176667731" lon="8.634335322361862"><ele>225.0</ele><time>2026-04-17T12:44:08.021Z</time></trkpt><trkpt lat="45.57692568328473" lon="8.634307004968896"><ele>225.0</ele><time>2026-04-17T12:44:09.021Z</time></trkpt><trkpt lat="45.57697495927585" lon="8.634234544442423"><ele>225.0</ele><time>2026-04-17T12:44:10.021Z</time></trkpt><trkpt lat="45.57698988789902" lon="8.634042890674214"><ele>225.0</ele><time>2026-04-17T12:44:12.021Z</time></trkpt><trkpt lat="45.57697740352347" lon="8.63392407583028"><ele>225.0</ele><time>2026-04-17T12:44:13.021Z</time></trkpt><trkpt lat="45.57696029504268" lon="8.633787948148303"><ele>225.0</ele><time>2026-04-17T12:44:14.021Z</time></trkpt><trkpt lat="45.576938031818905" lon="8.633634673844218"><ele>225.0</ele><time>2026-04-17T12:44:15.021Z</time></trkpt><trkpt lat="45.57692146047389" lon="8.633478893987935"><ele>225.0</ele><time>2026-04-17T12:44:16.021Z</time></trkpt><trkpt lat="45.576913246822684" lon="8.633338090863331"><ele>225.0</ele><time>2026-04-17T12:44:17.021Z</time></trkpt><trkpt lat="45.57690193433766" lon="8.633214731126724"><ele>224.6</ele><time>2026-04-17T12:44:18.021Z</time></trkpt><trkpt lat="45.576895218817675" lon="8.633109592579887"><ele>224.2</ele><time>2026-04-17T12:44:19.021Z</time></trkpt><trkpt lat="45.5769197257528" lon="8.633023448696276"><ele>223.8</ele><time>2026-04-17T12:44:20.021Z</time></trkpt><trkpt lat="45.57704459911951" lon="8.632949110440943"><ele>223.4</ele><time>2026-04-17T12:44:22.021Z</time></trkpt><trkpt lat="45.57713278328612" lon="8.632951678225238"><ele>223.0</ele><time>2026-04-17T12:44:23.021Z</time></trkpt><trkpt lat="45.57723196253944" lon="8.632965071005799"><ele>223.0</ele><time>2026-04-17T12:44:24.021Z</time></trkpt><trkpt lat="45.57733538802853" lon="8.632978509658535"><ele>223.0</ele><time>2026-04-17T12:44:25.021Z</time></trkpt><trkpt lat="45.577445698710875" lon="8.632991445318877"><ele>223.0</ele><time>2026-04-17T12:44:26.021Z</time></trkpt><trkpt lat="45.577564997110215" lon="8.633007638307426"><ele>223.0</ele><time>2026-04-17T12:44:27.021Z</time></trkpt><trkpt lat="45.57769206848113" lon="8.633020623007328"><ele>223.0</ele><time>2026-04-17T12:44:28.021Z</time></trkpt><trkpt lat="45.57782307886803" lon="8.633034193738961"><ele>223.0</ele><time>2026-04-17T12:44:29.021Z</time></trkpt><trkpt lat="45.57795281746823" lon="8.633051420730197"><ele>223.0</ele><time>2026-04-17T12:44:30.021Z</time></trkpt><trkpt lat="45.578093113231354" lon="8.633068127619545"><ele>223.0</ele><time>2026-04-17T12:44:31.021Z</time></trkpt><trkpt lat="45.578238737406764" lon="8.633082396143916"><ele>223.0</ele><time>2026-04-17T12:44:32.021Z</time></trkpt><trkpt lat="45.578389439505486" lon="8.633094432156781"><ele>223.0</ele><time>2026-04-17T12:44:33.021Z</time></trkpt><trkpt lat="45.57853571234894" lon="8.633105364769653"><ele>223.0</ele><time>2026-04-17T12:44:34.021Z</time></trkpt><trkpt lat="45.57868758402175" lon="8.633119618325981"><ele>223.0</ele><time>2026-04-17T12:44:35.021Z</time></trkpt><trkpt lat="45.57884344534905" lon="8.633135374259629"><ele>223.0</ele><time>2026-04-17T12:44:36.021Z</time></trkpt><trkpt lat="45.57899861731371" lon="8.63314581150864"><ele>223.0</ele><time>2026-04-17T12:44:37.021Z</time></trkpt><trkpt lat="45.57915164061937" lon="8.63316050741349"><ele>223.0</ele><time>2026-04-17T12:44:38.021Z</time></trkpt><trkpt lat="45.57929733467293" lon="8.63318005571442"><ele>223.0</ele><time>2026-04-17T12:44:39.021Z</time></trkpt><trkpt lat="45.57944235423845" lon="8.633200628082193"><ele>223.0</ele><time>2026-04-17T12:44:40.021Z</time></trkpt><trkpt lat="45.5795879730157" lon="8.633220768319067"><ele>223.0</ele><time>2026-04-17T12:44:41.022Z</time></trkpt><trkpt lat="45.57972840402243" lon="8.633241336397903"><ele>223.5</ele><time>2026-04-17T12:44:42.022Z</time></trkpt><trkpt lat="45.57987135991527" lon="8.633262123200822"><ele>224.0</ele><time>2026-04-17T12:44:43.022Z</time></trkpt><trkpt lat="45.58001826759328" lon="8.633291022577652"><ele>224.5</ele><time>2026-04-17T12:44:44.022Z</time></trkpt><trkpt lat="45.580169429917234" lon="8.63332123696007"><ele>225.0</ele><time>2026-04-17T12:44:45.022Z</time></trkpt><trkpt lat="45.58032067676907" lon="8.633354776741166"><ele>224.66666666666669</ele><time>2026-04-17T12:44:46.022Z</time></trkpt><trkpt lat="45.58047653579003" lon="8.633385665105239"><ele>224.33333333333334</ele><time>2026-04-17T12:44:47.022Z</time></trkpt><trkpt lat="45.58063699451628" lon="8.63341814851476"><ele>224.0</ele><time>2026-04-17T12:44:48.022Z</time></trkpt><trkpt lat="45.58079611632303" lon="8.63345250533513"><ele>224.0</ele><time>2026-04-17T12:44:49.022Z</time></trkpt><trkpt lat="45.58095509773878" lon="8.633486378519098"><ele>224.0</ele><time>2026-04-17T12:44:50.022Z</time></trkpt><trkpt lat="45.58111151012932" lon="8.633520683750694"><ele>224.0</ele><time>2026-04-17T12:44:51.022Z</time></trkpt><trkpt lat="45.58126675496989" lon="8.633552868977533"><ele>224.33333333333334</ele><time>2026-04-17T12:44:52.022Z</time></trkpt><trkpt lat="45.581422436189" lon="8.633582326140507"><ele>224.66666666666669</ele><time>2026-04-17T12:44:53.022Z</time></trkpt><trkpt lat="45.58157771308287" lon="8.633611366828253"><ele>225.0</ele><time>2026-04-17T12:44:54.022Z</time></trkpt><trkpt lat="45.58173371182961" lon="8.633640302843748"><ele>225.0</ele><time>2026-04-17T12:44:55.022Z</time></trkpt><trkpt lat="45.58188776702214" lon="8.63367055536117"><ele>225.0</ele><time>2026-04-17T12:44:56.022Z</time></trkpt><trkpt lat="45.58203632002011" lon="8.633704739002479"><ele>225.0</ele><time>2026-04-17T12:44:57.022Z</time></trkpt><trkpt lat="45.58217760715296" lon="8.633737693412591"><ele>225.0</ele><time>2026-04-17T12:44:58.022Z</time></trkpt><trkpt lat="45.582310421077686" lon="8.633768316061886"><ele>224.5</ele><time>2026-04-17T12:44:59.022Z</time></trkpt><trkpt lat="45.582436117334694" lon="8.633793154051693"><ele>224.0</ele><time>2026-04-17T12:45:00.022Z</time></trkpt><trkpt lat="45.58256003502176" lon="8.633817593368622"><ele>223.5</ele><time>2026-04-17T12:45:01.022Z</time></trkpt><trkpt lat="45.58268525662357" lon="8.633834081640202"><ele>223.0</ele><time>2026-04-17T12:45:02.022Z</time></trkpt><trkpt lat="45.58281265688126" lon="8.633835333784837"><ele>223.25</ele><time>2026-04-17T12:45:03.022Z</time></trkpt><trkpt lat="45.58294083394607" lon="8.633805802989539"><ele>223.5</ele><time>2026-04-17T12:45:04.022Z</time></trkpt><trkpt lat="45.58307247468766" lon="8.6337616847664"><ele>223.75</ele><time>2026-04-17T12:45:05.022Z</time></trkpt><trkpt lat="45.58320777407447" lon="8.633725317560536"><ele>224.0</ele><time>2026-04-17T12:45:06.022Z</time></trkpt><trkpt lat="45.58334616788631" lon="8.633691263675086"><ele>224.0</ele><time>2026-04-17T12:45:07.022Z</time></trkpt><trkpt lat="45.58348720066831" lon="8.633650241832317"><ele>224.0</ele><time>2026-04-17T12:45:08.022Z</time></trkpt><trkpt lat="45.58362217811058" lon="8.633607182056947"><ele>224.0</ele><time>2026-04-17T12:45:09.022Z</time></trkpt><trkpt lat="45.583749551543875" lon="8.633568411919862"><ele>224.0</ele><time>2026-04-17T12:45:10.022Z</time></trkpt><trkpt lat="45.583869088294264" lon="8.63353391477186"><ele>224.6</ele><time>2026-04-17T12:45:11.022Z</time></trkpt><trkpt lat="45.58397843542786" lon="8.633502756733089"><ele>225.2</ele><time>2026-04-17T12:45:12.022Z</time></trkpt><trkpt lat="45.58408117500899" lon="8.633469409387049"><ele>225.79999999999998</ele><time>2026-04-17T12:45:13.022Z</time></trkpt><trkpt lat="45.584181367751825" lon="8.63345252686918"><ele>226.39999999999998</ele><time>2026-04-17T12:45:14.022Z</time></trkpt><trkpt lat="45.58427460176412" lon="8.633459631370837"><ele>227.0</ele><time>2026-04-17T12:45:15.022Z</time></trkpt><trkpt lat="45.584358169920186" lon="8.633507515822648"><ele>227.0</ele><time>2026-04-17T12:45:16.022Z</time></trkpt><trkpt lat="45.584437757742826" lon="8.633579295679356"><ele>227.0</ele><time>2026-04-17T12:45:17.022Z</time></trkpt><trkpt lat="45.58451987532728" lon="8.633664798535126"><ele>227.0</ele><time>2026-04-17T12:45:18.022Z</time></trkpt><trkpt lat="45.58461228179602" lon="8.633752866116867"><ele>227.0</ele><time>2026-04-17T12:45:19.022Z</time></trkpt><trkpt lat="45.58471178130642" lon="8.633823377786676"><ele>227.0</ele><time>2026-04-17T12:45:20.022Z</time></trkpt><trkpt lat="45.584819201368745" lon="8.633868566103907"><ele>226.75</ele><time>2026-04-17T12:45:21.022Z</time></trkpt><trkpt lat="45.584933494547464" lon="8.633891407661881"><ele>226.5</ele><time>2026-04-17T12:45:22.022Z</time></trkpt><trkpt lat="45.585049372993396" lon="8.633903522157514"><ele>226.25</ele><time>2026-04-17T12:45:23.022Z</time></trkpt><trkpt lat="45.58516467378997" lon="8.633920749614632"><ele>226.0</ele><time>2026-04-17T12:45:24.022Z</time></trkpt><trkpt lat="45.58527937040227" lon="8.633943206956525"><ele>226.75</ele><time>2026-04-17T12:45:25.022Z</time></trkpt><trkpt lat="45.5853951898214" lon="8.633964978752688"><ele>227.5</ele><time>2026-04-17T12:45:26.022Z</time></trkpt><trkpt lat="45.58551156275501" lon="8.633986742143309"><ele>228.25</ele><time>2026-04-17T12:45:27.022Z</time></trkpt><trkpt lat="45.585629896304134" lon="8.634004930742647"><ele>229.0</ele><time>2026-04-17T12:45:28.022Z</time></trkpt><trkpt lat="45.58575275132894" lon="8.634024499333334"><ele>229.0</ele><time>2026-04-17T12:45:29.022Z</time></trkpt><trkpt lat="45.58587614897516" lon="8.63404557650332"><ele>229.0</ele><time>2026-04-17T12:45:29.993Z</time></trkpt><trkpt lat="45.58600547744038" lon="8.634072731026402"><ele>229.0</ele><time>2026-04-17T12:45:30.993Z</time></trkpt><trkpt lat="45.58613686821598" lon="8.634099481165617"><ele>229.0</ele><time>2026-04-17T12:45:31.993Z</time></trkpt><trkpt lat="45.58627199600001" lon="8.634122837769029"><ele>229.25</ele><time>2026-04-17T12:45:32.993Z</time></trkpt><trkpt lat="45.58640935590442" lon="8.634143523353591"><ele>229.5</ele><time>2026-04-17T12:45:33.993Z</time></trkpt><trkpt lat="45.586549635332986" lon="8.634155284628546"><ele>229.75</ele><time>2026-04-17T12:45:34.993Z</time></trkpt><trkpt lat="45.58669197705256" lon="8.634158182494511"><ele>230.0</ele><time>2026-04-17T12:45:35.993Z</time></trkpt><trkpt lat="45.58683561314425" lon="8.634155595369613"><ele>230.0</ele><time>2026-04-17T12:45:36.993Z</time></trkpt><trkpt lat="45.586979567449674" lon="8.63414659394071"><ele>230.0</ele><time>2026-04-17T12:45:37.993Z</time></trkpt><trkpt lat="45.587125076421536" lon="8.634136986938099"><ele>230.0</ele><time>2026-04-17T12:45:38.993Z</time></trkpt><trkpt lat="45.587273250328074" lon="8.634130536435247"><ele>230.0</ele><time>2026-04-17T12:45:39.993Z</time></trkpt><trkpt lat="45.58741743606637" lon="8.634130546779835"><ele>230.5</ele><time>2026-04-17T12:45:40.993Z</time></trkpt><trkpt lat="45.58756161685827" lon="8.6341330688075"><ele>231.0</ele><time>2026-04-17T12:45:41.993Z</time></trkpt><trkpt lat="45.58770213080197" lon="8.634130651643364"><ele>231.5</ele><time>2026-04-17T12:45:42.993Z</time></trkpt><trkpt lat="45.58784258939645" lon="8.634127966101204"><ele>232.0</ele><time>2026-04-17T12:45:43.993Z</time></trkpt><trkpt lat="45.58798256111418" lon="8.634126085078867"><ele>232.0</ele><time>2026-04-17T12:45:44.993Z</time></trkpt><trkpt lat="45.588122233181565" lon="8.634136715165237"><ele>232.0</ele><time>2026-04-17T12:45:45.993Z</time></trkpt><trkpt lat="45.58826155914015" lon="8.634180880999661"><ele>232.0</ele><time>2026-04-17T12:45:46.993Z</time></trkpt><trkpt lat="45.588396429031654" lon="8.634233357374415"><ele>232.0</ele><time>2026-04-17T12:45:47.993Z</time></trkpt><trkpt lat="45.58852233736964" lon="8.634282870605604"><ele>232.0</ele><time>2026-04-17T12:45:48.993Z</time></trkpt><trkpt lat="45.58865193601871" lon="8.63433867277159"><ele>232.0</ele><time>2026-04-17T12:45:49.993Z</time></trkpt><trkpt lat="45.5887830498461" lon="8.634393770602362"><ele>232.0</ele><time>2026-04-17T12:45:50.993Z</time></trkpt><trkpt lat="45.58891648266162" lon="8.634446575956035"><ele>232.0</ele><time>2026-04-17T12:45:51.993Z</time></trkpt><trkpt lat="45.5890515046369" lon="8.63449705569053"><ele>232.0</ele><time>2026-04-17T12:45:52.993Z</time></trkpt><trkpt lat="45.58917966696114" lon="8.634548841091865"><ele>232.0</ele><time>2026-04-17T12:45:53.993Z</time></trkpt><trkpt lat="45.589298850906665" lon="8.634597994114431"><ele>232.0</ele><time>2026-04-17T12:45:54.993Z</time></trkpt><trkpt lat="45.58941303703565" lon="8.634639321370798"><ele>232.0</ele><time>2026-04-17T12:45:55.993Z</time></trkpt><trkpt lat="45.58952399624135" lon="8.634660076287267"><ele>232.25</ele><time>2026-04-17T12:45:56.993Z</time></trkpt><trkpt lat="45.589639064199275" lon="8.634655703789958"><ele>232.5</ele><time>2026-04-17T12:45:57.993Z</time></trkpt><trkpt lat="45.58975261335743" lon="8.634635739533799"><ele>232.75</ele><time>2026-04-17T12:45:58.993Z</time></trkpt><trkpt lat="45.58987508437733" lon="8.63461020648982"><ele>233.0</ele><time>2026-04-17T12:45:59.993Z</time></trkpt><trkpt lat="45.59000222998144" lon="8.634584955259053"><ele>233.0</ele><time>2026-04-17T12:46:00.993Z</time></trkpt><trkpt lat="45.59013541293706" lon="8.63455776760522"><ele>233.0</ele><time>2026-04-17T12:46:01.993Z</time></trkpt><trkpt lat="45.59026464804799" lon="8.634535020479658"><ele>233.0</ele><time>2026-04-17T12:46:02.993Z</time></trkpt><trkpt lat="45.590386674002154" lon="8.634529758817873"><ele>233.0</ele><time>2026-04-17T12:46:03.993Z</time></trkpt><trkpt lat="45.59050977131779" lon="8.634506080838895"><ele>233.25</ele><time>2026-04-17T12:46:04.993Z</time></trkpt><trkpt lat="45.59062661150412" lon="8.634475642149484"><ele>233.5</ele><time>2026-04-17T12:46:05.993Z</time></trkpt><trkpt lat="45.59074469317194" lon="8.634446388402651"><ele>233.75</ele><time>2026-04-17T12:46:06.994Z</time></trkpt><trkpt lat="45.5908597748143" lon="8.634418128094422"><ele>234.0</ele><time>2026-04-17T12:46:07.994Z</time></trkpt><trkpt lat="45.59096635122484" lon="8.63440275201649"><ele>234.0</ele><time>2026-04-17T12:46:08.994Z</time></trkpt><trkpt lat="45.59106595285242" lon="8.634405948793198"><ele>233.99999999999997</ele><time>2026-04-17T12:46:09.994Z</time></trkpt><trkpt lat="45.59114993727665" lon="8.634465136568462"><ele>233.99999999999997</ele><time>2026-04-17T12:46:10.994Z</time></trkpt><trkpt lat="45.59122532937238" lon="8.634545281641348"><ele>234.0</ele><time>2026-04-17T12:46:11.994Z</time></trkpt><trkpt lat="45.59129879789393" lon="8.634632670005326"><ele>234.0</ele><time>2026-04-17T12:46:12.994Z</time></trkpt><trkpt lat="45.59138369928987" lon="8.63472169014189"><ele>234.0</ele><time>2026-04-17T12:46:13.994Z</time></trkpt><trkpt lat="45.59147041885263" lon="8.634815801183581"><ele>234.0</ele><time>2026-04-17T12:46:14.994Z</time></trkpt><trkpt lat="45.59155703451755" lon="8.63491266674661"><ele>234.0</ele><time>2026-04-17T12:46:15.99Z</time></trkpt><trkpt lat="45.59163796328148" lon="8.635030675239083"><ele>234.0</ele><time>2026-04-17T12:46:16.99Z</time></trkpt><trkpt lat="45.59170100120411" lon="8.63517790443495"><ele>233.5</ele><time>2026-04-17T12:46:17.99Z</time></trkpt><trkpt lat="45.591751631469" lon="8.635338974977062"><ele>233.0</ele><time>2026-04-17T12:46:18.99Z</time></trkpt><trkpt lat="45.591800555461994" lon="8.635506844264704"><ele>232.5</ele><time>2026-04-17T12:46:19.99Z</time></trkpt><trkpt lat="45.59184908489988" lon="8.63565687264003"><ele>232.0</ele><time>2026-04-17T12:46:20.99Z</time></trkpt><trkpt lat="45.59190724066256" lon="8.63578367201191"><ele>232.0</ele><time>2026-04-17T12:46:21.991Z</time></trkpt><trkpt lat="45.59197774771193" lon="8.635889840617544"><ele>232.0</ele><time>2026-04-17T12:46:22.991Z</time></trkpt><trkpt lat="45.59205755121762" lon="8.635973243200798"><ele>232.0</ele><time>2026-04-17T12:46:23.991Z</time></trkpt><trkpt lat="45.59216311693098" lon="8.636016267309202"><ele>232.0</ele><time>2026-04-17T12:46:24.991Z</time></trkpt><trkpt lat="45.592281599808324" lon="8.63602702810884"><ele>232.0</ele><time>2026-04-17T12:46:25.99Z</time></trkpt><trkpt lat="45.59238885234835" lon="8.636028153753879"><ele>232.25</ele><time>2026-04-17T12:46:26.99Z</time></trkpt><trkpt lat="45.59251456305772" lon="8.63603185763208"><ele>232.5</ele><time>2026-04-17T12:46:27.991Z</time></trkpt><trkpt lat="45.59263938674386" lon="8.636039886761159"><ele>232.75</ele><time>2026-04-17T12:46:28.991Z</time></trkpt><trkpt lat="45.592761282723266" lon="8.636058358485672"><ele>233.0</ele><time>2026-04-17T12:46:29.991Z</time></trkpt><trkpt lat="45.59288294698038" lon="8.636073775042524"><ele>233.5</ele><time>2026-04-17T12:46:30.991Z</time></trkpt><trkpt lat="45.59301369814967" lon="8.636074626005119"><ele>234.0</ele><time>2026-04-17T12:46:31.991Z</time></trkpt><trkpt lat="45.593142100458785" lon="8.636070911641896"><ele>234.5</ele><time>2026-04-17T12:46:32.991Z</time></trkpt><trkpt lat="45.59327302972786" lon="8.636077943273543"><ele>235.0</ele><time>2026-04-17T12:46:33.991Z</time></trkpt><trkpt lat="45.59340101343296" lon="8.636087733980649"><ele>235.0</ele><time>2026-04-17T12:46:34.991Z</time></trkpt><trkpt lat="45.59352410427719" lon="8.636097171092903"><ele>235.0</ele><time>2026-04-17T12:46:35.991Z</time></trkpt><trkpt lat="45.59363901948195" lon="8.636105836807342"><ele>235.0</ele><time>2026-04-17T12:46:36.991Z</time></trkpt><trkpt lat="45.593750508766476" lon="8.636116445764051"><ele>235.0</ele><time>2026-04-17T12:46:37.991Z</time></trkpt><trkpt lat="45.59386416173019" lon="8.636114593991245"><ele>234.75</ele><time>2026-04-17T12:46:38.991Z</time></trkpt><trkpt lat="45.59397928808411" lon="8.636093994266565"><ele>234.5</ele><time>2026-04-17T12:46:39.991Z</time></trkpt><trkpt lat="45.59409431023708" lon="8.636057648927974"><ele>234.25</ele><time>2026-04-17T12:46:40.991Z</time></trkpt><trkpt lat="45.59421366333244" lon="8.636024528273225"><ele>234.0</ele><time>2026-04-17T12:46:41.991Z</time></trkpt><trkpt lat="45.594329395624065" lon="8.635987436819786"><ele>234.0</ele><time>2026-04-17T12:46:42.991Z</time></trkpt><trkpt lat="45.59443821484369" lon="8.635957325831516"><ele>233.99999999999997</ele><time>2026-04-17T12:46:43.991Z</time></trkpt><trkpt lat="45.59453482347196" lon="8.6359328630064"><ele>233.99999999999997</ele><time>2026-04-17T12:46:44.991Z</time></trkpt><trkpt lat="45.59461539147687" lon="8.635898312442068"><ele>234.0</ele><time>2026-04-17T12:46:45.991Z</time></trkpt><trkpt lat="45.5946808887311" lon="8.635830858854204"><ele>234.0</ele><time>2026-04-17T12:46:46.991Z</time></trkpt><trkpt lat="45.59472649368912" lon="8.635734813353217"><ele>233.6</ele><time>2026-04-17T12:46:47.991Z</time></trkpt><trkpt lat="45.594765570997566" lon="8.635609792462125"><ele>233.2</ele><time>2026-04-17T12:46:48.991Z</time></trkpt><trkpt lat="45.59481118706486" lon="8.635468213293596"><ele>232.79999999999998</ele><time>2026-04-17T12:46:49.991Z</time></trkpt><trkpt lat="45.59486762119322" lon="8.635331491443155"><ele>232.39999999999998</ele><time>2026-04-17T12:46:50.991Z</time></trkpt><trkpt lat="45.59492847922636" lon="8.635197006480201"><ele>232.0</ele><time>2026-04-17T12:46:51.991Z</time></trkpt><trkpt lat="45.594982156968726" lon="8.63506967291868"><ele>231.99999999999997</ele><time>2026-04-17T12:46:52.991Z</time></trkpt><trkpt lat="45.59502951213285" lon="8.634950885581896"><ele>232.0</ele><time>2026-04-17T12:46:53.991Z</time></trkpt><trkpt lat="45.595068122266014" lon="8.6348473899885"><ele>232.0</ele><time>2026-04-17T12:46:54.991Z</time></trkpt><trkpt lat="45.59509528503386" lon="8.63474951624322"><ele>232.0</ele><time>2026-04-17T12:46:55.991Z</time></trkpt><trkpt lat="45.59514874655516" lon="8.634603282653616"><ele>231.99999999999997</ele><time>2026-04-17T12:46:57.991Z</time></trkpt><trkpt lat="45.59520585401896" lon="8.634560724718122"><ele>232.0</ele><time>2026-04-17T12:46:59.991Z</time></trkpt><trkpt lat="45.595263763222796" lon="8.634606524732328"><ele>231.99999999999997</ele><time>2026-04-17T12:47:01.991Z</time></trkpt><trkpt lat="45.595268482019286" lon="8.63475414793731"><ele>232.0</ele><time>2026-04-17T12:47:03.991Z</time></trkpt><trkpt lat="45.595223382921645" lon="8.634905174511033"><ele>232.0</ele><time>2026-04-17T12:47:05.991Z</time></trkpt><trkpt lat="45.59521907847033" lon="8.635023142291223"><ele>232.0</ele><time>2026-04-17T12:47:07.991Z</time></trkpt><trkpt lat="45.59527786418292" lon="8.635056987710328"><ele>231.99999999999997</ele><time>2026-04-17T12:47:09.991Z</time></trkpt><trkpt lat="45.59533388373833" lon="8.634983256960998"><ele>232.0</ele><time>2026-04-17T12:47:11.991Z</time></trkpt><trkpt lat="45.59533281831126" lon="8.634814222352837"><ele>231.99999999999997</ele><time>2026-04-17T12:47:13.991Z</time></trkpt><trkpt lat="45.595345790866205" lon="8.63470249965509"><ele>232.0</ele><time>2026-04-17T12:47:14.991Z</time></trkpt><trkpt lat="45.59536197066908" lon="8.634585194521964"><ele>232.0</ele><time>2026-04-17T12:47:15.991Z</time></trkpt><trkpt lat="45.59536759529336" lon="8.634471098627742"><ele>232.0</ele><time>2026-04-17T12:47:16.991Z</time></trkpt><trkpt lat="45.59535246579504" lon="8.634383030484475"><ele>231.99999999999997</ele><time>2026-04-17T12:47:17.991Z</time></trkpt><trkpt lat="45.59531567720344" lon="8.634293515369265"><ele>232.0</ele><time>2026-04-17T12:47:18.991Z</time></trkpt><trkpt lat="45.59527278916681" lon="8.63418459299201"><ele>232.6</ele><time>2026-04-17T12:47:19.992Z</time></trkpt><trkpt lat="45.59523738065344" lon="8.634071055939133"><ele>233.2</ele><time>2026-04-17T12:47:20.992Z</time></trkpt><trkpt lat="45.59520142283034" lon="8.633945172307342"><ele>233.8</ele><time>2026-04-17T12:47:21.992Z</time></trkpt><trkpt lat="45.59516432760594" lon="8.633813658330926"><ele>234.4</ele><time>2026-04-17T12:47:22.992Z</time></trkpt><trkpt lat="45.59512455262466" lon="8.633681040266769"><ele>235.0</ele><time>2026-04-17T12:47:23.992Z</time></trkpt><trkpt lat="45.59508973124459" lon="8.63355453261562"><ele>235.2</ele><time>2026-04-17T12:47:24.992Z</time></trkpt><trkpt lat="45.595053858786564" lon="8.633414336678618"><ele>235.4</ele><time>2026-04-17T12:47:25.992Z</time></trkpt><trkpt lat="45.595022835735364" lon="8.633264983323446"><ele>235.60000000000002</ele><time>2026-04-17T12:47:26.992Z</time></trkpt><trkpt lat="45.594995918679054" lon="8.633107393386016"><ele>235.8</ele><time>2026-04-17T12:47:27.992Z</time></trkpt><trkpt lat="45.59498083605786" lon="8.63294753902727"><ele>236.0</ele><time>2026-04-17T12:47:28.992Z</time></trkpt><trkpt lat="45.594974419010796" lon="8.632778604322386"><ele>236.5</ele><time>2026-04-17T12:47:29.992Z</time></trkpt><trkpt lat="45.59496891539158" lon="8.632611425007706"><ele>237.0</ele><time>2026-04-17T12:47:30.992Z</time></trkpt><trkpt lat="45.59496608867118" lon="8.632431347190545"><ele>237.5</ele><time>2026-04-17T12:47:31.992Z</time></trkpt><trkpt lat="45.594966720604525" lon="8.632257486021645"><ele>238.0</ele><time>2026-04-17T12:47:32.992Z</time></trkpt><trkpt lat="45.594963537755824" lon="8.632075132415952"><ele>238.0</ele><time>2026-04-17T12:47:33.992Z</time></trkpt><trkpt lat="45.59495560149333" lon="8.63189056279393"><ele>238.0</ele><time>2026-04-17T12:47:34.992Z</time></trkpt><trkpt lat="45.5949522783763" lon="8.63170143936258"><ele>238.0</ele><time>2026-04-17T12:47:35.992Z</time></trkpt><trkpt lat="45.59494256643891" lon="8.631513971287077"><ele>238.0</ele><time>2026-04-17T12:47:36.992Z</time></trkpt><trkpt lat="45.594934388240276" lon="8.63132601861716"><ele>238.0</ele><time>2026-04-17T12:47:37.992Z</time></trkpt><trkpt lat="45.59493136685163" lon="8.63114701635514"><ele>238.0</ele><time>2026-04-17T12:47:38.992Z</time></trkpt><trkpt lat="45.59492637098832" lon="8.630992623040957"><ele>238.0</ele><time>2026-04-17T12:47:39.992Z</time></trkpt><trkpt lat="45.59492772815961" lon="8.630870948584011"><ele>238.0</ele><time>2026-04-17T12:47:40.992Z</time></trkpt><trkpt lat="45.59492885085213" lon="8.630767178440925"><ele>238.0</ele><time>2026-04-17T12:47:41.992Z</time></trkpt><trkpt lat="45.5949223627566" lon="8.630604488253972"><ele>237.83333333333331</ele><time>2026-04-17T12:47:43.992Z</time></trkpt><trkpt lat="45.594929217817196" lon="8.630491211050419"><ele>237.66666666666666</ele><time>2026-04-17T12:47:45.992Z</time></trkpt><trkpt lat="45.594917314204004" lon="8.630378565801491"><ele>237.5</ele><time>2026-04-17T12:47:49.992Z</time></trkpt><trkpt lat="45.59491555540372" lon="8.630272594020937"><ele>237.33333333333331</ele><time>2026-04-17T12:47:51.992Z</time></trkpt><trkpt lat="45.594908813442395" lon="8.630150921733565"><ele>237.16666666666666</ele><time>2026-04-17T12:47:53.992Z</time></trkpt><trkpt lat="45.59490384337586" lon="8.630048119343654"><ele>237.0</ele><time>2026-04-17T12:47:55.992Z</time></trkpt><trkpt lat="45.59489804833281" lon="8.629920298225883"><ele>237.33333333333334</ele><time>2026-04-17T12:47:57.992Z</time></trkpt><trkpt lat="45.594897805615304" lon="8.629762701675082"><ele>237.66666666666669</ele><time>2026-04-17T12:47:59.992Z</time></trkpt><trkpt lat="45.59489694030002" lon="8.629670782395603"><ele>238.0</ele><time>2026-04-17T12:48:00.992Z</time></trkpt><trkpt lat="45.59489498560815" lon="8.629567267108904"><ele>238.33333333333334</ele><time>2026-04-17T12:48:01.992Z</time></trkpt><trkpt lat="45.594892155356085" lon="8.629457932986687"><ele>238.66666666666669</ele><time>2026-04-17T12:48:02.992Z</time></trkpt><trkpt lat="45.594889129396336" lon="8.629354340662262"><ele>239.0</ele><time>2026-04-17T12:48:03.992Z</time></trkpt><trkpt lat="45.594886018020254" lon="8.629238163659817"><ele>239.0</ele><time>2026-04-17T12:48:04.992Z</time></trkpt><trkpt lat="45.594885261707375" lon="8.629111596643309"><ele>238.99999999999997</ele><time>2026-04-17T12:48:05.992Z</time></trkpt><trkpt lat="45.594878909733936" lon="8.62897389743988"><ele>238.99999999999997</ele><time>2026-04-17T12:48:06.992Z</time></trkpt><trkpt lat="45.594880071824235" lon="8.628825530881173"><ele>239.0</ele><time>2026-04-17T12:48:07.992Z</time></trkpt><trkpt lat="45.59487927011197" lon="8.628682241157"><ele>239.0</ele><time>2026-04-17T12:48:08.992Z</time></trkpt><trkpt lat="45.59487521959927" lon="8.628532588604225"><ele>238.39999999999998</ele><time>2026-04-17T12:48:09.992Z</time></trkpt><trkpt lat="45.594871491984314" lon="8.62838283863418"><ele>237.79999999999998</ele><time>2026-04-17T12:48:10.992Z</time></trkpt><trkpt lat="45.5948714812777" lon="8.628242292522113"><ele>237.20000000000002</ele><time>2026-04-17T12:48:11.992Z</time></trkpt><trkpt lat="45.594871362160255" lon="8.628098715225125"><ele>236.60000000000002</ele><time>2026-04-17T12:48:12.992Z</time></trkpt><trkpt lat="45.59486676035191" lon="8.627960277479636"><ele>236.0</ele><time>2026-04-17T12:48:13.992Z</time></trkpt><trkpt lat="45.59486248290225" lon="8.62782448273674"><ele>235.50000000000003</ele><time>2026-04-17T12:48:14.993Z</time></trkpt><trkpt lat="45.59486040208847" lon="8.627688691038781"><ele>235.0</ele><time>2026-04-17T12:48:15.993Z</time></trkpt><trkpt lat="45.59485925453663" lon="8.627550892092469"><ele>234.5</ele><time>2026-04-17T12:48:16.993Z</time></trkpt><trkpt lat="45.59485358939383" lon="8.627423548740284"><ele>234.0</ele><time>2026-04-17T12:48:17.993Z</time></trkpt><trkpt lat="45.59485222221428" lon="8.6273012525703"><ele>233.50000000000003</ele><time>2026-04-17T12:48:18.993Z</time></trkpt><trkpt lat="45.5948513159824" lon="8.627187075423796"><ele>233.0</ele><time>2026-04-17T12:48:19.993Z</time></trkpt><trkpt lat="45.59485495078367" lon="8.627080177109796"><ele>233.0</ele><time>2026-04-17T12:48:20.993Z</time></trkpt><trkpt lat="45.59485733681898" lon="8.626985938303035"><ele>233.0</ele><time>2026-04-17T12:48:21.989Z</time></trkpt><trkpt lat="45.594865255128184" lon="8.626896407457341"><ele>233.0</ele><time>2026-04-17T12:48:22.989Z</time></trkpt><trkpt lat="45.59488683970471" lon="8.626808764143593"><ele>233.0</ele><time>2026-04-17T12:48:23.989Z</time></trkpt><trkpt lat="45.59492990889427" lon="8.626725859072765"><ele>233.0</ele><time>2026-04-17T12:48:24.989Z</time></trkpt><trkpt lat="45.59498687949685" lon="8.626670757723286"><ele>233.0</ele><time>2026-04-17T12:48:25.99Z</time></trkpt><trkpt lat="45.59505962788536" lon="8.62664825786683"><ele>233.0</ele><time>2026-04-17T12:48:26.99Z</time></trkpt><trkpt lat="45.59514067765351" lon="8.626639568842805"><ele>232.4</ele><time>2026-04-17T12:48:27.989Z</time></trkpt><trkpt lat="45.59523339224505" lon="8.626635087806198"><ele>231.8</ele><time>2026-04-17T12:48:28.99Z</time></trkpt><trkpt lat="45.59533536145565" lon="8.626633284772948"><ele>231.2</ele><time>2026-04-17T12:48:29.99Z</time></trkpt><trkpt lat="45.59544966072682" lon="8.626621736502946"><ele>230.6</ele><time>2026-04-17T12:48:30.989Z</time></trkpt><trkpt lat="45.595560300882816" lon="8.626616528793523"><ele>230.0</ele><time>2026-04-17T12:48:31.99Z</time></trkpt><trkpt lat="45.59567850177011" lon="8.6266104061846"><ele>230.0</ele><time>2026-04-17T12:48:32.99Z</time></trkpt><trkpt lat="45.595803071395146" lon="8.62660645066166"><ele>230.0</ele><time>2026-04-17T12:48:33.99Z</time></trkpt><trkpt lat="45.5959287059841" lon="8.626603356043889"><ele>230.0</ele><time>2026-04-17T12:48:34.989Z</time></trkpt><trkpt lat="45.5960517678021" lon="8.626588687020169"><ele>230.0</ele><time>2026-04-17T12:48:35.989Z</time></trkpt><trkpt lat="45.59617672504247" lon="8.626566614317746"><ele>230.5</ele><time>2026-04-17T12:48:36.989Z</time></trkpt><trkpt lat="45.59629870824247" lon="8.626534876157786"><ele>231.0</ele><time>2026-04-17T12:48:37.989Z</time></trkpt><trkpt lat="45.596419096612586" lon="8.626483817285939"><ele>231.5</ele><time>2026-04-17T12:48:38.989Z</time></trkpt><trkpt lat="45.59653908742953" lon="8.626429520571442"><ele>232.0</ele><time>2026-04-17T12:48:39.989Z</time></trkpt><trkpt lat="45.59666520592354" lon="8.626389827270888"><ele>232.0</ele><time>2026-04-17T12:48:40.989Z</time></trkpt><trkpt lat="45.596793685093495" lon="8.626360048023791"><ele>232.0</ele><time>2026-04-17T12:48:41.989Z</time></trkpt><trkpt lat="45.596928220602585" lon="8.62631590399372"><ele>232.0</ele><time>2026-04-17T12:48:42.989Z</time></trkpt><trkpt lat="45.59706475589877" lon="8.626261273325865"><ele>232.0</ele><time>2026-04-17T12:48:43.989Z</time></trkpt><trkpt lat="45.597202135919204" lon="8.626199049127926"><ele>230.66666666666666</ele><time>2026-04-17T12:48:44.989Z</time></trkpt><trkpt lat="45.59734458486563" lon="8.62613757837493"><ele>229.33333333333331</ele><time>2026-04-17T12:48:45.989Z</time></trkpt><trkpt lat="45.59749097641674" lon="8.626079771356691"><ele>228.0</ele><time>2026-04-17T12:48:46.989Z</time></trkpt><trkpt lat="45.59763912960538" lon="8.626022415884801"><ele>228.0</ele><time>2026-04-17T12:48:47.989Z</time></trkpt><trkpt lat="45.59778831628541" lon="8.625963030483867"><ele>228.0</ele><time>2026-04-17T12:48:48.989Z</time></trkpt><trkpt lat="45.597934601734146" lon="8.625894058501816"><ele>228.0</ele><time>2026-04-17T12:48:49.989Z</time></trkpt><trkpt lat="45.59807249560931" lon="8.625800366718577"><ele>228.5</ele><time>2026-04-17T12:48:50.989Z</time></trkpt><trkpt lat="45.59819729901099" lon="8.625683423248534"><ele>229.0</ele><time>2026-04-17T12:48:51.989Z</time></trkpt><trkpt lat="45.59830756685951" lon="8.625544548799427"><ele>229.5</ele><time>2026-04-17T12:48:52.989Z</time></trkpt><trkpt lat="45.59841736233953" lon="8.625411682420006"><ele>230.0</ele><time>2026-04-17T12:48:53.989Z</time></trkpt><trkpt lat="45.598535743008576" lon="8.625298946356432"><ele>230.0</ele><time>2026-04-17T12:48:54.989Z</time></trkpt><trkpt lat="45.5986605723495" lon="8.625208185738925"><ele>230.0</ele><time>2026-04-17T12:48:55.989Z</time></trkpt><trkpt lat="45.5987929477222" lon="8.6251338469831"><ele>230.0</ele><time>2026-04-17T12:48:56.989Z</time></trkpt><trkpt lat="45.598916415153795" lon="8.625085452366726"><ele>230.0</ele><time>2026-04-17T12:48:57.989Z</time></trkpt><trkpt lat="45.599035199902666" lon="8.625036818593943"><ele>230.4</ele><time>2026-04-17T12:48:58.989Z</time></trkpt><trkpt lat="45.59914817457776" lon="8.624989559527606"><ele>230.8</ele><time>2026-04-17T12:48:59.99Z</time></trkpt><trkpt lat="45.59925482891685" lon="8.624947615503098"><ele>231.2</ele><time>2026-04-17T12:49:00.99Z</time></trkpt><trkpt lat="45.59935630570797" lon="8.624906494966277"><ele>231.6</ele><time>2026-04-17T12:49:01.99Z</time></trkpt><trkpt lat="45.59944980272939" lon="8.6248696452821"><ele>232.0</ele><time>2026-04-17T12:49:02.99Z</time></trkpt><trkpt lat="45.59953538743554" lon="8.624833898537712"><ele>232.0</ele><time>2026-04-17T12:49:03.99Z</time></trkpt><trkpt lat="45.59962554350836" lon="8.624799929768148"><ele>232.0</ele><time>2026-04-17T12:49:04.99Z</time></trkpt><trkpt lat="45.59972200292708" lon="8.624762551092285"><ele>232.0</ele><time>2026-04-17T12:49:05.99Z</time></trkpt><trkpt lat="45.59982519538534" lon="8.624722657318204"><ele>232.0</ele><time>2026-04-17T12:49:06.99Z</time></trkpt><trkpt lat="45.59993146586479" lon="8.62468309132234"><ele>232.0</ele><time>2026-04-17T12:49:07.99Z</time></trkpt><trkpt lat="45.600042131837334" lon="8.624641339448171"><ele>232.0</ele><time>2026-04-17T12:49:08.99Z</time></trkpt><trkpt lat="45.60015489361662" lon="8.624594559714035"><ele>232.0</ele><time>2026-04-17T12:49:09.99Z</time></trkpt><trkpt lat="45.60027264500962" lon="8.624544599399545"><ele>232.0</ele><time>2026-04-17T12:49:10.99Z</time></trkpt><trkpt lat="45.600394105945696" lon="8.624494706294428"><ele>232.0</ele><time>2026-04-17T12:49:11.99Z</time></trkpt><trkpt lat="45.600516822615255" lon="8.62444587161864"><ele>231.8</ele><time>2026-04-17T12:49:12.99Z</time></trkpt><trkpt lat="45.600631427824034" lon="8.624400297491173"><ele>231.6</ele><time>2026-04-17T12:49:13.99Z</time></trkpt><trkpt lat="45.600740376097555" lon="8.624356570846746"><ele>231.40000000000003</ele><time>2026-04-17T12:49:14.99Z</time></trkpt><trkpt lat="45.60084424778884" lon="8.62431480108298"><ele>231.20000000000002</ele><time>2026-04-17T12:49:15.99Z</time></trkpt><trkpt lat="45.60093953423084" lon="8.624275166252355"><ele>231.0</ele><time>2026-04-17T12:49:16.99Z</time></trkpt><trkpt lat="45.60102793072799" lon="8.624235115804838"><ele>231.0</ele><time>2026-04-17T12:49:17.99Z</time></trkpt><trkpt lat="45.601109150789505" lon="8.624194922178663"><ele>231.0</ele><time>2026-04-17T12:49:18.99Z</time></trkpt><trkpt lat="45.60118379878806" lon="8.62415899271195"><ele>231.0</ele><time>2026-04-17T12:49:19.99Z</time></trkpt><trkpt lat="45.60125430346124" lon="8.624130607038987"><ele>231.0</ele><time>2026-04-17T12:49:20.99Z</time></trkpt><trkpt lat="45.60133177625555" lon="8.624095725856003"><ele>231.0</ele><time>2026-04-17T12:49:21.99Z</time></trkpt><trkpt lat="45.60141868306871" lon="8.624053061763298"><ele>231.0</ele><time>2026-04-17T12:49:22.99Z</time></trkpt><trkpt lat="45.601513703448596" lon="8.62400507046316"><ele>231.25</ele><time>2026-04-17T12:49:23.99Z</time></trkpt><trkpt lat="45.601622653053234" lon="8.623955711233904"><ele>231.5</ele><time>2026-04-17T12:49:24.99Z</time></trkpt><trkpt lat="45.601731231517604" lon="8.623906937242584"><ele>231.75</ele><time>2026-04-17T12:49:25.99Z</time></trkpt><trkpt lat="45.60184005471267" lon="8.623857950669631"><ele>232.0</ele><time>2026-04-17T12:49:26.99Z</time></trkpt><trkpt lat="45.60195540877229" lon="8.623803623905406"><ele>232.0</ele><time>2026-04-17T12:49:27.99Z</time></trkpt><trkpt lat="45.602078364746085" lon="8.623746102168017"><ele>232.0</ele><time>2026-04-17T12:49:28.99Z</time></trkpt><trkpt lat="45.60220302440203" lon="8.623686665398441"><ele>232.0</ele><time>2026-04-17T12:49:29.99Z</time></trkpt><trkpt lat="45.60232354278905" lon="8.623629074108887"><ele>232.0</ele><time>2026-04-17T12:49:30.99Z</time></trkpt><trkpt lat="45.60245096040424" lon="8.623569300003075"><ele>232.0</ele><time>2026-04-17T12:49:31.99Z</time></trkpt><trkpt lat="45.60258094307853" lon="8.623510369411196"><ele>232.0</ele><time>2026-04-17T12:49:32.99Z</time></trkpt><trkpt lat="45.60271404775946" lon="8.623449846945379"><ele>232.0</ele><time>2026-04-17T12:49:33.99Z</time></trkpt><trkpt lat="45.60284923197206" lon="8.623390085239157"><ele>232.0</ele><time>2026-04-17T12:49:34.99Z</time></trkpt><trkpt lat="45.60298727591308" lon="8.623334244832794"><ele>231.75</ele><time>2026-04-17T12:49:35.99Z</time></trkpt><trkpt lat="45.60312629060897" lon="8.62327321421786"><ele>231.5</ele><time>2026-04-17T12:49:36.99Z</time></trkpt><trkpt lat="45.60326811036533" lon="8.623209465063606"><ele>231.25</ele><time>2026-04-17T12:49:37.99Z</time></trkpt><trkpt lat="45.60341432953067" lon="8.623143964475723"><ele>231.0</ele><time>2026-04-17T12:49:38.99Z</time></trkpt><trkpt lat="45.60356320287401" lon="8.623076390254171"><ele>231.33333333333331</ele><time>2026-04-17T12:49:39.99Z</time></trkpt><trkpt lat="45.60371813498144" lon="8.623007590886857"><ele>231.66666666666666</ele><time>2026-04-17T12:49:40.99Z</time></trkpt><trkpt lat="45.6038811214579" lon="8.622935893744412"><ele>232.0</ele><time>2026-04-17T12:49:41.99Z</time></trkpt><trkpt lat="45.604052403282736" lon="8.622860019651625"><ele>232.0</ele><time>2026-04-17T12:49:42.99Z</time></trkpt><trkpt lat="45.60423370340611" lon="8.622784929520884"><ele>232.0</ele><time>2026-04-17T12:49:43.99Z</time></trkpt><trkpt lat="45.60440861184286" lon="8.62272016386811"><ele>232.0</ele><time>2026-04-17T12:49:44.99Z</time></trkpt><trkpt lat="45.604584004544975" lon="8.62265747510308"><ele>232.66666666666666</ele><time>2026-04-17T12:49:45.99Z</time></trkpt><trkpt lat="45.60475923766721" lon="8.622589012157905"><ele>233.33333333333331</ele><time>2026-04-17T12:49:46.99Z</time></trkpt><trkpt lat="45.60493377153628" lon="8.62251528070764"><ele>234.0</ele><time>2026-04-17T12:49:47.99Z</time></trkpt><trkpt lat="45.60510739699849" lon="8.62244193755428"><ele>234.0</ele><time>2026-04-17T12:49:48.99Z</time></trkpt><trkpt lat="45.6052823906712" lon="8.622375099721877"><ele>234.0</ele><time>2026-04-17T12:49:49.99Z</time></trkpt><trkpt lat="45.6054568388185" lon="8.622306673820859"><ele>234.0</ele><time>2026-04-17T12:49:50.99Z</time></trkpt><trkpt lat="45.60562964031107" lon="8.622236283527483"><ele>233.66666666666669</ele><time>2026-04-17T12:49:51.99Z</time></trkpt><trkpt lat="45.605801830179765" lon="8.622163758189041"><ele>233.33333333333334</ele><time>2026-04-17T12:49:52.99Z</time></trkpt><trkpt lat="45.60597316000066" lon="8.622089612861764"><ele>233.0</ele><time>2026-04-17T12:49:53.991Z</time></trkpt><trkpt lat="45.60614413210389" lon="8.62201228935874"><ele>233.66666666666669</ele><time>2026-04-17T12:49:54.991Z</time></trkpt><trkpt lat="45.60631352675795" lon="8.62192972494719"><ele>234.33333333333331</ele><time>2026-04-17T12:49:55.991Z</time></trkpt><trkpt lat="45.60648359363696" lon="8.621839097394258"><ele>235.0</ele><time>2026-04-17T12:49:56.991Z</time></trkpt><trkpt lat="45.60665348954891" lon="8.621744313385664"><ele>235.0</ele><time>2026-04-17T12:49:57.991Z</time></trkpt><trkpt lat="45.60682206630575" lon="8.621643558656022"><ele>235.0</ele><time>2026-04-17T12:49:58.991Z</time></trkpt><trkpt lat="45.606990317511226" lon="8.621541538602278"><ele>235.0</ele><time>2026-04-17T12:49:59.991Z</time></trkpt><trkpt lat="45.60715870476075" lon="8.621437812348436"><ele>235.0</ele><time>2026-04-17T12:50:00.991Z</time></trkpt><trkpt lat="45.60732710777659" lon="8.62132920071134"><ele>235.0</ele><time>2026-04-17T12:50:01.991Z</time></trkpt><trkpt lat="45.60749518431804" lon="8.62121827804784"><ele>235.0</ele><time>2026-04-17T12:50:02.991Z</time></trkpt><trkpt lat="45.607665601449526" lon="8.621110980334441"><ele>235.0</ele><time>2026-04-17T12:50:03.991Z</time></trkpt><trkpt lat="45.60783830681493" lon="8.621017262812446"><ele>235.0</ele><time>2026-04-17T12:50:04.991Z</time></trkpt><trkpt lat="45.608014364639644" lon="8.620930200133161"><ele>235.0</ele><time>2026-04-17T12:50:05.991Z</time></trkpt><trkpt lat="45.60819140201055" lon="8.620845428575768"><ele>235.0</ele><time>2026-04-17T12:50:06.991Z</time></trkpt><trkpt lat="45.60836971665332" lon="8.620762856280184"><ele>235.0</ele><time>2026-04-17T12:50:07.991Z</time></trkpt><trkpt lat="45.608548528194405" lon="8.620681649617259"><ele>235.0</ele><time>2026-04-17T12:50:08.991Z</time></trkpt><trkpt lat="45.60872540924551" lon="8.620598561376841"><ele>235.0</ele><time>2026-04-17T12:50:09.991Z</time></trkpt><trkpt lat="45.608902399516836" lon="8.620514386813804"><ele>235.0</ele><time>2026-04-17T12:50:10.991Z</time></trkpt><trkpt lat="45.60907957760652" lon="8.620431996592108"><ele>235.0</ele><time>2026-04-17T12:50:11.991Z</time></trkpt><trkpt lat="45.60925699728648" lon="8.620349633126345"><ele>235.0</ele><time>2026-04-17T12:50:12.991Z</time></trkpt><trkpt lat="45.60943175716211" lon="8.620270131046372"><ele>235.0</ele><time>2026-04-17T12:50:13.991Z</time></trkpt><trkpt lat="45.60960694814592" lon="8.620192519709374"><ele>235.0</ele><time>2026-04-17T12:50:14.991Z</time></trkpt><trkpt lat="45.60977934895023" lon="8.620113874060785"><ele>235.33333333333331</ele><time>2026-04-17T12:50:15.991Z</time></trkpt><trkpt lat="45.60994815437836" lon="8.620034342708218"><ele>235.66666666666669</ele><time>2026-04-17T12:50:16.991Z</time></trkpt><trkpt lat="45.61011308486124" lon="8.619947041160897"><ele>236.0</ele><time>2026-04-17T12:50:17.991Z</time></trkpt><trkpt lat="45.610268733102224" lon="8.61984723166881"><ele>236.0</ele><time>2026-04-17T12:50:18.991Z</time></trkpt><trkpt lat="45.6104164121364" lon="8.619731023295948"><ele>236.0</ele><time>2026-04-17T12:50:19.991Z</time></trkpt><trkpt lat="45.610555723445415" lon="8.619597455172196"><ele>236.0</ele><time>2026-04-17T12:50:20.991Z</time></trkpt><trkpt lat="45.61068387497584" lon="8.619444083432652"><ele>236.0</ele><time>2026-04-17T12:50:21.991Z</time></trkpt><trkpt lat="45.61080656786439" lon="8.619279921381597"><ele>236.0</ele><time>2026-04-17T12:50:22.991Z</time></trkpt><trkpt lat="45.610926511083356" lon="8.619107274606627"><ele>236.0</ele><time>2026-04-17T12:50:23.991Z</time></trkpt><trkpt lat="45.611042714279826" lon="8.618930893838806"><ele>236.0</ele><time>2026-04-17T12:50:24.991Z</time></trkpt><trkpt lat="45.611157545926375" lon="8.61875028945234"><ele>236.0</ele><time>2026-04-17T12:50:25.991Z</time></trkpt><trkpt lat="45.6112728459993" lon="8.618570141124685"><ele>236.0</ele><time>2026-04-17T12:50:26.991Z</time></trkpt><trkpt lat="45.61138908413331" lon="8.618392917474914"><ele>236.33333333333334</ele><time>2026-04-17T12:50:27.988Z</time></trkpt><trkpt lat="45.61150549234928" lon="8.61821520494729"><ele>236.66666666666669</ele><time>2026-04-17T12:50:28.988Z</time></trkpt><trkpt lat="45.61162056871679" lon="8.618037733797989"><ele>237.0</ele><time>2026-04-17T12:50:29.988Z</time></trkpt><trkpt lat="45.61173628574677" lon="8.617859802009322"><ele>237.33333333333331</ele><time>2026-04-17T12:50:30.988Z</time></trkpt><trkpt lat="45.611851481745205" lon="8.61768206480949"><ele>237.66666666666666</ele><time>2026-04-17T12:50:31.988Z</time></trkpt><trkpt lat="45.61196679166009" lon="8.617503759361021"><ele>238.0</ele><time>2026-04-17T12:50:32.989Z</time></trkpt><trkpt lat="45.61208090342282" lon="8.617325993069866"><ele>238.33333333333331</ele><time>2026-04-17T12:50:33.988Z</time></trkpt><trkpt lat="45.612196125459285" lon="8.617147197333349"><ele>238.66666666666669</ele><time>2026-04-17T12:50:34.988Z</time></trkpt><trkpt lat="45.61231055912805" lon="8.616968591664246"><ele>239.0</ele><time>2026-04-17T12:50:35.988Z</time></trkpt><trkpt lat="45.612428127719966" lon="8.616787317546898"><ele>239.33333333333334</ele><time>2026-04-17T12:50:36.989Z</time></trkpt><trkpt lat="45.61254298287701" lon="8.616607640696877"><ele>239.66666666666669</ele><time>2026-04-17T12:50:37.988Z</time></trkpt><trkpt lat="45.61265847222417" lon="8.61642590475251"><ele>240.0</ele><time>2026-04-17T12:50:38.988Z</time></trkpt><trkpt lat="45.61277450186584" lon="8.616247492127025"><ele>239.66666666666669</ele><time>2026-04-17T12:50:39.988Z</time></trkpt><trkpt lat="45.61288991812785" lon="8.616066445724714"><ele>239.33333333333334</ele><time>2026-04-17T12:50:40.988Z</time></trkpt><trkpt lat="45.613007811176956" lon="8.615886275226467"><ele>239.0</ele><time>2026-04-17T12:50:41.988Z</time></trkpt><trkpt lat="45.61312505326635" lon="8.615704570748536"><ele>239.0</ele><time>2026-04-17T12:50:42.988Z</time></trkpt><trkpt lat="45.613242059219665" lon="8.615520806523588"><ele>239.0</ele><time>2026-04-17T12:50:43.988Z</time></trkpt><trkpt lat="45.61335979942189" lon="8.615336734608558"><ele>239.0</ele><time>2026-04-17T12:50:44.988Z</time></trkpt><trkpt lat="45.6134786766509" lon="8.615151926129702"><ele>239.33333333333334</ele><time>2026-04-17T12:50:45.988Z</time></trkpt><trkpt lat="45.61359784139196" lon="8.614965190991567"><ele>239.66666666666669</ele><time>2026-04-17T12:50:46.988Z</time></trkpt><trkpt lat="45.613716526203085" lon="8.614778059056476"><ele>240.0</ele><time>2026-04-17T12:50:47.988Z</time></trkpt><trkpt lat="45.61383508883355" lon="8.614588725363896"><ele>240.0</ele><time>2026-04-17T12:50:48.988Z</time></trkpt><trkpt lat="45.61395669810287" lon="8.614400214810257"><ele>240.0</ele><time>2026-04-17T12:50:49.988Z</time></trkpt><trkpt lat="45.6140802196027" lon="8.614213117022969"><ele>240.0</ele><time>2026-04-17T12:50:50.988Z</time></trkpt><trkpt lat="45.614204264216504" lon="8.614022905092677"><ele>240.0</ele><time>2026-04-17T12:50:51.988Z</time></trkpt><trkpt lat="45.61432847735423" lon="8.613833929950957"><ele>240.0</ele><time>2026-04-17T12:50:52.988Z</time></trkpt><trkpt lat="45.614453100449076" lon="8.613641291767903"><ele>240.0</ele><time>2026-04-17T12:50:53.988Z</time></trkpt><trkpt lat="45.61457691830746" lon="8.61344776134775"><ele>239.66666666666669</ele><time>2026-04-17T12:50:54.988Z</time></trkpt><trkpt lat="45.614702302579865" lon="8.613256028553678"><ele>239.33333333333334</ele><time>2026-04-17T12:50:55.988Z</time></trkpt><trkpt lat="45.61482481920747" lon="8.61306021879451"><ele>239.0</ele><time>2026-04-17T12:50:56.988Z</time></trkpt><trkpt lat="45.614949449135985" lon="8.612868399980355"><ele>239.0</ele><time>2026-04-17T12:50:57.988Z</time></trkpt><trkpt lat="45.615091341239356" lon="8.612692767199364"><ele>239.0</ele><time>2026-04-17T12:50:58.988Z</time></trkpt><trkpt lat="45.61524809357422" lon="8.6125448701339"><ele>239.0</ele><time>2026-04-17T12:50:59.988Z</time></trkpt><trkpt lat="45.61540874049035" lon="8.612419790384205"><ele>239.33333333333334</ele><time>2026-04-17T12:51:00.988Z</time></trkpt><trkpt lat="45.61556740435123" lon="8.612302226008362"><ele>239.66666666666669</ele><time>2026-04-17T12:51:01.988Z</time></trkpt><trkpt lat="45.61571728582263" lon="8.612181395216247"><ele>240.0</ele><time>2026-04-17T12:51:02.988Z</time></trkpt><trkpt lat="45.61586566040066" lon="8.61206523254728"><ele>240.0</ele><time>2026-04-17T12:51:03.988Z</time></trkpt><trkpt lat="45.616010124509025" lon="8.611947672567863"><ele>240.0</ele><time>2026-04-17T12:51:04.988Z</time></trkpt><trkpt lat="45.61615599022299" lon="8.61183275467781"><ele>240.0</ele><time>2026-04-17T12:51:05.988Z</time></trkpt><trkpt lat="45.61629866485484" lon="8.611717787724187"><ele>240.0</ele><time>2026-04-17T12:51:06.988Z</time></trkpt><trkpt lat="45.6164394793802" lon="8.611599692808515"><ele>240.0</ele><time>2026-04-17T12:51:07.988Z</time></trkpt><trkpt lat="45.616577443853245" lon="8.611487471067536"><ele>240.0</ele><time>2026-04-17T12:51:08.988Z</time></trkpt><trkpt lat="45.61671187818936" lon="8.611391899458674"><ele>240.0</ele><time>2026-04-17T12:51:09.988Z</time></trkpt><trkpt lat="45.61684312481356" lon="8.611310517020026"><ele>240.0</ele><time>2026-04-17T12:51:10.988Z</time></trkpt><trkpt lat="45.6169685389729" lon="8.611241952721553"><ele>240.0</ele><time>2026-04-17T12:51:11.988Z</time></trkpt><trkpt lat="45.61708414842706" lon="8.61118287093621"><ele>240.0</ele><time>2026-04-17T12:51:12.988Z</time></trkpt><trkpt lat="45.617190872045995" lon="8.61112452201597"><ele>240.33333333333334</ele><time>2026-04-17T12:51:13.988Z</time></trkpt><trkpt lat="45.61728776182125" lon="8.611070329359885"><ele>240.66666666666669</ele><time>2026-04-17T12:51:14.988Z</time></trkpt><trkpt lat="45.617380798730686" lon="8.61102363647589"><ele>241.0</ele><time>2026-04-17T12:51:15.988Z</time></trkpt><trkpt lat="45.61747069524422" lon="8.61100144987809"><ele>241.33333333333334</ele><time>2026-04-17T12:51:16.988Z</time></trkpt><trkpt lat="45.61755323909902" lon="8.611009297043388"><ele>241.66666666666669</ele><time>2026-04-17T12:51:17.988Z</time></trkpt><trkpt lat="45.617625102137985" lon="8.611005562945378"><ele>242.0</ele><time>2026-04-17T12:51:18.988Z</time></trkpt><trkpt lat="45.61769160886338" lon="8.61089838690638"><ele>242.0</ele><time>2026-04-17T12:51:20.988Z</time></trkpt><trkpt lat="45.61766450268984" lon="8.610703994350889"><ele>242.0</ele><time>2026-04-17T12:51:22.988Z</time></trkpt><trkpt lat="45.61764592981657" lon="8.610580196409808"><ele>242.0</ele><time>2026-04-17T12:51:23.989Z</time></trkpt><trkpt lat="45.61763574407348" lon="8.61043487841991"><ele>242.0</ele><time>2026-04-17T12:51:24.989Z</time></trkpt><trkpt lat="45.61762714870984" lon="8.610279205123325"><ele>242.0</ele><time>2026-04-17T12:51:25.989Z</time></trkpt><trkpt lat="45.61761102464679" lon="8.610131859376683"><ele>242.0</ele><time>2026-04-17T12:51:26.989Z</time></trkpt><trkpt lat="45.61758837620923" lon="8.609973744067554"><ele>242.0</ele><time>2026-04-17T12:51:27.989Z</time></trkpt><trkpt lat="45.61756278459363" lon="8.609810994608035"><ele>242.0</ele><time>2026-04-17T12:51:28.989Z</time></trkpt><trkpt lat="45.61753222765759" lon="8.609640944590003"><ele>242.0</ele><time>2026-04-17T12:51:29.989Z</time></trkpt><trkpt lat="45.617505931041286" lon="8.609464211073263"><ele>242.0</ele><time>2026-04-17T12:51:30.989Z</time></trkpt><trkpt lat="45.61748513777246" lon="8.609291365683214"><ele>242.0</ele><time>2026-04-17T12:51:31.989Z</time></trkpt><trkpt lat="45.61747057602072" lon="8.609113727316938"><ele>242.0</ele><time>2026-04-17T12:51:32.989Z</time></trkpt><trkpt lat="45.61746684495369" lon="8.608927857749094"><ele>242.0</ele><time>2026-04-17T12:51:33.989Z</time></trkpt><trkpt lat="45.617476411347674" lon="8.608741375639147"><ele>242.5</ele><time>2026-04-17T12:51:34.989Z</time></trkpt><trkpt lat="45.6174885688485" lon="8.608554001240728"><ele>243.0</ele><time>2026-04-17T12:51:35.989Z</time></trkpt><trkpt lat="45.61750082511897" lon="8.608364136684136"><ele>243.5</ele><time>2026-04-17T12:51:36.989Z</time></trkpt><trkpt lat="45.617512285422535" lon="8.608174013530535"><ele>244.0</ele><time>2026-04-17T12:51:37.989Z</time></trkpt><trkpt lat="45.61752456196063" lon="8.607986489929498"><ele>244.6</ele><time>2026-04-17T12:51:38.989Z</time></trkpt><trkpt lat="45.61754084585253" lon="8.607813351023134"><ele>245.2</ele><time>2026-04-17T12:51:39.989Z</time></trkpt><trkpt lat="45.61756155006266" lon="8.607653141983079"><ele>245.79999999999998</ele><time>2026-04-17T12:51:40.989Z</time></trkpt><trkpt lat="45.61758325603609" lon="8.607509631922232"><ele>246.39999999999998</ele><time>2026-04-17T12:51:41.989Z</time></trkpt><trkpt lat="45.6176042110762" lon="8.607378183867706"><ele>247.0</ele><time>2026-04-17T12:51:42.989Z</time></trkpt><trkpt lat="45.61762272252822" lon="8.607259451506794"><ele>246.99999999999997</ele><time>2026-04-17T12:51:43.989Z</time></trkpt><trkpt lat="45.617641034708804" lon="8.607155801775573"><ele>247.0</ele><time>2026-04-17T12:51:44.989Z</time></trkpt><trkpt lat="45.61765409801816" lon="8.607050254844461"><ele>247.0</ele><time>2026-04-17T12:51:45.989Z</time></trkpt><trkpt lat="45.617668572597346" lon="8.606939095217797"><ele>247.0</ele><time>2026-04-17T12:51:46.989Z</time></trkpt><trkpt lat="45.61767520880274" lon="8.606824609095478"><ele>246.99999999999997</ele><time>2026-04-17T12:51:47.989Z</time></trkpt><trkpt lat="45.61767378154435" lon="8.60670379877258"><ele>247.0</ele><time>2026-04-17T12:51:48.989Z</time></trkpt><trkpt lat="45.617662490606556" lon="8.606586021861034"><ele>247.49999999999997</ele><time>2026-04-17T12:51:49.989Z</time></trkpt><trkpt lat="45.61766212823398" lon="8.60647358231443"><ele>248.0</ele><time>2026-04-17T12:51:50.989Z</time></trkpt><trkpt lat="45.61766305924" lon="8.606365291914363"><ele>248.5</ele><time>2026-04-17T12:51:51.989Z</time></trkpt><trkpt lat="45.61767987948167" lon="8.606270468744933"><ele>249.0</ele><time>2026-04-17T12:51:52.989Z</time></trkpt><trkpt lat="45.617744268084046" lon="8.606121196483896"><ele>249.49999999999997</ele><time>2026-04-17T12:51:54.989Z</time></trkpt><trkpt lat="45.617794100141474" lon="8.606065299627446"><ele>250.0</ele><time>2026-04-17T12:51:55.989Z</time></trkpt><trkpt lat="45.61785943617438" lon="8.606013508107127"><ele>250.16666666666666</ele><time>2026-04-17T12:51:56.989Z</time></trkpt><trkpt lat="45.61792921282139" lon="8.605976723686076"><ele>250.33333333333331</ele><time>2026-04-17T12:51:57.989Z</time></trkpt><trkpt lat="45.618002287713445" lon="8.605948601489038"><ele>250.5</ele><time>2026-04-17T12:51:58.989Z</time></trkpt><trkpt lat="45.618070110852955" lon="8.605923470389575"><ele>250.66666666666669</ele><time>2026-04-17T12:51:59.989Z</time></trkpt><trkpt lat="45.61814404137194" lon="8.605901387817038"><ele>250.83333333333334</ele><time>2026-04-17T12:52:00.989Z</time></trkpt><trkpt lat="45.61822310598686" lon="8.605880679585077"><ele>251.0</ele><time>2026-04-17T12:52:01.989Z</time></trkpt><trkpt lat="45.61830410924847" lon="8.605867274384067"><ele>251.00000000000003</ele><time>2026-04-17T12:52:02.989Z</time></trkpt><trkpt lat="45.61838889576953" lon="8.605853999559113"><ele>251.0</ele><time>2026-04-17T12:52:03.989Z</time></trkpt><trkpt lat="45.61848036151159" lon="8.605846954499096"><ele>251.0</ele><time>2026-04-17T12:52:04.989Z</time></trkpt><trkpt lat="45.61856797680401" lon="8.605836534310649"><ele>251.0</ele><time>2026-04-17T12:52:05.989Z</time></trkpt><trkpt lat="45.61865410975736" lon="8.605829641855605"><ele>251.00000000000003</ele><time>2026-04-17T12:52:06.989Z</time></trkpt><trkpt lat="45.618735366661426" lon="8.605815723045808"><ele>251.0</ele><time>2026-04-17T12:52:07.989Z</time></trkpt><trkpt lat="45.61881210952123" lon="8.605797830780336"><ele>251.33333333333334</ele><time>2026-04-17T12:52:08.989Z</time></trkpt><trkpt lat="45.618891228565694" lon="8.605771304234594"><ele>251.66666666666669</ele><time>2026-04-17T12:52:09.989Z</time></trkpt><trkpt lat="45.618972798680424" lon="8.605749199975083"><ele>252.0</ele><time>2026-04-17T12:52:10.989Z</time></trkpt><trkpt lat="45.61905815894729" lon="8.605728468894197"><ele>252.33333333333331</ele><time>2026-04-17T12:52:11.989Z</time></trkpt><trkpt lat="45.61914554408896" lon="8.605716231452337"><ele>252.66666666666666</ele><time>2026-04-17T12:52:12.989Z</time></trkpt><trkpt lat="45.61923004642151" lon="8.60570916268708"><ele>253.0</ele><time>2026-04-17T12:52:13.989Z</time></trkpt><trkpt lat="45.61931388191494" lon="8.605699778277755"><ele>252.99999999999997</ele><time>2026-04-17T12:52:14.989Z</time></trkpt><trkpt lat="45.61939368740446" lon="8.605684093447902"><ele>253.0</ele><time>2026-04-17T12:52:15.989Z</time></trkpt><trkpt lat="45.619474546885215" lon="8.605674635145078"><ele>253.0</ele><time>2026-04-17T12:52:16.989Z</time></trkpt><trkpt lat="45.619548112566584" lon="8.605659835229423"><ele>253.0</ele><time>2026-04-17T12:52:17.989Z</time></trkpt><trkpt lat="45.619618972403686" lon="8.605644852338724"><ele>252.99999999999997</ele><time>2026-04-17T12:52:18.99Z</time></trkpt><trkpt lat="45.61968393719024" lon="8.605631944262441"><ele>253.0</ele><time>2026-04-17T12:52:19.99Z</time></trkpt><trkpt lat="45.61979248606895" lon="8.605613669283736"><ele>252.99999999999997</ele><time>2026-04-17T12:52:21.99Z</time></trkpt><trkpt lat="45.6198748566013" lon="8.60559367833487"><ele>253.0</ele><time>2026-04-17T12:52:23.99Z</time></trkpt><trkpt lat="45.619953107669446" lon="8.60556768260467"><ele>253.0</ele><time>2026-04-17T12:52:28.99Z</time></trkpt><trkpt lat="45.62001652819067" lon="8.605533206743363"><ele>253.0</ele><time>2026-04-17T12:52:32.99Z</time></trkpt><trkpt lat="45.62004566712574" lon="8.605451792483368"><ele>252.99999999999997</ele><time>2026-04-17T12:52:34.987Z</time></trkpt><trkpt lat="45.620089444723455" lon="8.605345431033372"><ele>253.0</ele><time>2026-04-17T12:52:36.987Z</time></trkpt><trkpt lat="45.62013311675223" lon="8.605235085159215"><ele>253.33333333333331</ele><time>2026-04-17T12:52:38.987Z</time></trkpt><trkpt lat="45.62017798663192" lon="8.605094280132565"><ele>253.66666666666666</ele><time>2026-04-17T12:52:40.987Z</time></trkpt><trkpt lat="45.62020720640106" lon="8.604989486602205"><ele>254.0</ele><time>2026-04-17T12:52:41.987Z</time></trkpt><trkpt lat="45.620243280246356" lon="8.604903777210644"><ele>254.33333333333331</ele><time>2026-04-17T12:52:42.987Z</time></trkpt><trkpt lat="45.620298648799" lon="8.60484181582224"><ele>254.66666666666666</ele><time>2026-04-17T12:52:43.987Z</time></trkpt><trkpt lat="45.62038654596161" lon="8.604749605661247"><ele>255.0</ele><time>2026-04-17T12:52:45.987Z</time></trkpt><trkpt lat="45.62045476926229" lon="8.604667831641127"><ele>255.33333333333334</ele><time>2026-04-17T12:52:47.987Z</time></trkpt><trkpt lat="45.62051593536137" lon="8.604608703667832"><ele>255.66666666666669</ele><time>2026-04-17T12:52:50.987Z</time></trkpt><trkpt lat="45.62058611852738" lon="8.604560608345889"><ele>256.0</ele><time>2026-04-17T12:53:06.988Z</time></trkpt><trkpt lat="45.620648605703884" lon="8.604543424061566"><ele>256.33333333333337</ele><time>2026-04-17T12:53:11.988Z</time></trkpt><trkpt lat="45.62073735548866" lon="8.604494842330759"><ele>256.6666666666667</ele><time>2026-04-17T12:53:14.988Z</time></trkpt><trkpt lat="45.62078655153457" lon="8.604424388737042"><ele>257.0</ele><time>2026-04-17T12:53:16.988Z</time></trkpt><trkpt lat="45.620839281686926" lon="8.604338464615322"><ele>257.0</ele><time>2026-04-17T12:53:19.988Z</time></trkpt><trkpt lat="45.62082728039358" lon="8.604247317376334"><ele>257.0</ele><time>2026-04-17T12:53:21.988Z</time></trkpt><trkpt lat="45.620807446405514" lon="8.604129249372244"><ele>257.0</ele><time>2026-04-17T12:53:23.988Z</time></trkpt><trkpt lat="45.62079116929215" lon="8.604016402652116"><ele>257.0</ele><time>2026-04-17T12:53:25.988Z</time></trkpt><trkpt lat="45.62079006905629" lon="8.603900908013703"><ele>257.0</ele><time>2026-04-17T12:53:27.988Z</time></trkpt><trkpt lat="45.62085781972803" lon="8.603839786483398"><ele>257.0</ele><time>2026-04-17T12:53:29.988Z</time></trkpt><trkpt lat="45.62093408961575" lon="8.603803801335346"><ele>257.0</ele><time>2026-04-17T12:53:30.988Z</time></trkpt><trkpt lat="45.62099939692375" lon="8.60375009619894"><ele>257.0</ele><time>2026-04-17T12:53:31.988Z</time></trkpt><trkpt lat="45.62105524644034" lon="8.603708517801897"><ele>257.0</ele><time>2026-04-17T12:53:32.988Z</time></trkpt><trkpt lat="45.621123282344165" lon="8.60367683615989"><ele>257.0</ele><time>2026-04-17T12:53:33.988Z</time></trkpt><trkpt lat="45.62119684823443" lon="8.603646512776727"><ele>257.0</ele><time>2026-04-17T12:53:34.988Z</time></trkpt><trkpt lat="45.621275761927485" lon="8.603619417737598"><ele>257.0</ele><time>2026-04-17T12:53:35.988Z</time></trkpt><trkpt lat="45.621358129069606" lon="8.603594235133986"><ele>256.6666666666667</ele><time>2026-04-17T12:53:36.988Z</time></trkpt><trkpt lat="45.621439822826176" lon="8.603560449962432"><ele>256.33333333333337</ele><time>2026-04-17T12:53:37.988Z</time></trkpt><trkpt lat="45.62152625151847" lon="8.603518538728279"><ele>256.0</ele><time>2026-04-17T12:53:38.988Z</time></trkpt><trkpt lat="45.62160904261058" lon="8.6034790663158"><ele>255.66666666666669</ele><time>2026-04-17T12:53:39.988Z</time></trkpt><trkpt lat="45.62168008083406" lon="8.60342999057266"><ele>255.33333333333334</ele><time>2026-04-17T12:53:40.988Z</time></trkpt><trkpt lat="45.62175311791016" lon="8.603391734303408"><ele>255.0</ele><time>2026-04-17T12:53:41.988Z</time></trkpt><trkpt lat="45.62182176046705" lon="8.603355259227975"><ele>255.0</ele><time>2026-04-17T12:53:42.988Z</time></trkpt><trkpt lat="45.62188982687075" lon="8.603306235167873"><ele>255.0</ele><time>2026-04-17T12:53:43.988Z</time></trkpt><trkpt lat="45.621962757722784" lon="8.603273383693391"><ele>255.0</ele><time>2026-04-17T12:53:44.988Z</time></trkpt><trkpt lat="45.62204813985306" lon="8.6032356373695"><ele>255.0</ele><time>2026-04-17T12:53:45.988Z</time></trkpt><trkpt lat="45.62213365705023" lon="8.603192534990068"><ele>255.0</ele><time>2026-04-17T12:53:46.988Z</time></trkpt><trkpt lat="45.62222018358397" lon="8.60314410854342"><ele>255.0</ele><time>2026-04-17T12:53:47.988Z</time></trkpt><trkpt lat="45.62229954795262" lon="8.60309965133916"><ele>255.4</ele><time>2026-04-17T12:53:48.988Z</time></trkpt><trkpt lat="45.622384285122386" lon="8.603045220438716"><ele>255.8</ele><time>2026-04-17T12:53:49.988Z</time></trkpt><trkpt lat="45.62247120319265" lon="8.602985312920065"><ele>256.2</ele><time>2026-04-17T12:53:50.988Z</time></trkpt><trkpt lat="45.62256317170935" lon="8.602922083615562"><ele>256.6</ele><time>2026-04-17T12:53:51.988Z</time></trkpt><trkpt lat="45.62266034058455" lon="8.602859671630853"><ele>257.0</ele><time>2026-04-17T12:53:52.988Z</time></trkpt><trkpt lat="45.622764825215796" lon="8.602801904119374"><ele>256.4</ele><time>2026-04-17T12:53:53.989Z</time></trkpt><trkpt lat="45.62287299836739" lon="8.602738024319004"><ele>255.79999999999998</ele><time>2026-04-17T12:53:54.989Z</time></trkpt><trkpt lat="45.622972490203885" lon="8.602672563260048"><ele>255.2</ele><time>2026-04-17T12:53:55.989Z</time></trkpt><trkpt lat="45.623067436736854" lon="8.602599318302568"><ele>254.6</ele><time>2026-04-17T12:53:56.989Z</time></trkpt><trkpt lat="45.62316276897264" lon="8.602524037572003"><ele>254.0</ele><time>2026-04-17T12:53:57.989Z</time></trkpt><trkpt lat="45.62325594410129" lon="8.602443113957026"><ele>254.0</ele><time>2026-04-17T12:53:58.989Z</time></trkpt><trkpt lat="45.62334780012129" lon="8.602359214580815"><ele>253.99999999999997</ele><time>2026-04-17T12:53:59.989Z</time></trkpt><trkpt lat="45.62343684286041" lon="8.602275146158835"><ele>253.99999999999997</ele><time>2026-04-17T12:54:00.989Z</time></trkpt><trkpt lat="45.62352952224984" lon="8.602194206456828"><ele>254.0</ele><time>2026-04-17T12:54:01.989Z</time></trkpt><trkpt lat="45.62361680548566" lon="8.60212218261091"><ele>254.0</ele><time>2026-04-17T12:54:02.989Z</time></trkpt><trkpt lat="45.623700926134994" lon="8.602059233757409"><ele>254.50000000000003</ele><time>2026-04-17T12:54:03.989Z</time></trkpt><trkpt lat="45.62377541232878" lon="8.601993217716226"><ele>255.0</ele><time>2026-04-17T12:54:04.989Z</time></trkpt><trkpt lat="45.62382340976248" lon="8.601902945782118"><ele>255.5</ele><time>2026-04-17T12:54:05.989Z</time></trkpt><trkpt lat="45.62384699889331" lon="8.601792319865245"><ele>256.0</ele><time>2026-04-17T12:54:06.989Z</time></trkpt><trkpt lat="45.623849166322486" lon="8.601663908362001"><ele>256.5</ele><time>2026-04-17T12:54:07.989Z</time></trkpt><trkpt lat="45.62384630932909" lon="8.601521106943734"><ele>257.0</ele><time>2026-04-17T12:54:08.989Z</time></trkpt><trkpt lat="45.6238383409889" lon="8.601380571607232"><ele>257.0</ele><time>2026-04-17T12:54:09.989Z</time></trkpt><trkpt lat="45.623837648234655" lon="8.601244212970819"><ele>257.0</ele><time>2026-04-17T12:54:10.989Z</time></trkpt><trkpt lat="45.62386532442961" lon="8.601125635139292"><ele>257.0</ele><time>2026-04-17T12:54:11.989Z</time></trkpt><trkpt lat="45.623926503494616" lon="8.601016457941963"><ele>257.0</ele><time>2026-04-17T12:54:12.989Z</time></trkpt><trkpt lat="45.624008109865976" lon="8.600933510948005"><ele>257.0</ele><time>2026-04-17T12:54:13.989Z</time></trkpt><trkpt lat="45.6241017706952" lon="8.600857585505404"><ele>256.75</ele><time>2026-04-17T12:54:14.989Z</time></trkpt><trkpt lat="45.62419799106653" lon="8.6007793920158"><ele>256.5</ele><time>2026-04-17T12:54:15.989Z</time></trkpt><trkpt lat="45.62429523017386" lon="8.60069713086998"><ele>256.25</ele><time>2026-04-17T12:54:16.989Z</time></trkpt><trkpt lat="45.62439528965364" lon="8.60060268315115"><ele>256.0</ele><time>2026-04-17T12:54:17.989Z</time></trkpt><trkpt lat="45.6244958325045" lon="8.600500187354507"><ele>256.75</ele><time>2026-04-17T12:54:18.989Z</time></trkpt><trkpt lat="45.624587226057436" lon="8.600370815282254"><ele>257.5</ele><time>2026-04-17T12:54:19.989Z</time></trkpt><trkpt lat="45.624659493251336" lon="8.600222807251157"><ele>258.25</ele><time>2026-04-17T12:54:20.989Z</time></trkpt><trkpt lat="45.6247054330282" lon="8.600051194697016"><ele>259.0</ele><time>2026-04-17T12:54:21.989Z</time></trkpt><trkpt lat="45.624740083814295" lon="8.599872915487689"><ele>259.0</ele><time>2026-04-17T12:54:22.989Z</time></trkpt><trkpt lat="45.62477433471153" lon="8.599691343413122"><ele>259.0</ele><time>2026-04-17T12:54:23.989Z</time></trkpt><trkpt lat="45.62480557444121" lon="8.599505703083137"><ele>259.0</ele><time>2026-04-17T12:54:24.989Z</time></trkpt><trkpt lat="45.62483635877178" lon="8.599316662626615"><ele>259.0</ele><time>2026-04-17T12:54:25.989Z</time></trkpt><trkpt lat="45.624870991652216" lon="8.59912763953712"><ele>259.25</ele><time>2026-04-17T12:54:26.989Z</time></trkpt><trkpt lat="45.62490359466732" lon="8.598935596027301"><ele>259.5</ele><time>2026-04-17T12:54:27.989Z</time></trkpt><trkpt lat="45.6249349010031" lon="8.598744003066901"><ele>259.75</ele><time>2026-04-17T12:54:28.989Z</time></trkpt><trkpt lat="45.6249641740222" lon="8.598549976630649"><ele>260.0</ele><time>2026-04-17T12:54:29.989Z</time></trkpt><trkpt lat="45.62499410584582" lon="8.598356091524762"><ele>260.5</ele><time>2026-04-17T12:54:30.989Z</time></trkpt><trkpt lat="45.62502556381143" lon="8.598165089524896"><ele>261.0</ele><time>2026-04-17T12:54:31.989Z</time></trkpt><trkpt lat="45.62505791131408" lon="8.597973121775361"><ele>261.5</ele><time>2026-04-17T12:54:32.989Z</time></trkpt><trkpt lat="45.62508985954666" lon="8.597782147204855"><ele>262.0</ele><time>2026-04-17T12:54:33.989Z</time></trkpt><trkpt lat="45.62512152414777" lon="8.597590090389167"><ele>262.75</ele><time>2026-04-17T12:54:34.989Z</time></trkpt><trkpt lat="45.62515227031918" lon="8.59739686939013"><ele>263.5</ele><time>2026-04-17T12:54:35.989Z</time></trkpt><trkpt lat="45.62518352040122" lon="8.597202637460118"><ele>264.25</ele><time>2026-04-17T12:54:36.989Z</time></trkpt><trkpt lat="45.625216453450136" lon="8.597007639033098"><ele>265.0</ele><time>2026-04-17T12:54:37.989Z</time></trkpt><trkpt lat="45.625249648107676" lon="8.596812411099807"><ele>267.5</ele><time>2026-04-17T12:54:38.989Z</time></trkpt><trkpt lat="45.625283061845444" lon="8.596616722012929"><ele>270.0</ele><time>2026-04-17T12:54:39.986Z</time></trkpt><trkpt lat="45.62531686319968" lon="8.596421221638659"><ele>272.5</ele><time>2026-04-17T12:54:40.986Z</time></trkpt><trkpt lat="45.62534892634637" lon="8.5962244736209"><ele>275.0</ele><time>2026-04-17T12:54:41.986Z</time></trkpt><trkpt lat="45.62538043071085" lon="8.596028127811552"><ele>276.5</ele><time>2026-04-17T12:54:42.986Z</time></trkpt><trkpt lat="45.62541325992045" lon="8.595831040861464"><ele>278.0</ele><time>2026-04-17T12:54:43.986Z</time></trkpt><trkpt lat="45.62544669500992" lon="8.595634435899226"><ele>279.5</ele><time>2026-04-17T12:54:44.986Z</time></trkpt><trkpt lat="45.62547892153693" lon="8.595440717230774"><ele>281.0</ele><time>2026-04-17T12:54:45.986Z</time></trkpt><trkpt lat="45.62550504564969" lon="8.595265892049607"><ele>281.40000000000003</ele><time>2026-04-17T12:54:46.986Z</time></trkpt><trkpt lat="45.6255281198407" lon="8.595110815654847"><ele>281.8</ele><time>2026-04-17T12:54:47.986Z</time></trkpt><trkpt lat="45.625553128299636" lon="8.59497233404514"><ele>282.20000000000005</ele><time>2026-04-17T12:54:48.986Z</time></trkpt><trkpt lat="45.62558373775923" lon="8.594852281858007"><ele>282.6</ele><time>2026-04-17T12:54:49.986Z</time></trkpt><trkpt lat="45.62562770875851" lon="8.594749311044255"><ele>283.0</ele><time>2026-04-17T12:54:50.986Z</time></trkpt><trkpt lat="45.62569795265642" lon="8.594660687467954"><ele>283.0</ele><time>2026-04-17T12:54:51.986Z</time></trkpt><trkpt lat="45.62577906829793" lon="8.5945789919674"><ele>283.0</ele><time>2026-04-17T12:54:52.986Z</time></trkpt><trkpt lat="45.62584815481376" lon="8.594479465181802"><ele>283.0</ele><time>2026-04-17T12:54:53.986Z</time></trkpt><trkpt lat="45.625890539022215" lon="8.594349186357181"><ele>283.0</ele><time>2026-04-17T12:54:54.986Z</time></trkpt><trkpt lat="45.62590731334732" lon="8.59419998953396"><ele>283.0</ele><time>2026-04-17T12:54:55.986Z</time></trkpt><trkpt lat="45.62589953327059" lon="8.594033928166073"><ele>283.0</ele><time>2026-04-17T12:54:56.986Z</time></trkpt><trkpt lat="45.62588463128052" lon="8.593866862494638"><ele>283.0</ele><time>2026-04-17T12:54:57.986Z</time></trkpt><trkpt lat="45.625874382396596" lon="8.593691673476314"><ele>283.0</ele><time>2026-04-17T12:54:58.986Z</time></trkpt><trkpt lat="45.62586528552831" lon="8.593507513953673"><ele>283.0</ele><time>2026-04-17T12:54:59.986Z</time></trkpt><trkpt lat="45.625854649568524" lon="8.593333123309215"><ele>283.0</ele><time>2026-04-17T12:55:00.986Z</time></trkpt><trkpt lat="45.6258454374071" lon="8.593166919248569"><ele>283.0</ele><time>2026-04-17T12:55:01.986Z</time></trkpt><trkpt lat="45.62584662286112" lon="8.593009113545035"><ele>283.0</ele><time>2026-04-17T12:55:02.986Z</time></trkpt><trkpt lat="45.62586829236164" lon="8.592859647204097"><ele>283.0</ele><time>2026-04-17T12:55:03.986Z</time></trkpt><trkpt lat="45.625916940103544" lon="8.59272824338933"><ele>283.0</ele><time>2026-04-17T12:55:04.986Z</time></trkpt><trkpt lat="45.62598993009055" lon="8.59261496350309"><ele>282.8</ele><time>2026-04-17T12:55:05.986Z</time></trkpt><trkpt lat="45.62607310950737" lon="8.592512431537793"><ele>282.6</ele><time>2026-04-17T12:55:06.986Z</time></trkpt><trkpt lat="45.62616783930354" lon="8.592433742291064"><ele>282.4</ele><time>2026-04-17T12:55:07.986Z</time></trkpt><trkpt lat="45.626251454343134" lon="8.592375470121643"><ele>282.2</ele><time>2026-04-17T12:55:08.986Z</time></trkpt><trkpt lat="45.626309660853664" lon="8.592307933709856"><ele>282.0</ele><time>2026-04-17T12:55:09.986Z</time></trkpt><trkpt lat="45.626342408841325" lon="8.59221358705665"><ele>282.0</ele><time>2026-04-17T12:55:10.986Z</time></trkpt><trkpt lat="45.626344638901195" lon="8.592091414392568"><ele>282.0</ele><time>2026-04-17T12:55:11.986Z</time></trkpt><trkpt lat="45.62633384482981" lon="8.591955158597514"><ele>282.0</ele><time>2026-04-17T12:55:12.986Z</time></trkpt><trkpt lat="45.62632648918584" lon="8.591807618589826"><ele>282.0</ele><time>2026-04-17T12:55:13.986Z</time></trkpt><trkpt lat="45.626320705638605" lon="8.59165799206808"><ele>282.0</ele><time>2026-04-17T12:55:14.986Z</time></trkpt><trkpt lat="45.62631549401054" lon="8.591503205885491"><ele>281.6</ele><time>2026-04-17T12:55:15.986Z</time></trkpt><trkpt lat="45.6263112315243" lon="8.591346524033098"><ele>281.2</ele><time>2026-04-17T12:55:16.986Z</time></trkpt><trkpt lat="45.62630695545537" lon="8.591191305146946"><ele>280.8</ele><time>2026-04-17T12:55:17.986Z</time></trkpt><trkpt lat="45.62631687635639" lon="8.591034683357032"><ele>280.4</ele><time>2026-04-17T12:55:18.986Z</time></trkpt><trkpt lat="45.62634820462905" lon="8.590880550995303"><ele>280.0</ele><time>2026-04-17T12:55:19.986Z</time></trkpt><trkpt lat="45.62638979254358" lon="8.590724746310897"><ele>281.5</ele><time>2026-04-17T12:55:20.986Z</time></trkpt><trkpt lat="45.626432067120064" lon="8.590563153137746"><ele>283.0</ele><time>2026-04-17T12:55:21.986Z</time></trkpt><trkpt lat="45.62647328782696" lon="8.590392819853458"><ele>284.5</ele><time>2026-04-17T12:55:22.986Z</time></trkpt><trkpt lat="45.62651807354251" lon="8.590225487994545"><ele>286.0</ele><time>2026-04-17T12:55:23.986Z</time></trkpt><trkpt lat="45.62656529794894" lon="8.59005618875407"><ele>287.0</ele><time>2026-04-17T12:55:24.986Z</time></trkpt><trkpt lat="45.62661167967463" lon="8.589886663762725"><ele>288.0</ele><time>2026-04-17T12:55:25.986Z</time></trkpt><trkpt lat="45.626654339903155" lon="8.589706963996457"><ele>289.0</ele><time>2026-04-17T12:55:26.986Z</time></trkpt><trkpt lat="45.626690627220455" lon="8.589513704455598"><ele>290.0</ele><time>2026-04-17T12:55:27.986Z</time></trkpt><trkpt lat="45.62671691568935" lon="8.58931147445983"><ele>290.25</ele><time>2026-04-17T12:55:28.986Z</time></trkpt><trkpt lat="45.6267443043095" lon="8.589106309577428"><ele>290.5</ele><time>2026-04-17T12:55:29.986Z</time></trkpt><trkpt lat="45.626772386396205" lon="8.588894931569431"><ele>290.75</ele><time>2026-04-17T12:55:30.986Z</time></trkpt><trkpt lat="45.62680349448796" lon="8.58868438007691"><ele>291.0</ele><time>2026-04-17T12:55:31.986Z</time></trkpt><trkpt lat="45.62683533777888" lon="8.588475453054226"><ele>290.5</ele><time>2026-04-17T12:55:32.986Z</time></trkpt><trkpt lat="45.626860441065155" lon="8.588271829268812"><ele>290.0</ele><time>2026-04-17T12:55:33.986Z</time></trkpt><trkpt lat="45.62688364503296" lon="8.588073982676264"><ele>289.5</ele><time>2026-04-17T12:55:34.986Z</time></trkpt><trkpt lat="45.62690560698011" lon="8.587886153976253"><ele>289.0</ele><time>2026-04-17T12:55:35.986Z</time></trkpt><trkpt lat="45.626929573403515" lon="8.58770793975094"><ele>289.0</ele><time>2026-04-17T12:55:36.986Z</time></trkpt><trkpt lat="45.62696207312585" lon="8.587550394122548"><ele>289.0</ele><time>2026-04-17T12:55:37.986Z</time></trkpt><trkpt lat="45.627010234406114" lon="8.587415595011462"><ele>289.0</ele><time>2026-04-17T12:55:38.987Z</time></trkpt><trkpt lat="45.62707688016942" lon="8.587312794978201"><ele>289.0</ele><time>2026-04-17T12:55:39.987Z</time></trkpt><trkpt lat="45.627163859476816" lon="8.58726116423509"><ele>289.0</ele><time>2026-04-17T12:55:40.987Z</time></trkpt><trkpt lat="45.627263477244256" lon="8.587248771545921"><ele>289.2</ele><time>2026-04-17T12:55:41.987Z</time></trkpt><trkpt lat="45.62736851343027" lon="8.587251369931117"><ele>289.4</ele><time>2026-04-17T12:55:42.987Z</time></trkpt><trkpt lat="45.62748101398736" lon="8.58725190070878"><ele>289.6</ele><time>2026-04-17T12:55:43.987Z</time></trkpt><trkpt lat="45.62759600658035" lon="8.587251048069572"><ele>289.8</ele><time>2026-04-17T12:55:44.987Z</time></trkpt><trkpt lat="45.62771067678694" lon="8.587227363776485"><ele>290.0</ele><time>2026-04-17T12:55:45.987Z</time></trkpt><trkpt lat="45.62781165530533" lon="8.58717392904034"><ele>290.4</ele><time>2026-04-17T12:55:46.987Z</time></trkpt><trkpt lat="45.62789229340045" lon="8.58708912547368"><ele>290.8</ele><time>2026-04-17T12:55:47.987Z</time></trkpt><trkpt lat="45.62796962295249" lon="8.586978012399522"><ele>291.2</ele><time>2026-04-17T12:55:48.987Z</time></trkpt><trkpt lat="45.628048032126664" lon="8.5868503180324"><ele>291.6</ele><time>2026-04-17T12:55:49.987Z</time></trkpt><trkpt lat="45.62811287957805" lon="8.586711983611986"><ele>292.0</ele><time>2026-04-17T12:55:50.987Z</time></trkpt><trkpt lat="45.62815878866119" lon="8.5865582816528"><ele>292.0</ele><time>2026-04-17T12:55:51.987Z</time></trkpt><trkpt lat="45.62818953622572" lon="8.586384711432697"><ele>292.0</ele><time>2026-04-17T12:55:52.987Z</time></trkpt><trkpt lat="45.62820580148254" lon="8.586218361958561"><ele>292.0</ele><time>2026-04-17T12:55:53.987Z</time></trkpt><trkpt lat="45.62819853234919" lon="8.586059878257018"><ele>292.0</ele><time>2026-04-17T12:55:54.987Z</time></trkpt><trkpt lat="45.62816339862831" lon="8.585901985293294"><ele>290.25</ele><time>2026-04-17T12:55:55.987Z</time></trkpt><trkpt lat="45.62811668856808" lon="8.585731986324316"><ele>288.5</ele><time>2026-04-17T12:55:56.987Z</time></trkpt><trkpt lat="45.62807086355625" lon="8.585552594867652"><ele>286.75</ele><time>2026-04-17T12:55:57.987Z</time></trkpt><trkpt lat="45.62802473162599" lon="8.585361932298444"><ele>285.0</ele><time>2026-04-17T12:55:58.987Z</time></trkpt><trkpt lat="45.627976329606184" lon="8.585160731392472"><ele>283.5</ele><time>2026-04-17T12:55:59.987Z</time></trkpt><trkpt lat="45.62793222826141" lon="8.584959932205415"><ele>282.0</ele><time>2026-04-17T12:56:00.987Z</time></trkpt><trkpt lat="45.627888873518096" lon="8.584760662154396"><ele>280.5</ele><time>2026-04-17T12:56:01.987Z</time></trkpt><trkpt lat="45.627847892293126" lon="8.584559946481331"><ele>279.0</ele><time>2026-04-17T12:56:02.987Z</time></trkpt><trkpt lat="45.62780747218062" lon="8.584366467879127"><ele>276.0</ele><time>2026-04-17T12:56:03.987Z</time></trkpt><trkpt lat="45.62775727957374" lon="8.584181163997675"><ele>273.0</ele><time>2026-04-17T12:56:04.987Z</time></trkpt><trkpt lat="45.62771752169022" lon="8.584017673454078"><ele>270.0</ele><time>2026-04-17T12:56:05.987Z</time></trkpt><trkpt lat="45.62768425658216" lon="8.583856598319256"><ele>267.0</ele><time>2026-04-17T12:56:06.987Z</time></trkpt><trkpt lat="45.627666573146875" lon="8.583706390352114"><ele>267.0</ele><time>2026-04-17T12:56:07.987Z</time></trkpt><trkpt lat="45.62769171349435" lon="8.583566418206903"><ele>267.0</ele><time>2026-04-17T12:56:08.987Z</time></trkpt><trkpt lat="45.627755204676305" lon="8.583450782077348"><ele>267.0</ele><time>2026-04-17T12:56:09.987Z</time></trkpt><trkpt lat="45.627837797968766" lon="8.583382842499443"><ele>267.0</ele><time>2026-04-17T12:56:10.987Z</time></trkpt><trkpt lat="45.62793927584131" lon="8.58333622183373"><ele>267.0</ele><time>2026-04-17T12:56:11.987Z</time></trkpt><trkpt lat="45.62804661429111" lon="8.583294479839893"><ele>267.4</ele><time>2026-04-17T12:56:12.987Z</time></trkpt><trkpt lat="45.62815669202318" lon="8.58325058712977"><ele>267.79999999999995</ele><time>2026-04-17T12:56:13.987Z</time></trkpt><trkpt lat="45.628258981447374" lon="8.58319919034291"><ele>268.2</ele><time>2026-04-17T12:56:14.987Z</time></trkpt><trkpt lat="45.62835188638909" lon="8.583131558876834"><ele>268.59999999999997</ele><time>2026-04-17T12:56:15.987Z</time></trkpt><trkpt lat="45.62842079439035" lon="8.583030202538296"><ele>269.0</ele><time>2026-04-17T12:56:16.987Z</time></trkpt><trkpt lat="45.62846550018327" lon="8.582907366521017"><ele>268.25</ele><time>2026-04-17T12:56:17.987Z</time></trkpt><trkpt lat="45.628489175504086" lon="8.582758918612688"><ele>267.5</ele><time>2026-04-17T12:56:18.987Z</time></trkpt><trkpt lat="45.62851514273962" lon="8.582597979282353"><ele>266.75</ele><time>2026-04-17T12:56:19.987Z</time></trkpt><trkpt lat="45.62854114245866" lon="8.582434527292811"><ele>266.0</ele><time>2026-04-17T12:56:20.987Z</time></trkpt><trkpt lat="45.628573998886274" lon="8.582267554377141"><ele>266.0</ele><time>2026-04-17T12:56:21.987Z</time></trkpt><trkpt lat="45.6286080424525" lon="8.582095163263796"><ele>266.0</ele><time>2026-04-17T12:56:22.987Z</time></trkpt><trkpt lat="45.628642819930484" lon="8.58191808251943"><ele>266.0</ele><time>2026-04-17T12:56:23.987Z</time></trkpt><trkpt lat="45.62867761335877" lon="8.581736435837012"><ele>266.0</ele><time>2026-04-17T12:56:24.987Z</time></trkpt><trkpt lat="45.628714257883935" lon="8.581553250464198"><ele>267.25</ele><time>2026-04-17T12:56:25.987Z</time></trkpt><trkpt lat="45.628751031538144" lon="8.581366052235051"><ele>268.5</ele><time>2026-04-17T12:56:26.987Z</time></trkpt><trkpt lat="45.62878820550269" lon="8.581177590710542"><ele>269.75</ele><time>2026-04-17T12:56:27.987Z</time></trkpt><trkpt lat="45.628827226505976" lon="8.580988336227357"><ele>271.0</ele><time>2026-04-17T12:56:28.987Z</time></trkpt><trkpt lat="45.628862876283556" lon="8.580799093315994"><ele>271.25</ele><time>2026-04-17T12:56:29.987Z</time></trkpt><trkpt lat="45.62890277524178" lon="8.580608935963047"><ele>271.5</ele><time>2026-04-17T12:56:30.987Z</time></trkpt><trkpt lat="45.628939378004716" lon="8.580415904536842"><ele>271.75</ele><time>2026-04-17T12:56:31.987Z</time></trkpt><trkpt lat="45.62897900187055" lon="8.580224599171379"><ele>272.0</ele><time>2026-04-17T12:56:32.988Z</time></trkpt><trkpt lat="45.62901609320683" lon="8.580044559155446"><ele>272.75</ele><time>2026-04-17T12:56:33.988Z</time></trkpt><trkpt lat="45.6290511716371" lon="8.579877653283912"><ele>273.5</ele><time>2026-04-17T12:56:34.988Z</time></trkpt><trkpt lat="45.62907307455854" lon="8.579712850482519"><ele>274.25</ele><time>2026-04-17T12:56:35.988Z</time></trkpt><trkpt lat="45.62907491547844" lon="8.579541848892339"><ele>275.0</ele><time>2026-04-17T12:56:36.988Z</time></trkpt><trkpt lat="45.62905471809298" lon="8.579370263153814"><ele>274.5</ele><time>2026-04-17T12:56:37.988Z</time></trkpt><trkpt lat="45.629018183405165" lon="8.579197009560717"><ele>274.0</ele><time>2026-04-17T12:56:38.988Z</time></trkpt><trkpt lat="45.628978748890255" lon="8.579012301810916"><ele>273.5</ele><time>2026-04-17T12:56:39.988Z</time></trkpt><trkpt lat="45.628942964685294" lon="8.578804761763509"><ele>273.0</ele><time>2026-04-17T12:56:40.988Z</time></trkpt><trkpt lat="45.6289180598836" lon="8.578588769973138"><ele>273.0</ele><time>2026-04-17T12:56:41.988Z</time></trkpt><trkpt lat="45.62889859487546" lon="8.578374783329583"><ele>273.0</ele><time>2026-04-17T12:56:42.988Z</time></trkpt><trkpt lat="45.62887930011003" lon="8.578161137270708"><ele>273.0</ele><time>2026-04-17T12:56:43.988Z</time></trkpt><trkpt lat="45.62885824967708" lon="8.577941667223541"><ele>271.5</ele><time>2026-04-17T12:56:44.988Z</time></trkpt><trkpt lat="45.628838759191424" lon="8.577728038569598"><ele>270.0</ele><time>2026-04-17T12:56:45.985Z</time></trkpt><trkpt lat="45.62882078597796" lon="8.577521907978316"><ele>268.5</ele><time>2026-04-17T12:56:46.985Z</time></trkpt><trkpt lat="45.628801450799095" lon="8.57732200534508"><ele>267.0</ele><time>2026-04-17T12:56:47.985Z</time></trkpt><trkpt lat="45.62878700283511" lon="8.577130594355971"><ele>266.4</ele><time>2026-04-17T12:56:48.985Z</time></trkpt><trkpt lat="45.628782300886265" lon="8.576941936309291"><ele>265.79999999999995</ele><time>2026-04-17T12:56:49.985Z</time></trkpt><trkpt lat="45.6288059952555" lon="8.576771051326018"><ele>265.2</ele><time>2026-04-17T12:56:50.985Z</time></trkpt><trkpt lat="45.62885868212225" lon="8.576645215904865"><ele>264.59999999999997</ele><time>2026-04-17T12:56:51.985Z</time></trkpt><trkpt lat="45.62892441346232" lon="8.576557149380111"><ele>264.0</ele><time>2026-04-17T12:56:52.985Z</time></trkpt><trkpt lat="45.62901328347551" lon="8.576497163697912"><ele>264.0</ele><time>2026-04-17T12:56:53.985Z</time></trkpt><trkpt lat="45.629108772050635" lon="8.576444122179765"><ele>264.0</ele><time>2026-04-17T12:56:54.985Z</time></trkpt><trkpt lat="45.62920941925702" lon="8.576375442256253"><ele>264.0</ele><time>2026-04-17T12:56:55.985Z</time></trkpt><trkpt lat="45.62931586630125" lon="8.576300817409708"><ele>264.0</ele><time>2026-04-17T12:56:56.985Z</time></trkpt><trkpt lat="45.62942945119784" lon="8.576223137015164"><ele>264.25</ele><time>2026-04-17T12:56:57.985Z</time></trkpt><trkpt lat="45.629545444825915" lon="8.576155735216744"><ele>264.5</ele><time>2026-04-17T12:56:58.985Z</time></trkpt><trkpt lat="45.629655450858415" lon="8.576086536825757"><ele>264.75</ele><time>2026-04-17T12:56:59.985Z</time></trkpt><trkpt lat="45.62977200644632" lon="8.576019110398871"><ele>265.0</ele><time>2026-04-17T12:57:00.985Z</time></trkpt><trkpt lat="45.62989277769092" lon="8.575947231764488"><ele>265.0</ele><time>2026-04-17T12:57:01.985Z</time></trkpt><trkpt lat="45.6300149206695" lon="8.57587225392138"><ele>265.0</ele><time>2026-04-17T12:57:02.985Z</time></trkpt><trkpt lat="45.63013644734775" lon="8.57578312564132"><ele>265.0</ele><time>2026-04-17T12:57:03.985Z</time></trkpt><trkpt lat="45.6302544662719" lon="8.575677675005082"><ele>265.0</ele><time>2026-04-17T12:57:04.985Z</time></trkpt><trkpt lat="45.630360602267295" lon="8.575568828522565"><ele>265.0</ele><time>2026-04-17T12:57:05.985Z</time></trkpt><trkpt lat="45.630475158994166" lon="8.575441753709221"><ele>265.0</ele><time>2026-04-17T12:57:06.985Z</time></trkpt><trkpt lat="45.63059610958184" lon="8.575315848554956"><ele>265.0</ele><time>2026-04-17T12:57:07.985Z</time></trkpt><trkpt lat="45.630729671467236" lon="8.5752120503155"><ele>265.0</ele><time>2026-04-17T12:57:08.985Z</time></trkpt><trkpt lat="45.63087166778443" lon="8.575129661971651"><ele>265.0</ele><time>2026-04-17T12:57:09.985Z</time></trkpt><trkpt lat="45.63101445223472" lon="8.575047796852349"><ele>265.0</ele><time>2026-04-17T12:57:10.985Z</time></trkpt><trkpt lat="45.63115795384743" lon="8.57496080598578"><ele>265.0</ele><time>2026-04-17T12:57:11.985Z</time></trkpt><trkpt lat="45.631301361655396" lon="8.574873142533457"><ele>266.0</ele><time>2026-04-17T12:57:12.985Z</time></trkpt><trkpt lat="45.63144333909273" lon="8.574782993741842"><ele>267.0</ele><time>2026-04-17T12:57:13.985Z</time></trkpt><trkpt lat="45.631579509946256" lon="8.574683455494515"><ele>268.0</ele><time>2026-04-17T12:57:14.985Z</time></trkpt><trkpt lat="45.63170364113323" lon="8.574557521987709"><ele>268.0</ele><time>2026-04-17T12:57:15.985Z</time></trkpt><trkpt lat="45.631806524696344" lon="8.574401414514655"><ele>268.0</ele><time>2026-04-17T12:57:16.985Z</time></trkpt><trkpt lat="45.63188890834796" lon="8.574223237943006"><ele>268.0</ele><time>2026-04-17T12:57:17.985Z</time></trkpt><trkpt lat="45.63198595924507" lon="8.574063355242718"><ele>268.0</ele><time>2026-04-17T12:57:18.985Z</time></trkpt><trkpt lat="45.63210034297434" lon="8.573932916398036"><ele>268.0</ele><time>2026-04-17T12:57:19.985Z</time></trkpt><trkpt lat="45.63222533122113" lon="8.573814286686954"><ele>268.0</ele><time>2026-04-17T12:57:20.985Z</time></trkpt><trkpt lat="45.632354079753775" lon="8.573692334404255"><ele>268.0</ele><time>2026-04-17T12:57:21.985Z</time></trkpt><trkpt lat="45.632486112254135" lon="8.573571846239814"><ele>268.3333333333333</ele><time>2026-04-17T12:57:22.985Z</time></trkpt><trkpt lat="45.63262180130287" lon="8.57345231303091"><ele>268.6666666666667</ele><time>2026-04-17T12:57:23.985Z</time></trkpt><trkpt lat="45.63276226721077" lon="8.573338037261664"><ele>269.0</ele><time>2026-04-17T12:57:24.985Z</time></trkpt><trkpt lat="45.63290401581708" lon="8.573224137814545"><ele>269.0</ele><time>2026-04-17T12:57:25.985Z</time></trkpt><trkpt lat="45.6330472741441" lon="8.57310736959534"><ele>269.0</ele><time>2026-04-17T12:57:26.985Z</time></trkpt><trkpt lat="45.633184817462414" lon="8.572992758551369"><ele>269.0</ele><time>2026-04-17T12:57:27.985Z</time></trkpt><trkpt lat="45.633320283098634" lon="8.572885289404761"><ele>269.0</ele><time>2026-04-17T12:57:28.985Z</time></trkpt><trkpt lat="45.63345103516943" lon="8.57277605493715"><ele>269.0</ele><time>2026-04-17T12:57:29.985Z</time></trkpt><trkpt lat="45.633577084845676" lon="8.572676796577584"><ele>269.0</ele><time>2026-04-17T12:57:30.985Z</time></trkpt><trkpt lat="45.63369935819579" lon="8.572605663046417"><ele>269.0</ele><time>2026-04-17T12:57:31.986Z</time></trkpt><trkpt lat="45.633824910288496" lon="8.572564820008491"><ele>269.0</ele><time>2026-04-17T12:57:32.986Z</time></trkpt><trkpt lat="45.63396098257428" lon="8.572549982861556"><ele>269.0</ele><time>2026-04-17T12:57:33.986Z</time></trkpt><trkpt lat="45.634102534836344" lon="8.572568626855379"><ele>269.0</ele><time>2026-04-17T12:57:34.986Z</time></trkpt><trkpt lat="45.63425093113665" lon="8.572606928345772"><ele>269.0</ele><time>2026-04-17T12:57:35.986Z</time></trkpt><trkpt lat="45.6344057235243" lon="8.5726071116719"><ele>269.25</ele><time>2026-04-17T12:57:36.986Z</time></trkpt><trkpt lat="45.63454939430362" lon="8.57256696369294"><ele>269.5</ele><time>2026-04-17T12:57:37.986Z</time></trkpt><trkpt lat="45.63468204603972" lon="8.57252464788355"><ele>269.75</ele><time>2026-04-17T12:57:38.986Z</time></trkpt><trkpt lat="45.63480252266881" lon="8.572485724200188"><ele>270.0</ele><time>2026-04-17T12:57:39.986Z</time></trkpt><trkpt lat="45.63491276746107" lon="8.572437767497828"><ele>270.0</ele><time>2026-04-17T12:57:40.986Z</time></trkpt><trkpt lat="45.63500063835026" lon="8.572358685525835"><ele>270.0</ele><time>2026-04-17T12:57:41.986Z</time></trkpt><trkpt lat="45.63506629817229" lon="8.572248120271084"><ele>270.0</ele><time>2026-04-17T12:57:42.986Z</time></trkpt><trkpt lat="45.63510744398017" lon="8.572119440106587"><ele>270.0</ele><time>2026-04-17T12:57:43.986Z</time></trkpt><trkpt lat="45.635139834056105" lon="8.571984648276844"><ele>270.0</ele><time>2026-04-17T12:57:44.986Z</time></trkpt><trkpt lat="45.6351629545558" lon="8.571841153649201"><ele>270.0</ele><time>2026-04-17T12:57:45.986Z</time></trkpt><trkpt lat="45.63516934956567" lon="8.571692348580832"><ele>270.0</ele><time>2026-04-17T12:57:46.986Z</time></trkpt><trkpt lat="45.63513745332428" lon="8.571542356465866"><ele>270.0</ele><time>2026-04-17T12:57:47.986Z</time></trkpt><trkpt lat="45.635074876246165" lon="8.571400143551568"><ele>270.0</ele><time>2026-04-17T12:57:48.986Z</time></trkpt><trkpt lat="45.63499853422311" lon="8.571274726698915"><ele>270.0</ele><time>2026-04-17T12:57:49.986Z</time></trkpt><trkpt lat="45.63491731037125" lon="8.571150555620235"><ele>270.0</ele><time>2026-04-17T12:57:50.986Z</time></trkpt><trkpt lat="45.63484152962422" lon="8.571022030649404"><ele>270.0</ele><time>2026-04-17T12:57:51.986Z</time></trkpt><trkpt lat="45.6347856607376" lon="8.570881425341888"><ele>270.0</ele><time>2026-04-17T12:57:52.986Z</time></trkpt><trkpt lat="45.63474931637753" lon="8.57072817046607"><ele>270.0</ele><time>2026-04-17T12:57:53.986Z</time></trkpt><trkpt lat="45.63473399136862" lon="8.57058726320691"><ele>270.0</ele><time>2026-04-17T12:57:54.986Z</time></trkpt><trkpt lat="45.63472635355986" lon="8.570440435012616"><ele>270.0</ele><time>2026-04-17T12:57:55.986Z</time></trkpt><trkpt lat="45.63473618426845" lon="8.570276249478306"><ele>270.0</ele><time>2026-04-17T12:57:56.986Z</time></trkpt><trkpt lat="45.63474885407674" lon="8.570102762211981"><ele>270.0</ele><time>2026-04-17T12:57:57.986Z</time></trkpt><trkpt lat="45.6347592963062" lon="8.569929762659676"><ele>270.0</ele><time>2026-04-17T12:57:58.986Z</time></trkpt><trkpt lat="45.63476641269866" lon="8.569740843400718"><ele>270.0</ele><time>2026-04-17T12:57:59.986Z</time></trkpt><trkpt lat="45.634775159713065" lon="8.569547545093993"><ele>270.0</ele><time>2026-04-17T12:58:00.986Z</time></trkpt><trkpt lat="45.63477984183843" lon="8.569353807330012"><ele>270.0</ele><time>2026-04-17T12:58:01.986Z</time></trkpt><trkpt lat="45.63478400895453" lon="8.569154275741209"><ele>270.0</ele><time>2026-04-17T12:58:02.986Z</time></trkpt><trkpt lat="45.634788437664916" lon="8.56895452428008"><ele>269.5</ele><time>2026-04-17T12:58:03.986Z</time></trkpt><trkpt lat="45.63479414771022" lon="8.56875434278241"><ele>269.0</ele><time>2026-04-17T12:58:04.986Z</time></trkpt><trkpt lat="45.63480855277219" lon="8.568562057218553"><ele>268.5</ele><time>2026-04-17T12:58:05.986Z</time></trkpt><trkpt lat="45.634815511282774" lon="8.568384521353652"><ele>268.0</ele><time>2026-04-17T12:58:06.986Z</time></trkpt><trkpt lat="45.63480968764907" lon="8.568206400827004"><ele>267.25</ele><time>2026-04-17T12:58:07.986Z</time></trkpt><trkpt lat="45.63477224931102" lon="8.568040844134623"><ele>266.5</ele><time>2026-04-17T12:58:08.986Z</time></trkpt><trkpt lat="45.6346989254557" lon="8.567871677069816"><ele>265.75</ele><time>2026-04-17T12:58:09.986Z</time></trkpt><trkpt lat="45.634618619555695" lon="8.567716041051032"><ele>265.0</ele><time>2026-04-17T12:58:10.986Z</time></trkpt><trkpt lat="45.634541600954414" lon="8.567564835396414"><ele>265.0</ele><time>2026-04-17T12:58:11.986Z</time></trkpt><trkpt lat="45.63446440678105" lon="8.567414499961574"><ele>265.0</ele><time>2026-04-17T12:58:12.986Z</time></trkpt><trkpt lat="45.63439239485613" lon="8.567256617803071"><ele>265.0</ele><time>2026-04-17T12:58:13.986Z</time></trkpt><trkpt lat="45.6343309977453" lon="8.567079668472132"><ele>265.0</ele><time>2026-04-17T12:58:14.986Z</time></trkpt><trkpt lat="45.63427025507893" lon="8.566903829261188"><ele>264.75</ele><time>2026-04-17T12:58:15.986Z</time></trkpt><trkpt lat="45.63420316480655" lon="8.566725429806334"><ele>264.5</ele><time>2026-04-17T12:58:16.986Z</time></trkpt><trkpt lat="45.63413560970175" lon="8.566547043778058"><ele>264.25</ele><time>2026-04-17T12:58:17.986Z</time></trkpt><trkpt lat="45.63406949265999" lon="8.566362829607606"><ele>264.0</ele><time>2026-04-17T12:58:18.986Z</time></trkpt><trkpt lat="45.63400852586663" lon="8.566177968232308"><ele>264.0</ele><time>2026-04-17T12:58:19.986Z</time></trkpt><trkpt lat="45.6339499979818" lon="8.565992264893058"><ele>264.0</ele><time>2026-04-17T12:58:20.986Z</time></trkpt><trkpt lat="45.63389897152287" lon="8.565801788288109"><ele>264.0</ele><time>2026-04-17T12:58:21.986Z</time></trkpt><trkpt lat="45.63384859672594" lon="8.565611561453625"><ele>264.0</ele><time>2026-04-17T12:58:22.986Z</time></trkpt><trkpt lat="45.633796197316535" lon="8.56542399447868"><ele>263.75</ele><time>2026-04-17T12:58:23.986Z</time></trkpt><trkpt lat="45.63375440438341" lon="8.565225127745787"><ele>263.5</ele><time>2026-04-17T12:58:24.986Z</time></trkpt><trkpt lat="45.633727512471566" lon="8.565020637358058"><ele>263.25</ele><time>2026-04-17T12:58:25.987Z</time></trkpt><trkpt lat="45.633708269348006" lon="8.564824643173468"><ele>263.0</ele><time>2026-04-17T12:58:26.987Z</time></trkpt><trkpt lat="45.63369289951646" lon="8.564625285521066"><ele>263.0</ele><time>2026-04-17T12:58:27.987Z</time></trkpt><trkpt lat="45.63368092861421" lon="8.564428261599568"><ele>263.0</ele><time>2026-04-17T12:58:28.987Z</time></trkpt><trkpt lat="45.633662863634925" lon="8.564245283814513"><ele>263.0</ele><time>2026-04-17T12:58:29.987Z</time></trkpt><trkpt lat="45.63364564680715" lon="8.564071285934483"><ele>263.0</ele><time>2026-04-17T12:58:30.987Z</time></trkpt><trkpt lat="45.63362445158561" lon="8.563908491512443"><ele>263.0</ele><time>2026-04-17T12:58:31.987Z</time></trkpt><trkpt lat="45.63361415811636" lon="8.563743414104048"><ele>263.0</ele><time>2026-04-17T12:58:32.987Z</time></trkpt><trkpt lat="45.633610879255215" lon="8.563569049080169"><ele>263.0</ele><time>2026-04-17T12:58:33.987Z</time></trkpt><trkpt lat="45.63363670274639" lon="8.563386722102274"><ele>263.0</ele><time>2026-04-17T12:58:34.987Z</time></trkpt><trkpt lat="45.63368785544304" lon="8.56320631674983"><ele>262.75</ele><time>2026-04-17T12:58:35.987Z</time></trkpt><trkpt lat="45.63374278807605" lon="8.56302249228739"><ele>262.5</ele><time>2026-04-17T12:58:36.987Z</time></trkpt><trkpt lat="45.63378730831976" lon="8.562834736376951"><ele>262.25</ele><time>2026-04-17T12:58:37.987Z</time></trkpt><trkpt lat="45.633834108559604" lon="8.562640554463743"><ele>262.0</ele><time>2026-04-17T12:58:38.987Z</time></trkpt><trkpt lat="45.63389994630484" lon="8.5624578965465"><ele>262.0</ele><time>2026-04-17T12:58:39.987Z</time></trkpt><trkpt lat="45.63397252729902" lon="8.562281295896678"><ele>262.0</ele><time>2026-04-17T12:58:40.987Z</time></trkpt><trkpt lat="45.63405513600887" lon="8.562126288305391"><ele>262.0</ele><time>2026-04-17T12:58:41.987Z</time></trkpt><trkpt lat="45.63415382699949" lon="8.562025783858502"><ele>262.0</ele><time>2026-04-17T12:58:42.987Z</time></trkpt><trkpt lat="45.63426276380056" lon="8.561966878469372"><ele>261.75</ele><time>2026-04-17T12:58:43.987Z</time></trkpt><trkpt lat="45.63435473584092" lon="8.561895847347692"><ele>261.5</ele><time>2026-04-17T12:58:44.987Z</time></trkpt><trkpt lat="45.63441548321024" lon="8.561778691937365"><ele>261.25</ele><time>2026-04-17T12:58:45.987Z</time></trkpt><trkpt lat="45.63446313998923" lon="8.561623679593666"><ele>261.0</ele><time>2026-04-17T12:58:46.987Z</time></trkpt><trkpt lat="45.63450600454098" lon="8.561450919423418"><ele>261.0</ele><time>2026-04-17T12:58:47.987Z</time></trkpt><trkpt lat="45.634547808091796" lon="8.561265559174744"><ele>261.0</ele><time>2026-04-17T12:58:48.987Z</time></trkpt><trkpt lat="45.634592087251335" lon="8.561084100257643"><ele>261.0</ele><time>2026-04-17T12:58:49.987Z</time></trkpt><trkpt lat="45.634633950523565" lon="8.56088753811085"><ele>261.0</ele><time>2026-04-17T12:58:50.987Z</time></trkpt><trkpt lat="45.63468193085847" lon="8.560698594715038"><ele>261.25</ele><time>2026-04-17T12:58:51.985Z</time></trkpt><trkpt lat="45.63471708215615" lon="8.560511253317756"><ele>261.5</ele><time>2026-04-17T12:58:52.984Z</time></trkpt><trkpt lat="45.63474555037561" lon="8.560331574469519"><ele>261.75</ele><time>2026-04-17T12:58:53.984Z</time></trkpt><trkpt lat="45.634777950695586" lon="8.560170182158348"><ele>262.0</ele><time>2026-04-17T12:58:54.984Z</time></trkpt><trkpt lat="45.63481315403525" lon="8.560015068859167"><ele>262.0</ele><time>2026-04-17T12:58:55.985Z</time></trkpt><trkpt lat="45.634869991888436" lon="8.55987486898501"><ele>262.0</ele><time>2026-04-17T12:58:56.985Z</time></trkpt><trkpt lat="45.634939908583114" lon="8.559735333887993"><ele>262.0</ele><time>2026-04-17T12:58:57.984Z</time></trkpt><trkpt lat="45.634999330103426" lon="8.559582407647603"><ele>262.0</ele><time>2026-04-17T12:58:58.984Z</time></trkpt><trkpt lat="45.63503477212235" lon="8.55940853193567"><ele>261.75</ele><time>2026-04-17T12:58:59.984Z</time></trkpt><trkpt lat="45.635047509829896" lon="8.559219764368946"><ele>261.5</ele><time>2026-04-17T12:59:00.984Z</time></trkpt><trkpt lat="45.6350407046672" lon="8.55902091624264"><ele>261.25</ele><time>2026-04-17T12:59:01.984Z</time></trkpt><trkpt lat="45.63500812605009" lon="8.558824203414702"><ele>261.0</ele><time>2026-04-17T12:59:02.984Z</time></trkpt><trkpt lat="45.63496388094916" lon="8.558631330307591"><ele>261.25</ele><time>2026-04-17T12:59:03.985Z</time></trkpt><trkpt lat="45.6349249544182" lon="8.55843566758317"><ele>261.5</ele><time>2026-04-17T12:59:04.984Z</time></trkpt><trkpt lat="45.63488151685244" lon="8.558240524240446"><ele>261.75</ele><time>2026-04-17T12:59:05.984Z</time></trkpt><trkpt lat="45.63484028855811" lon="8.558040982432525"><ele>262.0</ele><time>2026-04-17T12:59:06.984Z</time></trkpt><trkpt lat="45.63477373180119" lon="8.557857354189034"><ele>262.0</ele><time>2026-04-17T12:59:07.984Z</time></trkpt><trkpt lat="45.63470528971622" lon="8.55767418605228"><ele>262.0</ele><time>2026-04-17T12:59:08.984Z</time></trkpt><trkpt lat="45.634642905439215" lon="8.557485954015998"><ele>262.0</ele><time>2026-04-17T12:59:09.984Z</time></trkpt><trkpt lat="45.63458440373384" lon="8.557294773556103"><ele>262.0</ele><time>2026-04-17T12:59:10.984Z</time></trkpt><trkpt lat="45.634525395973334" lon="8.557106266616731"><ele>262.25</ele><time>2026-04-17T12:59:11.984Z</time></trkpt><trkpt lat="45.634472030453374" lon="8.556910700274589"><ele>262.5</ele><time>2026-04-17T12:59:12.984Z</time></trkpt><trkpt lat="45.63443290306243" lon="8.556710322328003"><ele>262.75</ele><time>2026-04-17T12:59:13.984Z</time></trkpt><trkpt lat="45.63440514803854" lon="8.556502767480037"><ele>263.0</ele><time>2026-04-17T12:59:14.984Z</time></trkpt><trkpt lat="45.634377629334445" lon="8.556291200490833"><ele>261.75</ele><time>2026-04-17T12:59:15.984Z</time></trkpt><trkpt lat="45.63434847782476" lon="8.55608215287434"><ele>260.5</ele><time>2026-04-17T12:59:16.985Z</time></trkpt><trkpt lat="45.63432135253213" lon="8.555874731036303"><ele>259.25</ele><time>2026-04-17T12:59:17.985Z</time></trkpt><trkpt lat="45.63428538757793" lon="8.5556672727739"><ele>258.0</ele><time>2026-04-17T12:59:18.985Z</time></trkpt><trkpt lat="45.63425769711562" lon="8.555462554081489"><ele>258.75</ele><time>2026-04-17T12:59:19.985Z</time></trkpt><trkpt lat="45.63423236809003" lon="8.55525319219328"><ele>259.5</ele><time>2026-04-17T12:59:20.985Z</time></trkpt><trkpt lat="45.6342052654735" lon="8.555047829477834"><ele>260.25</ele><time>2026-04-17T12:59:21.985Z</time></trkpt><trkpt lat="45.63417343028811" lon="8.554842026507284"><ele>261.0</ele><time>2026-04-17T12:59:22.985Z</time></trkpt><trkpt lat="45.634142062939596" lon="8.554633650479767"><ele>260.75</ele><time>2026-04-17T12:59:23.985Z</time></trkpt><trkpt lat="45.63411145841353" lon="8.554429821122977"><ele>260.5</ele><time>2026-04-17T12:59:24.985Z</time></trkpt><trkpt lat="45.63408348973138" lon="8.554229240568477"><ele>260.25</ele><time>2026-04-17T12:59:25.985Z</time></trkpt><trkpt lat="45.63405914624195" lon="8.554028547213228"><ele>260.0</ele><time>2026-04-17T12:59:26.985Z</time></trkpt><trkpt lat="45.63403861405058" lon="8.55382349559657"><ele>259.75</ele><time>2026-04-17T12:59:27.985Z</time></trkpt><trkpt lat="45.634014876819485" lon="8.553614370377163"><ele>259.5</ele><time>2026-04-17T12:59:28.985Z</time></trkpt><trkpt lat="45.63399767842961" lon="8.553405348148104"><ele>259.25</ele><time>2026-04-17T12:59:29.985Z</time></trkpt><trkpt lat="45.63397637531358" lon="8.553188939089436"><ele>259.0</ele><time>2026-04-17T12:59:30.985Z</time></trkpt><trkpt lat="45.63395778264681" lon="8.552969915819908"><ele>259.0</ele><time>2026-04-17T12:59:31.985Z</time></trkpt><trkpt lat="45.63394059402311" lon="8.552753800673708"><ele>259.0</ele><time>2026-04-17T12:59:32.985Z</time></trkpt><trkpt lat="45.633924707980306" lon="8.552538876814662"><ele>259.0</ele><time>2026-04-17T12:59:33.985Z</time></trkpt><trkpt lat="45.633913693227726" lon="8.552321664457855"><ele>259.0</ele><time>2026-04-17T12:59:34.985Z</time></trkpt><trkpt lat="45.633909400154735" lon="8.552101805958799"><ele>259.0</ele><time>2026-04-17T12:59:35.985Z</time></trkpt><trkpt lat="45.63390890269768" lon="8.551882070743105"><ele>259.0</ele><time>2026-04-17T12:59:36.985Z</time></trkpt><trkpt lat="45.63391010461927" lon="8.551661997628296"><ele>259.3333333333333</ele><time>2026-04-17T12:59:37.985Z</time></trkpt><trkpt lat="45.63391013786896" lon="8.551442640135301"><ele>259.6666666666667</ele><time>2026-04-17T12:59:38.985Z</time></trkpt><trkpt lat="45.633903442081966" lon="8.551228071174934"><ele>260.0</ele><time>2026-04-17T12:59:39.985Z</time></trkpt><trkpt lat="45.63389978577842" lon="8.551013972581703"><ele>260.0</ele><time>2026-04-17T12:59:40.985Z</time></trkpt><trkpt lat="45.63388708223205" lon="8.550792333574678"><ele>260.0</ele><time>2026-04-17T12:59:41.985Z</time></trkpt><trkpt lat="45.633872341567624" lon="8.55057068134172"><ele>260.0</ele><time>2026-04-17T12:59:42.985Z</time></trkpt><trkpt lat="45.633854413758186" lon="8.550352214351665"><ele>260.6666666666667</ele><time>2026-04-17T12:59:43.985Z</time></trkpt><trkpt lat="45.63383853719331" lon="8.550134457338672"><ele>261.3333333333333</ele><time>2026-04-17T12:59:44.985Z</time></trkpt><trkpt lat="45.633822762434654" lon="8.549916759875693"><ele>262.0</ele><time>2026-04-17T12:59:45.985Z</time></trkpt><trkpt lat="45.63380504032777" lon="8.549700080909998"><ele>262.0</ele><time>2026-04-17T12:59:46.985Z</time></trkpt><trkpt lat="45.633793664755025" lon="8.549475154323304"><ele>262.0</ele><time>2026-04-17T12:59:47.985Z</time></trkpt><trkpt lat="45.63376782158777" lon="8.549259098934352"><ele>262.0</ele><time>2026-04-17T12:59:48.985Z</time></trkpt><trkpt lat="45.63374394527619" lon="8.549037874188915"><ele>262.0</ele><time>2026-04-17T12:59:49.985Z</time></trkpt><trkpt lat="45.633723856487435" lon="8.548810983002355"><ele>262.0</ele><time>2026-04-17T12:59:50.985Z</time></trkpt><trkpt lat="45.63370651916675" lon="8.54858664945788"><ele>262.0</ele><time>2026-04-17T12:59:51.985Z</time></trkpt><trkpt lat="45.63368256580999" lon="8.548359025566153"><ele>262.0</ele><time>2026-04-17T12:59:52.985Z</time></trkpt><trkpt lat="45.63366555873717" lon="8.54813203185037"><ele>262.0</ele><time>2026-04-17T12:59:53.985Z</time></trkpt><trkpt lat="45.63365179656186" lon="8.54790320282339"><ele>262.0</ele><time>2026-04-17T12:59:54.985Z</time></trkpt><trkpt lat="45.63363444492507" lon="8.547674247653376"><ele>262.0</ele><time>2026-04-17T12:59:55.985Z</time></trkpt><trkpt lat="45.6336193313119" lon="8.547450322769752"><ele>262.0</ele><time>2026-04-17T12:59:56.985Z</time></trkpt><trkpt lat="45.63360865864327" lon="8.547227717309479"><ele>262.0</ele><time>2026-04-17T12:59:57.985Z</time></trkpt><trkpt lat="45.63359733908507" lon="8.547009815412427"><ele>262.0</ele><time>2026-04-17T12:59:58.985Z</time></trkpt><trkpt lat="45.63358831910952" lon="8.546786155998326"><ele>262.0</ele><time>2026-04-17T12:59:59.985Z</time></trkpt><trkpt lat="45.63358067036172" lon="8.546562196502995"><ele>262.0</ele><time>2026-04-17T13:00:00.985Z</time></trkpt><trkpt lat="45.63357210284478" lon="8.546336751225724"><ele>262.0</ele><time>2026-04-17T13:00:01.985Z</time></trkpt><trkpt lat="45.63355970380136" lon="8.546114154372987"><ele>262.0</ele><time>2026-04-17T13:00:02.985Z</time></trkpt><trkpt lat="45.63354983484809" lon="8.545897543468223"><ele>262.0</ele><time>2026-04-17T13:00:03.985Z</time></trkpt><trkpt lat="45.63354054552368" lon="8.545686954019617"><ele>262.0</ele><time>2026-04-17T13:00:04.985Z</time></trkpt><trkpt lat="45.63353082298277" lon="8.54548315166644"><ele>262.0</ele><time>2026-04-17T13:00:05.985Z</time></trkpt><trkpt lat="45.63351999243257" lon="8.545286530847207"><ele>262.0</ele><time>2026-04-17T13:00:06.985Z</time></trkpt><trkpt lat="45.63350596334706" lon="8.545097618471008"><ele>262.0</ele><time>2026-04-17T13:00:07.985Z</time></trkpt><trkpt lat="45.63348802004643" lon="8.54491747458747"><ele>262.25</ele><time>2026-04-17T13:00:08.985Z</time></trkpt><trkpt lat="45.63346898986521" lon="8.544743295983737"><ele>262.5</ele><time>2026-04-17T13:00:09.985Z</time></trkpt><trkpt lat="45.633453852806106" lon="8.544579593042231"><ele>262.75</ele><time>2026-04-17T13:00:10.985Z</time></trkpt><trkpt lat="45.63344139154692" lon="8.544421446895134"><ele>263.0</ele><time>2026-04-17T13:00:11.986Z</time></trkpt><trkpt lat="45.63343655751906" lon="8.54426680530076"><ele>263.0</ele><time>2026-04-17T13:00:12.986Z</time></trkpt><trkpt lat="45.63343322167186" lon="8.544117532962536"><ele>263.0</ele><time>2026-04-17T13:00:13.986Z</time></trkpt><trkpt lat="45.633428701538925" lon="8.543981105309271"><ele>263.0</ele><time>2026-04-17T13:00:14.986Z</time></trkpt><trkpt lat="45.63343928200989" lon="8.54384552167535"><ele>263.0</ele><time>2026-04-17T13:00:15.986Z</time></trkpt><trkpt lat="45.63346008520665" lon="8.543717067613741"><ele>263.0</ele><time>2026-04-17T13:00:16.986Z</time></trkpt><trkpt lat="45.633494957909896" lon="8.543602074969177"><ele>262.6666666666667</ele><time>2026-04-17T13:00:17.986Z</time></trkpt><trkpt lat="45.633521748712226" lon="8.543492317145251"><ele>262.33333333333337</ele><time>2026-04-17T13:00:18.986Z</time></trkpt><trkpt lat="45.633566369492755" lon="8.54340791124838"><ele>262.0</ele><time>2026-04-17T13:00:19.986Z</time></trkpt><trkpt lat="45.63361006807112" lon="8.543337158206326"><ele>261.6666666666667</ele><time>2026-04-17T13:00:20.986Z</time></trkpt><trkpt lat="45.633675762282955" lon="8.543263937669426"><ele>261.3333333333333</ele><time>2026-04-17T13:00:22.986Z</time></trkpt><trkpt lat="45.633745899738415" lon="8.543302324378702"><ele>261.0</ele><time>2026-04-17T13:00:24.986Z</time></trkpt><trkpt lat="45.633816878461786" lon="8.543353195123803"><ele>261.0</ele><time>2026-04-17T13:00:26.986Z</time></trkpt><trkpt lat="45.633914377353086" lon="8.543418536488545"><ele>261.0</ele><time>2026-04-17T13:00:28.986Z</time></trkpt><trkpt lat="45.63396932873653" lon="8.543474354022052"><ele>261.0</ele><time>2026-04-17T13:00:29.986Z</time></trkpt><trkpt lat="45.634023461890806" lon="8.543543863011113"><ele>261.0</ele><time>2026-04-17T13:00:30.986Z</time></trkpt><trkpt lat="45.63408714242242" lon="8.543615373109779"><ele>261.0</ele><time>2026-04-17T13:00:31.986Z</time></trkpt><trkpt lat="45.63415865422017" lon="8.543681766781697"><ele>261.0</ele><time>2026-04-17T13:00:32.986Z</time></trkpt><trkpt lat="45.6342450340044" lon="8.543748163706804"><ele>261.40000000000003</ele><time>2026-04-17T13:00:33.986Z</time></trkpt><trkpt lat="45.63432579837406" lon="8.543838226081869"><ele>261.8</ele><time>2026-04-17T13:00:34.986Z</time></trkpt><trkpt lat="45.63440829718054" lon="8.543939884374645"><ele>262.20000000000005</ele><time>2026-04-17T13:00:35.986Z</time></trkpt><trkpt lat="45.634487586971474" lon="8.54403830251585"><ele>262.6</ele><time>2026-04-17T13:00:36.986Z</time></trkpt><trkpt lat="45.63457125501254" lon="8.544143715809112"><ele>263.0</ele><time>2026-04-17T13:00:37.986Z</time></trkpt><trkpt lat="45.63465965974017" lon="8.544252159257043"><ele>263.25</ele><time>2026-04-17T13:00:38.986Z</time></trkpt><trkpt lat="45.634758567443164" lon="8.544356200261545"><ele>263.5</ele><time>2026-04-17T13:00:39.986Z</time></trkpt><trkpt lat="45.63487290389293" lon="8.544447474535918"><ele>263.75</ele><time>2026-04-17T13:00:40.986Z</time></trkpt><trkpt lat="45.63498533402681" lon="8.544534807590425"><ele>264.0</ele><time>2026-04-17T13:00:41.986Z</time></trkpt><trkpt lat="45.635094542179964" lon="8.544624087799427"><ele>264.0</ele><time>2026-04-17T13:00:42.986Z</time></trkpt><trkpt lat="45.635209213859646" lon="8.544717246675814"><ele>264.0</ele><time>2026-04-17T13:00:43.986Z</time></trkpt><trkpt lat="45.635327075628126" lon="8.544813917630501"><ele>264.0</ele><time>2026-04-17T13:00:44.986Z</time></trkpt><trkpt lat="45.63544952009172" lon="8.544912293217171"><ele>264.0</ele><time>2026-04-17T13:00:45.986Z</time></trkpt><trkpt lat="45.63557653108556" lon="8.54500894478274"><ele>264.0</ele><time>2026-04-17T13:00:46.986Z</time></trkpt><trkpt lat="45.635705315494306" lon="8.545115744146539"><ele>264.0</ele><time>2026-04-17T13:00:47.986Z</time></trkpt><trkpt lat="45.63583163849869" lon="8.545228342590773"><ele>264.0</ele><time>2026-04-17T13:00:48.986Z</time></trkpt><trkpt lat="45.63596317798891" lon="8.545334170295277"><ele>264.0</ele><time>2026-04-17T13:00:49.986Z</time></trkpt><trkpt lat="45.63609647396621" lon="8.545436235813094"><ele>264.0</ele><time>2026-04-17T13:00:50.986Z</time></trkpt><trkpt lat="45.63623073351676" lon="8.545546440511531"><ele>264.0</ele><time>2026-04-17T13:00:51.986Z</time></trkpt><trkpt lat="45.63635754149472" lon="8.54565817270174"><ele>264.0</ele><time>2026-04-17T13:00:52.986Z</time></trkpt><trkpt lat="45.636483430115256" lon="8.545778274321544"><ele>264.0</ele><time>2026-04-17T13:00:53.986Z</time></trkpt><trkpt lat="45.636612967406634" lon="8.5458901055807"><ele>264.0</ele><time>2026-04-17T13:00:54.986Z</time></trkpt><trkpt lat="45.63674728903092" lon="8.545989372682786"><ele>264.0</ele><time>2026-04-17T13:00:55.986Z</time></trkpt><trkpt lat="45.63688616519862" lon="8.546091293434406"><ele>264.0</ele><time>2026-04-17T13:00:56.986Z</time></trkpt><trkpt lat="45.63702805939152" lon="8.546198410640969"><ele>264.0</ele><time>2026-04-17T13:00:57.984Z</time></trkpt><trkpt lat="45.63717121268326" lon="8.546304063692375"><ele>264.0</ele><time>2026-04-17T13:00:58.984Z</time></trkpt><trkpt lat="45.63731786724799" lon="8.546402298792625"><ele>264.0</ele><time>2026-04-17T13:00:59.984Z</time></trkpt><trkpt lat="45.63747015480193" lon="8.546490685909674"><ele>264.0</ele><time>2026-04-17T13:01:00.984Z</time></trkpt><trkpt lat="45.63762303514853" lon="8.546571658155182"><ele>264.0</ele><time>2026-04-17T13:01:01.984Z</time></trkpt><trkpt lat="45.63777830021124" lon="8.546643891675215"><ele>263.6666666666667</ele><time>2026-04-17T13:01:02.984Z</time></trkpt><trkpt lat="45.63793396654383" lon="8.54670327893089"><ele>263.33333333333337</ele><time>2026-04-17T13:01:03.984Z</time></trkpt><trkpt lat="45.638089971035235" lon="8.54675190157844"><ele>263.0</ele><time>2026-04-17T13:01:04.984Z</time></trkpt><trkpt lat="45.6382440263257" lon="8.54678739799209"><ele>263.0</ele><time>2026-04-17T13:01:05.984Z</time></trkpt><trkpt lat="45.6383954934025" lon="8.54681451011231"><ele>263.0</ele><time>2026-04-17T13:01:06.984Z</time></trkpt><trkpt lat="45.638546365157524" lon="8.546839082352518"><ele>263.0</ele><time>2026-04-17T13:01:07.984Z</time></trkpt><trkpt lat="45.63869802366791" lon="8.546875099102627"><ele>263.33333333333337</ele><time>2026-04-17T13:01:08.984Z</time></trkpt><trkpt lat="45.63884424923378" lon="8.546931467364422"><ele>263.6666666666667</ele><time>2026-04-17T13:01:09.984Z</time></trkpt><trkpt lat="45.63897910488829" lon="8.547026081423299"><ele>264.0</ele><time>2026-04-17T13:01:10.984Z</time></trkpt><trkpt lat="45.63910334379368" lon="8.547144355672794"><ele>264.0</ele><time>2026-04-17T13:01:11.984Z</time></trkpt><trkpt lat="45.63922637516134" lon="8.54726343754928"><ele>264.0</ele><time>2026-04-17T13:01:12.984Z</time></trkpt><trkpt lat="45.639357701875994" lon="8.547362825436894"><ele>264.0</ele><time>2026-04-17T13:01:13.984Z</time></trkpt><trkpt lat="45.63949358814688" lon="8.547443408179577"><ele>264.0</ele><time>2026-04-17T13:01:14.984Z</time></trkpt><trkpt lat="45.63963004656363" lon="8.54751984651243"><ele>264.5</ele><time>2026-04-17T13:01:15.984Z</time></trkpt><trkpt lat="45.639767212645175" lon="8.547595323591665"><ele>265.0</ele><time>2026-04-17T13:01:16.984Z</time></trkpt><trkpt lat="45.63990727427795" lon="8.547663883798572"><ele>265.5</ele><time>2026-04-17T13:01:17.984Z</time></trkpt><trkpt lat="45.64005024093472" lon="8.547723117392408"><ele>266.0</ele><time>2026-04-17T13:01:18.984Z</time></trkpt><trkpt lat="45.6401944383589" lon="8.547769730421361"><ele>266.0</ele><time>2026-04-17T13:01:19.984Z</time></trkpt><trkpt lat="45.64033844835646" lon="8.547807098464219"><ele>266.0</ele><time>2026-04-17T13:01:20.984Z</time></trkpt><trkpt lat="45.64048221798391" lon="8.547852457507881"><ele>266.0</ele><time>2026-04-17T13:01:21.984Z</time></trkpt><trkpt lat="45.64062084311098" lon="8.547904116263203"><ele>266.0</ele><time>2026-04-17T13:01:22.984Z</time></trkpt><trkpt lat="45.640753220154075" lon="8.54795266297087"><ele>266.0</ele><time>2026-04-17T13:01:23.984Z</time></trkpt><trkpt lat="45.64087452848342" lon="8.548007540053517"><ele>266.0</ele><time>2026-04-17T13:01:24.984Z</time></trkpt><trkpt lat="45.64098631696091" lon="8.54807460489877"><ele>266.0</ele><time>2026-04-17T13:01:25.984Z</time></trkpt><trkpt lat="45.64108551370727" lon="8.548156270823151"><ele>266.0</ele><time>2026-04-17T13:01:26.984Z</time></trkpt><trkpt lat="45.64117291215828" lon="8.548264424135606"><ele>266.5</ele><time>2026-04-17T13:01:27.984Z</time></trkpt><trkpt lat="45.64126141524625" lon="8.548378419360677"><ele>267.0</ele><time>2026-04-17T13:01:28.984Z</time></trkpt><trkpt lat="45.641352930393" lon="8.54849718948724"><ele>267.5</ele><time>2026-04-17T13:01:29.984Z</time></trkpt><trkpt lat="45.64144831522972" lon="8.548609015869218"><ele>268.0</ele><time>2026-04-17T13:01:30.984Z</time></trkpt><trkpt lat="45.641550355809855" lon="8.548712913724085"><ele>268.0</ele><time>2026-04-17T13:01:31.984Z</time></trkpt><trkpt lat="45.64165581854875" lon="8.548819011938646"><ele>268.0</ele><time>2026-04-17T13:01:32.984Z</time></trkpt><trkpt lat="45.6417621906786" lon="8.548929777616541"><ele>268.0</ele><time>2026-04-17T13:01:33.984Z</time></trkpt><trkpt lat="45.641869065674264" lon="8.5490353271609"><ele>268.0</ele><time>2026-04-17T13:01:34.984Z</time></trkpt><trkpt lat="45.64197153161666" lon="8.54913011199103"><ele>267.75</ele><time>2026-04-17T13:01:35.984Z</time></trkpt><trkpt lat="45.64207183625187" lon="8.549226360681958"><ele>267.5</ele><time>2026-04-17T13:01:36.984Z</time></trkpt><trkpt lat="45.642170412226264" lon="8.549328296763843"><ele>267.25</ele><time>2026-04-17T13:01:37.984Z</time></trkpt><trkpt lat="45.64227211011114" lon="8.549423949586043"><ele>267.0</ele><time>2026-04-17T13:01:38.984Z</time></trkpt><trkpt lat="45.64237614355817" lon="8.549521602048365"><ele>267.75</ele><time>2026-04-17T13:01:39.984Z</time></trkpt><trkpt lat="45.6424789201183" lon="8.549618126405338"><ele>268.5</ele><time>2026-04-17T13:01:40.984Z</time></trkpt><trkpt lat="45.642576494173895" lon="8.549717459826372"><ele>269.25</ele><time>2026-04-17T13:01:41.984Z</time></trkpt><trkpt lat="45.6426688647001" lon="8.549822021518276"><ele>270.0</ele><time>2026-04-17T13:01:42.984Z</time></trkpt><trkpt lat="45.642760131905575" lon="8.54993177392881"><ele>269.75</ele><time>2026-04-17T13:01:43.984Z</time></trkpt><trkpt lat="45.64284983780192" lon="8.550042486516134"><ele>269.5</ele><time>2026-04-17T13:01:44.985Z</time></trkpt><trkpt lat="45.64293748416129" lon="8.550149548107681"><ele>269.25</ele><time>2026-04-17T13:01:45.985Z</time></trkpt><trkpt lat="45.643025471820195" lon="8.55025608318829"><ele>269.0</ele><time>2026-04-17T13:01:46.985Z</time></trkpt><trkpt lat="45.64311415876583" lon="8.550367065323666"><ele>269.0</ele><time>2026-04-17T13:01:47.985Z</time></trkpt><trkpt lat="45.643202164849995" lon="8.550477551365983"><ele>269.0</ele><time>2026-04-17T13:01:48.985Z</time></trkpt><trkpt lat="45.64329461389745" lon="8.550588354606788"><ele>269.0</ele><time>2026-04-17T13:01:49.985Z</time></trkpt><trkpt lat="45.64338895139635" lon="8.550700036420762"><ele>269.0</ele><time>2026-04-17T13:01:50.985Z</time></trkpt><trkpt lat="45.64348429507045" lon="8.5508105324907"><ele>269.0</ele><time>2026-04-17T13:01:51.985Z</time></trkpt><trkpt lat="45.64357394554472" lon="8.550936570647114"><ele>269.0</ele><time>2026-04-17T13:01:52.985Z</time></trkpt><trkpt lat="45.643657925231956" lon="8.551058419180169"><ele>269.0</ele><time>2026-04-17T13:01:53.985Z</time></trkpt><trkpt lat="45.64373980055334" lon="8.551186686859737"><ele>269.0</ele><time>2026-04-17T13:01:54.985Z</time></trkpt><trkpt lat="45.643816330259504" lon="8.551324406048375"><ele>269.5</ele><time>2026-04-17T13:01:55.985Z</time></trkpt><trkpt lat="45.64389095800905" lon="8.551466152399199"><ele>270.0</ele><time>2026-04-17T13:01:56.985Z</time></trkpt><trkpt lat="45.64396629396884" lon="8.55160840215758"><ele>270.5</ele><time>2026-04-17T13:01:57.985Z</time></trkpt><trkpt lat="45.64403853517539" lon="8.551754180156358"><ele>271.0</ele><time>2026-04-17T13:01:58.985Z</time></trkpt><trkpt lat="45.64411669295569" lon="8.55189531903826"><ele>271.0</ele><time>2026-04-17T13:01:59.985Z</time></trkpt><trkpt lat="45.64420292465452" lon="8.55202732934192"><ele>271.0</ele><time>2026-04-17T13:02:00.985Z</time></trkpt><trkpt lat="45.64429354674013" lon="8.552148891660257"><ele>271.0</ele><time>2026-04-17T13:02:01.985Z</time></trkpt><trkpt lat="45.64437996728953" lon="8.552257507286805"><ele>271.0</ele><time>2026-04-17T13:02:02.985Z</time></trkpt><trkpt lat="45.64446299420209" lon="8.552356118799985"><ele>271.40000000000003</ele><time>2026-04-17T13:02:03.985Z</time></trkpt><trkpt lat="45.64452938673967" lon="8.552459261480577"><ele>271.8</ele><time>2026-04-17T13:02:04.985Z</time></trkpt><trkpt lat="45.64460194787065" lon="8.5525554426497"><ele>272.20000000000005</ele><time>2026-04-17T13:02:05.985Z</time></trkpt><trkpt lat="45.64469016176358" lon="8.552635990017576"><ele>272.6</ele><time>2026-04-17T13:02:06.985Z</time></trkpt><trkpt lat="45.64478625828264" lon="8.552705763688868"><ele>273.0</ele><time>2026-04-17T13:02:07.985Z</time></trkpt><trkpt lat="45.6448899296227" lon="8.552764069907955"><ele>273.0</ele><time>2026-04-17T13:02:08.985Z</time></trkpt><trkpt lat="45.64499567813377" lon="8.552821102563444"><ele>273.0</ele><time>2026-04-17T13:02:09.985Z</time></trkpt><trkpt lat="45.64509826989519" lon="8.552879723356645"><ele>273.0</ele><time>2026-04-17T13:02:10.985Z</time></trkpt><trkpt lat="45.645186533311836" lon="8.552938335368436"><ele>273.0</ele><time>2026-04-17T13:02:11.985Z</time></trkpt><trkpt lat="45.645258906576295" lon="8.552985941722481"><ele>273.0</ele><time>2026-04-17T13:02:12.985Z</time></trkpt><trkpt lat="45.64534491921026" lon="8.553081587848588"><ele>272.8333333333333</ele><time>2026-04-17T13:02:14.985Z</time></trkpt><trkpt lat="45.64536124524481" lon="8.553220504610822"><ele>272.6666666666667</ele><time>2026-04-17T13:02:16.985Z</time></trkpt><trkpt lat="45.64536131090485" lon="8.553397828669494"><ele>272.5</ele><time>2026-04-17T13:02:18.985Z</time></trkpt><trkpt lat="45.645365559158144" lon="8.553488616354535"><ele>272.33333333333337</ele><time>2026-04-17T13:02:19.985Z</time></trkpt><trkpt lat="45.64537102723872" lon="8.55359083279188"><ele>272.1666666666667</ele><time>2026-04-17T13:02:20.985Z</time></trkpt><trkpt lat="45.64537424267652" lon="8.553699652227456"><ele>272.0</ele><time>2026-04-17T13:02:21.985Z</time></trkpt><trkpt lat="45.645375824454675" lon="8.553815391950936"><ele>272.0</ele><time>2026-04-17T13:02:22.985Z</time></trkpt><trkpt lat="45.64538202086537" lon="8.553944163738596"><ele>272.0</ele><time>2026-04-17T13:02:23.985Z</time></trkpt><trkpt lat="45.64538992943911" lon="8.554075678481368"><ele>272.0</ele><time>2026-04-17T13:02:24.985Z</time></trkpt><trkpt lat="45.64539533479381" lon="8.554198864927304"><ele>272.0</ele><time>2026-04-17T13:02:25.985Z</time></trkpt><trkpt lat="45.64539797239696" lon="8.554334044358033"><ele>272.0</ele><time>2026-04-17T13:02:26.985Z</time></trkpt><trkpt lat="45.645398251932036" lon="8.554475445591017"><ele>272.8</ele><time>2026-04-17T13:02:27.985Z</time></trkpt><trkpt lat="45.64540040774096" lon="8.55462543174746"><ele>273.6</ele><time>2026-04-17T13:02:28.985Z</time></trkpt><trkpt lat="45.64540755513822" lon="8.554781097279786"><ele>274.40000000000003</ele><time>2026-04-17T13:02:29.985Z</time></trkpt><trkpt lat="45.64541625645737" lon="8.554927280240099"><ele>275.2</ele><time>2026-04-17T13:02:30.985Z</time></trkpt><trkpt lat="45.645421079640606" lon="8.555062935862143"><ele>276.0</ele><time>2026-04-17T13:02:31.985Z</time></trkpt><trkpt lat="45.6454309238522" lon="8.555183860002742"><ele>276.0</ele><time>2026-04-17T13:02:32.985Z</time></trkpt><trkpt lat="45.645439578959326" lon="8.555293877627742"><ele>276.0</ele><time>2026-04-17T13:02:33.985Z</time></trkpt><trkpt lat="45.645454076895454" lon="8.555389972751266"><ele>276.0</ele><time>2026-04-17T13:02:34.985Z</time></trkpt><trkpt lat="45.64547410061826" lon="8.555481965871461"><ele>276.0</ele><time>2026-04-17T13:02:35.985Z</time></trkpt><trkpt lat="45.64550755768386" lon="8.555566652309611"><ele>276.0</ele><time>2026-04-17T13:02:36.985Z</time></trkpt><trkpt lat="45.6455749208375" lon="8.555652871961554"><ele>276.0</ele><time>2026-04-17T13:02:37.985Z</time></trkpt><trkpt lat="45.6456496833347" lon="8.555754262457505"><ele>276.0</ele><time>2026-04-17T13:02:38.986Z</time></trkpt><trkpt lat="45.64573064638662" lon="8.555853235397063"><ele>276.0</ele><time>2026-04-17T13:02:39.986Z</time></trkpt><trkpt lat="45.64581764839974" lon="8.555952520016646"><ele>276.0</ele><time>2026-04-17T13:02:40.986Z</time></trkpt><trkpt lat="45.64590365724646" lon="8.556050040043182"><ele>276.0</ele><time>2026-04-17T13:02:41.986Z</time></trkpt><trkpt lat="45.64598879381866" lon="8.556141440655832"><ele>276.0</ele><time>2026-04-17T13:02:42.986Z</time></trkpt><trkpt lat="45.64607529053635" lon="8.556239339809038"><ele>276.75</ele><time>2026-04-17T13:02:43.986Z</time></trkpt><trkpt lat="45.64616509595775" lon="8.556340933553498"><ele>277.5</ele><time>2026-04-17T13:02:44.986Z</time></trkpt><trkpt lat="45.64625847781124" lon="8.55644984193327"><ele>278.25</ele><time>2026-04-17T13:02:45.986Z</time></trkpt><trkpt lat="45.64634519076666" lon="8.55656280955137"><ele>279.0</ele><time>2026-04-17T13:02:46.986Z</time></trkpt><trkpt lat="45.646434435874" lon="8.55667725387796"><ele>279.0</ele><time>2026-04-17T13:02:47.986Z</time></trkpt><trkpt lat="45.64652437957465" lon="8.55679481092794"><ele>279.0</ele><time>2026-04-17T13:02:48.986Z</time></trkpt><trkpt lat="45.64661548359729" lon="8.556902602859033"><ele>279.0</ele><time>2026-04-17T13:02:49.986Z</time></trkpt><trkpt lat="45.64671291906245" lon="8.556997540230746"><ele>279.0</ele><time>2026-04-17T13:02:50.986Z</time></trkpt><trkpt lat="45.646817393107014" lon="8.557073663664081"><ele>279.0</ele><time>2026-04-17T13:02:51.986Z</time></trkpt><trkpt lat="45.64692584308638" lon="8.5571427383802"><ele>279.0</ele><time>2026-04-17T13:02:52.986Z</time></trkpt><trkpt lat="45.64703413382877" lon="8.557205540282101"><ele>279.0</ele><time>2026-04-17T13:02:53.986Z</time></trkpt><trkpt lat="45.647144464251525" lon="8.557264745968435"><ele>279.0</ele><time>2026-04-17T13:02:54.986Z</time></trkpt><trkpt lat="45.647254338960664" lon="8.557323802502449"><ele>279.0</ele><time>2026-04-17T13:02:55.986Z</time></trkpt><trkpt lat="45.64735954644554" lon="8.557383657671735"><ele>279.0</ele><time>2026-04-17T13:02:56.986Z</time></trkpt><trkpt lat="45.64746497459495" lon="8.557438388707455"><ele>279.0</ele><time>2026-04-17T13:02:57.986Z</time></trkpt><trkpt lat="45.64756254797178" lon="8.557488036790257"><ele>279.0</ele><time>2026-04-17T13:02:58.986Z</time></trkpt><trkpt lat="45.64765275659686" lon="8.557535006073536"><ele>279.0</ele><time>2026-04-17T13:02:59.986Z</time></trkpt><trkpt lat="45.647740601055965" lon="8.557585201479998"><ele>280.0</ele><time>2026-04-17T13:03:00.986Z</time></trkpt><trkpt lat="45.64781609372872" lon="8.557659503672314"><ele>281.0</ele><time>2026-04-17T13:03:01.986Z</time></trkpt><trkpt lat="45.6478803556344" lon="8.557758866698963"><ele>282.0</ele><time>2026-04-17T13:03:02.986Z</time></trkpt><trkpt lat="45.64793306028562" lon="8.557880790974869"><ele>283.0</ele><time>2026-04-17T13:03:03.984Z</time></trkpt><trkpt lat="45.647977946486826" lon="8.558021348419256"><ele>284.0</ele><time>2026-04-17T13:03:04.983Z</time></trkpt><trkpt lat="45.64802674638731" lon="8.55816329750685"><ele>284.0</ele><time>2026-04-17T13:03:05.983Z</time></trkpt><trkpt lat="45.64808231410483" lon="8.558309428827142"><ele>284.0</ele><time>2026-04-17T13:03:06.983Z</time></trkpt><trkpt lat="45.648138799615744" lon="8.558455632596528"><ele>284.0</ele><time>2026-04-17T13:03:07.983Z</time></trkpt><trkpt lat="45.648187542234815" lon="8.558598861343969"><ele>284.0</ele><time>2026-04-17T13:03:08.983Z</time></trkpt><trkpt lat="45.648219970853354" lon="8.558741599367561"><ele>284.0</ele><time>2026-04-17T13:03:09.983Z</time></trkpt><trkpt lat="45.64824080999241" lon="8.558891365891656"><ele>284.4</ele><time>2026-04-17T13:03:10.983Z</time></trkpt><trkpt lat="45.648248138030425" lon="8.55904840431998"><ele>284.79999999999995</ele><time>2026-04-17T13:03:11.983Z</time></trkpt><trkpt lat="45.64824717050903" lon="8.559201964410418"><ele>285.20000000000005</ele><time>2026-04-17T13:03:12.983Z</time></trkpt><trkpt lat="45.64824111164077" lon="8.559364076188904"><ele>285.6</ele><time>2026-04-17T13:03:13.983Z</time></trkpt><trkpt lat="45.64822574223707" lon="8.559526971008339"><ele>286.0</ele><time>2026-04-17T13:03:14.983Z</time></trkpt><trkpt lat="45.648197244781194" lon="8.559683360973807"><ele>287.40000000000003</ele><time>2026-04-17T13:03:15.983Z</time></trkpt><trkpt lat="45.64815850745106" lon="8.559833322349544"><ele>288.8</ele><time>2026-04-17T13:03:16.984Z</time></trkpt><trkpt lat="45.64812376594187" lon="8.559990140357703"><ele>290.20000000000005</ele><time>2026-04-17T13:03:17.984Z</time></trkpt><trkpt lat="45.64809039765063" lon="8.56013091204931"><ele>291.6</ele><time>2026-04-17T13:03:18.984Z</time></trkpt><trkpt lat="45.648068342721224" lon="8.56024970263204"><ele>293.0</ele><time>2026-04-17T13:03:19.984Z</time></trkpt><trkpt lat="45.648065282342074" lon="8.560366209305062"><ele>293.33333333333337</ele><time>2026-04-17T13:03:20.984Z</time></trkpt><trkpt lat="45.648069858414615" lon="8.560467134967258"><ele>293.6666666666667</ele><time>2026-04-17T13:03:21.984Z</time></trkpt><trkpt lat="45.64808433951187" lon="8.560564971673852"><ele>294.0</ele><time>2026-04-17T13:03:22.984Z</time></trkpt><trkpt lat="45.64810558556445" lon="8.560669794781528"><ele>294.3333333333333</ele><time>2026-04-17T13:03:23.984Z</time></trkpt><trkpt lat="45.64813727582996" lon="8.560781767086239"><ele>294.66666666666663</ele><time>2026-04-17T13:03:24.984Z</time></trkpt><trkpt lat="45.648184086197055" lon="8.560893839177504"><ele>295.0</ele><time>2026-04-17T13:03:25.984Z</time></trkpt><trkpt lat="45.64823978374555" lon="8.56100960902823"><ele>295.0</ele><time>2026-04-17T13:03:26.984Z</time></trkpt><trkpt lat="45.64829590594863" lon="8.561129185892831"><ele>295.0</ele><time>2026-04-17T13:03:27.984Z</time></trkpt><trkpt lat="45.648354626255866" lon="8.561248368680888"><ele>295.0</ele><time>2026-04-17T13:03:28.984Z</time></trkpt><trkpt lat="45.64841415956927" lon="8.561370012332569"><ele>295.0</ele><time>2026-04-17T13:03:29.984Z</time></trkpt><trkpt lat="45.64846665671468" lon="8.56149835081622"><ele>295.0</ele><time>2026-04-17T13:03:30.984Z</time></trkpt><trkpt lat="45.64853173688808" lon="8.561620038914118"><ele>296.4</ele><time>2026-04-17T13:03:31.984Z</time></trkpt><trkpt lat="45.64860859836205" lon="8.561723134283476"><ele>297.8</ele><time>2026-04-17T13:03:32.984Z</time></trkpt><trkpt lat="45.648699431482505" lon="8.561808209875117"><ele>299.2</ele><time>2026-04-17T13:03:33.984Z</time></trkpt><trkpt lat="45.64879979268187" lon="8.561885560270197"><ele>300.6</ele><time>2026-04-17T13:03:34.984Z</time></trkpt><trkpt lat="45.6489021104293" lon="8.561963660986079"><ele>302.0</ele><time>2026-04-17T13:03:35.984Z</time></trkpt><trkpt lat="45.64900477074496" lon="8.562041874990989"><ele>304.25</ele><time>2026-04-17T13:03:36.984Z</time></trkpt><trkpt lat="45.64910199521133" lon="8.562110760356346"><ele>306.5</ele><time>2026-04-17T13:03:37.984Z</time></trkpt><trkpt lat="45.64919836664847" lon="8.562193948787606"><ele>308.75</ele><time>2026-04-17T13:03:38.984Z</time></trkpt><trkpt lat="45.64929215757884" lon="8.562284098632883"><ele>311.0</ele><time>2026-04-17T13:03:39.984Z</time></trkpt><trkpt lat="45.64938935820547" lon="8.562375387799461"><ele>310.0</ele><time>2026-04-17T13:03:40.984Z</time></trkpt><trkpt lat="45.649487785625055" lon="8.56246582103409"><ele>309.0</ele><time>2026-04-17T13:03:41.984Z</time></trkpt><trkpt lat="45.64958849651999" lon="8.56255063728538"><ele>308.0</ele><time>2026-04-17T13:03:42.984Z</time></trkpt><trkpt lat="45.64969546471236" lon="8.562641146660631"><ele>307.0</ele><time>2026-04-17T13:03:43.984Z</time></trkpt><trkpt lat="45.649790744495604" lon="8.562747211659774"><ele>308.5</ele><time>2026-04-17T13:03:44.984Z</time></trkpt><trkpt lat="45.64987510410336" lon="8.562872621901212"><ele>310.0</ele><time>2026-04-17T13:03:45.984Z</time></trkpt><trkpt lat="45.64994842414331" lon="8.563012314461938"><ele>311.5</ele><time>2026-04-17T13:03:46.984Z</time></trkpt><trkpt lat="45.65001918292703" lon="8.563143820552483"><ele>313.0</ele><time>2026-04-17T13:03:47.984Z</time></trkpt><trkpt lat="45.650074818745466" lon="8.56328384100653"><ele>313.0</ele><time>2026-04-17T13:03:48.984Z</time></trkpt><trkpt lat="45.65011444338079" lon="8.563436128548355"><ele>313.0</ele><time>2026-04-17T13:03:49.984Z</time></trkpt><trkpt lat="45.65014068685246" lon="8.563592944209274"><ele>313.0</ele><time>2026-04-17T13:03:50.984Z</time></trkpt><trkpt lat="45.65017023935016" lon="8.56373831303261"><ele>313.0</ele><time>2026-04-17T13:03:51.984Z</time></trkpt><trkpt lat="45.650193272898214" lon="8.563877050918917"><ele>313.0</ele><time>2026-04-17T13:03:52.984Z</time></trkpt><trkpt lat="45.650226195739" lon="8.564003119163065"><ele>313.5</ele><time>2026-04-17T13:03:53.984Z</time></trkpt><trkpt lat="45.65027101793637" lon="8.56410876616525"><ele>314.0</ele><time>2026-04-17T13:03:54.984Z</time></trkpt><trkpt lat="45.650336678675835" lon="8.564195801825619"><ele>314.5</ele><time>2026-04-17T13:03:55.984Z</time></trkpt><trkpt lat="45.65041523819052" lon="8.56425177250708"><ele>315.0</ele><time>2026-04-17T13:03:56.985Z</time></trkpt><trkpt lat="45.650498099304414" lon="8.564299163237283"><ele>315.5</ele><time>2026-04-17T13:03:57.985Z</time></trkpt><trkpt lat="45.65058590850381" lon="8.564356006141194"><ele>316.0</ele><time>2026-04-17T13:03:58.985Z</time></trkpt><trkpt lat="45.65067815950672" lon="8.564412984982532"><ele>315.0</ele><time>2026-04-17T13:03:59.985Z</time></trkpt><trkpt lat="45.65077546676299" lon="8.564474912055784"><ele>314.0</ele><time>2026-04-17T13:04:00.985Z</time></trkpt><trkpt lat="45.650876183740785" lon="8.564531285798761"><ele>313.0</ele><time>2026-04-17T13:04:01.985Z</time></trkpt><trkpt lat="45.650980432134844" lon="8.56458966462936"><ele>312.0</ele><time>2026-04-17T13:04:02.985Z</time></trkpt><trkpt lat="45.65108963734593" lon="8.564656462512403"><ele>311.0</ele><time>2026-04-17T13:04:03.985Z</time></trkpt><trkpt lat="45.65120062952889" lon="8.564729147704611"><ele>311.0</ele><time>2026-04-17T13:04:04.985Z</time></trkpt><trkpt lat="45.651310996546755" lon="8.564801859475713"><ele>311.0</ele><time>2026-04-17T13:04:05.985Z</time></trkpt><trkpt lat="45.65142758034092" lon="8.564868709842957"><ele>311.0</ele><time>2026-04-17T13:04:06.985Z</time></trkpt><trkpt lat="45.651543258838224" lon="8.564942355346288"><ele>311.0</ele><time>2026-04-17T13:04:07.985Z</time></trkpt><trkpt lat="45.65166095261223" lon="8.56501680731604"><ele>311.0</ele><time>2026-04-17T13:04:08.985Z</time></trkpt><trkpt lat="45.651781208053094" lon="8.565087089659709"><ele>311.0</ele><time>2026-04-17T13:04:09.985Z</time></trkpt><trkpt lat="45.65190191715002" lon="8.565161743424131"><ele>311.0</ele><time>2026-04-17T13:04:10.985Z</time></trkpt><trkpt lat="45.65202466576512" lon="8.56523372743821"><ele>311.0</ele><time>2026-04-17T13:04:11.985Z</time></trkpt><trkpt lat="45.652149239233296" lon="8.565300398235092"><ele>311.25</ele><time>2026-04-17T13:04:12.985Z</time></trkpt><trkpt lat="45.65227364438353" lon="8.56537540703818"><ele>311.5</ele><time>2026-04-17T13:04:13.985Z</time></trkpt><trkpt lat="45.65239220438802" lon="8.565448820085024"><ele>311.75</ele><time>2026-04-17T13:04:14.985Z</time></trkpt><trkpt lat="45.652511169156405" lon="8.565518197742337"><ele>312.0</ele><time>2026-04-17T13:04:15.985Z</time></trkpt><trkpt lat="45.65262734906748" lon="8.565586757558062"><ele>312.0</ele><time>2026-04-17T13:04:16.985Z</time></trkpt><trkpt lat="45.65274607195638" lon="8.565656261645167"><ele>312.0</ele><time>2026-04-17T13:04:17.985Z</time></trkpt><trkpt lat="45.65286526826081" lon="8.565726833333633"><ele>312.0</ele><time>2026-04-17T13:04:18.985Z</time></trkpt><trkpt lat="45.65298916462946" lon="8.565795376828584"><ele>312.0</ele><time>2026-04-17T13:04:19.985Z</time></trkpt><trkpt lat="45.65311147605183" lon="8.565860374165096"><ele>312.25</ele><time>2026-04-17T13:04:20.985Z</time></trkpt><trkpt lat="45.653234314169424" lon="8.565929539259043"><ele>312.5</ele><time>2026-04-17T13:04:21.985Z</time></trkpt><trkpt lat="45.65335656348819" lon="8.566005462538945"><ele>312.75</ele><time>2026-04-17T13:04:22.985Z</time></trkpt><trkpt lat="45.65347966839572" lon="8.566079324205207"><ele>313.0</ele><time>2026-04-17T13:04:23.985Z</time></trkpt><trkpt lat="45.65360110743607" lon="8.56615435103572"><ele>313.5</ele><time>2026-04-17T13:04:24.985Z</time></trkpt><trkpt lat="45.65372659633034" lon="8.566218967605831"><ele>314.0</ele><time>2026-04-17T13:04:25.985Z</time></trkpt><trkpt lat="45.65385077948143" lon="8.566284375335332"><ele>314.5</ele><time>2026-04-17T13:04:26.985Z</time></trkpt><trkpt lat="45.65397573319966" lon="8.56635720844021"><ele>315.0</ele><time>2026-04-17T13:04:27.985Z</time></trkpt><trkpt lat="45.65410218849656" lon="8.566430210835145"><ele>315.0</ele><time>2026-04-17T13:04:28.985Z</time></trkpt><trkpt lat="45.65423013507771" lon="8.56649749588024"><ele>315.0</ele><time>2026-04-17T13:04:29.985Z</time></trkpt><trkpt lat="45.654361427320275" lon="8.566553605852677"><ele>315.0</ele><time>2026-04-17T13:04:30.985Z</time></trkpt><trkpt lat="45.65449267462316" lon="8.566614998288836"><ele>315.0</ele><time>2026-04-17T13:04:31.985Z</time></trkpt><trkpt lat="45.65462235425244" lon="8.566666709403462"><ele>314.5</ele><time>2026-04-17T13:04:32.985Z</time></trkpt><trkpt lat="45.65475691457595" lon="8.566713370725424"><ele>314.0</ele><time>2026-04-17T13:04:33.985Z</time></trkpt><trkpt lat="45.65489160076455" lon="8.566758126542988"><ele>313.5</ele><time>2026-04-17T13:04:34.985Z</time></trkpt><trkpt lat="45.655031300675155" lon="8.566801990962722"><ele>313.0</ele><time>2026-04-17T13:04:35.985Z</time></trkpt><trkpt lat="45.65516693446603" lon="8.566843201049625"><ele>313.0</ele><time>2026-04-17T13:04:36.985Z</time></trkpt><trkpt lat="45.65530206269413" lon="8.566876782586483"><ele>313.0</ele><time>2026-04-17T13:04:37.985Z</time></trkpt><trkpt lat="45.65543718124117" lon="8.566906940364387"><ele>313.0</ele><time>2026-04-17T13:04:38.985Z</time></trkpt><trkpt lat="45.655576679791885" lon="8.566947079167214"><ele>313.0</ele><time>2026-04-17T13:04:39.985Z</time></trkpt><trkpt lat="45.655717386112826" lon="8.566988838755455"><ele>313.0</ele><time>2026-04-17T13:04:40.985Z</time></trkpt><trkpt lat="45.655859430493884" lon="8.567027220168272"><ele>313.0</ele><time>2026-04-17T13:04:41.985Z</time></trkpt><trkpt lat="45.65600049331339" lon="8.567068757155715"><ele>313.0</ele><time>2026-04-17T13:04:42.985Z</time></trkpt><trkpt lat="45.65614182162154" lon="8.567104619424116"><ele>313.0</ele><time>2026-04-17T13:04:43.985Z</time></trkpt><trkpt lat="45.65628142180724" lon="8.56714074180277"><ele>313.5</ele><time>2026-04-17T13:04:44.985Z</time></trkpt><trkpt lat="45.65642195519231" lon="8.56717104205351"><ele>314.0</ele><time>2026-04-17T13:04:45.985Z</time></trkpt><trkpt lat="45.656560545510864" lon="8.567207642356982"><ele>314.5</ele><time>2026-04-17T13:04:46.985Z</time></trkpt><trkpt lat="45.656696220713926" lon="8.567237789879066"><ele>315.0</ele><time>2026-04-17T13:04:47.985Z</time></trkpt><trkpt lat="45.65683180339982" lon="8.567273892140506"><ele>314.75</ele><time>2026-04-17T13:04:48.985Z</time></trkpt><trkpt lat="45.656966907121564" lon="8.567304373367863"><ele>314.5</ele><time>2026-04-17T13:04:49.985Z</time></trkpt><trkpt lat="45.65709688218092" lon="8.567331956663415"><ele>314.25</ele><time>2026-04-17T13:04:50.985Z</time></trkpt><trkpt lat="45.65722530290006" lon="8.567359805585168"><ele>314.0</ele><time>2026-04-17T13:04:51.986Z</time></trkpt><trkpt lat="45.65735084174898" lon="8.567384150877443"><ele>314.0</ele><time>2026-04-17T13:04:52.986Z</time></trkpt><trkpt lat="45.65747822844061" lon="8.567417780953079"><ele>314.0</ele><time>2026-04-17T13:04:53.986Z</time></trkpt><trkpt lat="45.65760689187309" lon="8.567445567240764"><ele>314.0</ele><time>2026-04-17T13:04:54.986Z</time></trkpt><trkpt lat="45.65773586378967" lon="8.56748308978404"><ele>314.0</ele><time>2026-04-17T13:04:55.986Z</time></trkpt><trkpt lat="45.65786378626498" lon="8.56752726059571"><ele>313.75</ele><time>2026-04-17T13:04:56.986Z</time></trkpt><trkpt lat="45.65798951130597" lon="8.567569570230752"><ele>313.5</ele><time>2026-04-17T13:04:57.986Z</time></trkpt><trkpt lat="45.65811623001571" lon="8.567610542912215"><ele>313.25</ele><time>2026-04-17T13:04:58.986Z</time></trkpt><trkpt lat="45.658239451995364" lon="8.567661098013748"><ele>313.0</ele><time>2026-04-17T13:04:59.986Z</time></trkpt><trkpt lat="45.65835738378347" lon="8.567726891025998"><ele>313.0</ele><time>2026-04-17T13:05:00.986Z</time></trkpt><trkpt lat="45.65846344149726" lon="8.567824874867679"><ele>313.0</ele><time>2026-04-17T13:05:01.986Z</time></trkpt><trkpt lat="45.658554739144826" lon="8.567945161949218"><ele>313.0</ele><time>2026-04-17T13:05:02.986Z</time></trkpt><trkpt lat="45.658641300953285" lon="8.568082470619094"><ele>313.0</ele><time>2026-04-17T13:05:03.986Z</time></trkpt><trkpt lat="45.65872938368108" lon="8.568224601954027"><ele>313.25</ele><time>2026-04-17T13:05:04.986Z</time></trkpt><trkpt lat="45.65882052274278" lon="8.568365103551116"><ele>313.5</ele><time>2026-04-17T13:05:05.986Z</time></trkpt><trkpt lat="45.65890963986796" lon="8.56850928199642"><ele>313.75</ele><time>2026-04-17T13:05:06.986Z</time></trkpt><trkpt lat="45.65900241399513" lon="8.568654018464363"><ele>314.0</ele><time>2026-04-17T13:05:07.986Z</time></trkpt><trkpt lat="45.65909590465023" lon="8.568800640027346"><ele>314.0</ele><time>2026-04-17T13:05:08.986Z</time></trkpt><trkpt lat="45.65919390779739" lon="8.568946144037291"><ele>314.0</ele><time>2026-04-17T13:05:09.982Z</time></trkpt><trkpt lat="45.65929496771239" lon="8.569090101637762"><ele>314.0</ele><time>2026-04-17T13:05:10.983Z</time></trkpt><trkpt lat="45.65939589305151" lon="8.56923761106518"><ele>314.0</ele><time>2026-04-17T13:05:11.983Z</time></trkpt><trkpt lat="45.65950014259812" lon="8.569382791280612"><ele>315.5</ele><time>2026-04-17T13:05:12.983Z</time></trkpt><trkpt lat="45.659601892648055" lon="8.569531329003727"><ele>317.0</ele><time>2026-04-17T13:05:13.982Z</time></trkpt><trkpt lat="45.65970645978979" lon="8.569673329207749"><ele>318.5</ele><time>2026-04-17T13:05:14.983Z</time></trkpt><trkpt lat="45.659810638091926" lon="8.56981583162216"><ele>320.0</ele><time>2026-04-17T13:05:15.982Z</time></trkpt><trkpt lat="45.65991830479154" lon="8.56995405644965"><ele>320.0</ele><time>2026-04-17T13:05:16.983Z</time></trkpt><trkpt lat="45.660020585079984" lon="8.570099365235798"><ele>320.0</ele><time>2026-04-17T13:05:17.983Z</time></trkpt><trkpt lat="45.66012419558129" lon="8.57023447781469"><ele>320.0</ele><time>2026-04-17T13:05:18.983Z</time></trkpt><trkpt lat="45.66022801611212" lon="8.570373727143284"><ele>320.0</ele><time>2026-04-17T13:05:19.982Z</time></trkpt><trkpt lat="45.6603331178918" lon="8.570509521537396"><ele>320.25</ele><time>2026-04-17T13:05:20.982Z</time></trkpt><trkpt lat="45.66044163623223" lon="8.570643423775625"><ele>320.5</ele><time>2026-04-17T13:05:21.983Z</time></trkpt><trkpt lat="45.660550654000545" lon="8.570779235186745"><ele>320.75</ele><time>2026-04-17T13:05:22.982Z</time></trkpt><trkpt lat="45.6606610375346" lon="8.570919949145305"><ele>321.0</ele><time>2026-04-17T13:05:23.982Z</time></trkpt><trkpt lat="45.660771075689375" lon="8.571063870317854"><ele>320.0</ele><time>2026-04-17T13:05:24.983Z</time></trkpt><trkpt lat="45.66088427850114" lon="8.571209014347778"><ele>319.0</ele><time>2026-04-17T13:05:25.983Z</time></trkpt><trkpt lat="45.66100143050806" lon="8.57135330650133"><ele>318.0</ele><time>2026-04-17T13:05:26.983Z</time></trkpt><trkpt lat="45.66111987399859" lon="8.571495761169244"><ele>318.0</ele><time>2026-04-17T13:05:27.983Z</time></trkpt><trkpt lat="45.66123832426642" lon="8.571642942242399"><ele>318.0</ele><time>2026-04-17T13:05:28.983Z</time></trkpt><trkpt lat="45.661356272776" lon="8.571793950682778"><ele>318.0</ele><time>2026-04-17T13:05:29.983Z</time></trkpt><trkpt lat="45.661472519691344" lon="8.571946526419362"><ele>318.0</ele><time>2026-04-17T13:05:30.983Z</time></trkpt><trkpt lat="45.661590639221544" lon="8.572098807926015"><ele>318.0</ele><time>2026-04-17T13:05:31.983Z</time></trkpt><trkpt lat="45.661709235870084" lon="8.57224953273907"><ele>318.0</ele><time>2026-04-17T13:05:32.983Z</time></trkpt><trkpt lat="45.66182616643582" lon="8.572401012246347"><ele>318.0</ele><time>2026-04-17T13:05:33.983Z</time></trkpt><trkpt lat="45.66194540622847" lon="8.57255219869856"><ele>318.0</ele><time>2026-04-17T13:05:34.983Z</time></trkpt><trkpt lat="45.662060471548884" lon="8.572702953567477"><ele>318.0</ele><time>2026-04-17T13:05:35.983Z</time></trkpt><trkpt lat="45.66217540183815" lon="8.572856094442837"><ele>319.3333333333333</ele><time>2026-04-17T13:05:36.983Z</time></trkpt><trkpt lat="45.6622914038576" lon="8.573007973551203"><ele>320.66666666666663</ele><time>2026-04-17T13:05:37.983Z</time></trkpt><trkpt lat="45.66240729522464" lon="8.573155008318713"><ele>322.0</ele><time>2026-04-17T13:05:38.983Z</time></trkpt><trkpt lat="45.662522895552655" lon="8.573305401030732"><ele>322.0</ele><time>2026-04-17T13:05:39.983Z</time></trkpt><trkpt lat="45.66263787705101" lon="8.573456034832981"><ele>322.0</ele><time>2026-04-17T13:05:40.983Z</time></trkpt><trkpt lat="45.662751506066115" lon="8.573605373635406"><ele>322.0</ele><time>2026-04-17T13:05:41.983Z</time></trkpt><trkpt lat="45.662866073859064" lon="8.57375190521548"><ele>322.66666666666663</ele><time>2026-04-17T13:05:42.983Z</time></trkpt><trkpt lat="45.66297939886588" lon="8.573894337596327"><ele>323.3333333333333</ele><time>2026-04-17T13:05:43.983Z</time></trkpt><trkpt lat="45.66309299807488" lon="8.574035329880413"><ele>324.0</ele><time>2026-04-17T13:05:44.983Z</time></trkpt><trkpt lat="45.66320616378409" lon="8.574174696342604"><ele>324.0</ele><time>2026-04-17T13:05:45.983Z</time></trkpt><trkpt lat="45.663316303642766" lon="8.57431327493824"><ele>324.0</ele><time>2026-04-17T13:05:46.983Z</time></trkpt><trkpt lat="45.66342542187816" lon="8.574450629955077"><ele>324.0</ele><time>2026-04-17T13:05:47.983Z</time></trkpt><trkpt lat="45.66353281878668" lon="8.574581673157034"><ele>324.0</ele><time>2026-04-17T13:05:48.983Z</time></trkpt><trkpt lat="45.663634822810856" lon="8.57470215132257"><ele>325.0</ele><time>2026-04-17T13:05:49.983Z</time></trkpt><trkpt lat="45.663731647052465" lon="8.574815769033814"><ele>326.0</ele><time>2026-04-17T13:05:50.983Z</time></trkpt><trkpt lat="45.66382072219558" lon="8.574927855975488"><ele>327.0</ele><time>2026-04-17T13:05:51.983Z</time></trkpt><trkpt lat="45.66390586009712" lon="8.575036037441205"><ele>328.0</ele><time>2026-04-17T13:05:52.983Z</time></trkpt><trkpt lat="45.663990162198985" lon="8.575130174305386"><ele>328.0</ele><time>2026-04-17T13:05:53.983Z</time></trkpt><trkpt lat="45.66408174438692" lon="8.575211291574131"><ele>328.0</ele><time>2026-04-17T13:05:54.983Z</time></trkpt><trkpt lat="45.664187099754365" lon="8.575269730106381"><ele>328.0</ele><time>2026-04-17T13:05:55.983Z</time></trkpt><trkpt lat="45.66431008444877" lon="8.575301923544544"><ele>328.0</ele><time>2026-04-17T13:05:56.983Z</time></trkpt><trkpt lat="45.66443771726504" lon="8.575317583049737"><ele>328.5</ele><time>2026-04-17T13:05:57.983Z</time></trkpt><trkpt lat="45.66456878128768" lon="8.575323957020734"><ele>329.0</ele><time>2026-04-17T13:05:58.983Z</time></trkpt><trkpt lat="45.66469814922377" lon="8.575330903809979"><ele>329.5</ele><time>2026-04-17T13:05:59.983Z</time></trkpt><trkpt lat="45.66482671897213" lon="8.575337848875863"><ele>330.0</ele><time>2026-04-17T13:06:00.983Z</time></trkpt><trkpt lat="45.66495183751526" lon="8.57533934790028"><ele>330.0</ele><time>2026-04-17T13:06:01.983Z</time></trkpt><trkpt lat="45.665076090845965" lon="8.57533600336519"><ele>330.0</ele><time>2026-04-17T13:06:02.983Z</time></trkpt><trkpt lat="45.6652003978047" lon="8.575332319265092"><ele>330.0</ele><time>2026-04-17T13:06:03.983Z</time></trkpt><trkpt lat="45.66532528909797" lon="8.57531726187307"><ele>330.0</ele><time>2026-04-17T13:06:04.983Z</time></trkpt><trkpt lat="45.665454288661635" lon="8.575292285554985"><ele>330.75</ele><time>2026-04-17T13:06:05.983Z</time></trkpt><trkpt lat="45.66558765896801" lon="8.575265690460494"><ele>331.5</ele><time>2026-04-17T13:06:06.983Z</time></trkpt><trkpt lat="45.665724456905735" lon="8.575226451490535"><ele>332.25</ele><time>2026-04-17T13:06:07.983Z</time></trkpt><trkpt lat="45.66585788488335" lon="8.57515782116706"><ele>333.0</ele><time>2026-04-17T13:06:08.983Z</time></trkpt><trkpt lat="45.66599080651471" lon="8.575099376703262"><ele>332.5</ele><time>2026-04-17T13:06:09.983Z</time></trkpt><trkpt lat="45.666121403241746" lon="8.575040479947617"><ele>332.0</ele><time>2026-04-17T13:06:10.983Z</time></trkpt><trkpt lat="45.666243437112286" lon="8.57497581524634"><ele>331.5</ele><time>2026-04-17T13:06:11.983Z</time></trkpt><trkpt lat="45.666359053432735" lon="8.574903415022424"><ele>331.0</ele><time>2026-04-17T13:06:12.983Z</time></trkpt><trkpt lat="45.6664648445532" lon="8.574810179189267"><ele>331.0</ele><time>2026-04-17T13:06:13.983Z</time></trkpt><trkpt lat="45.66656204407551" lon="8.57469631684953"><ele>331.0</ele><time>2026-04-17T13:06:14.983Z</time></trkpt><trkpt lat="45.666658017843346" lon="8.574564890033226"><ele>331.0</ele><time>2026-04-17T13:06:15.983Z</time></trkpt><trkpt lat="45.66676074176406" lon="8.574433980453847"><ele>331.0</ele><time>2026-04-17T13:06:16.983Z</time></trkpt><trkpt lat="45.66686566121091" lon="8.574304914868389"><ele>329.75</ele><time>2026-04-17T13:06:17.983Z</time></trkpt><trkpt lat="45.6669742796657" lon="8.57418522334029"><ele>328.5</ele><time>2026-04-17T13:06:18.983Z</time></trkpt><trkpt lat="45.667082732385055" lon="8.574091604234404"><ele>327.25</ele><time>2026-04-17T13:06:19.984Z</time></trkpt><trkpt lat="45.667194312136274" lon="8.574015856156706"><ele>326.0</ele><time>2026-04-17T13:06:20.984Z</time></trkpt><trkpt lat="45.66732179448448" lon="8.57396345424616"><ele>326.0</ele><time>2026-04-17T13:06:21.984Z</time></trkpt><trkpt lat="45.667457011862844" lon="8.573925328018825"><ele>326.0</ele><time>2026-04-17T13:06:22.984Z</time></trkpt><trkpt lat="45.667594974801304" lon="8.573884827971357"><ele>326.0</ele><time>2026-04-17T13:06:23.984Z</time></trkpt><trkpt lat="45.6677299960828" lon="8.57384120124436"><ele>326.0</ele><time>2026-04-17T13:06:24.984Z</time></trkpt><trkpt lat="45.66786739754676" lon="8.573789899062797"><ele>325.75</ele><time>2026-04-17T13:06:25.984Z</time></trkpt><trkpt lat="45.668000770871316" lon="8.57373251339887"><ele>325.5</ele><time>2026-04-17T13:06:26.984Z</time></trkpt><trkpt lat="45.668133042236335" lon="8.573677826365241"><ele>325.25</ele><time>2026-04-17T13:06:27.984Z</time></trkpt><trkpt lat="45.66826163120795" lon="8.573624635956564"><ele>325.0</ele><time>2026-04-17T13:06:28.984Z</time></trkpt><trkpt lat="45.668388786464746" lon="8.573572012300337"><ele>325.0</ele><time>2026-04-17T13:06:29.984Z</time></trkpt><trkpt lat="45.668508790471954" lon="8.573516497175007"><ele>325.0</ele><time>2026-04-17T13:06:30.984Z</time></trkpt><trkpt lat="45.66862280720416" lon="8.573468892979285"><ele>325.0</ele><time>2026-04-17T13:06:31.984Z</time></trkpt><trkpt lat="45.66873049827059" lon="8.573426428235594"><ele>325.0</ele><time>2026-04-17T13:06:32.984Z</time></trkpt><trkpt lat="45.6688261150514" lon="8.573387798914645"><ele>325.3333333333333</ele><time>2026-04-17T13:06:33.984Z</time></trkpt><trkpt lat="45.66890863869131" lon="8.573351055173246"><ele>325.66666666666663</ele><time>2026-04-17T13:06:34.984Z</time></trkpt><trkpt lat="45.668980959670556" lon="8.57332238392215"><ele>326.0</ele><time>2026-04-17T13:06:35.984Z</time></trkpt><trkpt lat="45.66907480186481" lon="8.573292855706967"><ele>326.3333333333333</ele><time>2026-04-17T13:06:37.984Z</time></trkpt><trkpt lat="45.66913869082256" lon="8.573319962783959"><ele>326.6666666666667</ele><time>2026-04-17T13:06:39.984Z</time></trkpt><trkpt lat="45.66923906801457" lon="8.573338610342837"><ele>327.0</ele><time>2026-04-17T13:06:41.984Z</time></trkpt><trkpt lat="45.6693576165122" lon="8.57327660832552"><ele>327.0</ele><time>2026-04-17T13:06:43.984Z</time></trkpt><trkpt lat="45.66943111460409" lon="8.57328071976028"><ele>327.0</ele><time>2026-04-17T13:06:44.984Z</time></trkpt><trkpt lat="45.66950573945526" lon="8.573287949052316"><ele>327.0</ele><time>2026-04-17T13:06:45.984Z</time></trkpt><trkpt lat="45.669580534427915" lon="8.573290144602698"><ele>327.0</ele><time>2026-04-17T13:06:46.984Z</time></trkpt><trkpt lat="45.66965973229751" lon="8.573296753587863"><ele>327.0</ele><time>2026-04-17T13:06:47.984Z</time></trkpt><trkpt lat="45.669742375513714" lon="8.57329740833288"><ele>327.0</ele><time>2026-04-17T13:06:48.984Z</time></trkpt><trkpt lat="45.66982154171673" lon="8.573296226469017"><ele>327.1666666666667</ele><time>2026-04-17T13:06:49.984Z</time></trkpt><trkpt lat="45.66989552090506" lon="8.573291367042907"><ele>327.3333333333333</ele><time>2026-04-17T13:06:50.984Z</time></trkpt><trkpt lat="45.669978471659235" lon="8.573269383215573"><ele>327.5</ele><time>2026-04-17T13:06:51.984Z</time></trkpt><trkpt lat="45.670054757293165" lon="8.573265783737678"><ele>327.66666666666663</ele><time>2026-04-17T13:06:52.984Z</time></trkpt><trkpt lat="45.670136150396175" lon="8.57328064129803"><ele>327.8333333333333</ele><time>2026-04-17T13:06:53.984Z</time></trkpt><trkpt lat="45.67021701942741" lon="8.573315438938891"><ele>328.0</ele><time>2026-04-17T13:06:54.984Z</time></trkpt><trkpt lat="45.67030799305054" lon="8.573360225523862"><ele>328.0</ele><time>2026-04-17T13:06:55.984Z</time></trkpt><trkpt lat="45.670388751866184" lon="8.573397999578622"><ele>328.0</ele><time>2026-04-17T13:06:56.984Z</time></trkpt><trkpt lat="45.67046035758676" lon="8.573435418612272"><ele>328.0</ele><time>2026-04-17T13:06:57.984Z</time></trkpt><trkpt lat="45.67052990543933" lon="8.573465541217619"><ele>328.0</ele><time>2026-04-17T13:06:58.984Z</time></trkpt><trkpt lat="45.67059511059441" lon="8.573486899389994"><ele>328.0</ele><time>2026-04-17T13:06:59.984Z</time></trkpt><trkpt lat="45.670668856262004" lon="8.573515375527228"><ele>328.0</ele><time>2026-04-17T13:07:00.984Z</time></trkpt><trkpt lat="45.670749115749615" lon="8.573549542865017"><ele>328.0</ele><time>2026-04-17T13:07:01.984Z</time></trkpt><trkpt lat="45.670841583828455" lon="8.57358450422919"><ele>328.0</ele><time>2026-04-17T13:07:02.984Z</time></trkpt><trkpt lat="45.6709428881275" lon="8.573614111884769"><ele>328.0</ele><time>2026-04-17T13:07:03.984Z</time></trkpt><trkpt lat="45.67104902169975" lon="8.573635940531926"><ele>328.0</ele><time>2026-04-17T13:07:04.984Z</time></trkpt><trkpt lat="45.671154968798604" lon="8.573665125521702"><ele>328.0</ele><time>2026-04-17T13:07:05.984Z</time></trkpt><trkpt lat="45.671262537491046" lon="8.573698964394058"><ele>328.4</ele><time>2026-04-17T13:07:06.984Z</time></trkpt><trkpt lat="45.67136728742484" lon="8.573733161767425"><ele>328.79999999999995</ele><time>2026-04-17T13:07:07.984Z</time></trkpt><trkpt lat="45.67147432386093" lon="8.573764432596963"><ele>329.2</ele><time>2026-04-17T13:07:08.984Z</time></trkpt><trkpt lat="45.67156666373944" lon="8.573788593667164"><ele>329.6</ele><time>2026-04-17T13:07:09.984Z</time></trkpt><trkpt lat="45.67164657517437" lon="8.57381163023936"><ele>330.0</ele><time>2026-04-17T13:07:10.984Z</time></trkpt><trkpt lat="45.67172186312118" lon="8.573831941258465"><ele>330.0</ele><time>2026-04-17T13:07:11.984Z</time></trkpt><trkpt lat="45.67179763721701" lon="8.573854019835615"><ele>330.0</ele><time>2026-04-17T13:07:12.984Z</time></trkpt><trkpt lat="45.671877314433004" lon="8.573881377021749"><ele>330.0</ele><time>2026-04-17T13:07:13.985Z</time></trkpt><trkpt lat="45.67196344331192" lon="8.573910260140732"><ele>330.0</ele><time>2026-04-17T13:07:14.985Z</time></trkpt><trkpt lat="45.672056237771145" lon="8.573936156398823"><ele>330.0</ele><time>2026-04-17T13:07:15.982Z</time></trkpt><trkpt lat="45.6721544190235" lon="8.573964854774342"><ele>330.0</ele><time>2026-04-17T13:07:16.982Z</time></trkpt><trkpt lat="45.672261144799315" lon="8.573994750374922"><ele>330.25</ele><time>2026-04-17T13:07:17.982Z</time></trkpt><trkpt lat="45.6723742214375" lon="8.574029931774785"><ele>330.5</ele><time>2026-04-17T13:07:18.981Z</time></trkpt><trkpt lat="45.672490374252625" lon="8.5740666918497"><ele>330.75</ele><time>2026-04-17T13:07:19.982Z</time></trkpt><trkpt lat="45.67261302572856" lon="8.574096897623056"><ele>331.0</ele><time>2026-04-17T13:07:20.982Z</time></trkpt><trkpt lat="45.6727313715777" lon="8.574131262650942"><ele>332.0</ele><time>2026-04-17T13:07:21.982Z</time></trkpt><trkpt lat="45.67285026110967" lon="8.57416343060546"><ele>333.0</ele><time>2026-04-17T13:07:22.982Z</time></trkpt><trkpt lat="45.67297248317383" lon="8.574201129620308"><ele>334.0</ele><time>2026-04-17T13:07:23.982Z</time></trkpt><trkpt lat="45.67309995956799" lon="8.574238716563249"><ele>335.0</ele><time>2026-04-17T13:07:24.982Z</time></trkpt><trkpt lat="45.673232154967614" lon="8.574279766354184"><ele>335.0</ele><time>2026-04-17T13:07:25.982Z</time></trkpt><trkpt lat="45.67336931345304" lon="8.57432104841066"><ele>335.0</ele><time>2026-04-17T13:07:26.982Z</time></trkpt><trkpt lat="45.67350509532018" lon="8.57435923859575"><ele>335.0</ele><time>2026-04-17T13:07:27.982Z</time></trkpt><trkpt lat="45.67364417057011" lon="8.574394411679314"><ele>335.0</ele><time>2026-04-17T13:07:28.981Z</time></trkpt><trkpt lat="45.673784645981755" lon="8.574435158213884"><ele>335.0</ele><time>2026-04-17T13:07:29.981Z</time></trkpt><trkpt lat="45.67392202660193" lon="8.574473707354052"><ele>335.0</ele><time>2026-04-17T13:07:30.982Z</time></trkpt><trkpt lat="45.674059058588895" lon="8.574512917343784"><ele>335.0</ele><time>2026-04-17T13:07:31.982Z</time></trkpt><trkpt lat="45.674188651196395" lon="8.574550412175759"><ele>335.0</ele><time>2026-04-17T13:07:32.982Z</time></trkpt><trkpt lat="45.67431278921901" lon="8.574587811752158"><ele>335.0</ele><time>2026-04-17T13:07:33.982Z</time></trkpt><trkpt lat="45.67442948625392" lon="8.574626040517222"><ele>335.0</ele><time>2026-04-17T13:07:34.982Z</time></trkpt><trkpt lat="45.67454371849725" lon="8.57466033488592"><ele>335.0</ele><time>2026-04-17T13:07:35.982Z</time></trkpt><trkpt lat="45.67464922231272" lon="8.57468902611285"><ele>335.0</ele><time>2026-04-17T13:07:36.982Z</time></trkpt><trkpt lat="45.67474477339933" lon="8.574712753857211"><ele>335.0</ele><time>2026-04-17T13:07:37.982Z</time></trkpt><trkpt lat="45.674837416438265" lon="8.574737711166195"><ele>335.0</ele><time>2026-04-17T13:07:38.982Z</time></trkpt><trkpt lat="45.67492457478773" lon="8.574755871878"><ele>335.0</ele><time>2026-04-17T13:07:39.982Z</time></trkpt><trkpt lat="45.675006120393135" lon="8.574771124862623"><ele>335.0</ele><time>2026-04-17T13:07:40.982Z</time></trkpt><trkpt lat="45.67509206982496" lon="8.574776561465663"><ele>335.0</ele><time>2026-04-17T13:07:41.982Z</time></trkpt><trkpt lat="45.67518762226121" lon="8.574764807720692"><ele>335.0</ele><time>2026-04-17T13:07:42.982Z</time></trkpt><trkpt lat="45.675289105997685" lon="8.574754311164044"><ele>335.4</ele><time>2026-04-17T13:07:43.982Z</time></trkpt><trkpt lat="45.675393595633174" lon="8.574746565965324"><ele>335.8</ele><time>2026-04-17T13:07:44.982Z</time></trkpt><trkpt lat="45.675494126682814" lon="8.574747824213222"><ele>336.20000000000005</ele><time>2026-04-17T13:07:45.982Z</time></trkpt><trkpt lat="45.67558818364801" lon="8.574744507072541"><ele>336.6</ele><time>2026-04-17T13:07:46.982Z</time></trkpt><trkpt lat="45.67567361120316" lon="8.574738890479958"><ele>337.0</ele><time>2026-04-17T13:07:47.982Z</time></trkpt><trkpt lat="45.67576632158559" lon="8.574731131907367"><ele>337.0</ele><time>2026-04-17T13:07:48.982Z</time></trkpt><trkpt lat="45.67586680360264" lon="8.574723064540427"><ele>337.0</ele><time>2026-04-17T13:07:49.982Z</time></trkpt><trkpt lat="45.675977391534026" lon="8.574718105950254"><ele>337.0</ele><time>2026-04-17T13:07:50.982Z</time></trkpt><trkpt lat="45.676087368283085" lon="8.574708213369835"><ele>337.0</ele><time>2026-04-17T13:07:51.982Z</time></trkpt><trkpt lat="45.67620053884339" lon="8.574696777800709"><ele>337.0</ele><time>2026-04-17T13:07:52.982Z</time></trkpt><trkpt lat="45.67631881340806" lon="8.574689699004406"><ele>337.75</ele><time>2026-04-17T13:07:53.982Z</time></trkpt><trkpt lat="45.67644932224468" lon="8.574682020673425"><ele>338.5</ele><time>2026-04-17T13:07:54.982Z</time></trkpt><trkpt lat="45.67658094263335" lon="8.574675936790438"><ele>339.25</ele><time>2026-04-17T13:07:55.982Z</time></trkpt><trkpt lat="45.67671277997719" lon="8.574669863204168"><ele>340.0</ele><time>2026-04-17T13:07:56.982Z</time></trkpt><trkpt lat="45.67684354219947" lon="8.574664784806012"><ele>338.25</ele><time>2026-04-17T13:07:57.982Z</time></trkpt><trkpt lat="45.67697525393571" lon="8.574655906675689"><ele>336.5</ele><time>2026-04-17T13:07:58.982Z</time></trkpt><trkpt lat="45.6771074599959" lon="8.574620253563545"><ele>334.75</ele><time>2026-04-17T13:07:59.982Z</time></trkpt><trkpt lat="45.67724357124542" lon="8.574566947511647"><ele>333.0</ele><time>2026-04-17T13:08:00.982Z</time></trkpt><trkpt lat="45.67737656572524" lon="8.574503907818846"><ele>333.25</ele><time>2026-04-17T13:08:01.982Z</time></trkpt><trkpt lat="45.677509395567874" lon="8.57443950412498"><ele>333.5</ele><time>2026-04-17T13:08:02.982Z</time></trkpt><trkpt lat="45.67764077724504" lon="8.5743809487869"><ele>333.75</ele><time>2026-04-17T13:08:03.982Z</time></trkpt><trkpt lat="45.67777668416491" lon="8.574323539221185"><ele>334.0</ele><time>2026-04-17T13:08:04.982Z</time></trkpt><trkpt lat="45.677913643773984" lon="8.574267472022186"><ele>334.0</ele><time>2026-04-17T13:08:05.982Z</time></trkpt><trkpt lat="45.67805221533213" lon="8.574206677071341"><ele>334.0</ele><time>2026-04-17T13:08:06.982Z</time></trkpt><trkpt lat="45.67819034922655" lon="8.574145641443087"><ele>334.0</ele><time>2026-04-17T13:08:07.982Z</time></trkpt><trkpt lat="45.678328233588445" lon="8.574085013392502"><ele>334.0</ele><time>2026-04-17T13:08:08.982Z</time></trkpt><trkpt lat="45.67846483713151" lon="8.574017628230665"><ele>334.0</ele><time>2026-04-17T13:08:09.982Z</time></trkpt><trkpt lat="45.67859973022273" lon="8.573953078571307"><ele>334.0</ele><time>2026-04-17T13:08:10.982Z</time></trkpt><trkpt lat="45.67873658140874" lon="8.57389076533676"><ele>334.0</ele><time>2026-04-17T13:08:11.982Z</time></trkpt><trkpt lat="45.67887448791076" lon="8.57382932530145"><ele>334.0</ele><time>2026-04-17T13:08:12.982Z</time></trkpt><trkpt lat="45.67901289317009" lon="8.57376794898894"><ele>335.0</ele><time>2026-04-17T13:08:13.982Z</time></trkpt><trkpt lat="45.67915130781132" lon="8.573701829297782"><ele>336.0</ele><time>2026-04-17T13:08:14.982Z</time></trkpt><trkpt lat="45.679290027803205" lon="8.573634921612909"><ele>337.0</ele><time>2026-04-17T13:08:15.982Z</time></trkpt><trkpt lat="45.6794327646287" lon="8.57356209214455"><ele>338.0</ele><time>2026-04-17T13:08:16.982Z</time></trkpt><trkpt lat="45.67957665300434" lon="8.573488524391667"><ele>338.6666666666667</ele><time>2026-04-17T13:08:17.982Z</time></trkpt><trkpt lat="45.67971817691318" lon="8.573415326261992"><ele>339.3333333333333</ele><time>2026-04-17T13:08:18.982Z</time></trkpt><trkpt lat="45.6798598752437" lon="8.573345997011668"><ele>340.0</ele><time>2026-04-17T13:08:19.982Z</time></trkpt><trkpt lat="45.68000716088278" lon="8.573284155582229"><ele>340.0</ele><time>2026-04-17T13:08:20.982Z</time></trkpt><trkpt lat="45.680152134093696" lon="8.573218585129261"><ele>340.0</ele><time>2026-04-17T13:08:21.982Z</time></trkpt><trkpt lat="45.68029299577371" lon="8.573154503415582"><ele>340.0</ele><time>2026-04-17T13:08:22.982Z</time></trkpt><trkpt lat="45.68043351610471" lon="8.57308933412769"><ele>340.0</ele><time>2026-04-17T13:08:23.982Z</time></trkpt><trkpt lat="45.68057410782279" lon="8.57301944170944"><ele>341.25</ele><time>2026-04-17T13:08:24.983Z</time></trkpt><trkpt lat="45.68071400087186" lon="8.572945611213669"><ele>342.5</ele><time>2026-04-17T13:08:25.983Z</time></trkpt><trkpt lat="45.68085209500475" lon="8.57287876745813"><ele>343.75</ele><time>2026-04-17T13:08:26.983Z</time></trkpt><trkpt lat="45.680989466539806" lon="8.572819092710596"><ele>345.0</ele><time>2026-04-17T13:08:27.983Z</time></trkpt><trkpt lat="45.681127584454" lon="8.572760516244315"><ele>346.25</ele><time>2026-04-17T13:08:28.983Z</time></trkpt><trkpt lat="45.68126254409116" lon="8.572703658697373"><ele>347.5</ele><time>2026-04-17T13:08:29.983Z</time></trkpt><trkpt lat="45.68139510470842" lon="8.572644376042724"><ele>348.75</ele><time>2026-04-17T13:08:30.983Z</time></trkpt><trkpt lat="45.68152602732452" lon="8.572589755184524"><ele>350.0</ele><time>2026-04-17T13:08:31.983Z</time></trkpt><trkpt lat="45.68165813974232" lon="8.572536968357529"><ele>350.0</ele><time>2026-04-17T13:08:32.983Z</time></trkpt><trkpt lat="45.68179368518572" lon="8.572478892128919"><ele>350.0</ele><time>2026-04-17T13:08:33.983Z</time></trkpt><trkpt lat="45.681928795637845" lon="8.572419960805382"><ele>350.0</ele><time>2026-04-17T13:08:34.983Z</time></trkpt><trkpt lat="45.68206690315625" lon="8.572361840502964"><ele>350.0</ele><time>2026-04-17T13:08:35.983Z</time></trkpt><trkpt lat="45.6821986444567" lon="8.572315165722367"><ele>350.5</ele><time>2026-04-17T13:08:36.983Z</time></trkpt><trkpt lat="45.68232500971039" lon="8.57226918295325"><ele>351.0</ele><time>2026-04-17T13:08:37.983Z</time></trkpt><trkpt lat="45.68244870996401" lon="8.57223328659946"><ele>351.5</ele><time>2026-04-17T13:08:38.983Z</time></trkpt><trkpt lat="45.682586514517276" lon="8.572194238106125"><ele>352.0</ele><time>2026-04-17T13:08:39.983Z</time></trkpt><trkpt lat="45.68272995421522" lon="8.572144843807864"><ele>352.0</ele><time>2026-04-17T13:08:40.983Z</time></trkpt><trkpt lat="45.682870129156306" lon="8.572060221155581"><ele>352.0</ele><time>2026-04-17T13:08:41.983Z</time></trkpt><trkpt lat="45.68300959771227" lon="8.571943588488208"><ele>352.0</ele><time>2026-04-17T13:08:42.983Z</time></trkpt><trkpt lat="45.683114900570786" lon="8.571879957914915"><ele>352.0</ele><time>2026-04-17T13:08:43.983Z</time></trkpt><trkpt lat="45.683207660961095" lon="8.57182773668432"><ele>351.66666666666663</ele><time>2026-04-17T13:08:44.983Z</time></trkpt><trkpt lat="45.68328734426636" lon="8.571786671791141"><ele>351.3333333333333</ele><time>2026-04-17T13:08:45.983Z</time></trkpt><trkpt lat="45.68335488271236" lon="8.571761534779483"><ele>351.0</ele><time>2026-04-17T13:08:46.983Z</time></trkpt><trkpt lat="45.68344877297799" lon="8.571741653331314"><ele>350.6666666666667</ele><time>2026-04-17T13:08:48.983Z</time></trkpt><trkpt lat="45.68351122699326" lon="8.571714845929138"><ele>350.33333333333337</ele><time>2026-04-17T13:08:58.983Z</time></trkpt><trkpt lat="45.68356896848526" lon="8.571635693494594"><ele>350.0</ele><time>2026-04-17T13:09:00.983Z</time></trkpt><trkpt lat="45.683626406535225" lon="8.571497296721626"><ele>350.6666666666667</ele><time>2026-04-17T13:09:02.983Z</time></trkpt><trkpt lat="45.68366514138526" lon="8.571410686526919"><ele>351.33333333333337</ele><time>2026-04-17T13:09:03.983Z</time></trkpt><trkpt lat="45.683708813087996" lon="8.57132217997483"><ele>352.0</ele><time>2026-04-17T13:09:04.983Z</time></trkpt><trkpt lat="45.68375725315707" lon="8.57122564444942"><ele>352.6666666666667</ele><time>2026-04-17T13:09:05.983Z</time></trkpt><trkpt lat="45.6838103041253" lon="8.571112689187217"><ele>353.3333333333333</ele><time>2026-04-17T13:09:06.983Z</time></trkpt><trkpt lat="45.683870976101524" lon="8.570988862604967"><ele>354.0</ele><time>2026-04-17T13:09:07.983Z</time></trkpt><trkpt lat="45.68392609852611" lon="8.570860578544528"><ele>354.25</ele><time>2026-04-17T13:09:08.983Z</time></trkpt><trkpt lat="45.68398395209715" lon="8.570715632127207"><ele>354.5</ele><time>2026-04-17T13:09:09.983Z</time></trkpt><trkpt lat="45.68404102409676" lon="8.570559172135658"><ele>354.75</ele><time>2026-04-17T13:09:10.983Z</time></trkpt><trkpt lat="45.68409766177472" lon="8.570399027022814"><ele>355.0</ele><time>2026-04-17T13:09:11.983Z</time></trkpt><trkpt lat="45.68415186373011" lon="8.570237028540511"><ele>355.0</ele><time>2026-04-17T13:09:12.983Z</time></trkpt><trkpt lat="45.684201140609304" lon="8.570060258636563"><ele>355.0</ele><time>2026-04-17T13:09:13.983Z</time></trkpt><trkpt lat="45.68424368805803" lon="8.56987341682318"><ele>355.0</ele><time>2026-04-17T13:09:14.983Z</time></trkpt><trkpt lat="45.68427402113372" lon="8.569678749851791"><ele>355.0</ele><time>2026-04-17T13:09:15.983Z</time></trkpt><trkpt lat="45.68429504727224" lon="8.569491552092389"><ele>355.0</ele><time>2026-04-17T13:09:16.983Z</time></trkpt><trkpt lat="45.68430712415621" lon="8.56929339002342"><ele>355.0</ele><time>2026-04-17T13:09:17.983Z</time></trkpt><trkpt lat="45.68431029700043" lon="8.569092628845672"><ele>355.0</ele><time>2026-04-17T13:09:18.983Z</time></trkpt><trkpt lat="45.684299967239795" lon="8.568887424877389"><ele>355.0</ele><time>2026-04-17T13:09:19.984Z</time></trkpt><trkpt lat="45.68427122116636" lon="8.568682219470327"><ele>355.0</ele><time>2026-04-17T13:09:20.984Z</time></trkpt><trkpt lat="45.68424029174905" lon="8.568477345657758"><ele>355.0</ele><time>2026-04-17T13:09:21.981Z</time></trkpt><trkpt lat="45.68421210358762" lon="8.568271241003897"><ele>355.0</ele><time>2026-04-17T13:09:22.981Z</time></trkpt><trkpt lat="45.68419637427617" lon="8.568096646391256"><ele>355.0</ele><time>2026-04-17T13:09:23.981Z</time></trkpt><trkpt lat="45.684179338603165" lon="8.567961166206878"><ele>355.16666666666663</ele><time>2026-04-17T13:09:24.982Z</time></trkpt><trkpt lat="45.68416218688396" lon="8.567850757164742"><ele>355.3333333333333</ele><time>2026-04-17T13:09:25.981Z</time></trkpt><trkpt lat="45.68413816022664" lon="8.567742857538377"><ele>355.5</ele><time>2026-04-17T13:09:26.981Z</time></trkpt><trkpt lat="45.68410307064193" lon="8.567634636861325"><ele>355.6666666666667</ele><time>2026-04-17T13:09:27.981Z</time></trkpt><trkpt lat="45.684054499957604" lon="8.56751729799359"><ele>355.83333333333337</ele><time>2026-04-17T13:09:28.982Z</time></trkpt><trkpt lat="45.68397936651288" lon="8.56741155871303"><ele>356.0</ele><time>2026-04-17T13:09:29.982Z</time></trkpt><trkpt lat="45.68388407756423" lon="8.567310860032714"><ele>356.0</ele><time>2026-04-17T13:09:30.982Z</time></trkpt><trkpt lat="45.683784606892495" lon="8.567207437226347"><ele>356.0</ele><time>2026-04-17T13:09:31.981Z</time></trkpt><trkpt lat="45.68367786054374" lon="8.567090491093426"><ele>356.0</ele><time>2026-04-17T13:09:32.981Z</time></trkpt><trkpt lat="45.68357005094437" lon="8.566969137001875"><ele>356.0</ele><time>2026-04-17T13:09:33.981Z</time></trkpt><trkpt lat="45.68345787443405" lon="8.566842741671847"><ele>354.0</ele><time>2026-04-17T13:09:34.981Z</time></trkpt><trkpt lat="45.68334526440211" lon="8.566719842002389"><ele>352.0</ele><time>2026-04-17T13:09:35.981Z</time></trkpt><trkpt lat="45.68323023325054" lon="8.566590688867992"><ele>350.0</ele><time>2026-04-17T13:09:36.981Z</time></trkpt><trkpt lat="45.68310947647901" lon="8.566457475775069"><ele>348.0</ele><time>2026-04-17T13:09:37.981Z</time></trkpt><trkpt lat="45.682985763130695" lon="8.566324986885185"><ele>347.25</ele><time>2026-04-17T13:09:38.981Z</time></trkpt><trkpt lat="45.68286372485884" lon="8.566193177452181"><ele>346.5</ele><time>2026-04-17T13:09:39.981Z</time></trkpt><trkpt lat="45.68274669967798" lon="8.566062284327575"><ele>345.75</ele><time>2026-04-17T13:09:40.981Z</time></trkpt><trkpt lat="45.68264152797214" lon="8.565922686326967"><ele>345.0</ele><time>2026-04-17T13:09:41.981Z</time></trkpt><trkpt lat="45.68255418178661" lon="8.565770997125588"><ele>344.5</ele><time>2026-04-17T13:09:42.981Z</time></trkpt><trkpt lat="45.682471834372485" lon="8.565613097268677"><ele>344.0</ele><time>2026-04-17T13:09:43.981Z</time></trkpt><trkpt lat="45.68238045220998" lon="8.565467451437526"><ele>343.5</ele><time>2026-04-17T13:09:44.981Z</time></trkpt><trkpt lat="45.682276033991656" lon="8.56534702189629"><ele>343.0</ele><time>2026-04-17T13:09:45.981Z</time></trkpt><trkpt lat="45.68214743053039" lon="8.565253256457474"><ele>343.0</ele><time>2026-04-17T13:09:46.981Z</time></trkpt><trkpt lat="45.68200919944508" lon="8.565162389269183"><ele>343.0</ele><time>2026-04-17T13:09:47.981Z</time></trkpt><trkpt lat="45.68187683537517" lon="8.565059425291063"><ele>343.0</ele><time>2026-04-17T13:09:48.981Z</time></trkpt><trkpt lat="45.68175385100926" lon="8.564937337299096"><ele>342.75</ele><time>2026-04-17T13:09:49.981Z</time></trkpt><trkpt lat="45.681646837589085" lon="8.564813392092047"><ele>342.5</ele><time>2026-04-17T13:09:50.982Z</time></trkpt><trkpt lat="45.68155350925564" lon="8.564688200487645"><ele>342.25</ele><time>2026-04-17T13:09:51.982Z</time></trkpt><trkpt lat="45.68147125000116" lon="8.56456728428623"><ele>342.0</ele><time>2026-04-17T13:09:52.982Z</time></trkpt><trkpt lat="45.681400772321666" lon="8.56444584585292"><ele>342.0</ele><time>2026-04-17T13:09:53.982Z</time></trkpt><trkpt lat="45.68134106129144" lon="8.564317413657973"><ele>342.0</ele><time>2026-04-17T13:09:54.982Z</time></trkpt><trkpt lat="45.681288592739726" lon="8.56417752061288"><ele>342.0</ele><time>2026-04-17T13:09:55.982Z</time></trkpt><trkpt lat="45.68123969978187" lon="8.564028430038467"><ele>342.0</ele><time>2026-04-17T13:09:56.982Z</time></trkpt><trkpt lat="45.681195077677955" lon="8.563864811347123"><ele>342.25</ele><time>2026-04-17T13:09:57.982Z</time></trkpt><trkpt lat="45.681149544488036" lon="8.56369267565166"><ele>342.5</ele><time>2026-04-17T13:09:58.982Z</time></trkpt><trkpt lat="45.68110195751699" lon="8.563513879896991"><ele>342.75</ele><time>2026-04-17T13:09:59.982Z</time></trkpt><trkpt lat="45.68105611830167" lon="8.563335872568874"><ele>343.0</ele><time>2026-04-17T13:10:00.982Z</time></trkpt><trkpt lat="45.68100937408649" lon="8.563154817044893"><ele>342.5</ele><time>2026-04-17T13:10:01.982Z</time></trkpt><trkpt lat="45.68095946042892" lon="8.562972286797564"><ele>342.0</ele><time>2026-04-17T13:10:02.982Z</time></trkpt><trkpt lat="45.68088404465579" lon="8.562797006684079"><ele>341.5</ele><time>2026-04-17T13:10:03.982Z</time></trkpt><trkpt lat="45.68081676148393" lon="8.562620661981207"><ele>341.0</ele><time>2026-04-17T13:10:04.982Z</time></trkpt><trkpt lat="45.680735881595524" lon="8.562440558378142"><ele>341.0</ele><time>2026-04-17T13:10:05.982Z</time></trkpt><trkpt lat="45.68064857439646" lon="8.562260284803624"><ele>341.0</ele><time>2026-04-17T13:10:06.982Z</time></trkpt><trkpt lat="45.68055115586692" lon="8.562101418983739"><ele>341.0</ele><time>2026-04-17T13:10:07.982Z</time></trkpt><trkpt lat="45.68045055024856" lon="8.561970066302965"><ele>341.0</ele><time>2026-04-17T13:10:08.982Z</time></trkpt><trkpt lat="45.68034820446334" lon="8.561861126739446"><ele>340.20000000000005</ele><time>2026-04-17T13:10:09.982Z</time></trkpt><trkpt lat="45.680255468064345" lon="8.561756592220163"><ele>339.40000000000003</ele><time>2026-04-17T13:10:10.982Z</time></trkpt><trkpt lat="45.68018294753152" lon="8.561654223317374"><ele>338.6</ele><time>2026-04-17T13:10:11.982Z</time></trkpt><trkpt lat="45.680123735734895" lon="8.561535881944085"><ele>337.8</ele><time>2026-04-17T13:10:12.982Z</time></trkpt><trkpt lat="45.68007944405527" lon="8.561403889044733"><ele>337.0</ele><time>2026-04-17T13:10:13.982Z</time></trkpt><trkpt lat="45.68004638682041" lon="8.561263967024386"><ele>337.5</ele><time>2026-04-17T13:10:14.982Z</time></trkpt><trkpt lat="45.68000701084538" lon="8.561114266417144"><ele>338.0</ele><time>2026-04-17T13:10:15.982Z</time></trkpt><trkpt lat="45.67997269154431" lon="8.560953421643127"><ele>338.5</ele><time>2026-04-17T13:10:16.982Z</time></trkpt><trkpt lat="45.67992691462077" lon="8.560797128397116"><ele>339.0</ele><time>2026-04-17T13:10:17.982Z</time></trkpt><trkpt lat="45.6798585493201" lon="8.560644780240912"><ele>339.0</ele><time>2026-04-17T13:10:18.982Z</time></trkpt><trkpt lat="45.67978062768609" lon="8.560500913671191"><ele>339.0</ele><time>2026-04-17T13:10:19.982Z</time></trkpt><trkpt lat="45.67968343861383" lon="8.560371586429651"><ele>339.0</ele><time>2026-04-17T13:10:20.982Z</time></trkpt><trkpt lat="45.67958502970537" lon="8.560233821809545"><ele>339.0</ele><time>2026-04-17T13:10:21.982Z</time></trkpt><trkpt lat="45.67949427798287" lon="8.560087110999365"><ele>338.5</ele><time>2026-04-17T13:10:22.982Z</time></trkpt><trkpt lat="45.679400734149176" lon="8.559939735260718"><ele>338.0</ele><time>2026-04-17T13:10:23.982Z</time></trkpt><trkpt lat="45.67931036002329" lon="8.559787614499015"><ele>337.5</ele><time>2026-04-17T13:10:24.982Z</time></trkpt><trkpt lat="45.67921539909725" lon="8.559636213086463"><ele>337.0</ele><time>2026-04-17T13:10:25.982Z</time></trkpt><trkpt lat="45.67912063524484" lon="8.559486074603722"><ele>336.75</ele><time>2026-04-17T13:10:26.982Z</time></trkpt><trkpt lat="45.679030896714906" lon="8.559335980162004"><ele>336.5</ele><time>2026-04-17T13:10:27.982Z</time></trkpt><trkpt lat="45.678946480921084" lon="8.559192133311658"><ele>336.25</ele><time>2026-04-17T13:10:28.982Z</time></trkpt><trkpt lat="45.678861983410016" lon="8.559058247044725"><ele>336.0</ele><time>2026-04-17T13:10:29.982Z</time></trkpt><trkpt lat="45.678774600485234" lon="8.558931747580232"><ele>336.0</ele><time>2026-04-17T13:10:30.982Z</time></trkpt><trkpt lat="45.67868300318733" lon="8.558815205414303"><ele>336.0</ele><time>2026-04-17T13:10:31.982Z</time></trkpt><trkpt lat="45.678587551441396" lon="8.558707144980072"><ele>336.0</ele><time>2026-04-17T13:10:32.982Z</time></trkpt><trkpt lat="45.67849182158548" lon="8.55860062534328"><ele>336.0</ele><time>2026-04-17T13:10:33.982Z</time></trkpt><trkpt lat="45.67839841784403" lon="8.558492683908971"><ele>336.0</ele><time>2026-04-17T13:10:34.982Z</time></trkpt><trkpt lat="45.678307452853346" lon="8.558383859241909"><ele>336.0</ele><time>2026-04-17T13:10:35.982Z</time></trkpt><trkpt lat="45.67821466980024" lon="8.558276698469419"><ele>336.0</ele><time>2026-04-17T13:10:36.982Z</time></trkpt><trkpt lat="45.678122553292845" lon="8.55817213233746"><ele>336.0</ele><time>2026-04-17T13:10:37.982Z</time></trkpt><trkpt lat="45.678031238924184" lon="8.558069047829333"><ele>336.0</ele><time>2026-04-17T13:10:38.982Z</time></trkpt><trkpt lat="45.67794044146411" lon="8.557970411176402"><ele>336.0</ele><time>2026-04-17T13:10:39.982Z</time></trkpt><trkpt lat="45.67785576250401" lon="8.557876489591612"><ele>336.0</ele><time>2026-04-17T13:10:40.982Z</time></trkpt><trkpt lat="45.67777078263364" lon="8.557782127038456"><ele>336.0</ele><time>2026-04-17T13:10:41.982Z</time></trkpt><trkpt lat="45.677691171520664" lon="8.557683552759833"><ele>336.0</ele><time>2026-04-17T13:10:42.982Z</time></trkpt><trkpt lat="45.67761563408882" lon="8.55757825184583"><ele>335.20000000000005</ele><time>2026-04-17T13:10:43.982Z</time></trkpt><trkpt lat="45.677537280369286" lon="8.557473857716623"><ele>334.40000000000003</ele><time>2026-04-17T13:10:44.983Z</time></trkpt><trkpt lat="45.677455118409284" lon="8.55737442726854"><ele>333.6</ele><time>2026-04-17T13:10:45.983Z</time></trkpt><trkpt lat="45.677367084889205" lon="8.557278684607764"><ele>332.8</ele><time>2026-04-17T13:10:46.983Z</time></trkpt><trkpt lat="45.67727807076087" lon="8.557183877553628"><ele>332.0</ele><time>2026-04-17T13:10:47.983Z</time></trkpt><trkpt lat="45.67719789328653" lon="8.557090996136239"><ele>332.0</ele><time>2026-04-17T13:10:48.983Z</time></trkpt><trkpt lat="45.67712261429369" lon="8.557002106641665"><ele>332.0</ele><time>2026-04-17T13:10:49.983Z</time></trkpt><trkpt lat="45.67705530797022" lon="8.556922205499603"><ele>332.0</ele><time>2026-04-17T13:10:50.983Z</time></trkpt><trkpt lat="45.67699418232338" lon="8.55685019680896"><ele>332.0</ele><time>2026-04-17T13:10:51.983Z</time></trkpt><trkpt lat="45.67694325980494" lon="8.556781234842159"><ele>332.0</ele><time>2026-04-17T13:10:52.983Z</time></trkpt><trkpt lat="45.67687782348927" lon="8.556668935499854"><ele>332.0</ele><time>2026-04-17T13:10:54.983Z</time></trkpt><trkpt lat="45.67684308820767" lon="8.556576515436921"><ele>332.0</ele><time>2026-04-17T13:10:56.983Z</time></trkpt><trkpt lat="45.67685790353048" lon="8.55642474535764"><ele>332.0</ele><time>2026-04-17T13:10:58.983Z</time></trkpt><trkpt lat="45.6768720120177" lon="8.556317798681622"><ele>332.0</ele><time>2026-04-17T13:10:59.983Z</time></trkpt><trkpt lat="45.67688782906523" lon="8.55620769570313"><ele>332.0</ele><time>2026-04-17T13:11:00.983Z</time></trkpt><trkpt lat="45.67689946638088" lon="8.556083205491701"><ele>332.0</ele><time>2026-04-17T13:11:01.983Z</time></trkpt><trkpt lat="45.676908111351395" lon="8.55594641604291"><ele>332.0</ele><time>2026-04-17T13:11:02.983Z</time></trkpt><trkpt lat="45.6769129642512" lon="8.555804520156602"><ele>331.8</ele><time>2026-04-17T13:11:03.983Z</time></trkpt><trkpt lat="45.67692966209031" lon="8.55566054161517"><ele>331.6</ele><time>2026-04-17T13:11:04.983Z</time></trkpt><trkpt lat="45.6769498606906" lon="8.555511934108843"><ele>331.40000000000003</ele><time>2026-04-17T13:11:05.983Z</time></trkpt><trkpt lat="45.67697079777892" lon="8.555356736395503"><ele>331.20000000000005</ele><time>2026-04-17T13:11:06.983Z</time></trkpt><trkpt lat="45.676991709264634" lon="8.555193761284347"><ele>331.0</ele><time>2026-04-17T13:11:07.983Z</time></trkpt><trkpt lat="45.67700843712508" lon="8.555026216385706"><ele>331.0</ele><time>2026-04-17T13:11:08.983Z</time></trkpt><trkpt lat="45.677019292307264" lon="8.554853763659837"><ele>331.0</ele><time>2026-04-17T13:11:09.983Z</time></trkpt><trkpt lat="45.67701500933851" lon="8.554679509708718"><ele>331.0</ele><time>2026-04-17T13:11:10.983Z</time></trkpt><trkpt lat="45.677000062941715" lon="8.554508091690188"><ele>331.0</ele><time>2026-04-17T13:11:11.983Z</time></trkpt><trkpt lat="45.67697810110308" lon="8.55434019560252"><ele>330.8</ele><time>2026-04-17T13:11:12.983Z</time></trkpt><trkpt lat="45.676953631632124" lon="8.554170463741462"><ele>330.6</ele><time>2026-04-17T13:11:13.983Z</time></trkpt><trkpt lat="45.676928793209804" lon="8.554006742424928"><ele>330.4</ele><time>2026-04-17T13:11:14.983Z</time></trkpt><trkpt lat="45.67690921064704" lon="8.553860923074083"><ele>330.2</ele><time>2026-04-17T13:11:15.983Z</time></trkpt><trkpt lat="45.67688693572803" lon="8.553730914995286"><ele>330.0</ele><time>2026-04-17T13:11:16.983Z</time></trkpt><trkpt lat="45.67686185451728" lon="8.553607619102328"><ele>330.6666666666667</ele><time>2026-04-17T13:11:17.983Z</time></trkpt><trkpt lat="45.676837225776055" lon="8.553486968328388"><ele>331.3333333333333</ele><time>2026-04-17T13:11:18.983Z</time></trkpt><trkpt lat="45.67681269924689" lon="8.553364840696899"><ele>332.0</ele><time>2026-04-17T13:11:19.983Z</time></trkpt><trkpt lat="45.67679345620002" lon="8.553238793648934"><ele>332.66666666666663</ele><time>2026-04-17T13:11:20.983Z</time></trkpt><trkpt lat="45.676780257027026" lon="8.553112957824023"><ele>333.3333333333333</ele><time>2026-04-17T13:11:21.983Z</time></trkpt><trkpt lat="45.67676417270885" lon="8.55300574591047"><ele>334.0</ele><time>2026-04-17T13:11:22.983Z</time></trkpt><trkpt lat="45.67674606234729" lon="8.552879398494722"><ele>334.5</ele><time>2026-04-17T13:11:24.983Z</time></trkpt><trkpt lat="45.676793755463244" lon="8.552808102799798"><ele>335.0</ele><time>2026-04-17T13:11:26.983Z</time></trkpt><trkpt lat="45.67688637208173" lon="8.552793777886391"><ele>335.5</ele><time>2026-04-17T13:11:28.981Z</time></trkpt><trkpt lat="45.677007540082116" lon="8.55281226539385"><ele>336.0</ele><time>2026-04-17T13:11:30.981Z</time></trkpt><trkpt lat="45.67708026863694" lon="8.552815111505025"><ele>336.5</ele><time>2026-04-17T13:11:31.981Z</time></trkpt><trkpt lat="45.677146947976034" lon="8.55281394334365"><ele>337.0</ele><time>2026-04-17T13:11:32.981Z</time></trkpt><trkpt lat="45.677226061348506" lon="8.552815651542915"><ele>337.0</ele><time>2026-04-17T13:11:33.981Z</time></trkpt><trkpt lat="45.677319134845376" lon="8.552809596334534"><ele>337.0</ele><time>2026-04-17T13:11:34.981Z</time></trkpt><trkpt lat="45.677410758403234" lon="8.552826160212703"><ele>337.0</ele><time>2026-04-17T13:11:35.981Z</time></trkpt><trkpt lat="45.6774974734671" lon="8.552833532730826"><ele>337.0</ele><time>2026-04-17T13:11:36.981Z</time></trkpt><trkpt lat="45.67759913063183" lon="8.552850958061734"><ele>337.0</ele><time>2026-04-17T13:11:37.981Z</time></trkpt><trkpt lat="45.67770104594693" lon="8.552895074778855"><ele>337.6</ele><time>2026-04-17T13:11:38.981Z</time></trkpt><trkpt lat="45.677808245893054" lon="8.552948605957823"><ele>338.20000000000005</ele><time>2026-04-17T13:11:39.98Z</time></trkpt><trkpt lat="45.677912058490065" lon="8.552995680104"><ele>338.8</ele><time>2026-04-17T13:11:40.981Z</time></trkpt><trkpt lat="45.67800719180144" lon="8.553037795525922"><ele>339.4</ele><time>2026-04-17T13:11:41.981Z</time></trkpt><trkpt lat="45.67811780543297" lon="8.553069454155944"><ele>340.0</ele><time>2026-04-17T13:11:42.981Z</time></trkpt><trkpt lat="45.67822251983577" lon="8.553098399716076"><ele>340.0</ele><time>2026-04-17T13:11:43.981Z</time></trkpt><trkpt lat="45.67832247592039" lon="8.55313168799907"><ele>340.0</ele><time>2026-04-17T13:11:44.981Z</time></trkpt><trkpt lat="45.67843293811904" lon="8.553156757465059"><ele>340.0</ele><time>2026-04-17T13:11:45.981Z</time></trkpt><trkpt lat="45.67853988272517" lon="8.553202086879535"><ele>340.0</ele><time>2026-04-17T13:11:46.981Z</time></trkpt><trkpt lat="45.67864546636512" lon="8.55324229259815"><ele>340.0</ele><time>2026-04-17T13:11:47.981Z</time></trkpt><trkpt lat="45.678758033834" lon="8.553277145154027"><ele>340.2</ele><time>2026-04-17T13:11:48.981Z</time></trkpt><trkpt lat="45.67886811414342" lon="8.553313543338406"><ele>340.4</ele><time>2026-04-17T13:11:49.981Z</time></trkpt><trkpt lat="45.67897426935891" lon="8.553350595273765"><ele>340.6</ele><time>2026-04-17T13:11:50.981Z</time></trkpt><trkpt lat="45.67908079084095" lon="8.553393987601561"><ele>340.8</ele><time>2026-04-17T13:11:51.981Z</time></trkpt><trkpt lat="45.67918712211861" lon="8.553439494453661"><ele>341.0</ele><time>2026-04-17T13:11:52.981Z</time></trkpt><trkpt lat="45.679294340785205" lon="8.553482943440128"><ele>341.0</ele><time>2026-04-17T13:11:53.981Z</time></trkpt><trkpt lat="45.67940343645465" lon="8.553519248683429"><ele>341.0</ele><time>2026-04-17T13:11:54.981Z</time></trkpt><trkpt lat="45.67951433949277" lon="8.553560342704191"><ele>341.0</ele><time>2026-04-17T13:11:55.981Z</time></trkpt><trkpt lat="45.67962578279252" lon="8.553600016527167"><ele>341.0</ele><time>2026-04-17T13:11:56.981Z</time></trkpt><trkpt lat="45.67973660481254" lon="8.553635832772635"><ele>341.25</ele><time>2026-04-17T13:11:57.981Z</time></trkpt><trkpt lat="45.67984783087799" lon="8.553665763209711"><ele>341.5</ele><time>2026-04-17T13:11:58.981Z</time></trkpt><trkpt lat="45.67996228588483" lon="8.553690872553425"><ele>341.75</ele><time>2026-04-17T13:11:59.981Z</time></trkpt><trkpt lat="45.680082604946385" lon="8.553716353804255"><ele>342.0</ele><time>2026-04-17T13:12:00.981Z</time></trkpt><trkpt lat="45.68019871747276" lon="8.553738372948239"><ele>341.5</ele><time>2026-04-17T13:12:01.981Z</time></trkpt><trkpt lat="45.680314548966905" lon="8.553760628908893"><ele>341.0</ele><time>2026-04-17T13:12:02.981Z</time></trkpt><trkpt lat="45.68043349253434" lon="8.55378366661461"><ele>340.5</ele><time>2026-04-17T13:12:03.981Z</time></trkpt><trkpt lat="45.680548866816395" lon="8.55380893445828"><ele>340.0</ele><time>2026-04-17T13:12:04.981Z</time></trkpt><trkpt lat="45.6806643184989" lon="8.553832398278704"><ele>340.0</ele><time>2026-04-17T13:12:05.981Z</time></trkpt><trkpt lat="45.680777759549294" lon="8.553865358511976"><ele>340.0</ele><time>2026-04-17T13:12:06.981Z</time></trkpt><trkpt lat="45.680890724414425" lon="8.55391605832753"><ele>340.0</ele><time>2026-04-17T13:12:07.981Z</time></trkpt><trkpt lat="45.681001915275125" lon="8.55396633824943"><ele>340.0</ele><time>2026-04-17T13:12:08.981Z</time></trkpt><trkpt lat="45.68111303446816" lon="8.554027334163449"><ele>340.5</ele><time>2026-04-17T13:12:09.981Z</time></trkpt><trkpt lat="45.681219875017" lon="8.554105316321952"><ele>341.0</ele><time>2026-04-17T13:12:10.981Z</time></trkpt><trkpt lat="45.68133191583883" lon="8.554179628191196"><ele>341.5</ele><time>2026-04-17T13:12:11.981Z</time></trkpt><trkpt lat="45.6814475982201" lon="8.554257304434078"><ele>342.0</ele><time>2026-04-17T13:12:12.981Z</time></trkpt><trkpt lat="45.68156655144761" lon="8.554339561189042"><ele>342.0</ele><time>2026-04-17T13:12:13.981Z</time></trkpt><trkpt lat="45.68168980458233" lon="8.554427036478097"><ele>342.0</ele><time>2026-04-17T13:12:14.981Z</time></trkpt><trkpt lat="45.68182022794278" lon="8.554515428438199"><ele>342.0</ele><time>2026-04-17T13:12:15.981Z</time></trkpt><trkpt lat="45.68195267908993" lon="8.554596376365192"><ele>342.0</ele><time>2026-04-17T13:12:16.982Z</time></trkpt><trkpt lat="45.68209144595227" lon="8.554681929765541"><ele>343.25</ele><time>2026-04-17T13:12:17.982Z</time></trkpt><trkpt lat="45.682219870336134" lon="8.554768812378114"><ele>344.5</ele><time>2026-04-17T13:12:18.982Z</time></trkpt><trkpt lat="45.68235025007069" lon="8.554855759153583"><ele>345.75</ele><time>2026-04-17T13:12:19.982Z</time></trkpt><trkpt lat="45.68248134179917" lon="8.554943762034691"><ele>347.0</ele><time>2026-04-17T13:12:20.982Z</time></trkpt><trkpt lat="45.68261140481756" lon="8.555037013649173"><ele>347.0</ele><time>2026-04-17T13:12:21.982Z</time></trkpt><trkpt lat="45.68274212074937" lon="8.555125466711068"><ele>347.0</ele><time>2026-04-17T13:12:22.982Z</time></trkpt><trkpt lat="45.68287928833825" lon="8.555213047852503"><ele>347.0</ele><time>2026-04-17T13:12:23.982Z</time></trkpt><trkpt lat="45.683019659268574" lon="8.555305456053974"><ele>347.0</ele><time>2026-04-17T13:12:24.982Z</time></trkpt><trkpt lat="45.68315803864458" lon="8.555401419803502"><ele>346.6666666666667</ele><time>2026-04-17T13:12:25.982Z</time></trkpt><trkpt lat="45.683297084740204" lon="8.555496497692353"><ele>346.3333333333333</ele><time>2026-04-17T13:12:26.982Z</time></trkpt><trkpt lat="45.6834367919033" lon="8.555592446191694"><ele>346.0</ele><time>2026-04-17T13:12:27.982Z</time></trkpt><trkpt lat="45.683576252427464" lon="8.555697608297207"><ele>347.3333333333333</ele><time>2026-04-17T13:12:28.982Z</time></trkpt><trkpt lat="45.68371077536098" lon="8.555821242861793"><ele>348.6666666666667</ele><time>2026-04-17T13:12:29.982Z</time></trkpt><trkpt lat="45.68382650530899" lon="8.555980886678343"><ele>350.0</ele><time>2026-04-17T13:12:30.982Z</time></trkpt><trkpt lat="45.6839202362022" lon="8.556161437406331"><ele>351.33333333333337</ele><time>2026-04-17T13:12:31.982Z</time></trkpt><trkpt lat="45.6840046593468" lon="8.556352786266714"><ele>352.6666666666667</ele><time>2026-04-17T13:12:32.982Z</time></trkpt><trkpt lat="45.68409056796948" lon="8.556542261748072"><ele>354.0</ele><time>2026-04-17T13:12:33.982Z</time></trkpt><trkpt lat="45.684186357292376" lon="8.556714012892801"><ele>354.0</ele><time>2026-04-17T13:12:34.982Z</time></trkpt><trkpt lat="45.68429440942925" lon="8.556879718731329"><ele>354.0</ele><time>2026-04-17T13:12:35.982Z</time></trkpt><trkpt lat="45.6844137750332" lon="8.557030629758636"><ele>354.0</ele><time>2026-04-17T13:12:36.982Z</time></trkpt><trkpt lat="45.684538889859944" lon="8.557172258241657"><ele>356.3333333333333</ele><time>2026-04-17T13:12:37.982Z</time></trkpt><trkpt lat="45.68466634531927" lon="8.557311367262868"><ele>358.66666666666663</ele><time>2026-04-17T13:12:38.982Z</time></trkpt><trkpt lat="45.68480145134212" lon="8.557443509845639"><ele>361.0</ele><time>2026-04-17T13:12:39.982Z</time></trkpt><trkpt lat="45.68493065305824" lon="8.557578049005988"><ele>361.0</ele><time>2026-04-17T13:12:40.982Z</time></trkpt><trkpt lat="45.68506526168428" lon="8.557705236813236"><ele>361.0</ele><time>2026-04-17T13:12:41.982Z</time></trkpt><trkpt lat="45.68520589416489" lon="8.557817743766693"><ele>361.0</ele><time>2026-04-17T13:12:42.982Z</time></trkpt><trkpt lat="45.68534800794881" lon="8.557920705651998"><ele>361.0</ele><time>2026-04-17T13:12:43.982Z</time></trkpt><trkpt lat="45.68549758441054" lon="8.558011559782434"><ele>361.0</ele><time>2026-04-17T13:12:44.982Z</time></trkpt><trkpt lat="45.685650755882634" lon="8.5580866301809"><ele>361.0</ele><time>2026-04-17T13:12:45.982Z</time></trkpt><trkpt lat="45.68580602670854" lon="8.55815517264083"><ele>361.0</ele><time>2026-04-17T13:12:46.982Z</time></trkpt><trkpt lat="45.685961603909966" lon="8.558214687258097"><ele>361.0</ele><time>2026-04-17T13:12:47.982Z</time></trkpt><trkpt lat="45.686114039657" lon="8.558271604526674"><ele>361.0</ele><time>2026-04-17T13:12:48.982Z</time></trkpt><trkpt lat="45.68625846116994" lon="8.558322512290946"><ele>359.75</ele><time>2026-04-17T13:12:49.982Z</time></trkpt><trkpt lat="45.68639636957629" lon="8.558363942202662"><ele>358.5</ele><time>2026-04-17T13:12:50.982Z</time></trkpt><trkpt lat="45.686532200663486" lon="8.558382334728092"><ele>357.25</ele><time>2026-04-17T13:12:51.982Z</time></trkpt><trkpt lat="45.6866647357561" lon="8.55835647964199"><ele>356.0</ele><time>2026-04-17T13:12:52.982Z</time></trkpt><trkpt lat="45.686789859112686" lon="8.558289129035211"><ele>356.0</ele><time>2026-04-17T13:12:53.982Z</time></trkpt><trkpt lat="45.68689635211505" lon="8.558180401349244"><ele>356.0</ele><time>2026-04-17T13:12:54.982Z</time></trkpt><trkpt lat="45.68698497318225" lon="8.558034471539106"><ele>356.0</ele><time>2026-04-17T13:12:55.982Z</time></trkpt><trkpt lat="45.68705389496503" lon="8.557857411298107"><ele>356.0</ele><time>2026-04-17T13:12:56.982Z</time></trkpt><trkpt lat="45.68711298070948" lon="8.55766298356651"><ele>354.6666666666667</ele><time>2026-04-17T13:12:57.982Z</time></trkpt><trkpt lat="45.68718328005826" lon="8.557462092569008"><ele>353.3333333333333</ele><time>2026-04-17T13:12:58.982Z</time></trkpt><trkpt lat="45.68725566812624" lon="8.557257370996178"><ele>352.0</ele><time>2026-04-17T13:12:59.982Z</time></trkpt><trkpt lat="45.687331553841624" lon="8.557051057865406"><ele>351.66666666666663</ele><time>2026-04-17T13:13:00.982Z</time></trkpt><trkpt lat="45.68740728333444" lon="8.556836560527554"><ele>351.3333333333333</ele><time>2026-04-17T13:13:01.982Z</time></trkpt><trkpt lat="45.68748469751928" lon="8.556617203552026"><ele>351.0</ele><time>2026-04-17T13:13:02.982Z</time></trkpt><trkpt lat="45.68756180917788" lon="8.5563970118245"><ele>351.0</ele><time>2026-04-17T13:13:03.982Z</time></trkpt><trkpt lat="45.687636756192404" lon="8.556172135728485"><ele>351.0</ele><time>2026-04-17T13:13:04.982Z</time></trkpt><trkpt lat="45.687711097351105" lon="8.55595041048885"><ele>351.0</ele><time>2026-04-17T13:13:05.982Z</time></trkpt><trkpt lat="45.68779065922986" lon="8.555733377729036"><ele>351.0</ele><time>2026-04-17T13:13:06.982Z</time></trkpt><trkpt lat="45.68787685995448" lon="8.5555229862586"><ele>351.0</ele><time>2026-04-17T13:13:07.982Z</time></trkpt><trkpt lat="45.68797271245502" lon="8.55532788428804"><ele>351.0</ele><time>2026-04-17T13:13:08.982Z</time></trkpt><trkpt lat="45.68808149070094" lon="8.555146517157164"><ele>351.0</ele><time>2026-04-17T13:13:09.982Z</time></trkpt><trkpt lat="45.68819748803363" lon="8.554994589434202"><ele>351.0</ele><time>2026-04-17T13:13:10.982Z</time></trkpt><trkpt lat="45.68832489767997" lon="8.554863945672034"><ele>351.0</ele><time>2026-04-17T13:13:11.983Z</time></trkpt><trkpt lat="45.68845273330888" lon="8.554745668795514"><ele>351.0</ele><time>2026-04-17T13:13:12.983Z</time></trkpt><trkpt lat="45.68857001956872" lon="8.554625040603078"><ele>351.0</ele><time>2026-04-17T13:13:13.983Z</time></trkpt><trkpt lat="45.68868784432973" lon="8.554511484692473"><ele>351.0</ele><time>2026-04-17T13:13:14.983Z</time></trkpt><trkpt lat="45.688798201042445" lon="8.55440140017937"><ele>351.0</ele><time>2026-04-17T13:13:15.983Z</time></trkpt><trkpt lat="45.688902882132" lon="8.554300424741331"><ele>352.6</ele><time>2026-04-17T13:13:16.983Z</time></trkpt><trkpt lat="45.68899412866935" lon="8.554213391831322"><ele>354.20000000000005</ele><time>2026-04-17T13:13:17.983Z</time></trkpt><trkpt lat="45.689081399452945" lon="8.554134810177644"><ele>355.79999999999995</ele><time>2026-04-17T13:13:18.983Z</time></trkpt><trkpt lat="45.68916147030797" lon="8.554062779121859"><ele>357.4</ele><time>2026-04-17T13:13:19.983Z</time></trkpt><trkpt lat="45.68923665319637" lon="8.554003463390542"><ele>359.0</ele><time>2026-04-17T13:13:20.983Z</time></trkpt><trkpt lat="45.689310375573164" lon="8.553959072317815"><ele>359.0</ele><time>2026-04-17T13:13:21.983Z</time></trkpt><trkpt lat="45.68938458660554" lon="8.553932646269555"><ele>359.0</ele><time>2026-04-17T13:13:22.983Z</time></trkpt><trkpt lat="45.68945703406774" lon="8.553922018232276"><ele>359.0</ele><time>2026-04-17T13:13:23.983Z</time></trkpt><trkpt lat="45.68953152879222" lon="8.55391915496403"><ele>359.0</ele><time>2026-04-17T13:13:24.983Z</time></trkpt><trkpt lat="45.68961541178669" lon="8.553916282696617"><ele>359.0</ele><time>2026-04-17T13:13:25.983Z</time></trkpt><trkpt lat="45.68971322945402" lon="8.55392681725427"><ele>359.0</ele><time>2026-04-17T13:13:26.983Z</time></trkpt><trkpt lat="45.68981964779889" lon="8.553946666685796"><ele>358.75</ele><time>2026-04-17T13:13:27.983Z</time></trkpt><trkpt lat="45.6899294445209" lon="8.553972659576626"><ele>358.5</ele><time>2026-04-17T13:13:28.983Z</time></trkpt><trkpt lat="45.69003695424932" lon="8.5539985497191"><ele>358.25</ele><time>2026-04-17T13:13:29.983Z</time></trkpt><trkpt lat="45.690151853634795" lon="8.554026269052427"><ele>358.0</ele><time>2026-04-17T13:13:30.983Z</time></trkpt><trkpt lat="45.69027363160762" lon="8.55405485661048"><ele>357.25</ele><time>2026-04-17T13:13:31.983Z</time></trkpt><trkpt lat="45.69039574758566" lon="8.554081931690453"><ele>356.5</ele><time>2026-04-17T13:13:32.983Z</time></trkpt><trkpt lat="45.6905129581926" lon="8.554107601352706"><ele>355.75</ele><time>2026-04-17T13:13:33.98Z</time></trkpt><trkpt lat="45.6906282914859" lon="8.554128830539113"><ele>355.0</ele><time>2026-04-17T13:13:34.98Z</time></trkpt><trkpt lat="45.69074121817824" lon="8.554128944234186"><ele>355.0</ele><time>2026-04-17T13:13:35.98Z</time></trkpt><trkpt lat="45.690851812888056" lon="8.55410227697166"><ele>355.0</ele><time>2026-04-17T13:13:36.98Z</time></trkpt><trkpt lat="45.6909595248236" lon="8.554033316989164"><ele>355.0</ele><time>2026-04-17T13:13:37.98Z</time></trkpt><trkpt lat="45.6910608546293" lon="8.553941897375509"><ele>355.0</ele><time>2026-04-17T13:13:38.98Z</time></trkpt><trkpt lat="45.69114880485009" lon="8.553825226118711"><ele>354.4</ele><time>2026-04-17T13:13:39.98Z</time></trkpt><trkpt lat="45.69121107398249" lon="8.553678992285876"><ele>353.8</ele><time>2026-04-17T13:13:40.98Z</time></trkpt><trkpt lat="45.691252901077654" lon="8.553522710550379"><ele>353.20000000000005</ele><time>2026-04-17T13:13:41.98Z</time></trkpt><trkpt lat="45.691294005819735" lon="8.553385839315192"><ele>352.6</ele><time>2026-04-17T13:13:42.98Z</time></trkpt><trkpt lat="45.6913348093946" lon="8.553253402215708"><ele>352.0</ele><time>2026-04-17T13:13:43.98Z</time></trkpt><trkpt lat="45.691374089399936" lon="8.553129969031016"><ele>352.0</ele><time>2026-04-17T13:13:44.98Z</time></trkpt><trkpt lat="45.691410267381066" lon="8.553017985430182"><ele>352.0</ele><time>2026-04-17T13:13:45.98Z</time></trkpt><trkpt lat="45.691443483981665" lon="8.55292676452821"><ele>352.0</ele><time>2026-04-17T13:13:46.981Z</time></trkpt><trkpt lat="45.69150254603388" lon="8.55280795584647"><ele>352.0</ele><time>2026-04-17T13:13:48.981Z</time></trkpt><trkpt lat="45.69156358484229" lon="8.552726043280877"><ele>352.0</ele><time>2026-04-17T13:14:07.981Z</time></trkpt><trkpt lat="45.691621123092105" lon="8.55262351254727"><ele>352.0</ele><time>2026-04-17T13:14:09.981Z</time></trkpt><trkpt lat="45.69168095447339" lon="8.552513453441218"><ele>352.0</ele><time>2026-04-17T13:14:11.981Z</time></trkpt><trkpt lat="45.691761259299575" lon="8.552423406994587"><ele>352.0</ele><time>2026-04-17T13:14:13.981Z</time></trkpt><trkpt lat="45.69187572231052" lon="8.552391111636014"><ele>352.0</ele><time>2026-04-17T13:14:15.981Z</time></trkpt><trkpt lat="45.69195234602383" lon="8.5523852561731"><ele>352.0</ele><time>2026-04-17T13:14:16.981Z</time></trkpt><trkpt lat="45.692022721146344" lon="8.552374329369878"><ele>352.0</ele><time>2026-04-17T13:14:17.981Z</time></trkpt><trkpt lat="45.69210100834277" lon="8.552355142848317"><ele>352.0</ele><time>2026-04-17T13:14:18.981Z</time></trkpt><trkpt lat="45.6921892931147" lon="8.55232814507608"><ele>352.8</ele><time>2026-04-17T13:14:19.981Z</time></trkpt><trkpt lat="45.69228650769341" lon="8.552284117933203"><ele>353.6</ele><time>2026-04-17T13:14:20.981Z</time></trkpt><trkpt lat="45.69239353116712" lon="8.552245193720662"><ele>354.40000000000003</ele><time>2026-04-17T13:14:21.981Z</time></trkpt><trkpt lat="45.69249962504247" lon="8.552222967110747"><ele>355.20000000000005</ele><time>2026-04-17T13:14:22.981Z</time></trkpt><trkpt lat="45.69260443450487" lon="8.552196676949851"><ele>356.0</ele><time>2026-04-17T13:14:23.981Z</time></trkpt><trkpt lat="45.69270321601915" lon="8.552182398799141"><ele>356.1666666666667</ele><time>2026-04-17T13:14:24.981Z</time></trkpt><trkpt lat="45.69279766644884" lon="8.552181583704638"><ele>356.33333333333337</ele><time>2026-04-17T13:14:25.981Z</time></trkpt><trkpt lat="45.69287941820496" lon="8.55217665018123"><ele>356.5</ele><time>2026-04-17T13:14:26.981Z</time></trkpt><trkpt lat="45.692957031243786" lon="8.55216087515945"><ele>356.6666666666667</ele><time>2026-04-17T13:14:27.981Z</time></trkpt><trkpt lat="45.69303381791546" lon="8.552119298976594"><ele>356.8333333333333</ele><time>2026-04-17T13:14:28.981Z</time></trkpt><trkpt lat="45.693103310530496" lon="8.552066008873927"><ele>357.0</ele><time>2026-04-17T13:14:29.981Z</time></trkpt><trkpt lat="45.693172700876026" lon="8.552008063002905"><ele>357.20000000000005</ele><time>2026-04-17T13:14:30.981Z</time></trkpt><trkpt lat="45.69324402484259" lon="8.55193019289946"><ele>357.4</ele><time>2026-04-17T13:14:31.981Z</time></trkpt><trkpt lat="45.6933212632745" lon="8.551837931885752"><ele>357.6</ele><time>2026-04-17T13:14:32.981Z</time></trkpt><trkpt lat="45.69340309691802" lon="8.551760058716628"><ele>357.79999999999995</ele><time>2026-04-17T13:14:33.981Z</time></trkpt><trkpt lat="45.693487854575885" lon="8.551680049434498"><ele>358.0</ele><time>2026-04-17T13:14:34.981Z</time></trkpt><trkpt lat="45.69358139042383" lon="8.55159822488831"><ele>357.25</ele><time>2026-04-17T13:14:35.981Z</time></trkpt><trkpt lat="45.69368157544503" lon="8.551511650293849"><ele>356.5</ele><time>2026-04-17T13:14:36.981Z</time></trkpt><trkpt lat="45.69378247429921" lon="8.55142673485192"><ele>355.75</ele><time>2026-04-17T13:14:37.981Z</time></trkpt><trkpt lat="45.69388492535009" lon="8.551347482870337"><ele>355.0</ele><time>2026-04-17T13:14:38.982Z</time></trkpt><trkpt lat="45.69399329746267" lon="8.551283190477868"><ele>355.0</ele><time>2026-04-17T13:14:39.982Z</time></trkpt><trkpt lat="45.694104034560134" lon="8.551255100762742"><ele>355.0</ele><time>2026-04-17T13:14:40.982Z</time></trkpt><trkpt lat="45.69421069493145" lon="8.55125779126852"><ele>355.0</ele><time>2026-04-17T13:14:41.982Z</time></trkpt><trkpt lat="45.694316090880264" lon="8.551286873581281"><ele>355.0</ele><time>2026-04-17T13:14:42.982Z</time></trkpt><trkpt lat="45.694417543055984" lon="8.551339170371367"><ele>355.0</ele><time>2026-04-17T13:14:43.982Z</time></trkpt><trkpt lat="45.694527932673694" lon="8.551392698577892"><ele>354.5</ele><time>2026-04-17T13:14:44.982Z</time></trkpt><trkpt lat="45.69464299280573" lon="8.551453371517596"><ele>354.0</ele><time>2026-04-17T13:14:45.982Z</time></trkpt><trkpt lat="45.6947652666566" lon="8.551518811212121"><ele>353.5</ele><time>2026-04-17T13:14:46.982Z</time></trkpt><trkpt lat="45.69488087596781" lon="8.551581634640511"><ele>353.0</ele><time>2026-04-17T13:14:47.982Z</time></trkpt><trkpt lat="45.69499757799673" lon="8.55164335625739"><ele>353.0</ele><time>2026-04-17T13:14:48.982Z</time></trkpt><trkpt lat="45.695117915873645" lon="8.551709050887215"><ele>353.0</ele><time>2026-04-17T13:14:49.982Z</time></trkpt><trkpt lat="45.69524029399155" lon="8.551778654204153"><ele>353.0</ele><time>2026-04-17T13:14:50.982Z</time></trkpt><trkpt lat="45.69536446693399" lon="8.551848096457128"><ele>353.0</ele><time>2026-04-17T13:14:51.982Z</time></trkpt><trkpt lat="45.695487311790664" lon="8.55191713221089"><ele>353.0</ele><time>2026-04-17T13:14:52.982Z</time></trkpt><trkpt lat="45.695608414719686" lon="8.551987037066638"><ele>353.0</ele><time>2026-04-17T13:14:53.982Z</time></trkpt><trkpt lat="45.69572689617209" lon="8.552051607104492"><ele>353.0</ele><time>2026-04-17T13:14:54.982Z</time></trkpt><trkpt lat="45.69584032749328" lon="8.552111424025771"><ele>353.0</ele><time>2026-04-17T13:14:55.982Z</time></trkpt><trkpt lat="45.69594316005897" lon="8.55216823904255"><ele>353.0</ele><time>2026-04-17T13:14:56.982Z</time></trkpt><trkpt lat="45.69604021434736" lon="8.55222061844123"><ele>353.0</ele><time>2026-04-17T13:14:57.982Z</time></trkpt><trkpt lat="45.69612813344036" lon="8.552266424628499"><ele>353.0</ele><time>2026-04-17T13:14:58.982Z</time></trkpt><trkpt lat="45.69619522457377" lon="8.552303234244707"><ele>353.0</ele><time>2026-04-17T13:14:59.982Z</time></trkpt><trkpt lat="45.696280515704466" lon="8.552359458252441"><ele>353.0</ele><time>2026-04-17T13:15:01.982Z</time></trkpt><trkpt lat="45.696337943075484" lon="8.552410501652227"><ele>353.0</ele><time>2026-04-17T13:15:03.982Z</time></trkpt><trkpt lat="45.69640290559575" lon="8.552466066814754"><ele>353.4</ele><time>2026-04-17T13:15:05.982Z</time></trkpt><trkpt lat="45.69649537670978" lon="8.552489700858779"><ele>353.79999999999995</ele><time>2026-04-17T13:15:07.982Z</time></trkpt><trkpt lat="45.69661831493735" lon="8.552457731054517"><ele>354.2</ele><time>2026-04-17T13:15:09.982Z</time></trkpt><trkpt lat="45.69669881453105" lon="8.55244247701312"><ele>354.6</ele><time>2026-04-17T13:15:10.982Z</time></trkpt><trkpt lat="45.69677859509874" lon="8.552427236573948"><ele>355.0</ele><time>2026-04-17T13:15:11.982Z</time></trkpt><trkpt lat="45.696869726538885" lon="8.552405587571483"><ele>356.2</ele><time>2026-04-17T13:15:12.982Z</time></trkpt><trkpt lat="45.69697005153252" lon="8.552382343392335"><ele>357.4</ele><time>2026-04-17T13:15:13.982Z</time></trkpt><trkpt lat="45.69707449710679" lon="8.55235617424578"><ele>358.6</ele><time>2026-04-17T13:15:14.982Z</time></trkpt><trkpt lat="45.69717208677794" lon="8.552336384211715"><ele>359.8</ele><time>2026-04-17T13:15:15.982Z</time></trkpt><trkpt lat="45.69727479210592" lon="8.552324003952766"><ele>361.0</ele><time>2026-04-17T13:15:16.982Z</time></trkpt><trkpt lat="45.69738403930848" lon="8.552318384713285"><ele>361.0</ele><time>2026-04-17T13:15:17.982Z</time></trkpt><trkpt lat="45.69749582294913" lon="8.5523210427072"><ele>361.0</ele><time>2026-04-17T13:15:18.982Z</time></trkpt><trkpt lat="45.69761144524725" lon="8.552331367331789"><ele>361.0</ele><time>2026-04-17T13:15:19.982Z</time></trkpt><trkpt lat="45.69773023359191" lon="8.552337947210601"><ele>361.0</ele><time>2026-04-17T13:15:20.982Z</time></trkpt><trkpt lat="45.69784735200923" lon="8.552347160262281"><ele>362.25</ele><time>2026-04-17T13:15:21.982Z</time></trkpt><trkpt lat="45.69797031865754" lon="8.55236700075207"><ele>363.5</ele><time>2026-04-17T13:15:22.982Z</time></trkpt><trkpt lat="45.69809411377832" lon="8.5523865107287"><ele>364.75</ele><time>2026-04-17T13:15:23.982Z</time></trkpt><trkpt lat="45.698220432433395" lon="8.552408731448303"><ele>366.0</ele><time>2026-04-17T13:15:24.982Z</time></trkpt><trkpt lat="45.6983429641495" lon="8.55242492576042"><ele>366.0</ele><time>2026-04-17T13:15:25.982Z</time></trkpt><trkpt lat="45.6984736732305" lon="8.552438418629118"><ele>366.0</ele><time>2026-04-17T13:15:26.982Z</time></trkpt><trkpt lat="45.69860153356588" lon="8.552477470656132"><ele>366.0</ele><time>2026-04-17T13:15:27.982Z</time></trkpt><trkpt lat="45.698736075414615" lon="8.55252742959563"><ele>366.0</ele><time>2026-04-17T13:15:28.982Z</time></trkpt><trkpt lat="45.698864265029634" lon="8.552612545565749"><ele>367.0</ele><time>2026-04-17T13:15:29.982Z</time></trkpt><trkpt lat="45.69898619680936" lon="8.55270427523503"><ele>368.0</ele><time>2026-04-17T13:15:30.982Z</time></trkpt><trkpt lat="45.69910976919607" lon="8.552782583488849"><ele>369.0</ele><time>2026-04-17T13:15:31.982Z</time></trkpt><trkpt lat="45.69923678409817" lon="8.552843521482659"><ele>370.0</ele><time>2026-04-17T13:15:32.982Z</time></trkpt><trkpt lat="45.69937393376892" lon="8.552871107492747"><ele>368.3333333333333</ele><time>2026-04-17T13:15:33.983Z</time></trkpt><trkpt lat="45.69951704607801" lon="8.552875751249083"><ele>366.6666666666667</ele><time>2026-04-17T13:15:34.983Z</time></trkpt><trkpt lat="45.69967388279608" lon="8.552843798612095"><ele>365.0</ele><time>2026-04-17T13:15:35.983Z</time></trkpt><trkpt lat="45.69983136043657" lon="8.552810879649737"><ele>365.0</ele><time>2026-04-17T13:15:36.983Z</time></trkpt><trkpt lat="45.69999545817365" lon="8.55278198122763"><ele>365.0</ele><time>2026-04-17T13:15:37.983Z</time></trkpt><trkpt lat="45.70016229860323" lon="8.552752449900547"><ele>365.0</ele><time>2026-04-17T13:15:38.983Z</time></trkpt><trkpt lat="45.70032355911863" lon="8.552722612292447"><ele>365.25</ele><time>2026-04-17T13:15:39.979Z</time></trkpt><trkpt lat="45.700472796796134" lon="8.552693953567683"><ele>365.5</ele><time>2026-04-17T13:15:40.979Z</time></trkpt><trkpt lat="45.70061464751041" lon="8.552677618347102"><ele>365.75</ele><time>2026-04-17T13:15:41.979Z</time></trkpt><trkpt lat="45.70075293441829" lon="8.552686012865099"><ele>366.0</ele><time>2026-04-17T13:15:42.98Z</time></trkpt><trkpt lat="45.70090183892471" lon="8.55273352362987"><ele>366.0</ele><time>2026-04-17T13:15:43.98Z</time></trkpt><trkpt lat="45.701051730819536" lon="8.552792566793373"><ele>366.0</ele><time>2026-04-17T13:15:44.98Z</time></trkpt><trkpt lat="45.70119943450894" lon="8.552864859980842"><ele>366.0</ele><time>2026-04-17T13:15:45.98Z</time></trkpt><trkpt lat="45.70134532827919" lon="8.55294654643017"><ele>367.6666666666667</ele><time>2026-04-17T13:15:46.979Z</time></trkpt><trkpt lat="45.70149345150105" lon="8.55303319257036"><ele>369.33333333333337</ele><time>2026-04-17T13:15:47.979Z</time></trkpt><trkpt lat="45.70164307148931" lon="8.553115522926277"><ele>371.0</ele><time>2026-04-17T13:15:48.979Z</time></trkpt><trkpt lat="45.70179625538099" lon="8.553196102827892"><ele>372.33333333333337</ele><time>2026-04-17T13:15:49.979Z</time></trkpt><trkpt lat="45.701950039386745" lon="8.553272203082797"><ele>373.6666666666667</ele><time>2026-04-17T13:15:50.979Z</time></trkpt><trkpt lat="45.7021018623048" lon="8.55335497481682"><ele>375.0</ele><time>2026-04-17T13:15:51.98Z</time></trkpt><trkpt lat="45.702252971454236" lon="8.553438338308593"><ele>375.0</ele><time>2026-04-17T13:15:52.979Z</time></trkpt><trkpt lat="45.702402758415275" lon="8.553524785113993"><ele>375.0</ele><time>2026-04-17T13:15:53.979Z</time></trkpt><trkpt lat="45.702548183638335" lon="8.553613639221862"><ele>375.0</ele><time>2026-04-17T13:15:54.979Z</time></trkpt><trkpt lat="45.70269298203293" lon="8.553697333526287"><ele>373.25</ele><time>2026-04-17T13:15:55.979Z</time></trkpt><trkpt lat="45.70283117458767" lon="8.553780956037315"><ele>371.5</ele><time>2026-04-17T13:15:56.979Z</time></trkpt><trkpt lat="45.70296694047475" lon="8.553869873531973"><ele>369.75</ele><time>2026-04-17T13:15:57.979Z</time></trkpt><trkpt lat="45.703102470553766" lon="8.553960218192078"><ele>368.0</ele><time>2026-04-17T13:15:58.979Z</time></trkpt><trkpt lat="45.7032431189711" lon="8.554058235417399"><ele>368.0</ele><time>2026-04-17T13:15:59.979Z</time></trkpt><trkpt lat="45.70338792806924" lon="8.554163650948922"><ele>368.0</ele><time>2026-04-17T13:16:00.979Z</time></trkpt><trkpt lat="45.703533691776" lon="8.554266811937842"><ele>368.0</ele><time>2026-04-17T13:16:01.979Z</time></trkpt><trkpt lat="45.70367754279793" lon="8.554376004775206"><ele>366.6666666666667</ele><time>2026-04-17T13:16:02.979Z</time></trkpt><trkpt lat="45.70382115710521" lon="8.554481685416746"><ele>365.3333333333333</ele><time>2026-04-17T13:16:03.979Z</time></trkpt><trkpt lat="45.703973682291966" lon="8.554578325937308"><ele>364.0</ele><time>2026-04-17T13:16:04.979Z</time></trkpt><trkpt lat="45.70412209353605" lon="8.554673620730886"><ele>364.0</ele><time>2026-04-17T13:16:05.979Z</time></trkpt><trkpt lat="45.70426617803034" lon="8.554768154684867"><ele>364.0</ele><time>2026-04-17T13:16:06.979Z</time></trkpt><trkpt lat="45.70440756555741" lon="8.554866798915265"><ele>364.0</ele><time>2026-04-17T13:16:07.979Z</time></trkpt><trkpt lat="45.704548067829876" lon="8.554964751393854"><ele>363.66666666666663</ele><time>2026-04-17T13:16:08.98Z</time></trkpt><trkpt lat="45.70468468013883" lon="8.555066285101288"><ele>363.3333333333333</ele><time>2026-04-17T13:16:09.98Z</time></trkpt><trkpt lat="45.70482360523974" lon="8.555163228572539"><ele>363.0</ele><time>2026-04-17T13:16:10.98Z</time></trkpt><trkpt lat="45.70496898271059" lon="8.555258371515224"><ele>363.0</ele><time>2026-04-17T13:16:11.98Z</time></trkpt><trkpt lat="45.70511844677067" lon="8.555360238968497"><ele>363.0</ele><time>2026-04-17T13:16:12.98Z</time></trkpt><trkpt lat="45.70526869081703" lon="8.555455932483888"><ele>363.0</ele><time>2026-04-17T13:16:13.98Z</time></trkpt><trkpt lat="45.705423496865386" lon="8.555551086218086"><ele>358.6666666666667</ele><time>2026-04-17T13:16:14.98Z</time></trkpt><trkpt lat="45.70557526499169" lon="8.555652561290758"><ele>354.33333333333337</ele><time>2026-04-17T13:16:15.98Z</time></trkpt><trkpt lat="45.7057230101303" lon="8.555760937232835"><ele>350.0</ele><time>2026-04-17T13:16:16.98Z</time></trkpt><trkpt lat="45.70587063512248" lon="8.555864239200547"><ele>350.0</ele><time>2026-04-17T13:16:17.98Z</time></trkpt><trkpt lat="45.7060195789524" lon="8.555956752219783"><ele>350.0</ele><time>2026-04-17T13:16:18.98Z</time></trkpt><trkpt lat="45.70616926355891" lon="8.55605449065167"><ele>350.0</ele><time>2026-04-17T13:16:19.98Z</time></trkpt><trkpt lat="45.706310690733" lon="8.55614563525344"><ele>347.0</ele><time>2026-04-17T13:16:20.98Z</time></trkpt><trkpt lat="45.70645312343539" lon="8.556244232378479"><ele>344.0</ele><time>2026-04-17T13:16:21.98Z</time></trkpt><trkpt lat="45.70659476973119" lon="8.556355893230057"><ele>341.0</ele><time>2026-04-17T13:16:22.98Z</time></trkpt><trkpt lat="45.7067289645876" lon="8.55646378621893"><ele>341.0</ele><time>2026-04-17T13:16:23.98Z</time></trkpt><trkpt lat="45.70685356239476" lon="8.556567329216778"><ele>341.0</ele><time>2026-04-17T13:16:24.98Z</time></trkpt><trkpt lat="45.7069793297978" lon="8.556660767084917"><ele>341.0</ele><time>2026-04-17T13:16:25.98Z</time></trkpt><trkpt lat="45.707109553434286" lon="8.556756187493043"><ele>341.0</ele><time>2026-04-17T13:16:26.98Z</time></trkpt><trkpt lat="45.70723987134678" lon="8.556847961320528"><ele>338.5</ele><time>2026-04-17T13:16:27.98Z</time></trkpt><trkpt lat="45.70736071068788" lon="8.556951253529407"><ele>336.0</ele><time>2026-04-17T13:16:28.98Z</time></trkpt><trkpt lat="45.70746896483868" lon="8.557071050400017"><ele>333.5</ele><time>2026-04-17T13:16:29.98Z</time></trkpt><trkpt lat="45.70755572428459" lon="8.557211986301064"><ele>331.0</ele><time>2026-04-17T13:16:30.98Z</time></trkpt><trkpt lat="45.707621320854464" lon="8.557380892522241"><ele>330.75</ele><time>2026-04-17T13:16:31.98Z</time></trkpt><trkpt lat="45.70766293783427" lon="8.55756078123047"><ele>330.5</ele><time>2026-04-17T13:16:32.98Z</time></trkpt><trkpt lat="45.7076807850859" lon="8.55774921020958"><ele>330.25</ele><time>2026-04-17T13:16:33.98Z</time></trkpt><trkpt lat="45.70769739528411" lon="8.55793958719848"><ele>330.0</ele><time>2026-04-17T13:16:34.98Z</time></trkpt><trkpt lat="45.70771563964088" lon="8.55813376487894"><ele>329.25</ele><time>2026-04-17T13:16:35.98Z</time></trkpt><trkpt lat="45.707729627314116" lon="8.558330087937922"><ele>328.5</ele><time>2026-04-17T13:16:36.98Z</time></trkpt><trkpt lat="45.70774646300086" lon="8.558525017288055"><ele>327.75</ele><time>2026-04-17T13:16:37.98Z</time></trkpt><trkpt lat="45.70776853740299" lon="8.558721389188372"><ele>327.0</ele><time>2026-04-17T13:16:38.98Z</time></trkpt><trkpt lat="45.70778438360548" lon="8.558919638552242"><ele>322.75</ele><time>2026-04-17T13:16:39.98Z</time></trkpt><trkpt lat="45.70779679599782" lon="8.559119690847707"><ele>318.5</ele><time>2026-04-17T13:16:40.98Z</time></trkpt><trkpt lat="45.707807246333005" lon="8.559314688572558"><ele>314.25</ele><time>2026-04-17T13:16:41.98Z</time></trkpt><trkpt lat="45.70781616433764" lon="8.55949643795042"><ele>310.0</ele><time>2026-04-17T13:16:42.98Z</time></trkpt><trkpt lat="45.70782608588749" lon="8.559674258194166"><ele>309.0</ele><time>2026-04-17T13:16:43.98Z</time></trkpt><trkpt lat="45.707849665251366" lon="8.559844041103442"><ele>308.0</ele><time>2026-04-17T13:16:44.98Z</time></trkpt><trkpt lat="45.70788677494183" lon="8.560007094506561"><ele>307.0</ele><time>2026-04-17T13:16:45.98Z</time></trkpt><trkpt lat="45.7079481070461" lon="8.560157315718978"><ele>306.0</ele><time>2026-04-17T13:16:46.98Z</time></trkpt><trkpt lat="45.708035056651006" lon="8.5602900733914"><ele>305.5</ele><time>2026-04-17T13:16:47.98Z</time></trkpt><trkpt lat="45.70813170796897" lon="8.560392548948377"><ele>305.0</ele><time>2026-04-17T13:16:48.98Z</time></trkpt><trkpt lat="45.708250989165016" lon="8.560452858886201"><ele>304.5</ele><time>2026-04-17T13:16:49.98Z</time></trkpt><trkpt lat="45.70838899436053" lon="8.560496144154628"><ele>304.0</ele><time>2026-04-17T13:16:50.98Z</time></trkpt><trkpt lat="45.708512566032766" lon="8.560554842410827"><ele>303.75</ele><time>2026-04-17T13:16:51.98Z</time></trkpt><trkpt lat="45.70863846518103" lon="8.560619184403942"><ele>303.5</ele><time>2026-04-17T13:16:52.98Z</time></trkpt><trkpt lat="45.70876559448999" lon="8.560682206664"><ele>303.25</ele><time>2026-04-17T13:16:53.98Z</time></trkpt><trkpt lat="45.708890236588786" lon="8.56074068629294"><ele>303.0</ele><time>2026-04-17T13:16:54.98Z</time></trkpt><trkpt lat="45.70901522793327" lon="8.560782753752468"><ele>303.0</ele><time>2026-04-17T13:16:55.98Z</time></trkpt><trkpt lat="45.709160658424906" lon="8.560758988133818"><ele>303.0</ele><time>2026-04-17T13:16:56.98Z</time></trkpt><trkpt lat="45.70930562826908" lon="8.560710343791653"><ele>303.0</ele><time>2026-04-17T13:16:57.98Z</time></trkpt><trkpt lat="45.70943214988966" lon="8.56063080943718"><ele>303.0</ele><time>2026-04-17T13:16:58.98Z</time></trkpt><trkpt lat="45.70953763342558" lon="8.560545614935224"><ele>302.5</ele><time>2026-04-17T13:16:59.98Z</time></trkpt><trkpt lat="45.70964150885841" lon="8.56046046614824"><ele>302.0</ele><time>2026-04-17T13:17:00.98Z</time></trkpt><trkpt lat="45.70974496202572" lon="8.560367403152837"><ele>301.5</ele><time>2026-04-17T13:17:01.98Z</time></trkpt><trkpt lat="45.70985379567051" lon="8.560272774127673"><ele>301.0</ele><time>2026-04-17T13:17:02.981Z</time></trkpt><trkpt lat="45.70996655306329" lon="8.560176481481633"><ele>300.75</ele><time>2026-04-17T13:17:03.981Z</time></trkpt><trkpt lat="45.71008341100125" lon="8.560073105881896"><ele>300.5</ele><time>2026-04-17T13:17:04.981Z</time></trkpt><trkpt lat="45.710202933557696" lon="8.559975312239198"><ele>300.25</ele><time>2026-04-17T13:17:05.981Z</time></trkpt><trkpt lat="45.71031720909299" lon="8.559882025387607"><ele>300.0</ele><time>2026-04-17T13:17:06.981Z</time></trkpt><trkpt lat="45.71042946032021" lon="8.559793148542072"><ele>299.0</ele><time>2026-04-17T13:17:07.981Z</time></trkpt><trkpt lat="45.71053360056061" lon="8.559702784006204"><ele>298.0</ele><time>2026-04-17T13:17:08.981Z</time></trkpt><trkpt lat="45.71062963972529" lon="8.559632553448898"><ele>297.0</ele><time>2026-04-17T13:17:09.981Z</time></trkpt><trkpt lat="45.71072078023251" lon="8.559578684787246"><ele>296.0</ele><time>2026-04-17T13:17:10.981Z</time></trkpt><trkpt lat="45.71082178349271" lon="8.559547134423685"><ele>295.0</ele><time>2026-04-17T13:17:11.981Z</time></trkpt><trkpt lat="45.71092030839339" lon="8.559541638884658"><ele>295.0</ele><time>2026-04-17T13:17:12.981Z</time></trkpt><trkpt lat="45.71101209697789" lon="8.559547820890227"><ele>295.0</ele><time>2026-04-17T13:17:13.981Z</time></trkpt><trkpt lat="45.71109403535986" lon="8.55955563689462"><ele>295.0</ele><time>2026-04-17T13:17:14.981Z</time></trkpt><trkpt lat="45.711171816345725" lon="8.559565881805826"><ele>295.0</ele><time>2026-04-17T13:17:15.981Z</time></trkpt><trkpt lat="45.71124425775199" lon="8.559577061764552"><ele>295.0</ele><time>2026-04-17T13:17:16.981Z</time></trkpt><trkpt lat="45.71130060417491" lon="8.559618943200963"><ele>295.0</ele><time>2026-04-17T13:17:17.981Z</time></trkpt><trkpt lat="45.71136876443852" lon="8.55972266897848"><ele>294.16666666666663</ele><time>2026-04-17T13:17:19.981Z</time></trkpt><trkpt lat="45.71140718751825" lon="8.559817155863755"><ele>293.3333333333333</ele><time>2026-04-17T13:17:21.981Z</time></trkpt><trkpt lat="45.71142330095425" lon="8.55990580565185"><ele>292.5</ele><time>2026-04-17T13:17:23.981Z</time></trkpt><trkpt lat="45.71141801224886" lon="8.560014522347888"><ele>291.6666666666667</ele><time>2026-04-17T13:17:25.981Z</time></trkpt><trkpt lat="45.71137674429421" lon="8.560197334926205"><ele>290.83333333333337</ele><time>2026-04-17T13:17:27.981Z</time></trkpt><trkpt lat="45.7113451288352" lon="8.56029512786799"><ele>290.0</ele><time>2026-04-17T13:17:28.981Z</time></trkpt><trkpt lat="45.71130244478249" lon="8.560398370987736"><ele>290.2</ele><time>2026-04-17T13:17:29.981Z</time></trkpt><trkpt lat="45.711252161285636" lon="8.560507733339895"><ele>290.4</ele><time>2026-04-17T13:17:30.981Z</time></trkpt><trkpt lat="45.71119034731222" lon="8.560617415214006"><ele>290.6</ele><time>2026-04-17T13:17:31.981Z</time></trkpt><trkpt lat="45.71112257381181" lon="8.560714789841674"><ele>290.8</ele><time>2026-04-17T13:17:32.981Z</time></trkpt><trkpt lat="45.71104102757452" lon="8.56080768301213"><ele>291.0</ele><time>2026-04-17T13:17:33.981Z</time></trkpt><trkpt lat="45.710958507699225" lon="8.560907491979906"><ele>291.0</ele><time>2026-04-17T13:17:34.981Z</time></trkpt><trkpt lat="45.71087258014554" lon="8.56100966729428"><ele>291.0</ele><time>2026-04-17T13:17:35.981Z</time></trkpt><trkpt lat="45.71078404480119" lon="8.561110357248241"><ele>291.0</ele><time>2026-04-17T13:17:36.981Z</time></trkpt><trkpt lat="45.71069826956615" lon="8.561212376609797"><ele>291.0</ele><time>2026-04-17T13:17:37.981Z</time></trkpt><trkpt lat="45.71061275492431" lon="8.56130637928246"><ele>291.0</ele><time>2026-04-17T13:17:38.981Z</time></trkpt><trkpt lat="45.71053015393487" lon="8.561401644905326"><ele>292.0</ele><time>2026-04-17T13:17:39.981Z</time></trkpt><trkpt lat="45.71044862558006" lon="8.561500048968558"><ele>293.0</ele><time>2026-04-17T13:17:40.981Z</time></trkpt><trkpt lat="45.71037024610882" lon="8.561605056849393"><ele>294.0</ele><time>2026-04-17T13:17:41.981Z</time></trkpt><trkpt lat="45.710300633085446" lon="8.561719253200007"><ele>295.0</ele><time>2026-04-17T13:17:42.981Z</time></trkpt><trkpt lat="45.71024092613946" lon="8.561836928744738"><ele>296.0</ele><time>2026-04-17T13:17:43.981Z</time></trkpt><trkpt lat="45.71019615811424" lon="8.561962582687618"><ele>293.40000000000003</ele><time>2026-04-17T13:17:44.981Z</time></trkpt><trkpt lat="45.71015875150679" lon="8.562092737207186"><ele>290.8</ele><time>2026-04-17T13:17:45.979Z</time></trkpt><trkpt lat="45.710129157929195" lon="8.562228961877024"><ele>288.20000000000005</ele><time>2026-04-17T13:17:46.979Z</time></trkpt><trkpt lat="45.71009428615197" lon="8.562354157553168"><ele>285.6</ele><time>2026-04-17T13:17:47.979Z</time></trkpt><trkpt lat="45.71006580204925" lon="8.562476314632997"><ele>283.0</ele><time>2026-04-17T13:17:48.979Z</time></trkpt><trkpt lat="45.71003699706687" lon="8.5625921204794"><ele>283.0</ele><time>2026-04-17T13:17:49.979Z</time></trkpt><trkpt lat="45.710013602192724" lon="8.562715294557057"><ele>283.0</ele><time>2026-04-17T13:17:50.979Z</time></trkpt><trkpt lat="45.70999132694995" lon="8.562855456451372"><ele>283.0</ele><time>2026-04-17T13:17:51.978Z</time></trkpt><trkpt lat="45.709965754557196" lon="8.563009884039827"><ele>283.0</ele><time>2026-04-17T13:17:52.979Z</time></trkpt><trkpt lat="45.70992897939453" lon="8.563177688743982"><ele>283.0</ele><time>2026-04-17T13:17:53.979Z</time></trkpt><trkpt lat="45.7098922905174" lon="8.563346675150635"><ele>280.0</ele><time>2026-04-17T13:17:54.979Z</time></trkpt><trkpt lat="45.70985214855684" lon="8.563521526959224"><ele>277.0</ele><time>2026-04-17T13:17:55.979Z</time></trkpt><trkpt lat="45.70980951403179" lon="8.563711223198087"><ele>274.0</ele><time>2026-04-17T13:17:56.979Z</time></trkpt><trkpt lat="45.70977086235953" lon="8.563910350640642"><ele>271.0</ele><time>2026-04-17T13:17:57.979Z</time></trkpt><trkpt lat="45.70973073721154" lon="8.564109624496245"><ele>269.66666666666663</ele><time>2026-04-17T13:17:58.979Z</time></trkpt><trkpt lat="45.70968933412041" lon="8.564314875245563"><ele>268.3333333333333</ele><time>2026-04-17T13:17:59.979Z</time></trkpt><trkpt lat="45.70964867536414" lon="8.564524889613855"><ele>267.0</ele><time>2026-04-17T13:18:00.979Z</time></trkpt><trkpt lat="45.70960671641311" lon="8.564737570128056"><ele>266.3333333333333</ele><time>2026-04-17T13:18:01.979Z</time></trkpt><trkpt lat="45.70956786793553" lon="8.564953544418666"><ele>265.66666666666663</ele><time>2026-04-17T13:18:02.979Z</time></trkpt><trkpt lat="45.70952006310859" lon="8.565173619799868"><ele>265.0</ele><time>2026-04-17T13:18:03.979Z</time></trkpt><trkpt lat="45.70947441277353" lon="8.565396552977738"><ele>264.66666666666663</ele><time>2026-04-17T13:18:04.979Z</time></trkpt><trkpt lat="45.70942543642969" lon="8.565619201135483"><ele>264.3333333333333</ele><time>2026-04-17T13:18:05.979Z</time></trkpt><trkpt lat="45.709373014873776" lon="8.565843362873624"><ele>264.0</ele><time>2026-04-17T13:18:06.979Z</time></trkpt><trkpt lat="45.7093225509795" lon="8.566071208759512"><ele>262.6666666666667</ele><time>2026-04-17T13:18:07.979Z</time></trkpt><trkpt lat="45.70927163769988" lon="8.566304990509467"><ele>261.33333333333337</ele><time>2026-04-17T13:18:08.979Z</time></trkpt><trkpt lat="45.70922289158784" lon="8.56653957486305"><ele>260.0</ele><time>2026-04-17T13:18:09.979Z</time></trkpt><trkpt lat="45.709173854036834" lon="8.566775537199543"><ele>260.0</ele><time>2026-04-17T13:18:10.979Z</time></trkpt><trkpt lat="45.70912576655395" lon="8.56701431877546"><ele>260.0</ele><time>2026-04-17T13:18:11.979Z</time></trkpt><trkpt lat="45.70908186896969" lon="8.567258414122728"><ele>260.0</ele><time>2026-04-17T13:18:12.979Z</time></trkpt><trkpt lat="45.70903093588972" lon="8.567497581866416"><ele>260.0</ele><time>2026-04-17T13:18:13.979Z</time></trkpt><trkpt lat="45.708977664819166" lon="8.567734312576745"><ele>260.0</ele><time>2026-04-17T13:18:14.979Z</time></trkpt><trkpt lat="45.70891877587133" lon="8.56796617952183"><ele>260.0</ele><time>2026-04-17T13:18:15.979Z</time></trkpt><trkpt lat="45.70885758961545" lon="8.56819790380664"><ele>259.0</ele><time>2026-04-17T13:18:16.979Z</time></trkpt><trkpt lat="45.70878471702485" lon="8.568421842938518"><ele>258.0</ele><time>2026-04-17T13:18:17.979Z</time></trkpt><trkpt lat="45.708698129284265" lon="8.568638942653328"><ele>257.0</ele><time>2026-04-17T13:18:18.979Z</time></trkpt><trkpt lat="45.70860977147887" lon="8.568855780225505"><ele>256.6666666666667</ele><time>2026-04-17T13:18:19.98Z</time></trkpt><trkpt lat="45.70851232152379" lon="8.569065279615332"><ele>256.3333333333333</ele><time>2026-04-17T13:18:20.98Z</time></trkpt><trkpt lat="45.70840659903837" lon="8.569269520148438"><ele>256.0</ele><time>2026-04-17T13:18:21.98Z</time></trkpt><trkpt lat="45.70830143454972" lon="8.569472965123591"><ele>256.0</ele><time>2026-04-17T13:18:22.98Z</time></trkpt><trkpt lat="45.70819674951029" lon="8.569675837094897"><ele>256.0</ele><time>2026-04-17T13:18:23.98Z</time></trkpt><trkpt lat="45.708089990507155" lon="8.569878988594429"><ele>256.0</ele><time>2026-04-17T13:18:24.98Z</time></trkpt><trkpt lat="45.70798145707866" lon="8.570082229871806"><ele>256.0</ele><time>2026-04-17T13:18:25.98Z</time></trkpt><trkpt lat="45.70787491617469" lon="8.570289651253118"><ele>256.0</ele><time>2026-04-17T13:18:26.98Z</time></trkpt><trkpt lat="45.70776876052399" lon="8.570496668201363"><ele>256.0</ele><time>2026-04-17T13:18:27.98Z</time></trkpt><trkpt lat="45.70766161245777" lon="8.57070141737421"><ele>256.66666666666663</ele><time>2026-04-17T13:18:28.98Z</time></trkpt><trkpt lat="45.707552100013" lon="8.570906215040644"><ele>257.3333333333333</ele><time>2026-04-17T13:18:29.98Z</time></trkpt><trkpt lat="45.707441494154025" lon="8.571109641613841"><ele>258.0</ele><time>2026-04-17T13:18:30.98Z</time></trkpt><trkpt lat="45.70732929224782" lon="8.571309444519766"><ele>258.0</ele><time>2026-04-17T13:18:31.98Z</time></trkpt><trkpt lat="45.707218122664536" lon="8.571510466725655"><ele>258.0</ele><time>2026-04-17T13:18:32.98Z</time></trkpt><trkpt lat="45.707110296159236" lon="8.571715288693836"><ele>258.0</ele><time>2026-04-17T13:18:33.98Z</time></trkpt><trkpt lat="45.707001892710814" lon="8.571921059850489"><ele>260.0</ele><time>2026-04-17T13:18:34.98Z</time></trkpt><trkpt lat="45.70689821202908" lon="8.572129205365542"><ele>262.0</ele><time>2026-04-17T13:18:35.98Z</time></trkpt><trkpt lat="45.70680253888125" lon="8.572344311980942"><ele>264.0</ele><time>2026-04-17T13:18:36.98Z</time></trkpt><trkpt lat="45.70671871897281" lon="8.572570852115762"><ele>264.0</ele><time>2026-04-17T13:18:37.98Z</time></trkpt><trkpt lat="45.706646472527254" lon="8.57280657853411"><ele>264.0</ele><time>2026-04-17T13:18:38.98Z</time></trkpt><trkpt lat="45.70658803535634" lon="8.573050985113774"><ele>264.0</ele><time>2026-04-17T13:18:39.98Z</time></trkpt><trkpt lat="45.706540595370555" lon="8.57330200597031"><ele>261.0</ele><time>2026-04-17T13:18:40.98Z</time></trkpt><trkpt lat="45.70650358990385" lon="8.573555209656531"><ele>258.0</ele><time>2026-04-17T13:18:41.98Z</time></trkpt><trkpt lat="45.70647764033926" lon="8.573815426809801"><ele>255.0</ele><time>2026-04-17T13:18:42.98Z</time></trkpt><trkpt lat="45.706453210877356" lon="8.57407218307055"><ele>254.33333333333331</ele><time>2026-04-17T13:18:43.98Z</time></trkpt><trkpt lat="45.70643576281172" lon="8.57432940814973"><ele>253.66666666666666</ele><time>2026-04-17T13:18:44.98Z</time></trkpt><trkpt lat="45.70642698705762" lon="8.574590192280107"><ele>253.0</ele><time>2026-04-17T13:18:45.98Z</time></trkpt><trkpt lat="45.70641611752542" lon="8.574852028730032"><ele>252.66666666666666</ele><time>2026-04-17T13:18:46.98Z</time></trkpt><trkpt lat="45.706405050822326" lon="8.575116713007564"><ele>252.33333333333331</ele><time>2026-04-17T13:18:47.98Z</time></trkpt><trkpt lat="45.706391445877465" lon="8.575378245658328"><ele>252.0</ele><time>2026-04-17T13:18:48.98Z</time></trkpt><trkpt lat="45.706375617276386" lon="8.575638590953268"><ele>252.66666666666669</ele><time>2026-04-17T13:18:49.98Z</time></trkpt><trkpt lat="45.7063623107813" lon="8.575899139366243"><ele>253.33333333333334</ele><time>2026-04-17T13:18:50.98Z</time></trkpt><trkpt lat="45.70634850390683" lon="8.57616596358838"><ele>254.0</ele><time>2026-04-17T13:18:51.98Z</time></trkpt><trkpt lat="45.70633186782973" lon="8.576427913062327"><ele>254.33333333333334</ele><time>2026-04-17T13:18:52.98Z</time></trkpt><trkpt lat="45.70631703336652" lon="8.576691958206405"><ele>254.66666666666669</ele><time>2026-04-17T13:18:53.98Z</time></trkpt><trkpt lat="45.7063012855995" lon="8.576955077487227"><ele>255.0</ele><time>2026-04-17T13:18:54.98Z</time></trkpt><trkpt lat="45.70628614375608" lon="8.577217767602068"><ele>254.33333333333331</ele><time>2026-04-17T13:18:55.98Z</time></trkpt><trkpt lat="45.706271787849644" lon="8.57747900229787"><ele>253.66666666666666</ele><time>2026-04-17T13:18:56.98Z</time></trkpt><trkpt lat="45.70625967257595" lon="8.57773435041245"><ele>253.0</ele><time>2026-04-17T13:18:57.98Z</time></trkpt><trkpt lat="45.70624653281861" lon="8.577991827650315"><ele>252.0</ele><time>2026-04-17T13:18:58.98Z</time></trkpt><trkpt lat="45.706228694489546" lon="8.578248668826241"><ele>251.0</ele><time>2026-04-17T13:18:59.98Z</time></trkpt><trkpt lat="45.706210351288554" lon="8.578507994403399"><ele>250.0</ele><time>2026-04-17T13:19:00.98Z</time></trkpt><trkpt lat="45.70618021362537" lon="8.578766578341178"><ele>250.0</ele><time>2026-04-17T13:19:01.98Z</time></trkpt><trkpt lat="45.706135968588185" lon="8.57901949936751"><ele>250.0</ele><time>2026-04-17T13:19:02.98Z</time></trkpt><trkpt lat="45.70607392824303" lon="8.579272580224407"><ele>250.0</ele><time>2026-04-17T13:19:03.98Z</time></trkpt><trkpt lat="45.70599189581812" lon="8.579519104713473"><ele>250.0</ele><time>2026-04-17T13:19:04.98Z</time></trkpt><trkpt lat="45.70589430356173" lon="8.579760150843049"><ele>250.0</ele><time>2026-04-17T13:19:05.98Z</time></trkpt><trkpt lat="45.70578102122632" lon="8.579990855905105"><ele>250.0</ele><time>2026-04-17T13:19:06.98Z</time></trkpt><trkpt lat="45.70565189091484" lon="8.580198857660285"><ele>250.0</ele><time>2026-04-17T13:19:07.98Z</time></trkpt><trkpt lat="45.705514885338154" lon="8.580395468029867"><ele>250.0</ele><time>2026-04-17T13:19:08.98Z</time></trkpt><trkpt lat="45.705365415205094" lon="8.58057004740198"><ele>250.0</ele><time>2026-04-17T13:19:09.98Z</time></trkpt><trkpt lat="45.70520622303964" lon="8.580721066213302"><ele>250.0</ele><time>2026-04-17T13:19:10.98Z</time></trkpt><trkpt lat="45.70504761276225" lon="8.580863693287206"><ele>250.0</ele><time>2026-04-17T13:19:11.98Z</time></trkpt><trkpt lat="45.7048896920806" lon="8.581006295913374"><ele>250.0</ele><time>2026-04-17T13:19:12.98Z</time></trkpt><trkpt lat="45.704732248708524" lon="8.581132004989465"><ele>251.0</ele><time>2026-04-17T13:19:13.981Z</time></trkpt><trkpt lat="45.704574969170366" lon="8.581252163658975"><ele>252.0</ele><time>2026-04-17T13:19:14.981Z</time></trkpt><trkpt lat="45.7044215045104" lon="8.581371293230477"><ele>253.0</ele><time>2026-04-17T13:19:15.981Z</time></trkpt><trkpt lat="45.704272569106344" lon="8.58148945597602"><ele>253.0</ele><time>2026-04-17T13:19:16.981Z</time></trkpt><trkpt lat="45.70412739099846" lon="8.581607045501649"><ele>253.0</ele><time>2026-04-17T13:19:17.981Z</time></trkpt><trkpt lat="45.70399022527063" lon="8.581725356159726"><ele>253.0</ele><time>2026-04-17T13:19:18.981Z</time></trkpt><trkpt lat="45.70386839560942" lon="8.581857777773685"><ele>253.0</ele><time>2026-04-17T13:19:19.981Z</time></trkpt><trkpt lat="45.70375763774224" lon="8.582009075832179"><ele>253.0</ele><time>2026-04-17T13:19:20.981Z</time></trkpt><trkpt lat="45.70366949730383" lon="8.582190232957561"><ele>253.0</ele><time>2026-04-17T13:19:21.981Z</time></trkpt><trkpt lat="45.70360670743017" lon="8.582391033943868"><ele>251.66666666666666</ele><time>2026-04-17T13:19:22.981Z</time></trkpt><trkpt lat="45.70356842416946" lon="8.5826126728543"><ele>250.33333333333331</ele><time>2026-04-17T13:19:23.981Z</time></trkpt><trkpt lat="45.703544610946814" lon="8.58283551716538"><ele>249.0</ele><time>2026-04-17T13:19:24.981Z</time></trkpt><trkpt lat="45.703526524346906" lon="8.583067958993718"><ele>249.0</ele><time>2026-04-17T13:19:25.981Z</time></trkpt><trkpt lat="45.703504751031836" lon="8.583297321891132"><ele>249.0</ele><time>2026-04-17T13:19:26.981Z</time></trkpt><trkpt lat="45.70348348874436" lon="8.583534529822774"><ele>249.0</ele><time>2026-04-17T13:19:27.981Z</time></trkpt><trkpt lat="45.703471805522476" lon="8.583773521603373"><ele>249.0</ele><time>2026-04-17T13:19:28.981Z</time></trkpt><trkpt lat="45.703479801261466" lon="8.584017437540188"><ele>249.0</ele><time>2026-04-17T13:19:29.981Z</time></trkpt><trkpt lat="45.70350606906436" lon="8.584263080794582"><ele>249.0</ele><time>2026-04-17T13:19:30.981Z</time></trkpt><trkpt lat="45.70355099957667" lon="8.58450999612219"><ele>250.0</ele><time>2026-04-17T13:19:31.981Z</time></trkpt><trkpt lat="45.70361036718877" lon="8.58475529837396"><ele>251.0</ele><time>2026-04-17T13:19:32.981Z</time></trkpt><trkpt lat="45.70368999631751" lon="8.584997611150438"><ele>252.0</ele><time>2026-04-17T13:19:33.981Z</time></trkpt><trkpt lat="45.703787957374516" lon="8.585234583336437"><ele>250.33333333333331</ele><time>2026-04-17T13:19:34.981Z</time></trkpt><trkpt lat="45.70388746456927" lon="8.585461893648246"><ele>248.66666666666666</ele><time>2026-04-17T13:19:35.981Z</time></trkpt><trkpt lat="45.703977969067765" lon="8.585679369426211"><ele>247.0</ele><time>2026-04-17T13:19:36.981Z</time></trkpt><trkpt lat="45.70407195140763" lon="8.585893610252242"><ele>247.0</ele><time>2026-04-17T13:19:37.981Z</time></trkpt><trkpt lat="45.70417384731611" lon="8.586096562381464"><ele>247.0</ele><time>2026-04-17T13:19:38.981Z</time></trkpt><trkpt lat="45.704284750326885" lon="8.586286984810991"><ele>247.0</ele><time>2026-04-17T13:19:39.981Z</time></trkpt><trkpt lat="45.704402311736914" lon="8.586456536890424"><ele>242.66666666666666</ele><time>2026-04-17T13:19:40.981Z</time></trkpt><trkpt lat="45.704540600941485" lon="8.586564122540825"><ele>238.33333333333331</ele><time>2026-04-17T13:19:41.981Z</time></trkpt><trkpt lat="45.70469028124071" lon="8.586638524577952"><ele>234.0</ele><time>2026-04-17T13:19:42.981Z</time></trkpt><trkpt lat="45.704843185486496" lon="8.586677678186241"><ele>234.0</ele><time>2026-04-17T13:19:43.981Z</time></trkpt><trkpt lat="45.70500486290027" lon="8.586689329336089"><ele>234.0</ele><time>2026-04-17T13:19:44.981Z</time></trkpt><trkpt lat="45.70517441787721" lon="8.58669040630831"><ele>234.0</ele><time>2026-04-17T13:19:45.981Z</time></trkpt><trkpt lat="45.705329269056726" lon="8.58671027132786"><ele>235.66666666666669</ele><time>2026-04-17T13:19:46.981Z</time></trkpt><trkpt lat="45.70548695797788" lon="8.586724635773828"><ele>237.33333333333334</ele><time>2026-04-17T13:19:47.981Z</time></trkpt><trkpt lat="45.705640813970184" lon="8.586740899138832"><ele>239.0</ele><time>2026-04-17T13:19:48.981Z</time></trkpt><trkpt lat="45.705790595646974" lon="8.586749664359354"><ele>239.0</ele><time>2026-04-17T13:19:49.981Z</time></trkpt><trkpt lat="45.705939179541076" lon="8.586766014822556"><ele>239.0</ele><time>2026-04-17T13:19:50.981Z</time></trkpt><trkpt lat="45.706077818089426" lon="8.58678737862712"><ele>239.0</ele><time>2026-04-17T13:19:51.978Z</time></trkpt><trkpt lat="45.706200849023084" lon="8.586823983828175"><ele>239.0</ele><time>2026-04-17T13:19:52.978Z</time></trkpt><trkpt lat="45.706303612419106" lon="8.586885078398256"><ele>240.0</ele><time>2026-04-17T13:19:53.978Z</time></trkpt><trkpt lat="45.706391882067024" lon="8.58696873508813"><ele>240.99999999999997</ele><time>2026-04-17T13:19:54.978Z</time></trkpt><trkpt lat="45.70646198699047" lon="8.587069243335742"><ele>241.99999999999997</ele><time>2026-04-17T13:19:55.978Z</time></trkpt><trkpt lat="45.706517546841724" lon="8.587158059017094"><ele>243.0</ele><time>2026-04-17T13:19:56.978Z</time></trkpt><trkpt lat="45.70657606331415" lon="8.587211049798553"><ele>244.0</ele><time>2026-04-17T13:19:57.978Z</time></trkpt><trkpt lat="45.70666734603395" lon="8.587322084628438"><ele>242.25</ele><time>2026-04-17T13:19:59.978Z</time></trkpt><trkpt lat="45.70673277812615" lon="8.587406346922482"><ele>240.5</ele><time>2026-04-17T13:20:01.978Z</time></trkpt><trkpt lat="45.706845762390756" lon="8.587489977680026"><ele>238.75</ele><time>2026-04-17T13:20:03.978Z</time></trkpt><trkpt lat="45.706948042836224" lon="8.587528789408648"><ele>237.0</ele><time>2026-04-17T13:20:04.977Z</time></trkpt><trkpt lat="45.70707717157927" lon="8.58756148656294"><ele>237.0</ele><time>2026-04-17T13:20:05.977Z</time></trkpt><trkpt lat="45.70722711208973" lon="8.587603126164582"><ele>237.0</ele><time>2026-04-17T13:20:06.977Z</time></trkpt><trkpt lat="45.707377706384484" lon="8.587661020691803"><ele>237.0</ele><time>2026-04-17T13:20:07.978Z</time></trkpt><trkpt lat="45.70753684594546" lon="8.587731700589712"><ele>237.0</ele><time>2026-04-17T13:20:08.978Z</time></trkpt><trkpt lat="45.707700877085294" lon="8.587830295811484"><ele>237.0</ele><time>2026-04-17T13:20:09.978Z</time></trkpt><trkpt lat="45.70787182633019" lon="8.587969449198345"><ele>237.0</ele><time>2026-04-17T13:20:10.978Z</time></trkpt><trkpt lat="45.70803321740441" lon="8.588125742236768"><ele>235.0</ele><time>2026-04-17T13:20:11.978Z</time></trkpt><trkpt lat="45.70819274339615" lon="8.588270448421254"><ele>233.0</ele><time>2026-04-17T13:20:12.978Z</time></trkpt><trkpt lat="45.708358758417155" lon="8.588421538095092"><ele>231.0</ele><time>2026-04-17T13:20:13.978Z</time></trkpt><trkpt lat="45.70852781785593" lon="8.588568633012638"><ele>229.0</ele><time>2026-04-17T13:20:14.978Z</time></trkpt><trkpt lat="45.70868826853044" lon="8.588709240011507"><ele>227.0</ele><time>2026-04-17T13:20:15.978Z</time></trkpt><trkpt lat="45.70884184933623" lon="8.588847359103891"><ele>225.0</ele><time>2026-04-17T13:20:16.978Z</time></trkpt><trkpt lat="45.7089877082106" lon="8.588980991850587"><ele>225.0</ele><time>2026-04-17T13:20:17.978Z</time></trkpt><trkpt lat="45.709125735984735" lon="8.589107890754587"><ele>225.0</ele><time>2026-04-17T13:20:18.978Z</time></trkpt><trkpt lat="45.70925994343889" lon="8.589223272518579"><ele>225.0</ele><time>2026-04-17T13:20:19.978Z</time></trkpt><trkpt lat="45.709390019484246" lon="8.58933738899275"><ele>224.0</ele><time>2026-04-17T13:20:20.978Z</time></trkpt><trkpt lat="45.70952206307467" lon="8.58944930623188"><ele>223.0</ele><time>2026-04-17T13:20:21.978Z</time></trkpt><trkpt lat="45.709653239343695" lon="8.58956091671929"><ele>222.0</ele><time>2026-04-17T13:20:22.978Z</time></trkpt><trkpt lat="45.70979094571139" lon="8.589665634847718"><ele>220.66666666666669</ele><time>2026-04-17T13:20:23.978Z</time></trkpt><trkpt lat="45.70993087693495" lon="8.589780185657853"><ele>219.33333333333334</ele><time>2026-04-17T13:20:24.978Z</time></trkpt><trkpt lat="45.7100722661488" lon="8.589900424673608"><ele>218.0</ele><time>2026-04-17T13:20:25.978Z</time></trkpt><trkpt lat="45.710207971493986" lon="8.590010794328737"><ele>218.25</ele><time>2026-04-17T13:20:26.978Z</time></trkpt><trkpt lat="45.71033831434876" lon="8.590115869381084"><ele>218.5</ele><time>2026-04-17T13:20:27.978Z</time></trkpt><trkpt lat="45.71046310980372" lon="8.590217232516249"><ele>218.75</ele><time>2026-04-17T13:20:28.978Z</time></trkpt><trkpt lat="45.71058235637728" lon="8.590311843497293"><ele>219.0</ele><time>2026-04-17T13:20:29.978Z</time></trkpt><trkpt lat="45.71070377391587" lon="8.590401230250093"><ele>219.0</ele><time>2026-04-17T13:20:30.978Z</time></trkpt><trkpt lat="45.71083458901197" lon="8.590477424109956"><ele>219.0</ele><time>2026-04-17T13:20:31.978Z</time></trkpt><trkpt lat="45.71096869318314" lon="8.590540403724766"><ele>219.0</ele><time>2026-04-17T13:20:32.978Z</time></trkpt><trkpt lat="45.71109405545665" lon="8.590598298259769"><ele>219.0</ele><time>2026-04-17T13:20:33.978Z</time></trkpt><trkpt lat="45.71121776394787" lon="8.590650750749335"><ele>218.75</ele><time>2026-04-17T13:20:34.978Z</time></trkpt><trkpt lat="45.71134198444536" lon="8.590705771385734"><ele>218.5</ele><time>2026-04-17T13:20:35.978Z</time></trkpt><trkpt lat="45.711461410586836" lon="8.590758032501698"><ele>218.25</ele><time>2026-04-17T13:20:36.978Z</time></trkpt><trkpt lat="45.71157914896008" lon="8.590803402672101"><ele>218.0</ele><time>2026-04-17T13:20:37.978Z</time></trkpt><trkpt lat="45.71170043233834" lon="8.590850802226363"><ele>218.0</ele><time>2026-04-17T13:20:38.978Z</time></trkpt><trkpt lat="45.71182440216341" lon="8.590904111231056"><ele>218.0</ele><time>2026-04-17T13:20:39.978Z</time></trkpt><trkpt lat="45.711949782553866" lon="8.590957508439496"><ele>218.0</ele><time>2026-04-17T13:20:40.978Z</time></trkpt><trkpt lat="45.712070191715384" lon="8.59100265167312"><ele>218.0</ele><time>2026-04-17T13:20:41.978Z</time></trkpt><trkpt lat="45.71218826346287" lon="8.591049392766347"><ele>216.75</ele><time>2026-04-17T13:20:42.978Z</time></trkpt><trkpt lat="45.71230978215458" lon="8.591099015483419"><ele>215.5</ele><time>2026-04-17T13:20:43.978Z</time></trkpt><trkpt lat="45.71243379040963" lon="8.591152716862853"><ele>214.25</ele><time>2026-04-17T13:20:44.978Z</time></trkpt><trkpt lat="45.71256325188573" lon="8.59120798057501"><ele>213.0</ele><time>2026-04-17T13:20:45.978Z</time></trkpt><trkpt lat="45.71269451220805" lon="8.591266482347306"><ele>212.25</ele><time>2026-04-17T13:20:46.978Z</time></trkpt><trkpt lat="45.71282902927309" lon="8.591324991056274"><ele>211.5</ele><time>2026-04-17T13:20:47.978Z</time></trkpt><trkpt lat="45.71296765286219" lon="8.591382570766184"><ele>210.75</ele><time>2026-04-17T13:20:48.978Z</time></trkpt><trkpt lat="45.7131110355132" lon="8.591440961683258"><ele>210.0</ele><time>2026-04-17T13:20:49.978Z</time></trkpt><trkpt lat="45.71325398291169" lon="8.591499515122315"><ele>210.0</ele><time>2026-04-17T13:20:50.978Z</time></trkpt><trkpt lat="45.71340125802766" lon="8.591555661906968"><ele>210.0</ele><time>2026-04-17T13:20:51.978Z</time></trkpt><trkpt lat="45.713551900082805" lon="8.591614255994891"><ele>210.0</ele><time>2026-04-17T13:20:52.978Z</time></trkpt><trkpt lat="45.71370301918482" lon="8.591674858511118"><ele>210.33333333333331</ele><time>2026-04-17T13:20:53.978Z</time></trkpt><trkpt lat="45.71385002712729" lon="8.591739190268342"><ele>210.66666666666666</ele><time>2026-04-17T13:20:54.978Z</time></trkpt><trkpt lat="45.713999748385234" lon="8.591793890678307"><ele>211.0</ele><time>2026-04-17T13:20:55.978Z</time></trkpt><trkpt lat="45.71414639943568" lon="8.591844008383637"><ele>211.0</ele><time>2026-04-17T13:20:56.978Z</time></trkpt><trkpt lat="45.71429236448382" lon="8.591885066994376"><ele>211.0</ele><time>2026-04-17T13:20:57.978Z</time></trkpt><trkpt lat="45.714439812277355" lon="8.591917482014859"><ele>211.0</ele><time>2026-04-17T13:20:58.978Z</time></trkpt><trkpt lat="45.714584770151475" lon="8.591943897729495"><ele>211.0</ele><time>2026-04-17T13:20:59.978Z</time></trkpt><trkpt lat="45.71472708792316" lon="8.591960376017383"><ele>211.0</ele><time>2026-04-17T13:21:00.978Z</time></trkpt><trkpt lat="45.714867620156625" lon="8.5919682003379"><ele>211.0</ele><time>2026-04-17T13:21:01.979Z</time></trkpt><trkpt lat="45.715006106762274" lon="8.591961828237753"><ele>211.0</ele><time>2026-04-17T13:21:02.979Z</time></trkpt><trkpt lat="45.71514775303113" lon="8.591940019780337"><ele>211.0</ele><time>2026-04-17T13:21:03.979Z</time></trkpt><trkpt lat="45.7152915400113" lon="8.591910709650595"><ele>210.5</ele><time>2026-04-17T13:21:04.979Z</time></trkpt><trkpt lat="45.71543476501565" lon="8.591874457233047"><ele>210.0</ele><time>2026-04-17T13:21:05.979Z</time></trkpt><trkpt lat="45.71557760232225" lon="8.59183482272011"><ele>209.5</ele><time>2026-04-17T13:21:06.979Z</time></trkpt><trkpt lat="45.71571662898599" lon="8.591796185317268"><ele>209.0</ele><time>2026-04-17T13:21:07.979Z</time></trkpt><trkpt lat="45.715854276499954" lon="8.591765754657818"><ele>209.0</ele><time>2026-04-17T13:21:08.979Z</time></trkpt><trkpt lat="45.71599136098776" lon="8.591735368967614"><ele>209.0</ele><time>2026-04-17T13:21:09.979Z</time></trkpt><trkpt lat="45.71613133007196" lon="8.591703335997657"><ele>209.0</ele><time>2026-04-17T13:21:10.979Z</time></trkpt><trkpt lat="45.71627405031594" lon="8.591669561375518"><ele>209.0</ele><time>2026-04-17T13:21:11.979Z</time></trkpt><trkpt lat="45.71641766677883" lon="8.59163622054831"><ele>208.75</ele><time>2026-04-17T13:21:12.979Z</time></trkpt><trkpt lat="45.71656022043702" lon="8.591603125124028"><ele>208.5</ele><time>2026-04-17T13:21:13.979Z</time></trkpt><trkpt lat="45.71670335795" lon="8.591571718532922"><ele>208.25</ele><time>2026-04-17T13:21:14.979Z</time></trkpt><trkpt lat="45.71684572243542" lon="8.591539261792178"><ele>208.0</ele><time>2026-04-17T13:21:15.979Z</time></trkpt><trkpt lat="45.716988008297264" lon="8.591503926509588"><ele>208.75</ele><time>2026-04-17T13:21:16.979Z</time></trkpt><trkpt lat="45.71713108828497" lon="8.591469249685083"><ele>209.5</ele><time>2026-04-17T13:21:17.979Z</time></trkpt><trkpt lat="45.71727052858483" lon="8.591435895010825"><ele>210.25</ele><time>2026-04-17T13:21:18.979Z</time></trkpt><trkpt lat="45.7174070268125" lon="8.591400827174999"><ele>211.0</ele><time>2026-04-17T13:21:19.979Z</time></trkpt><trkpt lat="45.717541775838704" lon="8.59136041177231"><ele>211.0</ele><time>2026-04-17T13:21:20.979Z</time></trkpt><trkpt lat="45.71767672287569" lon="8.591321610054845"><ele>211.0</ele><time>2026-04-17T13:21:21.979Z</time></trkpt><trkpt lat="45.717811397979" lon="8.59128847287578"><ele>211.0</ele><time>2026-04-17T13:21:22.979Z</time></trkpt><trkpt lat="45.71794286637465" lon="8.591257381284107"><ele>211.0</ele><time>2026-04-17T13:21:23.979Z</time></trkpt><trkpt lat="45.71807289195246" lon="8.591223030297906"><ele>210.5</ele><time>2026-04-17T13:21:24.979Z</time></trkpt><trkpt lat="45.718200810555494" lon="8.5911956970307"><ele>210.0</ele><time>2026-04-17T13:21:25.979Z</time></trkpt><trkpt lat="45.718319669680696" lon="8.591164646332663"><ele>209.5</ele><time>2026-04-17T13:21:26.979Z</time></trkpt><trkpt lat="45.71843550955805" lon="8.591139649482725"><ele>209.0</ele><time>2026-04-17T13:21:27.979Z</time></trkpt><trkpt lat="45.71854687131447" lon="8.591117814182738"><ele>208.2</ele><time>2026-04-17T13:21:28.979Z</time></trkpt><trkpt lat="45.71865322772411" lon="8.591097184432735"><ele>207.39999999999998</ele><time>2026-04-17T13:21:29.979Z</time></trkpt><trkpt lat="45.718753424516876" lon="8.5910829365193"><ele>206.6</ele><time>2026-04-17T13:21:30.979Z</time></trkpt><trkpt lat="45.718848389645515" lon="8.591073389688471"><ele>205.8</ele><time>2026-04-17T13:21:31.979Z</time></trkpt><trkpt lat="45.7189351835894" lon="8.59106028419237"><ele>205.0</ele><time>2026-04-17T13:21:32.979Z</time></trkpt><trkpt lat="45.71902007563994" lon="8.59105065452795"><ele>204.99999999999997</ele><time>2026-04-17T13:21:33.979Z</time></trkpt><trkpt lat="45.71909752085922" lon="8.5910521858532"><ele>205.0</ele><time>2026-04-17T13:21:34.979Z</time></trkpt><trkpt lat="45.71916777496441" lon="8.591061314050906"><ele>205.0</ele><time>2026-04-17T13:21:35.979Z</time></trkpt><trkpt lat="45.71928353062501" lon="8.591091200852642"><ele>205.0</ele><time>2026-04-17T13:21:37.979Z</time></trkpt><trkpt lat="45.71934841321923" lon="8.591123324266867"><ele>204.99999999999997</ele><time>2026-04-17T13:21:39.979Z</time></trkpt><trkpt lat="45.71940555084094" lon="8.591177971562301"><ele>205.0</ele><time>2026-04-17T13:21:42.979Z</time></trkpt><trkpt lat="45.719483768698105" lon="8.591267699227616"><ele>205.16666666666666</ele><time>2026-04-17T13:21:44.979Z</time></trkpt><trkpt lat="45.71956227045889" lon="8.591390111304063"><ele>205.33333333333331</ele><time>2026-04-17T13:21:46.979Z</time></trkpt><trkpt lat="45.71959491310912" lon="8.591486517355461"><ele>205.5</ele><time>2026-04-17T13:21:47.979Z</time></trkpt><trkpt lat="45.71962304524762" lon="8.591586822130362"><ele>205.66666666666669</ele><time>2026-04-17T13:21:48.979Z</time></trkpt><trkpt lat="45.71964034882836" lon="8.59169697541272"><ele>205.83333333333334</ele><time>2026-04-17T13:21:49.979Z</time></trkpt><trkpt lat="45.71965360968538" lon="8.591817062842239"><ele>206.0</ele><time>2026-04-17T13:21:50.979Z</time></trkpt><trkpt lat="45.71966071903097" lon="8.591942233030073"><ele>206.16666666666669</ele><time>2026-04-17T13:21:51.979Z</time></trkpt><trkpt lat="45.71966509334607" lon="8.592068241461487"><ele>206.33333333333334</ele><time>2026-04-17T13:21:52.979Z</time></trkpt><trkpt lat="45.71966649746518" lon="8.592187584219253"><ele>206.5</ele><time>2026-04-17T13:21:53.979Z</time></trkpt><trkpt lat="45.71966273323755" lon="8.592307950303162"><ele>206.66666666666669</ele><time>2026-04-17T13:21:54.979Z</time></trkpt><trkpt lat="45.71965944379893" lon="8.592434037682965"><ele>206.83333333333334</ele><time>2026-04-17T13:21:55.98Z</time></trkpt><trkpt lat="45.71965332268872" lon="8.592563487623904"><ele>207.0</ele><time>2026-04-17T13:21:56.98Z</time></trkpt><trkpt lat="45.719643514826366" lon="8.592686117727048"><ele>207.0</ele><time>2026-04-17T13:21:57.978Z</time></trkpt><trkpt lat="45.71963313398136" lon="8.592816162308855"><ele>207.0</ele><time>2026-04-17T13:21:58.977Z</time></trkpt><trkpt lat="45.71962304318113" lon="8.592950883851255"><ele>207.0</ele><time>2026-04-17T13:21:59.977Z</time></trkpt><trkpt lat="45.7196140902513" lon="8.593092207824139"><ele>207.0</ele><time>2026-04-17T13:22:00.977Z</time></trkpt><trkpt lat="45.71960345516563" lon="8.593238901979806"><ele>207.0</ele><time>2026-04-17T13:22:01.978Z</time></trkpt><trkpt lat="45.71959309403709" lon="8.593385782507342"><ele>206.6</ele><time>2026-04-17T13:22:02.978Z</time></trkpt><trkpt lat="45.719582530645646" lon="8.593528587680137"><ele>206.2</ele><time>2026-04-17T13:22:03.977Z</time></trkpt><trkpt lat="45.71957177706267" lon="8.59367073694633"><ele>205.8</ele><time>2026-04-17T13:22:04.977Z</time></trkpt><trkpt lat="45.7195610205694" lon="8.593808162971767"><ele>205.4</ele><time>2026-04-17T13:22:05.977Z</time></trkpt><trkpt lat="45.71955011087075" lon="8.593944604604523"><ele>205.0</ele><time>2026-04-17T13:22:06.978Z</time></trkpt><trkpt lat="45.71953933409248" lon="8.594083779409015"><ele>205.0</ele><time>2026-04-17T13:22:07.977Z</time></trkpt><trkpt lat="45.71952721782115" lon="8.594228335384319"><ele>205.0</ele><time>2026-04-17T13:22:08.977Z</time></trkpt><trkpt lat="45.719517490473635" lon="8.594372410942492"><ele>205.0</ele><time>2026-04-17T13:22:09.977Z</time></trkpt><trkpt lat="45.71950671496852" lon="8.594521071616338"><ele>205.0</ele><time>2026-04-17T13:22:10.977Z</time></trkpt><trkpt lat="45.71949542866764" lon="8.59467145793751"><ele>205.0</ele><time>2026-04-17T13:22:11.977Z</time></trkpt><trkpt lat="45.71948671865457" lon="8.594822856785312"><ele>205.0</ele><time>2026-04-17T13:22:12.977Z</time></trkpt><trkpt lat="45.71947789985945" lon="8.594970945244196"><ele>205.0</ele><time>2026-04-17T13:22:13.977Z</time></trkpt><trkpt lat="45.71946944683285" lon="8.595115897317662"><ele>205.0</ele><time>2026-04-17T13:22:14.977Z</time></trkpt><trkpt lat="45.719460487659994" lon="8.595259826314468"><ele>205.0</ele><time>2026-04-17T13:22:15.977Z</time></trkpt><trkpt lat="45.71945098233475" lon="8.595402450705016"><ele>205.0</ele><time>2026-04-17T13:22:16.977Z</time></trkpt><trkpt lat="45.71944024874355" lon="8.595544296714994"><ele>205.0</ele><time>2026-04-17T13:22:17.977Z</time></trkpt><trkpt lat="45.719431140063726" lon="8.595689226917042"><ele>205.0</ele><time>2026-04-17T13:22:18.977Z</time></trkpt><trkpt lat="45.71942241343749" lon="8.595837684198852"><ele>205.0</ele><time>2026-04-17T13:22:19.977Z</time></trkpt><trkpt lat="45.719414037548326" lon="8.59598733646986"><ele>205.0</ele><time>2026-04-17T13:22:20.977Z</time></trkpt><trkpt lat="45.71940627017165" lon="8.59613794205399"><ele>205.0</ele><time>2026-04-17T13:22:21.977Z</time></trkpt><trkpt lat="45.719397385772865" lon="8.59628398816819"><ele>204.66666666666666</ele><time>2026-04-17T13:22:22.977Z</time></trkpt><trkpt lat="45.71938829414373" lon="8.59642240609987"><ele>204.33333333333331</ele><time>2026-04-17T13:22:23.977Z</time></trkpt><trkpt lat="45.719377838880675" lon="8.59654809574222"><ele>204.0</ele><time>2026-04-17T13:22:24.977Z</time></trkpt><trkpt lat="45.71936634388428" lon="8.596655192082602"><ele>203.66666666666669</ele><time>2026-04-17T13:22:25.977Z</time></trkpt><trkpt lat="45.71936238953991" lon="8.596758242485626"><ele>203.33333333333334</ele><time>2026-04-17T13:22:26.977Z</time></trkpt><trkpt lat="45.71935106245785" lon="8.596864338367169"><ele>203.0</ele><time>2026-04-17T13:22:27.977Z</time></trkpt><trkpt lat="45.71933862096297" lon="8.596972551932051"><ele>203.00000000000003</ele><time>2026-04-17T13:22:28.977Z</time></trkpt><trkpt lat="45.71932836910293" lon="8.597066391565255"><ele>203.0</ele><time>2026-04-17T13:22:29.977Z</time></trkpt><trkpt lat="45.71930782335605" lon="8.597211520356568"><ele>203.0</ele><time>2026-04-17T13:22:31.977Z</time></trkpt><trkpt lat="45.719246238311115" lon="8.59725393707198"><ele>203.0</ele><time>2026-04-17T13:22:33.977Z</time></trkpt><trkpt lat="45.719178216094114" lon="8.597194852968716"><ele>203.00000000000003</ele><time>2026-04-17T13:22:36.977Z</time></trkpt><trkpt lat="45.719168383250775" lon="8.59709900228061"><ele>203.0</ele><time>2026-04-17T13:22:38.978Z</time></trkpt><trkpt lat="45.71915626503703" lon="8.596988168680838"><ele>203.0</ele><time>2026-04-17T13:22:40.978Z</time></trkpt><trkpt lat="45.719125704728995" lon="8.596895381364657"><ele>203.0</ele><time>2026-04-17T13:22:42.978Z</time></trkpt><trkpt lat="45.71904865541834" lon="8.596849933660017"><ele>203.0</ele><time>2026-04-17T13:22:45.978Z</time></trkpt><trkpt lat="45.718987757999116" lon="8.596901000901038"><ele>203.0</ele><time>2026-04-17T13:22:47.978Z</time></trkpt><trkpt lat="45.71893310296626" lon="8.596979453502126"><ele>203.0</ele><time>2026-04-17T13:22:49.978Z</time></trkpt><trkpt lat="45.718866395979724" lon="8.597019135146358"><ele>203.0</ele><time>2026-04-17T13:22:51.978Z</time></trkpt><trkpt lat="45.71880132113899" lon="8.59701760772223"><ele>203.0</ele><time>2026-04-17T13:22:53.978Z</time></trkpt><trkpt lat="45.71873417211867" lon="8.59701934600135"><ele>203.0</ele><time>2026-04-17T13:24:30.977Z</time></trkpt><trkpt lat="45.71888714157977" lon="8.597019384484481"><ele>203.0</ele><time>2026-04-17T13:25:46.978Z</time></trkpt><trkpt lat="45.71895432970977" lon="8.596986195291032"><ele>203.0</ele><time>2026-04-17T13:25:58.978Z</time></trkpt><trkpt lat="45.71902514461655" lon="8.59698516326812"><ele>203.0</ele><time>2026-04-17T13:25:59.978Z</time></trkpt><trkpt lat="45.71891716239385" lon="8.596980076182817"><ele>203.0</ele><time>2026-04-17T13:26:05.978Z</time></trkpt><trkpt lat="45.71885023608874" lon="8.596968117526616"><ele>203.0</ele><time>2026-04-17T13:26:06.978Z</time></trkpt><trkpt lat="45.71877623812313" lon="8.596978870096533"><ele>203.0</ele><time>2026-04-17T13:27:40.978Z</time></trkpt><trkpt lat="45.71873864196553" lon="8.596882171965937"><ele>203.0</ele><time>2026-04-17T13:30:33.977Z</time></trkpt></trkseg></trk></gpx>